<?xml version="1.0" encoding="UTF-8" standalone="no" ?>
<gpx xmlns="http://www.topografix.com/GPX/1/1" xmlns:xsi="http://www.w3.org/2001/XMLSchema-instance" xsi:schemaLocation="http://www.topografix.com/GPX/1/1 http://www.topografix.com/GPX/1/1/gpx.xsd" version="1.1" creator="VisuGPX - https://www.visugpx.com">
  <metadata>
    <name>T-14-09-12-grignan</name>
    <desc><![CDATA[VTT à Grignan]]></desc>
  </metadata>
  <trk>
    <name><![CDATA[T-14-09-12-Grignan]]></name>
    <trkseg>
      <trkpt lat="44.41177" lon="4.89084">
        <ele>191.64</ele>
        <time>2014-09-12T06:30:57Z</time>
      </trkpt>
      <trkpt lat="44.41176" lon="4.89084">
        <ele>191.64</ele>
        <time>2014-09-12T06:30:59Z</time>
      </trkpt>
      <trkpt lat="44.41181" lon="4.8908">
        <ele>191.64</ele>
        <time>2014-09-12T06:31:30Z</time>
      </trkpt>
      <trkpt lat="44.4118" lon="4.89092">
        <ele>191.64</ele>
        <time>2014-09-12T06:31:37Z</time>
      </trkpt>
      <trkpt lat="44.41178" lon="4.89099">
        <ele>191.64</ele>
        <time>2014-09-12T06:31:40Z</time>
      </trkpt>
      <trkpt lat="44.41177" lon="4.89102">
        <ele>191.64</ele>
        <time>2014-09-12T06:31:41Z</time>
      </trkpt>
      <trkpt lat="44.41176" lon="4.89104">
        <ele>191.64</ele>
        <time>2014-09-12T06:31:42Z</time>
      </trkpt>
      <trkpt lat="44.4117" lon="4.8912">
        <ele>191.64</ele>
        <time>2014-09-12T06:31:48Z</time>
      </trkpt>
      <trkpt lat="44.41169" lon="4.89126">
        <ele>191.64</ele>
        <time>2014-09-12T06:31:50Z</time>
      </trkpt>
      <trkpt lat="44.41168" lon="4.89129">
        <ele>191.64</ele>
        <time>2014-09-12T06:31:51Z</time>
      </trkpt>
      <trkpt lat="44.41168" lon="4.89132">
        <ele>191.64</ele>
        <time>2014-09-12T06:31:52Z</time>
      </trkpt>
      <trkpt lat="44.41166" lon="4.89136">
        <ele>191.64</ele>
        <time>2014-09-12T06:31:53Z</time>
      </trkpt>
      <trkpt lat="44.41165" lon="4.89139">
        <ele>191.64</ele>
        <time>2014-09-12T06:31:54Z</time>
      </trkpt>
      <trkpt lat="44.41158" lon="4.8917">
        <ele>191.64</ele>
        <time>2014-09-12T06:32:03Z</time>
      </trkpt>
      <trkpt lat="44.41158" lon="4.89178">
        <ele>191.64</ele>
        <time>2014-09-12T06:32:05Z</time>
      </trkpt>
      <trkpt lat="44.41162" lon="4.89241">
        <ele>191.64</ele>
        <time>2014-09-12T06:32:19Z</time>
      </trkpt>
      <trkpt lat="44.41162" lon="4.89245">
        <ele>191.64</ele>
        <time>2014-09-12T06:32:20Z</time>
      </trkpt>
      <trkpt lat="44.41162" lon="4.89249">
        <ele>191.64</ele>
        <time>2014-09-12T06:32:21Z</time>
      </trkpt>
      <trkpt lat="44.41163" lon="4.89252">
        <ele>191.64</ele>
        <time>2014-09-12T06:32:22Z</time>
      </trkpt>
      <trkpt lat="44.41163" lon="4.89261">
        <ele>191.64</ele>
        <time>2014-09-12T06:32:24Z</time>
      </trkpt>
      <trkpt lat="44.41163" lon="4.89266">
        <ele>191.64</ele>
        <time>2014-09-12T06:32:25Z</time>
      </trkpt>
      <trkpt lat="44.41163" lon="4.8927">
        <ele>191.64</ele>
        <time>2014-09-12T06:32:26Z</time>
      </trkpt>
      <trkpt lat="44.41162" lon="4.89275">
        <ele>191.64</ele>
        <time>2014-09-12T06:32:27Z</time>
      </trkpt>
      <trkpt lat="44.41162" lon="4.89279">
        <ele>191.64</ele>
        <time>2014-09-12T06:32:28Z</time>
      </trkpt>
      <trkpt lat="44.41162" lon="4.89284">
        <ele>191.64</ele>
        <time>2014-09-12T06:32:29Z</time>
      </trkpt>
      <trkpt lat="44.41163" lon="4.89294">
        <ele>191.64</ele>
        <time>2014-09-12T06:32:31Z</time>
      </trkpt>
      <trkpt lat="44.41163" lon="4.89298">
        <ele>191.64</ele>
        <time>2014-09-12T06:32:32Z</time>
      </trkpt>
      <trkpt lat="44.41164" lon="4.89303">
        <ele>191.64</ele>
        <time>2014-09-12T06:32:33Z</time>
      </trkpt>
      <trkpt lat="44.41164" lon="4.89307">
        <ele>191.64</ele>
        <time>2014-09-12T06:32:34Z</time>
      </trkpt>
      <trkpt lat="44.41167" lon="4.89359">
        <ele>191.64</ele>
        <time>2014-09-12T06:32:44Z</time>
      </trkpt>
      <trkpt lat="44.41168" lon="4.89364">
        <ele>191.64</ele>
        <time>2014-09-12T06:32:45Z</time>
      </trkpt>
      <trkpt lat="44.41168" lon="4.89369">
        <ele>191.64</ele>
        <time>2014-09-12T06:32:46Z</time>
      </trkpt>
      <trkpt lat="44.41168" lon="4.89374">
        <ele>191.64</ele>
        <time>2014-09-12T06:32:47Z</time>
      </trkpt>
      <trkpt lat="44.41168" lon="4.8938">
        <ele>191.64</ele>
        <time>2014-09-12T06:32:48Z</time>
      </trkpt>
      <trkpt lat="44.41171" lon="4.89413">
        <ele>191.64</ele>
        <time>2014-09-12T06:32:54Z</time>
      </trkpt>
      <trkpt lat="44.41172" lon="4.89418">
        <ele>191.64</ele>
        <time>2014-09-12T06:32:55Z</time>
      </trkpt>
      <trkpt lat="44.41172" lon="4.89424">
        <ele>191.64</ele>
        <time>2014-09-12T06:32:56Z</time>
      </trkpt>
      <trkpt lat="44.41174" lon="4.89435">
        <ele>191.64</ele>
        <time>2014-09-12T06:32:58Z</time>
      </trkpt>
      <trkpt lat="44.41175" lon="4.8944">
        <ele>191.64</ele>
        <time>2014-09-12T06:32:59Z</time>
      </trkpt>
      <trkpt lat="44.41176" lon="4.89445">
        <ele>191.64</ele>
        <time>2014-09-12T06:33:00Z</time>
      </trkpt>
      <trkpt lat="44.41177" lon="4.8945">
        <ele>191.64</ele>
        <time>2014-09-12T06:33:01Z</time>
      </trkpt>
      <trkpt lat="44.41178" lon="4.89454">
        <ele>191.64</ele>
        <time>2014-09-12T06:33:02Z</time>
      </trkpt>
      <trkpt lat="44.41178" lon="4.89459">
        <ele>191.64</ele>
        <time>2014-09-12T06:33:03Z</time>
      </trkpt>
      <trkpt lat="44.4118" lon="4.89469">
        <ele>191.64</ele>
        <time>2014-09-12T06:33:05Z</time>
      </trkpt>
      <trkpt lat="44.41181" lon="4.89473">
        <ele>191.64</ele>
        <time>2014-09-12T06:33:06Z</time>
      </trkpt>
      <trkpt lat="44.41183" lon="4.89499">
        <ele>191.64</ele>
        <time>2014-09-12T06:33:11Z</time>
      </trkpt>
      <trkpt lat="44.41183" lon="4.89505">
        <ele>191.64</ele>
        <time>2014-09-12T06:33:12Z</time>
      </trkpt>
      <trkpt lat="44.41182" lon="4.8951">
        <ele>191.64</ele>
        <time>2014-09-12T06:33:13Z</time>
      </trkpt>
      <trkpt lat="44.41181" lon="4.89514">
        <ele>191.64</ele>
        <time>2014-09-12T06:33:14Z</time>
      </trkpt>
      <trkpt lat="44.41179" lon="4.89518">
        <ele>191.64</ele>
        <time>2014-09-12T06:33:15Z</time>
      </trkpt>
      <trkpt lat="44.41178" lon="4.89521">
        <ele>191.64</ele>
        <time>2014-09-12T06:33:16Z</time>
      </trkpt>
      <trkpt lat="44.41175" lon="4.89523">
        <ele>191.64</ele>
        <time>2014-09-12T06:33:17Z</time>
      </trkpt>
      <trkpt lat="44.41173" lon="4.89523">
        <ele>191.64</ele>
        <time>2014-09-12T06:33:18Z</time>
      </trkpt>
      <trkpt lat="44.4117" lon="4.89522">
        <ele>191.64</ele>
        <time>2014-09-12T06:33:19Z</time>
      </trkpt>
      <trkpt lat="44.41134" lon="4.89513">
        <ele>191.64</ele>
        <time>2014-09-12T06:33:29Z</time>
      </trkpt>
      <trkpt lat="44.4113" lon="4.89513">
        <ele>191.64</ele>
        <time>2014-09-12T06:33:30Z</time>
      </trkpt>
      <trkpt lat="44.41126" lon="4.89513">
        <ele>191.64</ele>
        <time>2014-09-12T06:33:31Z</time>
      </trkpt>
      <trkpt lat="44.41122" lon="4.89513">
        <ele>191.64</ele>
        <time>2014-09-12T06:33:32Z</time>
      </trkpt>
      <trkpt lat="44.41118" lon="4.89513">
        <ele>191.64</ele>
        <time>2014-09-12T06:33:33Z</time>
      </trkpt>
      <trkpt lat="44.41113" lon="4.89512">
        <ele>191.64</ele>
        <time>2014-09-12T06:33:34Z</time>
      </trkpt>
      <trkpt lat="44.41109" lon="4.89512">
        <ele>191.64</ele>
        <time>2014-09-12T06:33:35Z</time>
      </trkpt>
      <trkpt lat="44.41105" lon="4.89512">
        <ele>191.64</ele>
        <time>2014-09-12T06:33:36Z</time>
      </trkpt>
      <trkpt lat="44.41078" lon="4.89509">
        <ele>191.64</ele>
        <time>2014-09-12T06:33:42Z</time>
      </trkpt>
      <trkpt lat="44.41015" lon="4.89482">
        <ele>191.64</ele>
        <time>2014-09-12T06:33:56Z</time>
      </trkpt>
      <trkpt lat="44.41007" lon="4.89476">
        <ele>191.64</ele>
        <time>2014-09-12T06:33:58Z</time>
      </trkpt>
      <trkpt lat="44.40938" lon="4.8945">
        <ele>191.64</ele>
        <time>2014-09-12T06:34:12Z</time>
      </trkpt>
      <trkpt lat="44.40868" lon="4.89435">
        <ele>191.64</ele>
        <time>2014-09-12T06:34:26Z</time>
      </trkpt>
      <trkpt lat="44.40829" lon="4.89426">
        <ele>191.64</ele>
        <time>2014-09-12T06:34:34Z</time>
      </trkpt>
      <trkpt lat="44.40816" lon="4.89421">
        <ele>191.64</ele>
        <time>2014-09-12T06:34:37Z</time>
      </trkpt>
      <trkpt lat="44.40743" lon="4.89372">
        <ele>191.64</ele>
        <time>2014-09-12T06:34:54Z</time>
      </trkpt>
      <trkpt lat="44.40726" lon="4.89358">
        <ele>191.64</ele>
        <time>2014-09-12T06:34:58Z</time>
      </trkpt>
      <trkpt lat="44.40672" lon="4.89297">
        <ele>191.64</ele>
        <time>2014-09-12T06:35:12Z</time>
      </trkpt>
      <trkpt lat="44.40634" lon="4.89268">
        <ele>191.64</ele>
        <time>2014-09-12T06:35:20Z</time>
      </trkpt>
      <trkpt lat="44.406" lon="4.89247">
        <ele>191.64</ele>
        <time>2014-09-12T06:35:27Z</time>
      </trkpt>
      <trkpt lat="44.40561" lon="4.89242">
        <ele>191.64</ele>
        <time>2014-09-12T06:35:36Z</time>
      </trkpt>
      <trkpt lat="44.40553" lon="4.89241">
        <ele>191.64</ele>
        <time>2014-09-12T06:35:50Z</time>
      </trkpt>
      <trkpt lat="44.40553" lon="4.89242">
        <ele>191.64</ele>
        <time>2014-09-12T06:35:51Z</time>
      </trkpt>
      <trkpt lat="44.40551" lon="4.89257">
        <ele>191.64</ele>
        <time>2014-09-12T06:35:57Z</time>
      </trkpt>
      <trkpt lat="44.40551" lon="4.8926">
        <ele>191.64</ele>
        <time>2014-09-12T06:35:58Z</time>
      </trkpt>
      <trkpt lat="44.4055" lon="4.89264">
        <ele>191.64</ele>
        <time>2014-09-12T06:35:59Z</time>
      </trkpt>
      <trkpt lat="44.4055" lon="4.89273">
        <ele>191.64</ele>
        <time>2014-09-12T06:36:01Z</time>
      </trkpt>
      <trkpt lat="44.40549" lon="4.89277">
        <ele>191.64</ele>
        <time>2014-09-12T06:36:02Z</time>
      </trkpt>
      <trkpt lat="44.40549" lon="4.89281">
        <ele>191.64</ele>
        <time>2014-09-12T06:36:03Z</time>
      </trkpt>
      <trkpt lat="44.40549" lon="4.89285">
        <ele>191.64</ele>
        <time>2014-09-12T06:36:04Z</time>
      </trkpt>
      <trkpt lat="44.40549" lon="4.89289">
        <ele>191.64</ele>
        <time>2014-09-12T06:36:05Z</time>
      </trkpt>
      <trkpt lat="44.40548" lon="4.89292">
        <ele>191.64</ele>
        <time>2014-09-12T06:36:06Z</time>
      </trkpt>
      <trkpt lat="44.40547" lon="4.89296">
        <ele>191.64</ele>
        <time>2014-09-12T06:36:07Z</time>
      </trkpt>
      <trkpt lat="44.40547" lon="4.893">
        <ele>191.64</ele>
        <time>2014-09-12T06:36:08Z</time>
      </trkpt>
      <trkpt lat="44.40546" lon="4.89304">
        <ele>191.64</ele>
        <time>2014-09-12T06:36:09Z</time>
      </trkpt>
      <trkpt lat="44.40546" lon="4.89308">
        <ele>191.64</ele>
        <time>2014-09-12T06:36:10Z</time>
      </trkpt>
      <trkpt lat="44.40545" lon="4.89311">
        <ele>191.64</ele>
        <time>2014-09-12T06:36:11Z</time>
      </trkpt>
      <trkpt lat="44.40543" lon="4.89314">
        <ele>191.64</ele>
        <time>2014-09-12T06:36:12Z</time>
      </trkpt>
      <trkpt lat="44.40541" lon="4.89317">
        <ele>191.64</ele>
        <time>2014-09-12T06:36:13Z</time>
      </trkpt>
      <trkpt lat="44.40539" lon="4.89317">
        <ele>191.64</ele>
        <time>2014-09-12T06:36:14Z</time>
      </trkpt>
      <trkpt lat="44.40537" lon="4.89317">
        <ele>191.64</ele>
        <time>2014-09-12T06:36:15Z</time>
      </trkpt>
      <trkpt lat="44.40487" lon="4.89299">
        <ele>191.64</ele>
        <time>2014-09-12T06:36:27Z</time>
      </trkpt>
      <trkpt lat="44.40482" lon="4.89296">
        <ele>191.64</ele>
        <time>2014-09-12T06:36:28Z</time>
      </trkpt>
      <trkpt lat="44.40472" lon="4.8929">
        <ele>191.64</ele>
        <time>2014-09-12T06:36:30Z</time>
      </trkpt>
      <trkpt lat="44.40442" lon="4.89283">
        <ele>191.64</ele>
        <time>2014-09-12T06:36:36Z</time>
      </trkpt>
      <trkpt lat="44.40418" lon="4.89284">
        <ele>191.64</ele>
        <time>2014-09-12T06:36:41Z</time>
      </trkpt>
      <trkpt lat="44.40403" lon="4.89284">
        <ele>191.64</ele>
        <time>2014-09-12T06:36:44Z</time>
      </trkpt>
      <trkpt lat="44.40363" lon="4.89275">
        <ele>191.63</ele>
        <time>2014-09-12T06:36:52Z</time>
      </trkpt>
      <trkpt lat="44.40358" lon="4.89276">
        <ele>191.63</ele>
        <time>2014-09-12T06:36:53Z</time>
      </trkpt>
      <trkpt lat="44.40352" lon="4.89277">
        <ele>191.63</ele>
        <time>2014-09-12T06:36:54Z</time>
      </trkpt>
      <trkpt lat="44.40333" lon="4.89286">
        <ele>191.63</ele>
        <time>2014-09-12T06:36:58Z</time>
      </trkpt>
      <trkpt lat="44.40329" lon="4.89288">
        <ele>191.63</ele>
        <time>2014-09-12T06:36:59Z</time>
      </trkpt>
      <trkpt lat="44.40325" lon="4.89288">
        <ele>191.63</ele>
        <time>2014-09-12T06:37:00Z</time>
      </trkpt>
      <trkpt lat="44.4032" lon="4.89288">
        <ele>191.63</ele>
        <time>2014-09-12T06:37:01Z</time>
      </trkpt>
      <trkpt lat="44.40316" lon="4.89286">
        <ele>191.63</ele>
        <time>2014-09-12T06:37:02Z</time>
      </trkpt>
      <trkpt lat="44.40281" lon="4.89273">
        <ele>191.63</ele>
        <time>2014-09-12T06:37:09Z</time>
      </trkpt>
      <trkpt lat="44.40275" lon="4.89272">
        <ele>191.63</ele>
        <time>2014-09-12T06:37:10Z</time>
      </trkpt>
      <trkpt lat="44.40256" lon="4.89269">
        <ele>191.63</ele>
        <time>2014-09-12T06:37:13Z</time>
      </trkpt>
      <trkpt lat="44.4023" lon="4.89268">
        <ele>191.63</ele>
        <time>2014-09-12T06:37:17Z</time>
      </trkpt>
      <trkpt lat="44.4018" lon="4.89278">
        <ele>191.63</ele>
        <time>2014-09-12T06:37:26Z</time>
      </trkpt>
      <trkpt lat="44.40163" lon="4.89289">
        <ele>191.63</ele>
        <time>2014-09-12T06:37:30Z</time>
      </trkpt>
      <trkpt lat="44.4015" lon="4.893">
        <ele>191.63</ele>
        <time>2014-09-12T06:37:35Z</time>
      </trkpt>
      <trkpt lat="44.40148" lon="4.89303">
        <ele>191.63</ele>
        <time>2014-09-12T06:37:45Z</time>
      </trkpt>
      <trkpt lat="44.40154" lon="4.89298">
        <ele>191.63</ele>
        <time>2014-09-12T06:37:49Z</time>
      </trkpt>
      <trkpt lat="44.40162" lon="4.8929">
        <ele>191.63</ele>
        <time>2014-09-12T06:37:53Z</time>
      </trkpt>
      <trkpt lat="44.40148" lon="4.89264">
        <ele>191.63</ele>
        <time>2014-09-12T06:38:03Z</time>
      </trkpt>
      <trkpt lat="44.40137" lon="4.89251">
        <ele>191.63</ele>
        <time>2014-09-12T06:38:06Z</time>
      </trkpt>
      <trkpt lat="44.40124" lon="4.89229">
        <ele>191.63</ele>
        <time>2014-09-12T06:38:12Z</time>
      </trkpt>
      <trkpt lat="44.40125" lon="4.8917">
        <ele>191.63</ele>
        <time>2014-09-12T06:38:25Z</time>
      </trkpt>
      <trkpt lat="44.40127" lon="4.89135">
        <ele>191.63</ele>
        <time>2014-09-12T06:38:31Z</time>
      </trkpt>
      <trkpt lat="44.4013" lon="4.89068">
        <ele>191.63</ele>
        <time>2014-09-12T06:38:42Z</time>
      </trkpt>
      <trkpt lat="44.40108" lon="4.89043">
        <ele>191.63</ele>
        <time>2014-09-12T06:38:50Z</time>
      </trkpt>
      <trkpt lat="44.40083" lon="4.89011">
        <ele>191.63</ele>
        <time>2014-09-12T06:39:00Z</time>
      </trkpt>
      <trkpt lat="44.40081" lon="4.88994">
        <ele>191.63</ele>
        <time>2014-09-12T06:39:03Z</time>
      </trkpt>
      <trkpt lat="44.40079" lon="4.88972">
        <ele>191.63</ele>
        <time>2014-09-12T06:39:07Z</time>
      </trkpt>
      <trkpt lat="44.40077" lon="4.88943">
        <ele>191.63</ele>
        <time>2014-09-12T06:39:13Z</time>
      </trkpt>
      <trkpt lat="44.40059" lon="4.88917">
        <ele>191.63</ele>
        <time>2014-09-12T06:39:21Z</time>
      </trkpt>
      <trkpt lat="44.40042" lon="4.88902">
        <ele>191.63</ele>
        <time>2014-09-12T06:39:27Z</time>
      </trkpt>
      <trkpt lat="44.4004" lon="4.88899">
        <ele>191.63</ele>
        <time>2014-09-12T06:39:28Z</time>
      </trkpt>
      <trkpt lat="44.40038" lon="4.88896">
        <ele>191.63</ele>
        <time>2014-09-12T06:39:29Z</time>
      </trkpt>
      <trkpt lat="44.40036" lon="4.88893">
        <ele>191.63</ele>
        <time>2014-09-12T06:39:30Z</time>
      </trkpt>
      <trkpt lat="44.40035" lon="4.88889">
        <ele>191.63</ele>
        <time>2014-09-12T06:39:31Z</time>
      </trkpt>
      <trkpt lat="44.40034" lon="4.88886">
        <ele>191.63</ele>
        <time>2014-09-12T06:39:32Z</time>
      </trkpt>
      <trkpt lat="44.40033" lon="4.88883">
        <ele>191.63</ele>
        <time>2014-09-12T06:39:33Z</time>
      </trkpt>
      <trkpt lat="44.40032" lon="4.8888">
        <ele>191.63</ele>
        <time>2014-09-12T06:39:34Z</time>
      </trkpt>
      <trkpt lat="44.40032" lon="4.88877">
        <ele>191.63</ele>
        <time>2014-09-12T06:39:35Z</time>
      </trkpt>
      <trkpt lat="44.40031" lon="4.88874">
        <ele>191.63</ele>
        <time>2014-09-12T06:39:36Z</time>
      </trkpt>
      <trkpt lat="44.4003" lon="4.88871">
        <ele>191.63</ele>
        <time>2014-09-12T06:39:37Z</time>
      </trkpt>
      <trkpt lat="44.40029" lon="4.88868">
        <ele>191.63</ele>
        <time>2014-09-12T06:39:38Z</time>
      </trkpt>
      <trkpt lat="44.40028" lon="4.88864">
        <ele>191.63</ele>
        <time>2014-09-12T06:39:39Z</time>
      </trkpt>
      <trkpt lat="44.40027" lon="4.88861">
        <ele>191.63</ele>
        <time>2014-09-12T06:39:40Z</time>
      </trkpt>
      <trkpt lat="44.40026" lon="4.88857">
        <ele>191.63</ele>
        <time>2014-09-12T06:39:41Z</time>
      </trkpt>
      <trkpt lat="44.40025" lon="4.88854">
        <ele>191.63</ele>
        <time>2014-09-12T06:39:42Z</time>
      </trkpt>
      <trkpt lat="44.40024" lon="4.8885">
        <ele>191.63</ele>
        <time>2014-09-12T06:39:43Z</time>
      </trkpt>
      <trkpt lat="44.40023" lon="4.88846">
        <ele>191.63</ele>
        <time>2014-09-12T06:39:44Z</time>
      </trkpt>
      <trkpt lat="44.40021" lon="4.88839">
        <ele>191.63</ele>
        <time>2014-09-12T06:39:46Z</time>
      </trkpt>
      <trkpt lat="44.4002" lon="4.88835">
        <ele>191.63</ele>
        <time>2014-09-12T06:39:47Z</time>
      </trkpt>
      <trkpt lat="44.40018" lon="4.88832">
        <ele>191.63</ele>
        <time>2014-09-12T06:39:48Z</time>
      </trkpt>
      <trkpt lat="44.40016" lon="4.88822">
        <ele>191.63</ele>
        <time>2014-09-12T06:39:50Z</time>
      </trkpt>
      <trkpt lat="44.40016" lon="4.88818">
        <ele>191.63</ele>
        <time>2014-09-12T06:39:51Z</time>
      </trkpt>
      <trkpt lat="44.40014" lon="4.88812">
        <ele>191.63</ele>
        <time>2014-09-12T06:39:52Z</time>
      </trkpt>
      <trkpt lat="44.40013" lon="4.88807">
        <ele>191.63</ele>
        <time>2014-09-12T06:39:53Z</time>
      </trkpt>
      <trkpt lat="44.40012" lon="4.88802">
        <ele>191.63</ele>
        <time>2014-09-12T06:39:54Z</time>
      </trkpt>
      <trkpt lat="44.40011" lon="4.88797">
        <ele>191.63</ele>
        <time>2014-09-12T06:39:55Z</time>
      </trkpt>
      <trkpt lat="44.40008" lon="4.88793">
        <ele>191.63</ele>
        <time>2014-09-12T06:39:56Z</time>
      </trkpt>
      <trkpt lat="44.40006" lon="4.88789">
        <ele>191.63</ele>
        <time>2014-09-12T06:39:57Z</time>
      </trkpt>
      <trkpt lat="44.40003" lon="4.88786">
        <ele>191.63</ele>
        <time>2014-09-12T06:39:58Z</time>
      </trkpt>
      <trkpt lat="44.4" lon="4.88784">
        <ele>191.63</ele>
        <time>2014-09-12T06:39:59Z</time>
      </trkpt>
      <trkpt lat="44.39997" lon="4.88783">
        <ele>191.63</ele>
        <time>2014-09-12T06:40:00Z</time>
      </trkpt>
      <trkpt lat="44.39993" lon="4.88782">
        <ele>191.63</ele>
        <time>2014-09-12T06:40:01Z</time>
      </trkpt>
      <trkpt lat="44.3999" lon="4.88782">
        <ele>191.63</ele>
        <time>2014-09-12T06:40:02Z</time>
      </trkpt>
      <trkpt lat="44.39987" lon="4.88782">
        <ele>191.63</ele>
        <time>2014-09-12T06:40:03Z</time>
      </trkpt>
      <trkpt lat="44.39983" lon="4.88781">
        <ele>191.63</ele>
        <time>2014-09-12T06:40:04Z</time>
      </trkpt>
      <trkpt lat="44.39981" lon="4.8878">
        <ele>191.63</ele>
        <time>2014-09-12T06:40:05Z</time>
      </trkpt>
      <trkpt lat="44.39978" lon="4.88778">
        <ele>191.63</ele>
        <time>2014-09-12T06:40:06Z</time>
      </trkpt>
      <trkpt lat="44.39976" lon="4.88774">
        <ele>191.63</ele>
        <time>2014-09-12T06:40:07Z</time>
      </trkpt>
      <trkpt lat="44.39974" lon="4.88769">
        <ele>191.63</ele>
        <time>2014-09-12T06:40:08Z</time>
      </trkpt>
      <trkpt lat="44.3997" lon="4.88757">
        <ele>191.63</ele>
        <time>2014-09-12T06:40:10Z</time>
      </trkpt>
      <trkpt lat="44.39942" lon="4.8869">
        <ele>191.63</ele>
        <time>2014-09-12T06:40:22Z</time>
      </trkpt>
      <trkpt lat="44.39941" lon="4.88684">
        <ele>191.63</ele>
        <time>2014-09-12T06:40:23Z</time>
      </trkpt>
      <trkpt lat="44.39925" lon="4.88639">
        <ele>191.63</ele>
        <time>2014-09-12T06:40:31Z</time>
      </trkpt>
      <trkpt lat="44.39874" lon="4.88559">
        <ele>191.63</ele>
        <time>2014-09-12T06:40:49Z</time>
      </trkpt>
      <trkpt lat="44.3986" lon="4.8854">
        <ele>191.63</ele>
        <time>2014-09-12T06:40:54Z</time>
      </trkpt>
      <trkpt lat="44.39855" lon="4.88532">
        <ele>191.63</ele>
        <time>2014-09-12T06:40:56Z</time>
      </trkpt>
      <trkpt lat="44.39852" lon="4.88528">
        <ele>191.63</ele>
        <time>2014-09-12T06:40:57Z</time>
      </trkpt>
      <trkpt lat="44.39838" lon="4.88508">
        <ele>191.63</ele>
        <time>2014-09-12T06:41:02Z</time>
      </trkpt>
      <trkpt lat="44.3983" lon="4.88495">
        <ele>191.63</ele>
        <time>2014-09-12T06:41:05Z</time>
      </trkpt>
      <trkpt lat="44.39828" lon="4.88491">
        <ele>191.63</ele>
        <time>2014-09-12T06:41:06Z</time>
      </trkpt>
      <trkpt lat="44.39777" lon="4.88418">
        <ele>191.63</ele>
        <time>2014-09-12T06:41:25Z</time>
      </trkpt>
      <trkpt lat="44.39717" lon="4.8835">
        <ele>191.63</ele>
        <time>2014-09-12T06:41:46Z</time>
      </trkpt>
      <trkpt lat="44.39696" lon="4.88318">
        <ele>191.63</ele>
        <time>2014-09-12T06:41:58Z</time>
      </trkpt>
      <trkpt lat="44.39694" lon="4.88315">
        <ele>191.63</ele>
        <time>2014-09-12T06:42:00Z</time>
      </trkpt>
      <trkpt lat="44.39692" lon="4.88314">
        <ele>191.63</ele>
        <time>2014-09-12T06:42:15Z</time>
      </trkpt>
      <trkpt lat="44.39691" lon="4.8831">
        <ele>191.63</ele>
        <time>2014-09-12T06:42:58Z</time>
      </trkpt>
      <trkpt lat="44.3969" lon="4.88307">
        <ele>191.63</ele>
        <time>2014-09-12T06:43:27Z</time>
      </trkpt>
      <trkpt lat="44.39689" lon="4.88304">
        <ele>191.63</ele>
        <time>2014-09-12T06:43:28Z</time>
      </trkpt>
      <trkpt lat="44.39687" lon="4.88301">
        <ele>191.63</ele>
        <time>2014-09-12T06:43:29Z</time>
      </trkpt>
      <trkpt lat="44.39686" lon="4.88298">
        <ele>191.63</ele>
        <time>2014-09-12T06:43:30Z</time>
      </trkpt>
      <trkpt lat="44.39684" lon="4.88295">
        <ele>191.63</ele>
        <time>2014-09-12T06:43:31Z</time>
      </trkpt>
      <trkpt lat="44.39683" lon="4.88292">
        <ele>191.63</ele>
        <time>2014-09-12T06:43:32Z</time>
      </trkpt>
      <trkpt lat="44.39681" lon="4.88289">
        <ele>191.63</ele>
        <time>2014-09-12T06:43:33Z</time>
      </trkpt>
      <trkpt lat="44.3968" lon="4.88287">
        <ele>191.63</ele>
        <time>2014-09-12T06:43:34Z</time>
      </trkpt>
      <trkpt lat="44.39678" lon="4.88285">
        <ele>191.63</ele>
        <time>2014-09-12T06:43:35Z</time>
      </trkpt>
      <trkpt lat="44.3967" lon="4.88268">
        <ele>191.63</ele>
        <time>2014-09-12T06:43:41Z</time>
      </trkpt>
      <trkpt lat="44.39669" lon="4.88265">
        <ele>191.63</ele>
        <time>2014-09-12T06:43:42Z</time>
      </trkpt>
      <trkpt lat="44.39668" lon="4.88263">
        <ele>191.63</ele>
        <time>2014-09-12T06:43:43Z</time>
      </trkpt>
      <trkpt lat="44.39667" lon="4.88261">
        <ele>191.63</ele>
        <time>2014-09-12T06:43:44Z</time>
      </trkpt>
      <trkpt lat="44.39666" lon="4.88258">
        <ele>191.63</ele>
        <time>2014-09-12T06:43:45Z</time>
      </trkpt>
      <trkpt lat="44.39664" lon="4.88253">
        <ele>191.63</ele>
        <time>2014-09-12T06:43:47Z</time>
      </trkpt>
      <trkpt lat="44.39663" lon="4.88251">
        <ele>191.63</ele>
        <time>2014-09-12T06:43:48Z</time>
      </trkpt>
      <trkpt lat="44.39662" lon="4.88249">
        <ele>191.63</ele>
        <time>2014-09-12T06:43:49Z</time>
      </trkpt>
      <trkpt lat="44.39662" lon="4.88247">
        <ele>191.63</ele>
        <time>2014-09-12T06:43:50Z</time>
      </trkpt>
      <trkpt lat="44.39661" lon="4.88245">
        <ele>191.63</ele>
        <time>2014-09-12T06:43:51Z</time>
      </trkpt>
      <trkpt lat="44.3966" lon="4.88243">
        <ele>191.63</ele>
        <time>2014-09-12T06:43:52Z</time>
      </trkpt>
      <trkpt lat="44.3966" lon="4.88241">
        <ele>191.63</ele>
        <time>2014-09-12T06:43:53Z</time>
      </trkpt>
      <trkpt lat="44.39659" lon="4.88239">
        <ele>191.63</ele>
        <time>2014-09-12T06:43:54Z</time>
      </trkpt>
      <trkpt lat="44.39659" lon="4.88236">
        <ele>191.63</ele>
        <time>2014-09-12T06:43:55Z</time>
      </trkpt>
      <trkpt lat="44.39658" lon="4.88234">
        <ele>191.63</ele>
        <time>2014-09-12T06:43:56Z</time>
      </trkpt>
      <trkpt lat="44.39657" lon="4.88231">
        <ele>191.63</ele>
        <time>2014-09-12T06:43:57Z</time>
      </trkpt>
      <trkpt lat="44.39657" lon="4.88229">
        <ele>191.63</ele>
        <time>2014-09-12T06:43:58Z</time>
      </trkpt>
      <trkpt lat="44.39657" lon="4.88226">
        <ele>191.63</ele>
        <time>2014-09-12T06:43:59Z</time>
      </trkpt>
      <trkpt lat="44.39656" lon="4.88225">
        <ele>191.63</ele>
        <time>2014-09-12T06:44:00Z</time>
      </trkpt>
      <trkpt lat="44.39656" lon="4.88219">
        <ele>191.63</ele>
        <time>2014-09-12T06:44:15Z</time>
      </trkpt>
      <trkpt lat="44.39654" lon="4.88211">
        <ele>191.63</ele>
        <time>2014-09-12T06:44:22Z</time>
      </trkpt>
      <trkpt lat="44.39653" lon="4.88209">
        <ele>191.63</ele>
        <time>2014-09-12T06:44:23Z</time>
      </trkpt>
      <trkpt lat="44.39652" lon="4.88201">
        <ele>191.63</ele>
        <time>2014-09-12T06:44:26Z</time>
      </trkpt>
      <trkpt lat="44.39652" lon="4.882">
        <ele>191.63</ele>
        <time>2014-09-12T06:44:27Z</time>
      </trkpt>
      <trkpt lat="44.3965" lon="4.88199">
        <ele>191.63</ele>
        <time>2014-09-12T06:44:28Z</time>
      </trkpt>
      <trkpt lat="44.39647" lon="4.88198">
        <ele>191.63</ele>
        <time>2014-09-12T06:44:29Z</time>
      </trkpt>
      <trkpt lat="44.39644" lon="4.88197">
        <ele>191.63</ele>
        <time>2014-09-12T06:44:30Z</time>
      </trkpt>
      <trkpt lat="44.39641" lon="4.88198">
        <ele>191.63</ele>
        <time>2014-09-12T06:44:31Z</time>
      </trkpt>
      <trkpt lat="44.39638" lon="4.88197">
        <ele>191.63</ele>
        <time>2014-09-12T06:44:32Z</time>
      </trkpt>
      <trkpt lat="44.39635" lon="4.88197">
        <ele>191.63</ele>
        <time>2014-09-12T06:44:33Z</time>
      </trkpt>
      <trkpt lat="44.39629" lon="4.88196">
        <ele>191.63</ele>
        <time>2014-09-12T06:44:35Z</time>
      </trkpt>
      <trkpt lat="44.39621" lon="4.88192">
        <ele>191.63</ele>
        <time>2014-09-12T06:44:38Z</time>
      </trkpt>
      <trkpt lat="44.39617" lon="4.88189">
        <ele>191.63</ele>
        <time>2014-09-12T06:44:40Z</time>
      </trkpt>
      <trkpt lat="44.39615" lon="4.88188">
        <ele>191.63</ele>
        <time>2014-09-12T06:44:41Z</time>
      </trkpt>
      <trkpt lat="44.39613" lon="4.88187">
        <ele>191.63</ele>
        <time>2014-09-12T06:44:42Z</time>
      </trkpt>
      <trkpt lat="44.39612" lon="4.88185">
        <ele>191.63</ele>
        <time>2014-09-12T06:44:43Z</time>
      </trkpt>
      <trkpt lat="44.39611" lon="4.88183">
        <ele>191.63</ele>
        <time>2014-09-12T06:44:44Z</time>
      </trkpt>
      <trkpt lat="44.3961" lon="4.88179">
        <ele>191.63</ele>
        <time>2014-09-12T06:44:45Z</time>
      </trkpt>
      <trkpt lat="44.39611" lon="4.88157">
        <ele>191.63</ele>
        <time>2014-09-12T06:44:50Z</time>
      </trkpt>
      <trkpt lat="44.3961" lon="4.88153">
        <ele>191.63</ele>
        <time>2014-09-12T06:44:51Z</time>
      </trkpt>
      <trkpt lat="44.39609" lon="4.88151">
        <ele>191.63</ele>
        <time>2014-09-12T06:44:52Z</time>
      </trkpt>
      <trkpt lat="44.39605" lon="4.88146">
        <ele>191.63</ele>
        <time>2014-09-12T06:44:54Z</time>
      </trkpt>
      <trkpt lat="44.39604" lon="4.88144">
        <ele>191.63</ele>
        <time>2014-09-12T06:44:55Z</time>
      </trkpt>
      <trkpt lat="44.39601" lon="4.8814">
        <ele>191.63</ele>
        <time>2014-09-12T06:45:07Z</time>
      </trkpt>
      <trkpt lat="44.39599" lon="4.88143">
        <ele>191.63</ele>
        <time>2014-09-12T06:45:09Z</time>
      </trkpt>
      <trkpt lat="44.39598" lon="4.88145">
        <ele>191.63</ele>
        <time>2014-09-12T06:45:10Z</time>
      </trkpt>
      <trkpt lat="44.39596" lon="4.8815">
        <ele>191.63</ele>
        <time>2014-09-12T06:45:12Z</time>
      </trkpt>
      <trkpt lat="44.39594" lon="4.88153">
        <ele>191.63</ele>
        <time>2014-09-12T06:45:13Z</time>
      </trkpt>
      <trkpt lat="44.39593" lon="4.88155">
        <ele>191.63</ele>
        <time>2014-09-12T06:45:14Z</time>
      </trkpt>
      <trkpt lat="44.39592" lon="4.88157">
        <ele>191.63</ele>
        <time>2014-09-12T06:45:15Z</time>
      </trkpt>
      <trkpt lat="44.3959" lon="4.88162">
        <ele>191.63</ele>
        <time>2014-09-12T06:45:17Z</time>
      </trkpt>
      <trkpt lat="44.39588" lon="4.88164">
        <ele>191.63</ele>
        <time>2014-09-12T06:45:18Z</time>
      </trkpt>
      <trkpt lat="44.39587" lon="4.88165">
        <ele>191.63</ele>
        <time>2014-09-12T06:45:19Z</time>
      </trkpt>
      <trkpt lat="44.39586" lon="4.88167">
        <ele>191.63</ele>
        <time>2014-09-12T06:45:20Z</time>
      </trkpt>
      <trkpt lat="44.39584" lon="4.88178">
        <ele>191.63</ele>
        <time>2014-09-12T06:45:33Z</time>
      </trkpt>
      <trkpt lat="44.39589" lon="4.88168">
        <ele>191.63</ele>
        <time>2014-09-12T06:45:36Z</time>
      </trkpt>
      <trkpt lat="44.39607" lon="4.88133">
        <ele>191.63</ele>
        <time>2014-09-12T06:45:44Z</time>
      </trkpt>
      <trkpt lat="44.39619" lon="4.8811">
        <ele>191.63</ele>
        <time>2014-09-12T06:45:53Z</time>
      </trkpt>
      <trkpt lat="44.39628" lon="4.88066">
        <ele>191.63</ele>
        <time>2014-09-12T06:46:02Z</time>
      </trkpt>
      <trkpt lat="44.39639" lon="4.87993">
        <ele>191.63</ele>
        <time>2014-09-12T06:46:11Z</time>
      </trkpt>
      <trkpt lat="44.39639" lon="4.87985">
        <ele>191.63</ele>
        <time>2014-09-12T06:46:12Z</time>
      </trkpt>
      <trkpt lat="44.3962" lon="4.87875">
        <ele>191.63</ele>
        <time>2014-09-12T06:46:28Z</time>
      </trkpt>
      <trkpt lat="44.39618" lon="4.87863">
        <ele>191.63</ele>
        <time>2014-09-12T06:46:30Z</time>
      </trkpt>
      <trkpt lat="44.39617" lon="4.87857">
        <ele>191.63</ele>
        <time>2014-09-12T06:46:31Z</time>
      </trkpt>
      <trkpt lat="44.39617" lon="4.87851">
        <ele>191.63</ele>
        <time>2014-09-12T06:46:32Z</time>
      </trkpt>
      <trkpt lat="44.39619" lon="4.87841">
        <ele>191.63</ele>
        <time>2014-09-12T06:46:34Z</time>
      </trkpt>
      <trkpt lat="44.39621" lon="4.8783">
        <ele>191.63</ele>
        <time>2014-09-12T06:46:36Z</time>
      </trkpt>
      <trkpt lat="44.39628" lon="4.87808">
        <ele>191.63</ele>
        <time>2014-09-12T06:46:40Z</time>
      </trkpt>
      <trkpt lat="44.3963" lon="4.87803">
        <ele>191.63</ele>
        <time>2014-09-12T06:46:41Z</time>
      </trkpt>
      <trkpt lat="44.39635" lon="4.87788">
        <ele>191.63</ele>
        <time>2014-09-12T06:46:44Z</time>
      </trkpt>
      <trkpt lat="44.39637" lon="4.87784">
        <ele>191.63</ele>
        <time>2014-09-12T06:46:45Z</time>
      </trkpt>
      <trkpt lat="44.3964" lon="4.87779">
        <ele>191.63</ele>
        <time>2014-09-12T06:46:46Z</time>
      </trkpt>
      <trkpt lat="44.39643" lon="4.87775">
        <ele>191.63</ele>
        <time>2014-09-12T06:46:47Z</time>
      </trkpt>
      <trkpt lat="44.39646" lon="4.87771">
        <ele>191.63</ele>
        <time>2014-09-12T06:46:48Z</time>
      </trkpt>
      <trkpt lat="44.39649" lon="4.87767">
        <ele>191.63</ele>
        <time>2014-09-12T06:46:49Z</time>
      </trkpt>
      <trkpt lat="44.39656" lon="4.8776">
        <ele>191.63</ele>
        <time>2014-09-12T06:46:51Z</time>
      </trkpt>
      <trkpt lat="44.39667" lon="4.87751">
        <ele>191.63</ele>
        <time>2014-09-12T06:46:54Z</time>
      </trkpt>
      <trkpt lat="44.3967" lon="4.87747">
        <ele>191.63</ele>
        <time>2014-09-12T06:46:55Z</time>
      </trkpt>
      <trkpt lat="44.39672" lon="4.87743">
        <ele>191.63</ele>
        <time>2014-09-12T06:46:56Z</time>
      </trkpt>
      <trkpt lat="44.39674" lon="4.87737">
        <ele>191.63</ele>
        <time>2014-09-12T06:46:57Z</time>
      </trkpt>
      <trkpt lat="44.39675" lon="4.87731">
        <ele>191.63</ele>
        <time>2014-09-12T06:46:58Z</time>
      </trkpt>
      <trkpt lat="44.39675" lon="4.87725">
        <ele>191.63</ele>
        <time>2014-09-12T06:46:59Z</time>
      </trkpt>
      <trkpt lat="44.39675" lon="4.87719">
        <ele>191.63</ele>
        <time>2014-09-12T06:47:00Z</time>
      </trkpt>
      <trkpt lat="44.39674" lon="4.87713">
        <ele>191.63</ele>
        <time>2014-09-12T06:47:01Z</time>
      </trkpt>
      <trkpt lat="44.39675" lon="4.877">
        <ele>191.63</ele>
        <time>2014-09-12T06:47:03Z</time>
      </trkpt>
      <trkpt lat="44.39675" lon="4.87694">
        <ele>191.63</ele>
        <time>2014-09-12T06:47:04Z</time>
      </trkpt>
      <trkpt lat="44.39679" lon="4.87676">
        <ele>191.63</ele>
        <time>2014-09-12T06:47:07Z</time>
      </trkpt>
      <trkpt lat="44.39695" lon="4.87581">
        <ele>191.63</ele>
        <time>2014-09-12T06:47:25Z</time>
      </trkpt>
      <trkpt lat="44.39694" lon="4.87573">
        <ele>191.63</ele>
        <time>2014-09-12T06:47:27Z</time>
      </trkpt>
      <trkpt lat="44.39692" lon="4.87569">
        <ele>191.63</ele>
        <time>2014-09-12T06:47:28Z</time>
      </trkpt>
      <trkpt lat="44.39675" lon="4.8755">
        <ele>191.63</ele>
        <time>2014-09-12T06:47:34Z</time>
      </trkpt>
      <trkpt lat="44.39672" lon="4.87545">
        <ele>191.63</ele>
        <time>2014-09-12T06:47:35Z</time>
      </trkpt>
      <trkpt lat="44.39667" lon="4.87536">
        <ele>191.63</ele>
        <time>2014-09-12T06:47:37Z</time>
      </trkpt>
      <trkpt lat="44.39666" lon="4.87531">
        <ele>191.63</ele>
        <time>2014-09-12T06:47:38Z</time>
      </trkpt>
      <trkpt lat="44.39666" lon="4.87526">
        <ele>191.63</ele>
        <time>2014-09-12T06:47:39Z</time>
      </trkpt>
      <trkpt lat="44.39667" lon="4.87521">
        <ele>191.63</ele>
        <time>2014-09-12T06:47:40Z</time>
      </trkpt>
      <trkpt lat="44.39669" lon="4.87517">
        <ele>191.63</ele>
        <time>2014-09-12T06:47:41Z</time>
      </trkpt>
      <trkpt lat="44.39683" lon="4.87451">
        <ele>191.62</ele>
        <time>2014-09-12T06:47:56Z</time>
      </trkpt>
      <trkpt lat="44.39684" lon="4.87381">
        <ele>191.62</ele>
        <time>2014-09-12T06:48:13Z</time>
      </trkpt>
      <trkpt lat="44.39685" lon="4.8731">
        <ele>191.62</ele>
        <time>2014-09-12T06:48:29Z</time>
      </trkpt>
      <trkpt lat="44.39669" lon="4.87237">
        <ele>191.62</ele>
        <time>2014-09-12T06:48:47Z</time>
      </trkpt>
      <trkpt lat="44.39654" lon="4.87179">
        <ele>191.62</ele>
        <time>2014-09-12T06:49:00Z</time>
      </trkpt>
      <trkpt lat="44.39624" lon="4.87104">
        <ele>191.62</ele>
        <time>2014-09-12T06:49:19Z</time>
      </trkpt>
      <trkpt lat="44.39594" lon="4.87038">
        <ele>191.62</ele>
        <time>2014-09-12T06:49:36Z</time>
      </trkpt>
      <trkpt lat="44.39571" lon="4.8697">
        <ele>191.62</ele>
        <time>2014-09-12T06:49:54Z</time>
      </trkpt>
      <trkpt lat="44.39565" lon="4.86954">
        <ele>191.62</ele>
        <time>2014-09-12T06:50:00Z</time>
      </trkpt>
      <trkpt lat="44.39565" lon="4.86946">
        <ele>191.62</ele>
        <time>2014-09-12T06:50:03Z</time>
      </trkpt>
      <trkpt lat="44.39568" lon="4.86914">
        <ele>191.62</ele>
        <time>2014-09-12T06:50:15Z</time>
      </trkpt>
      <trkpt lat="44.3957" lon="4.86909">
        <ele>191.62</ele>
        <time>2014-09-12T06:50:18Z</time>
      </trkpt>
      <trkpt lat="44.39583" lon="4.869">
        <ele>191.62</ele>
        <time>2014-09-12T06:50:27Z</time>
      </trkpt>
      <trkpt lat="44.39589" lon="4.86899">
        <ele>191.62</ele>
        <time>2014-09-12T06:50:30Z</time>
      </trkpt>
      <trkpt lat="44.39626" lon="4.86901">
        <ele>191.62</ele>
        <time>2014-09-12T06:50:41Z</time>
      </trkpt>
      <trkpt lat="44.3963" lon="4.869">
        <ele>191.62</ele>
        <time>2014-09-12T06:50:42Z</time>
      </trkpt>
      <trkpt lat="44.39654" lon="4.86893">
        <ele>191.62</ele>
        <time>2014-09-12T06:50:50Z</time>
      </trkpt>
      <trkpt lat="44.39658" lon="4.86892">
        <ele>191.62</ele>
        <time>2014-09-12T06:50:52Z</time>
      </trkpt>
      <trkpt lat="44.3966" lon="4.86891">
        <ele>191.62</ele>
        <time>2014-09-12T06:50:53Z</time>
      </trkpt>
      <trkpt lat="44.39662" lon="4.86891">
        <ele>191.62</ele>
        <time>2014-09-12T06:50:54Z</time>
      </trkpt>
      <trkpt lat="44.39664" lon="4.8689">
        <ele>191.62</ele>
        <time>2014-09-12T06:50:55Z</time>
      </trkpt>
      <trkpt lat="44.39665" lon="4.86886">
        <ele>191.62</ele>
        <time>2014-09-12T06:51:06Z</time>
      </trkpt>
      <trkpt lat="44.39663" lon="4.86887">
        <ele>191.62</ele>
        <time>2014-09-12T06:51:07Z</time>
      </trkpt>
      <trkpt lat="44.39662" lon="4.86886">
        <ele>191.62</ele>
        <time>2014-09-12T06:51:08Z</time>
      </trkpt>
      <trkpt lat="44.3966" lon="4.86885">
        <ele>191.62</ele>
        <time>2014-09-12T06:51:09Z</time>
      </trkpt>
      <trkpt lat="44.39656" lon="4.86882">
        <ele>191.62</ele>
        <time>2014-09-12T06:51:11Z</time>
      </trkpt>
      <trkpt lat="44.39653" lon="4.86881">
        <ele>191.62</ele>
        <time>2014-09-12T06:51:12Z</time>
      </trkpt>
      <trkpt lat="44.3965" lon="4.8688">
        <ele>191.62</ele>
        <time>2014-09-12T06:51:13Z</time>
      </trkpt>
      <trkpt lat="44.39647" lon="4.86879">
        <ele>191.62</ele>
        <time>2014-09-12T06:51:14Z</time>
      </trkpt>
      <trkpt lat="44.39644" lon="4.86878">
        <ele>191.62</ele>
        <time>2014-09-12T06:51:15Z</time>
      </trkpt>
      <trkpt lat="44.39641" lon="4.86877">
        <ele>191.62</ele>
        <time>2014-09-12T06:51:16Z</time>
      </trkpt>
      <trkpt lat="44.39638" lon="4.86876">
        <ele>191.62</ele>
        <time>2014-09-12T06:51:17Z</time>
      </trkpt>
      <trkpt lat="44.39635" lon="4.86874">
        <ele>191.62</ele>
        <time>2014-09-12T06:51:18Z</time>
      </trkpt>
      <trkpt lat="44.39631" lon="4.86873">
        <ele>191.62</ele>
        <time>2014-09-12T06:51:19Z</time>
      </trkpt>
      <trkpt lat="44.39625" lon="4.86871">
        <ele>191.62</ele>
        <time>2014-09-12T06:51:21Z</time>
      </trkpt>
      <trkpt lat="44.39622" lon="4.86871">
        <ele>191.62</ele>
        <time>2014-09-12T06:51:22Z</time>
      </trkpt>
      <trkpt lat="44.39619" lon="4.8687">
        <ele>191.62</ele>
        <time>2014-09-12T06:51:23Z</time>
      </trkpt>
      <trkpt lat="44.39616" lon="4.86868">
        <ele>191.62</ele>
        <time>2014-09-12T06:51:24Z</time>
      </trkpt>
      <trkpt lat="44.39613" lon="4.86868">
        <ele>191.62</ele>
        <time>2014-09-12T06:51:25Z</time>
      </trkpt>
      <trkpt lat="44.3961" lon="4.86867">
        <ele>191.62</ele>
        <time>2014-09-12T06:51:26Z</time>
      </trkpt>
      <trkpt lat="44.39607" lon="4.86865">
        <ele>191.62</ele>
        <time>2014-09-12T06:51:27Z</time>
      </trkpt>
      <trkpt lat="44.39604" lon="4.86865">
        <ele>191.62</ele>
        <time>2014-09-12T06:51:28Z</time>
      </trkpt>
      <trkpt lat="44.39601" lon="4.86864">
        <ele>191.62</ele>
        <time>2014-09-12T06:51:29Z</time>
      </trkpt>
      <trkpt lat="44.39598" lon="4.86863">
        <ele>191.62</ele>
        <time>2014-09-12T06:51:30Z</time>
      </trkpt>
      <trkpt lat="44.39595" lon="4.86862">
        <ele>191.62</ele>
        <time>2014-09-12T06:51:31Z</time>
      </trkpt>
      <trkpt lat="44.39593" lon="4.86861">
        <ele>191.62</ele>
        <time>2014-09-12T06:51:32Z</time>
      </trkpt>
      <trkpt lat="44.39591" lon="4.86859">
        <ele>191.62</ele>
        <time>2014-09-12T06:51:33Z</time>
      </trkpt>
      <trkpt lat="44.3959" lon="4.86856">
        <ele>191.62</ele>
        <time>2014-09-12T06:51:34Z</time>
      </trkpt>
      <trkpt lat="44.39589" lon="4.86852">
        <ele>191.62</ele>
        <time>2014-09-12T06:51:35Z</time>
      </trkpt>
      <trkpt lat="44.39589" lon="4.86848">
        <ele>191.62</ele>
        <time>2014-09-12T06:51:36Z</time>
      </trkpt>
      <trkpt lat="44.3959" lon="4.86844">
        <ele>191.62</ele>
        <time>2014-09-12T06:51:37Z</time>
      </trkpt>
      <trkpt lat="44.3959" lon="4.8684">
        <ele>191.62</ele>
        <time>2014-09-12T06:51:38Z</time>
      </trkpt>
      <trkpt lat="44.39597" lon="4.86759">
        <ele>191.62</ele>
        <time>2014-09-12T06:51:54Z</time>
      </trkpt>
      <trkpt lat="44.396" lon="4.86719">
        <ele>191.62</ele>
        <time>2014-09-12T06:52:03Z</time>
      </trkpt>
      <trkpt lat="44.39599" lon="4.86715">
        <ele>191.62</ele>
        <time>2014-09-12T06:52:04Z</time>
      </trkpt>
      <trkpt lat="44.39599" lon="4.86711">
        <ele>191.62</ele>
        <time>2014-09-12T06:52:05Z</time>
      </trkpt>
      <trkpt lat="44.39589" lon="4.8667">
        <ele>191.62</ele>
        <time>2014-09-12T06:52:15Z</time>
      </trkpt>
      <trkpt lat="44.3957" lon="4.86619">
        <ele>191.62</ele>
        <time>2014-09-12T06:52:28Z</time>
      </trkpt>
      <trkpt lat="44.39569" lon="4.86612">
        <ele>191.62</ele>
        <time>2014-09-12T06:52:30Z</time>
      </trkpt>
      <trkpt lat="44.39567" lon="4.86606">
        <ele>191.62</ele>
        <time>2014-09-12T06:52:32Z</time>
      </trkpt>
      <trkpt lat="44.39556" lon="4.86574">
        <ele>191.62</ele>
        <time>2014-09-12T06:52:44Z</time>
      </trkpt>
      <trkpt lat="44.39546" lon="4.86552">
        <ele>191.62</ele>
        <time>2014-09-12T06:52:53Z</time>
      </trkpt>
      <trkpt lat="44.39544" lon="4.8655">
        <ele>191.62</ele>
        <time>2014-09-12T06:52:54Z</time>
      </trkpt>
      <trkpt lat="44.39526" lon="4.86529">
        <ele>191.62</ele>
        <time>2014-09-12T06:53:04Z</time>
      </trkpt>
      <trkpt lat="44.39513" lon="4.86513">
        <ele>191.62</ele>
        <time>2014-09-12T06:53:12Z</time>
      </trkpt>
      <trkpt lat="44.39508" lon="4.86508">
        <ele>191.62</ele>
        <time>2014-09-12T06:53:15Z</time>
      </trkpt>
      <trkpt lat="44.39487" lon="4.8649">
        <ele>191.62</ele>
        <time>2014-09-12T06:53:27Z</time>
      </trkpt>
      <trkpt lat="44.39477" lon="4.86482">
        <ele>191.62</ele>
        <time>2014-09-12T06:53:33Z</time>
      </trkpt>
      <trkpt lat="44.39468" lon="4.86475">
        <ele>191.62</ele>
        <time>2014-09-12T06:53:38Z</time>
      </trkpt>
      <trkpt lat="44.39464" lon="4.86468">
        <ele>191.62</ele>
        <time>2014-09-12T06:53:41Z</time>
      </trkpt>
      <trkpt lat="44.39462" lon="4.86461">
        <ele>191.62</ele>
        <time>2014-09-12T06:53:44Z</time>
      </trkpt>
      <trkpt lat="44.39461" lon="4.86451">
        <ele>191.62</ele>
        <time>2014-09-12T06:53:48Z</time>
      </trkpt>
      <trkpt lat="44.39461" lon="4.86445">
        <ele>191.62</ele>
        <time>2014-09-12T06:53:50Z</time>
      </trkpt>
      <trkpt lat="44.39444" lon="4.86422">
        <ele>191.62</ele>
        <time>2014-09-12T06:54:04Z</time>
      </trkpt>
      <trkpt lat="44.39439" lon="4.8642">
        <ele>191.62</ele>
        <time>2014-09-12T06:54:14Z</time>
      </trkpt>
      <trkpt lat="44.3943" lon="4.8641">
        <ele>191.62</ele>
        <time>2014-09-12T06:54:31Z</time>
      </trkpt>
      <trkpt lat="44.39431" lon="4.86408">
        <ele>191.62</ele>
        <time>2014-09-12T06:54:48Z</time>
      </trkpt>
      <trkpt lat="44.39431" lon="4.86409">
        <ele>191.62</ele>
        <time>2014-09-12T06:55:28Z</time>
      </trkpt>
      <trkpt lat="44.39431" lon="4.86409">
        <ele>191.62</ele>
        <time>2014-09-12T06:56:01Z</time>
      </trkpt>
      <trkpt lat="44.39434" lon="4.86403">
        <ele>191.62</ele>
        <time>2014-09-12T06:56:06Z</time>
      </trkpt>
      <trkpt lat="44.39442" lon="4.86391">
        <ele>191.62</ele>
        <time>2014-09-12T06:56:15Z</time>
      </trkpt>
      <trkpt lat="44.39445" lon="4.86388">
        <ele>191.62</ele>
        <time>2014-09-12T06:56:19Z</time>
      </trkpt>
      <trkpt lat="44.39454" lon="4.86384">
        <ele>191.62</ele>
        <time>2014-09-12T06:56:35Z</time>
      </trkpt>
      <trkpt lat="44.3946" lon="4.86384">
        <ele>191.62</ele>
        <time>2014-09-12T06:56:42Z</time>
      </trkpt>
      <trkpt lat="44.39463" lon="4.86385">
        <ele>191.62</ele>
        <time>2014-09-12T06:56:45Z</time>
      </trkpt>
      <trkpt lat="44.3947" lon="4.86385">
        <ele>191.62</ele>
        <time>2014-09-12T06:56:51Z</time>
      </trkpt>
      <trkpt lat="44.39472" lon="4.86385">
        <ele>191.62</ele>
        <time>2014-09-12T06:56:53Z</time>
      </trkpt>
      <trkpt lat="44.39486" lon="4.86388">
        <ele>191.62</ele>
        <time>2014-09-12T06:57:05Z</time>
      </trkpt>
      <trkpt lat="44.39494" lon="4.86384">
        <ele>191.62</ele>
        <time>2014-09-12T06:57:19Z</time>
      </trkpt>
      <trkpt lat="44.39494" lon="4.86383">
        <ele>191.62</ele>
        <time>2014-09-12T06:57:27Z</time>
      </trkpt>
      <trkpt lat="44.39492" lon="4.86379">
        <ele>191.62</ele>
        <time>2014-09-12T06:57:30Z</time>
      </trkpt>
      <trkpt lat="44.39486" lon="4.86365">
        <ele>191.62</ele>
        <time>2014-09-12T06:57:37Z</time>
      </trkpt>
      <trkpt lat="44.39482" lon="4.86354">
        <ele>191.62</ele>
        <time>2014-09-12T06:57:42Z</time>
      </trkpt>
      <trkpt lat="44.39462" lon="4.86333">
        <ele>191.62</ele>
        <time>2014-09-12T06:57:55Z</time>
      </trkpt>
      <trkpt lat="44.3945" lon="4.86323">
        <ele>191.62</ele>
        <time>2014-09-12T06:58:01Z</time>
      </trkpt>
      <trkpt lat="44.39445" lon="4.8632">
        <ele>191.62</ele>
        <time>2014-09-12T06:58:03Z</time>
      </trkpt>
      <trkpt lat="44.39437" lon="4.86311">
        <ele>191.62</ele>
        <time>2014-09-12T06:58:07Z</time>
      </trkpt>
      <trkpt lat="44.39425" lon="4.86268">
        <ele>191.62</ele>
        <time>2014-09-12T06:58:21Z</time>
      </trkpt>
      <trkpt lat="44.3942" lon="4.86252">
        <ele>191.62</ele>
        <time>2014-09-12T06:58:34Z</time>
      </trkpt>
      <trkpt lat="44.3942" lon="4.86251">
        <ele>191.62</ele>
        <time>2014-09-12T06:58:52Z</time>
      </trkpt>
      <trkpt lat="44.39418" lon="4.86249">
        <ele>191.62</ele>
        <time>2014-09-12T06:59:20Z</time>
      </trkpt>
      <trkpt lat="44.39415" lon="4.86239">
        <ele>191.62</ele>
        <time>2014-09-12T06:59:45Z</time>
      </trkpt>
      <trkpt lat="44.3941" lon="4.86221">
        <ele>191.62</ele>
        <time>2014-09-12T06:59:52Z</time>
      </trkpt>
      <trkpt lat="44.39398" lon="4.86174">
        <ele>191.62</ele>
        <time>2014-09-12T07:00:06Z</time>
      </trkpt>
      <trkpt lat="44.39383" lon="4.8613">
        <ele>191.62</ele>
        <time>2014-09-12T07:00:19Z</time>
      </trkpt>
      <trkpt lat="44.3938" lon="4.8612">
        <ele>191.62</ele>
        <time>2014-09-12T07:00:22Z</time>
      </trkpt>
      <trkpt lat="44.39375" lon="4.861">
        <ele>191.62</ele>
        <time>2014-09-12T07:00:28Z</time>
      </trkpt>
      <trkpt lat="44.39373" lon="4.86089">
        <ele>191.62</ele>
        <time>2014-09-12T07:00:31Z</time>
      </trkpt>
      <trkpt lat="44.39368" lon="4.86066">
        <ele>191.62</ele>
        <time>2014-09-12T07:00:37Z</time>
      </trkpt>
      <trkpt lat="44.39359" lon="4.86028">
        <ele>191.62</ele>
        <time>2014-09-12T07:00:48Z</time>
      </trkpt>
      <trkpt lat="44.39354" lon="4.8602">
        <ele>191.62</ele>
        <time>2014-09-12T07:01:00Z</time>
      </trkpt>
      <trkpt lat="44.39354" lon="4.86018">
        <ele>191.62</ele>
        <time>2014-09-12T07:01:36Z</time>
      </trkpt>
      <trkpt lat="44.39339" lon="4.86015">
        <ele>191.62</ele>
        <time>2014-09-12T07:01:48Z</time>
      </trkpt>
      <trkpt lat="44.39324" lon="4.8602">
        <ele>191.62</ele>
        <time>2014-09-12T07:01:55Z</time>
      </trkpt>
      <trkpt lat="44.39309" lon="4.85997">
        <ele>191.62</ele>
        <time>2014-09-12T07:02:06Z</time>
      </trkpt>
      <trkpt lat="44.39299" lon="4.85985">
        <ele>191.62</ele>
        <time>2014-09-12T07:02:12Z</time>
      </trkpt>
      <trkpt lat="44.39265" lon="4.8595">
        <ele>191.62</ele>
        <time>2014-09-12T07:02:26Z</time>
      </trkpt>
      <trkpt lat="44.39256" lon="4.85923">
        <ele>191.62</ele>
        <time>2014-09-12T07:02:33Z</time>
      </trkpt>
      <trkpt lat="44.39252" lon="4.85907">
        <ele>191.62</ele>
        <time>2014-09-12T07:02:37Z</time>
      </trkpt>
      <trkpt lat="44.39229" lon="4.85879">
        <ele>191.62</ele>
        <time>2014-09-12T07:02:48Z</time>
      </trkpt>
      <trkpt lat="44.39222" lon="4.8587">
        <ele>191.62</ele>
        <time>2014-09-12T07:02:51Z</time>
      </trkpt>
      <trkpt lat="44.39179" lon="4.85833">
        <ele>191.62</ele>
        <time>2014-09-12T07:03:06Z</time>
      </trkpt>
      <trkpt lat="44.39167" lon="4.85819">
        <ele>191.62</ele>
        <time>2014-09-12T07:03:10Z</time>
      </trkpt>
      <trkpt lat="44.39159" lon="4.858">
        <ele>191.62</ele>
        <time>2014-09-12T07:03:14Z</time>
      </trkpt>
      <trkpt lat="44.39131" lon="4.85687">
        <ele>191.62</ele>
        <time>2014-09-12T07:03:36Z</time>
      </trkpt>
      <trkpt lat="44.39121" lon="4.85646">
        <ele>191.62</ele>
        <time>2014-09-12T07:03:44Z</time>
      </trkpt>
      <trkpt lat="44.39092" lon="4.85567">
        <ele>191.61</ele>
        <time>2014-09-12T07:04:01Z</time>
      </trkpt>
      <trkpt lat="44.39077" lon="4.85543">
        <ele>191.61</ele>
        <time>2014-09-12T07:04:08Z</time>
      </trkpt>
      <trkpt lat="44.39074" lon="4.85537">
        <ele>191.61</ele>
        <time>2014-09-12T07:04:11Z</time>
      </trkpt>
      <trkpt lat="44.39046" lon="4.85524">
        <ele>191.61</ele>
        <time>2014-09-12T07:04:19Z</time>
      </trkpt>
      <trkpt lat="44.39011" lon="4.85513">
        <ele>191.61</ele>
        <time>2014-09-12T07:04:26Z</time>
      </trkpt>
      <trkpt lat="44.38991" lon="4.85494">
        <ele>191.61</ele>
        <time>2014-09-12T07:04:33Z</time>
      </trkpt>
      <trkpt lat="44.3899" lon="4.85488">
        <ele>191.61</ele>
        <time>2014-09-12T07:04:35Z</time>
      </trkpt>
      <trkpt lat="44.3899" lon="4.85484">
        <ele>191.61</ele>
        <time>2014-09-12T07:04:36Z</time>
      </trkpt>
      <trkpt lat="44.38991" lon="4.85481">
        <ele>191.61</ele>
        <time>2014-09-12T07:04:37Z</time>
      </trkpt>
      <trkpt lat="44.38993" lon="4.85477">
        <ele>191.61</ele>
        <time>2014-09-12T07:04:38Z</time>
      </trkpt>
      <trkpt lat="44.39016" lon="4.85437">
        <ele>191.61</ele>
        <time>2014-09-12T07:04:49Z</time>
      </trkpt>
      <trkpt lat="44.39017" lon="4.85435">
        <ele>191.61</ele>
        <time>2014-09-12T07:04:50Z</time>
      </trkpt>
      <trkpt lat="44.39018" lon="4.8543">
        <ele>191.61</ele>
        <time>2014-09-12T07:05:04Z</time>
      </trkpt>
      <trkpt lat="44.39019" lon="4.85427">
        <ele>191.61</ele>
        <time>2014-09-12T07:05:09Z</time>
      </trkpt>
      <trkpt lat="44.3902" lon="4.85425">
        <ele>191.61</ele>
        <time>2014-09-12T07:05:10Z</time>
      </trkpt>
      <trkpt lat="44.3902" lon="4.85423">
        <ele>191.61</ele>
        <time>2014-09-12T07:05:11Z</time>
      </trkpt>
      <trkpt lat="44.39022" lon="4.8542">
        <ele>191.61</ele>
        <time>2014-09-12T07:05:12Z</time>
      </trkpt>
      <trkpt lat="44.39023" lon="4.85417">
        <ele>191.61</ele>
        <time>2014-09-12T07:05:13Z</time>
      </trkpt>
      <trkpt lat="44.3903" lon="4.85392">
        <ele>191.61</ele>
        <time>2014-09-12T07:05:21Z</time>
      </trkpt>
      <trkpt lat="44.3903" lon="4.85391">
        <ele>191.61</ele>
        <time>2014-09-12T07:05:33Z</time>
      </trkpt>
      <trkpt lat="44.3903" lon="4.85388">
        <ele>191.61</ele>
        <time>2014-09-12T07:05:39Z</time>
      </trkpt>
      <trkpt lat="44.3903" lon="4.85386">
        <ele>191.61</ele>
        <time>2014-09-12T07:05:40Z</time>
      </trkpt>
      <trkpt lat="44.39026" lon="4.85335">
        <ele>191.61</ele>
        <time>2014-09-12T07:05:55Z</time>
      </trkpt>
      <trkpt lat="44.39025" lon="4.85326">
        <ele>191.61</ele>
        <time>2014-09-12T07:05:58Z</time>
      </trkpt>
      <trkpt lat="44.39024" lon="4.85323">
        <ele>191.61</ele>
        <time>2014-09-12T07:05:59Z</time>
      </trkpt>
      <trkpt lat="44.39023" lon="4.85317">
        <ele>191.61</ele>
        <time>2014-09-12T07:06:01Z</time>
      </trkpt>
      <trkpt lat="44.39023" lon="4.85314">
        <ele>191.61</ele>
        <time>2014-09-12T07:06:02Z</time>
      </trkpt>
      <trkpt lat="44.39019" lon="4.85299">
        <ele>191.61</ele>
        <time>2014-09-12T07:06:08Z</time>
      </trkpt>
      <trkpt lat="44.39017" lon="4.85294">
        <ele>191.61</ele>
        <time>2014-09-12T07:06:10Z</time>
      </trkpt>
      <trkpt lat="44.39017" lon="4.85292">
        <ele>191.61</ele>
        <time>2014-09-12T07:06:11Z</time>
      </trkpt>
      <trkpt lat="44.39015" lon="4.85285">
        <ele>191.61</ele>
        <time>2014-09-12T07:06:26Z</time>
      </trkpt>
      <trkpt lat="44.39015" lon="4.85284">
        <ele>191.61</ele>
        <time>2014-09-12T07:06:41Z</time>
      </trkpt>
      <trkpt lat="44.39013" lon="4.85281">
        <ele>191.61</ele>
        <time>2014-09-12T07:07:12Z</time>
      </trkpt>
      <trkpt lat="44.39011" lon="4.85276">
        <ele>191.61</ele>
        <time>2014-09-12T07:07:19Z</time>
      </trkpt>
      <trkpt lat="44.39011" lon="4.85274">
        <ele>191.61</ele>
        <time>2014-09-12T07:07:40Z</time>
      </trkpt>
      <trkpt lat="44.3901" lon="4.85275">
        <ele>191.61</ele>
        <time>2014-09-12T07:08:30Z</time>
      </trkpt>
      <trkpt lat="44.39005" lon="4.85264">
        <ele>191.61</ele>
        <time>2014-09-12T07:08:47Z</time>
      </trkpt>
      <trkpt lat="44.39004" lon="4.85262">
        <ele>191.61</ele>
        <time>2014-09-12T07:08:48Z</time>
      </trkpt>
      <trkpt lat="44.39004" lon="4.8526">
        <ele>191.61</ele>
        <time>2014-09-12T07:08:49Z</time>
      </trkpt>
      <trkpt lat="44.38991" lon="4.85228">
        <ele>191.61</ele>
        <time>2014-09-12T07:09:02Z</time>
      </trkpt>
      <trkpt lat="44.3899" lon="4.85224">
        <ele>191.61</ele>
        <time>2014-09-12T07:09:03Z</time>
      </trkpt>
      <trkpt lat="44.38987" lon="4.85199">
        <ele>191.61</ele>
        <time>2014-09-12T07:09:11Z</time>
      </trkpt>
      <trkpt lat="44.38987" lon="4.85196">
        <ele>191.61</ele>
        <time>2014-09-12T07:09:12Z</time>
      </trkpt>
      <trkpt lat="44.38986" lon="4.85167">
        <ele>191.61</ele>
        <time>2014-09-12T07:09:20Z</time>
      </trkpt>
      <trkpt lat="44.38986" lon="4.85163">
        <ele>191.61</ele>
        <time>2014-09-12T07:09:21Z</time>
      </trkpt>
      <trkpt lat="44.38979" lon="4.85117">
        <ele>191.61</ele>
        <time>2014-09-12T07:09:36Z</time>
      </trkpt>
      <trkpt lat="44.38977" lon="4.85101">
        <ele>191.61</ele>
        <time>2014-09-12T07:09:41Z</time>
      </trkpt>
      <trkpt lat="44.38976" lon="4.85095">
        <ele>191.61</ele>
        <time>2014-09-12T07:09:43Z</time>
      </trkpt>
      <trkpt lat="44.38976" lon="4.85056">
        <ele>191.61</ele>
        <time>2014-09-12T07:09:55Z</time>
      </trkpt>
      <trkpt lat="44.3898" lon="4.84984">
        <ele>191.61</ele>
        <time>2014-09-12T07:10:13Z</time>
      </trkpt>
      <trkpt lat="44.3898" lon="4.84979">
        <ele>191.61</ele>
        <time>2014-09-12T07:10:14Z</time>
      </trkpt>
      <trkpt lat="44.38981" lon="4.84971">
        <ele>191.61</ele>
        <time>2014-09-12T07:10:16Z</time>
      </trkpt>
      <trkpt lat="44.38982" lon="4.84899">
        <ele>191.61</ele>
        <time>2014-09-12T07:10:33Z</time>
      </trkpt>
      <trkpt lat="44.38978" lon="4.84851">
        <ele>191.61</ele>
        <time>2014-09-12T07:10:45Z</time>
      </trkpt>
      <trkpt lat="44.38977" lon="4.84848">
        <ele>191.61</ele>
        <time>2014-09-12T07:10:46Z</time>
      </trkpt>
      <trkpt lat="44.38974" lon="4.84845">
        <ele>191.61</ele>
        <time>2014-09-12T07:10:47Z</time>
      </trkpt>
      <trkpt lat="44.38972" lon="4.84842">
        <ele>191.61</ele>
        <time>2014-09-12T07:10:48Z</time>
      </trkpt>
      <trkpt lat="44.38969" lon="4.84841">
        <ele>191.61</ele>
        <time>2014-09-12T07:10:49Z</time>
      </trkpt>
      <trkpt lat="44.38966" lon="4.8484">
        <ele>191.61</ele>
        <time>2014-09-12T07:10:50Z</time>
      </trkpt>
      <trkpt lat="44.38963" lon="4.84841">
        <ele>191.61</ele>
        <time>2014-09-12T07:10:51Z</time>
      </trkpt>
      <trkpt lat="44.38958" lon="4.84841">
        <ele>191.61</ele>
        <time>2014-09-12T07:10:52Z</time>
      </trkpt>
      <trkpt lat="44.38952" lon="4.84842">
        <ele>191.61</ele>
        <time>2014-09-12T07:10:53Z</time>
      </trkpt>
      <trkpt lat="44.38946" lon="4.84844">
        <ele>191.61</ele>
        <time>2014-09-12T07:10:54Z</time>
      </trkpt>
      <trkpt lat="44.38939" lon="4.84847">
        <ele>191.61</ele>
        <time>2014-09-12T07:10:55Z</time>
      </trkpt>
      <trkpt lat="44.38932" lon="4.84851">
        <ele>191.61</ele>
        <time>2014-09-12T07:10:56Z</time>
      </trkpt>
      <trkpt lat="44.38926" lon="4.84855">
        <ele>191.61</ele>
        <time>2014-09-12T07:10:57Z</time>
      </trkpt>
      <trkpt lat="44.38886" lon="4.84877">
        <ele>191.61</ele>
        <time>2014-09-12T07:11:05Z</time>
      </trkpt>
      <trkpt lat="44.38882" lon="4.84877">
        <ele>191.61</ele>
        <time>2014-09-12T07:11:06Z</time>
      </trkpt>
      <trkpt lat="44.38877" lon="4.84876">
        <ele>191.61</ele>
        <time>2014-09-12T07:11:07Z</time>
      </trkpt>
      <trkpt lat="44.38873" lon="4.84873">
        <ele>191.61</ele>
        <time>2014-09-12T07:11:08Z</time>
      </trkpt>
      <trkpt lat="44.3887" lon="4.84869">
        <ele>191.61</ele>
        <time>2014-09-12T07:11:09Z</time>
      </trkpt>
      <trkpt lat="44.38867" lon="4.84865">
        <ele>191.61</ele>
        <time>2014-09-12T07:11:10Z</time>
      </trkpt>
      <trkpt lat="44.38865" lon="4.84861">
        <ele>191.61</ele>
        <time>2014-09-12T07:11:11Z</time>
      </trkpt>
      <trkpt lat="44.38863" lon="4.84856">
        <ele>191.61</ele>
        <time>2014-09-12T07:11:12Z</time>
      </trkpt>
      <trkpt lat="44.38861" lon="4.84852">
        <ele>191.61</ele>
        <time>2014-09-12T07:11:13Z</time>
      </trkpt>
      <trkpt lat="44.38859" lon="4.84848">
        <ele>191.61</ele>
        <time>2014-09-12T07:11:14Z</time>
      </trkpt>
      <trkpt lat="44.38857" lon="4.84844">
        <ele>191.61</ele>
        <time>2014-09-12T07:11:15Z</time>
      </trkpt>
      <trkpt lat="44.38855" lon="4.8484">
        <ele>191.61</ele>
        <time>2014-09-12T07:11:16Z</time>
      </trkpt>
      <trkpt lat="44.38849" lon="4.84825">
        <ele>191.61</ele>
        <time>2014-09-12T07:11:20Z</time>
      </trkpt>
      <trkpt lat="44.38847" lon="4.84822">
        <ele>191.61</ele>
        <time>2014-09-12T07:11:21Z</time>
      </trkpt>
      <trkpt lat="44.38844" lon="4.84815">
        <ele>191.61</ele>
        <time>2014-09-12T07:11:23Z</time>
      </trkpt>
      <trkpt lat="44.38842" lon="4.84812">
        <ele>191.61</ele>
        <time>2014-09-12T07:11:24Z</time>
      </trkpt>
      <trkpt lat="44.38839" lon="4.84809">
        <ele>191.61</ele>
        <time>2014-09-12T07:11:25Z</time>
      </trkpt>
      <trkpt lat="44.38836" lon="4.84807">
        <ele>191.61</ele>
        <time>2014-09-12T07:11:26Z</time>
      </trkpt>
      <trkpt lat="44.38833" lon="4.84804">
        <ele>191.61</ele>
        <time>2014-09-12T07:11:27Z</time>
      </trkpt>
      <trkpt lat="44.38785" lon="4.84786">
        <ele>191.61</ele>
        <time>2014-09-12T07:11:44Z</time>
      </trkpt>
      <trkpt lat="44.38766" lon="4.84763">
        <ele>191.61</ele>
        <time>2014-09-12T07:11:54Z</time>
      </trkpt>
      <trkpt lat="44.38754" lon="4.84744">
        <ele>191.61</ele>
        <time>2014-09-12T07:12:00Z</time>
      </trkpt>
      <trkpt lat="44.38746" lon="4.84732">
        <ele>191.61</ele>
        <time>2014-09-12T07:12:04Z</time>
      </trkpt>
      <trkpt lat="44.38717" lon="4.84663">
        <ele>191.61</ele>
        <time>2014-09-12T07:12:24Z</time>
      </trkpt>
      <trkpt lat="44.38714" lon="4.84621">
        <ele>191.61</ele>
        <time>2014-09-12T07:12:35Z</time>
      </trkpt>
      <trkpt lat="44.38713" lon="4.84603">
        <ele>191.61</ele>
        <time>2014-09-12T07:12:39Z</time>
      </trkpt>
      <trkpt lat="44.38695" lon="4.84522">
        <ele>191.61</ele>
        <time>2014-09-12T07:12:55Z</time>
      </trkpt>
      <trkpt lat="44.38671" lon="4.84438">
        <ele>191.61</ele>
        <time>2014-09-12T07:13:12Z</time>
      </trkpt>
      <trkpt lat="44.38666" lon="4.84421">
        <ele>191.61</ele>
        <time>2014-09-12T07:13:16Z</time>
      </trkpt>
      <trkpt lat="44.38653" lon="4.84388">
        <ele>191.61</ele>
        <time>2014-09-12T07:13:24Z</time>
      </trkpt>
      <trkpt lat="44.38643" lon="4.84364">
        <ele>191.61</ele>
        <time>2014-09-12T07:13:30Z</time>
      </trkpt>
      <trkpt lat="44.38631" lon="4.84335">
        <ele>191.61</ele>
        <time>2014-09-12T07:13:37Z</time>
      </trkpt>
      <trkpt lat="44.38623" lon="4.843">
        <ele>191.61</ele>
        <time>2014-09-12T07:13:44Z</time>
      </trkpt>
      <trkpt lat="44.3862" lon="4.84273">
        <ele>191.61</ele>
        <time>2014-09-12T07:13:50Z</time>
      </trkpt>
      <trkpt lat="44.38601" lon="4.84209">
        <ele>191.61</ele>
        <time>2014-09-12T07:14:04Z</time>
      </trkpt>
      <trkpt lat="44.38591" lon="4.84185">
        <ele>191.61</ele>
        <time>2014-09-12T07:14:10Z</time>
      </trkpt>
      <trkpt lat="44.38579" lon="4.84154">
        <ele>191.61</ele>
        <time>2014-09-12T07:14:18Z</time>
      </trkpt>
      <trkpt lat="44.38561" lon="4.84097">
        <ele>191.61</ele>
        <time>2014-09-12T07:14:31Z</time>
      </trkpt>
      <trkpt lat="44.38551" lon="4.8407">
        <ele>191.61</ele>
        <time>2014-09-12T07:14:39Z</time>
      </trkpt>
      <trkpt lat="44.38529" lon="4.84017">
        <ele>191.61</ele>
        <time>2014-09-12T07:14:53Z</time>
      </trkpt>
      <trkpt lat="44.38516" lon="4.83984">
        <ele>191.61</ele>
        <time>2014-09-12T07:15:02Z</time>
      </trkpt>
      <trkpt lat="44.38512" lon="4.83977">
        <ele>191.61</ele>
        <time>2014-09-12T07:15:04Z</time>
      </trkpt>
      <trkpt lat="44.38506" lon="4.83964">
        <ele>191.61</ele>
        <time>2014-09-12T07:15:08Z</time>
      </trkpt>
      <trkpt lat="44.38502" lon="4.83945">
        <ele>191.61</ele>
        <time>2014-09-12T07:15:15Z</time>
      </trkpt>
      <trkpt lat="44.38501" lon="4.83938">
        <ele>191.61</ele>
        <time>2014-09-12T07:15:17Z</time>
      </trkpt>
      <trkpt lat="44.38503" lon="4.83939">
        <ele>191.61</ele>
        <time>2014-09-12T07:15:29Z</time>
      </trkpt>
      <trkpt lat="44.38501" lon="4.83948">
        <ele>191.61</ele>
        <time>2014-09-12T07:15:36Z</time>
      </trkpt>
      <trkpt lat="44.38499" lon="4.83948">
        <ele>191.61</ele>
        <time>2014-09-12T07:15:38Z</time>
      </trkpt>
      <trkpt lat="44.38494" lon="4.83942">
        <ele>191.61</ele>
        <time>2014-09-12T07:15:48Z</time>
      </trkpt>
      <trkpt lat="44.38492" lon="4.83938">
        <ele>191.61</ele>
        <time>2014-09-12T07:15:51Z</time>
      </trkpt>
      <trkpt lat="44.38484" lon="4.83923">
        <ele>191.61</ele>
        <time>2014-09-12T07:16:05Z</time>
      </trkpt>
      <trkpt lat="44.38481" lon="4.83919">
        <ele>191.61</ele>
        <time>2014-09-12T07:16:09Z</time>
      </trkpt>
      <trkpt lat="44.38476" lon="4.83908">
        <ele>191.61</ele>
        <time>2014-09-12T07:16:16Z</time>
      </trkpt>
      <trkpt lat="44.38474" lon="4.83904">
        <ele>191.61</ele>
        <time>2014-09-12T07:16:19Z</time>
      </trkpt>
      <trkpt lat="44.38467" lon="4.83894">
        <ele>191.61</ele>
        <time>2014-09-12T07:16:30Z</time>
      </trkpt>
      <trkpt lat="44.3846" lon="4.83882">
        <ele>191.61</ele>
        <time>2014-09-12T07:16:46Z</time>
      </trkpt>
      <trkpt lat="44.38459" lon="4.83878">
        <ele>191.61</ele>
        <time>2014-09-12T07:16:51Z</time>
      </trkpt>
      <trkpt lat="44.38455" lon="4.83857">
        <ele>191.61</ele>
        <time>2014-09-12T07:17:10Z</time>
      </trkpt>
      <trkpt lat="44.38451" lon="4.83834">
        <ele>191.61</ele>
        <time>2014-09-12T07:17:28Z</time>
      </trkpt>
      <trkpt lat="44.38448" lon="4.83829">
        <ele>191.61</ele>
        <time>2014-09-12T07:17:33Z</time>
      </trkpt>
      <trkpt lat="44.38446" lon="4.83826">
        <ele>191.61</ele>
        <time>2014-09-12T07:17:36Z</time>
      </trkpt>
      <trkpt lat="44.38438" lon="4.83816">
        <ele>191.61</ele>
        <time>2014-09-12T07:17:47Z</time>
      </trkpt>
      <trkpt lat="44.38434" lon="4.83811">
        <ele>191.61</ele>
        <time>2014-09-12T07:17:51Z</time>
      </trkpt>
      <trkpt lat="44.3842" lon="4.83799">
        <ele>191.61</ele>
        <time>2014-09-12T07:18:00Z</time>
      </trkpt>
      <trkpt lat="44.38413" lon="4.8379">
        <ele>191.61</ele>
        <time>2014-09-12T07:18:05Z</time>
      </trkpt>
      <trkpt lat="44.3841" lon="4.83786">
        <ele>191.61</ele>
        <time>2014-09-12T07:18:07Z</time>
      </trkpt>
      <trkpt lat="44.38403" lon="4.83778">
        <ele>191.6</ele>
        <time>2014-09-12T07:18:11Z</time>
      </trkpt>
      <trkpt lat="44.38374" lon="4.8377">
        <ele>191.6</ele>
        <time>2014-09-12T07:18:27Z</time>
      </trkpt>
      <trkpt lat="44.38367" lon="4.8377">
        <ele>191.6</ele>
        <time>2014-09-12T07:18:43Z</time>
      </trkpt>
      <trkpt lat="44.38362" lon="4.83769">
        <ele>191.6</ele>
        <time>2014-09-12T07:18:48Z</time>
      </trkpt>
      <trkpt lat="44.38353" lon="4.83767">
        <ele>191.6</ele>
        <time>2014-09-12T07:18:53Z</time>
      </trkpt>
      <trkpt lat="44.38319" lon="4.83749">
        <ele>191.6</ele>
        <time>2014-09-12T07:19:08Z</time>
      </trkpt>
      <trkpt lat="44.38298" lon="4.83727">
        <ele>191.6</ele>
        <time>2014-09-12T07:19:19Z</time>
      </trkpt>
      <trkpt lat="44.38287" lon="4.837">
        <ele>191.6</ele>
        <time>2014-09-12T07:19:32Z</time>
      </trkpt>
      <trkpt lat="44.38286" lon="4.83697">
        <ele>191.6</ele>
        <time>2014-09-12T07:19:33Z</time>
      </trkpt>
      <trkpt lat="44.38284" lon="4.83689">
        <ele>191.6</ele>
        <time>2014-09-12T07:19:36Z</time>
      </trkpt>
      <trkpt lat="44.3828" lon="4.83676">
        <ele>191.6</ele>
        <time>2014-09-12T07:19:40Z</time>
      </trkpt>
      <trkpt lat="44.38264" lon="4.83627">
        <ele>191.6</ele>
        <time>2014-09-12T07:19:56Z</time>
      </trkpt>
      <trkpt lat="44.38262" lon="4.83619">
        <ele>191.6</ele>
        <time>2014-09-12T07:19:58Z</time>
      </trkpt>
      <trkpt lat="44.38257" lon="4.83597">
        <ele>191.6</ele>
        <time>2014-09-12T07:20:03Z</time>
      </trkpt>
      <trkpt lat="44.38247" lon="4.83562">
        <ele>191.6</ele>
        <time>2014-09-12T07:20:11Z</time>
      </trkpt>
      <trkpt lat="44.3823" lon="4.83495">
        <ele>191.6</ele>
        <time>2014-09-12T07:20:26Z</time>
      </trkpt>
      <trkpt lat="44.38226" lon="4.8348">
        <ele>191.6</ele>
        <time>2014-09-12T07:20:30Z</time>
      </trkpt>
      <trkpt lat="44.3821" lon="4.83414">
        <ele>191.6</ele>
        <time>2014-09-12T07:20:44Z</time>
      </trkpt>
      <trkpt lat="44.38188" lon="4.83338">
        <ele>191.6</ele>
        <time>2014-09-12T07:21:00Z</time>
      </trkpt>
      <trkpt lat="44.38179" lon="4.83299">
        <ele>191.6</ele>
        <time>2014-09-12T07:21:08Z</time>
      </trkpt>
      <trkpt lat="44.38175" lon="4.83284">
        <ele>191.6</ele>
        <time>2014-09-12T07:21:11Z</time>
      </trkpt>
      <trkpt lat="44.38171" lon="4.83263">
        <ele>191.6</ele>
        <time>2014-09-12T07:21:15Z</time>
      </trkpt>
      <trkpt lat="44.38165" lon="4.83234">
        <ele>191.6</ele>
        <time>2014-09-12T07:21:21Z</time>
      </trkpt>
      <trkpt lat="44.38154" lon="4.83173">
        <ele>191.6</ele>
        <time>2014-09-12T07:21:33Z</time>
      </trkpt>
      <trkpt lat="44.38142" lon="4.83126">
        <ele>191.6</ele>
        <time>2014-09-12T07:21:42Z</time>
      </trkpt>
      <trkpt lat="44.38132" lon="4.83089">
        <ele>191.6</ele>
        <time>2014-09-12T07:21:49Z</time>
      </trkpt>
      <trkpt lat="44.38131" lon="4.83084">
        <ele>191.6</ele>
        <time>2014-09-12T07:21:50Z</time>
      </trkpt>
      <trkpt lat="44.38122" lon="4.83058">
        <ele>191.6</ele>
        <time>2014-09-12T07:21:55Z</time>
      </trkpt>
      <trkpt lat="44.38117" lon="4.83043">
        <ele>191.6</ele>
        <time>2014-09-12T07:21:58Z</time>
      </trkpt>
      <trkpt lat="44.38107" lon="4.83014">
        <ele>191.6</ele>
        <time>2014-09-12T07:22:05Z</time>
      </trkpt>
      <trkpt lat="44.38106" lon="4.8301">
        <ele>191.6</ele>
        <time>2014-09-12T07:22:06Z</time>
      </trkpt>
      <trkpt lat="44.38105" lon="4.83007">
        <ele>191.6</ele>
        <time>2014-09-12T07:22:07Z</time>
      </trkpt>
      <trkpt lat="44.38104" lon="4.83">
        <ele>191.6</ele>
        <time>2014-09-12T07:22:09Z</time>
      </trkpt>
      <trkpt lat="44.38102" lon="4.82996">
        <ele>191.6</ele>
        <time>2014-09-12T07:22:11Z</time>
      </trkpt>
      <trkpt lat="44.38101" lon="4.82994">
        <ele>191.6</ele>
        <time>2014-09-12T07:22:12Z</time>
      </trkpt>
      <trkpt lat="44.381" lon="4.82992">
        <ele>191.6</ele>
        <time>2014-09-12T07:22:13Z</time>
      </trkpt>
      <trkpt lat="44.38098" lon="4.82991">
        <ele>191.6</ele>
        <time>2014-09-12T07:22:14Z</time>
      </trkpt>
      <trkpt lat="44.38097" lon="4.8299">
        <ele>191.6</ele>
        <time>2014-09-12T07:22:15Z</time>
      </trkpt>
      <trkpt lat="44.38088" lon="4.82979">
        <ele>191.6</ele>
        <time>2014-09-12T07:22:22Z</time>
      </trkpt>
      <trkpt lat="44.38087" lon="4.82978">
        <ele>191.6</ele>
        <time>2014-09-12T07:22:23Z</time>
      </trkpt>
      <trkpt lat="44.38081" lon="4.82967">
        <ele>191.6</ele>
        <time>2014-09-12T07:22:29Z</time>
      </trkpt>
      <trkpt lat="44.38073" lon="4.82952">
        <ele>191.6</ele>
        <time>2014-09-12T07:22:37Z</time>
      </trkpt>
      <trkpt lat="44.38072" lon="4.8295">
        <ele>191.6</ele>
        <time>2014-09-12T07:22:38Z</time>
      </trkpt>
      <trkpt lat="44.38071" lon="4.82948">
        <ele>191.6</ele>
        <time>2014-09-12T07:22:39Z</time>
      </trkpt>
      <trkpt lat="44.3807" lon="4.82946">
        <ele>191.6</ele>
        <time>2014-09-12T07:22:40Z</time>
      </trkpt>
      <trkpt lat="44.38068" lon="4.82944">
        <ele>191.6</ele>
        <time>2014-09-12T07:22:41Z</time>
      </trkpt>
      <trkpt lat="44.38043" lon="4.82908">
        <ele>191.6</ele>
        <time>2014-09-12T07:22:56Z</time>
      </trkpt>
      <trkpt lat="44.38023" lon="4.82879">
        <ele>191.6</ele>
        <time>2014-09-12T07:23:05Z</time>
      </trkpt>
      <trkpt lat="44.38021" lon="4.82876">
        <ele>191.6</ele>
        <time>2014-09-12T07:23:06Z</time>
      </trkpt>
      <trkpt lat="44.38018" lon="4.82873">
        <ele>191.6</ele>
        <time>2014-09-12T07:23:07Z</time>
      </trkpt>
      <trkpt lat="44.38015" lon="4.8287">
        <ele>191.6</ele>
        <time>2014-09-12T07:23:08Z</time>
      </trkpt>
      <trkpt lat="44.38013" lon="4.82868">
        <ele>191.6</ele>
        <time>2014-09-12T07:23:09Z</time>
      </trkpt>
      <trkpt lat="44.3801" lon="4.82865">
        <ele>191.6</ele>
        <time>2014-09-12T07:23:10Z</time>
      </trkpt>
      <trkpt lat="44.38007" lon="4.82862">
        <ele>191.6</ele>
        <time>2014-09-12T07:23:11Z</time>
      </trkpt>
      <trkpt lat="44.38005" lon="4.82858">
        <ele>191.6</ele>
        <time>2014-09-12T07:23:12Z</time>
      </trkpt>
      <trkpt lat="44.38002" lon="4.82855">
        <ele>191.6</ele>
        <time>2014-09-12T07:23:13Z</time>
      </trkpt>
      <trkpt lat="44.38" lon="4.82851">
        <ele>191.6</ele>
        <time>2014-09-12T07:23:14Z</time>
      </trkpt>
      <trkpt lat="44.37974" lon="4.82798">
        <ele>191.6</ele>
        <time>2014-09-12T07:23:28Z</time>
      </trkpt>
      <trkpt lat="44.37972" lon="4.82795">
        <ele>191.6</ele>
        <time>2014-09-12T07:23:29Z</time>
      </trkpt>
      <trkpt lat="44.37947" lon="4.82746">
        <ele>191.6</ele>
        <time>2014-09-12T07:23:41Z</time>
      </trkpt>
      <trkpt lat="44.37928" lon="4.82706">
        <ele>191.6</ele>
        <time>2014-09-12T07:23:50Z</time>
      </trkpt>
      <trkpt lat="44.37926" lon="4.82702">
        <ele>191.6</ele>
        <time>2014-09-12T07:23:51Z</time>
      </trkpt>
      <trkpt lat="44.37924" lon="4.82697">
        <ele>191.6</ele>
        <time>2014-09-12T07:23:52Z</time>
      </trkpt>
      <trkpt lat="44.37923" lon="4.82692">
        <ele>191.6</ele>
        <time>2014-09-12T07:23:53Z</time>
      </trkpt>
      <trkpt lat="44.37921" lon="4.82687">
        <ele>191.6</ele>
        <time>2014-09-12T07:23:54Z</time>
      </trkpt>
      <trkpt lat="44.37919" lon="4.82683">
        <ele>191.6</ele>
        <time>2014-09-12T07:23:55Z</time>
      </trkpt>
      <trkpt lat="44.37918" lon="4.82678">
        <ele>191.6</ele>
        <time>2014-09-12T07:23:56Z</time>
      </trkpt>
      <trkpt lat="44.37916" lon="4.82673">
        <ele>191.6</ele>
        <time>2014-09-12T07:23:57Z</time>
      </trkpt>
      <trkpt lat="44.37914" lon="4.82668">
        <ele>191.6</ele>
        <time>2014-09-12T07:23:58Z</time>
      </trkpt>
      <trkpt lat="44.37912" lon="4.82664">
        <ele>191.6</ele>
        <time>2014-09-12T07:23:59Z</time>
      </trkpt>
      <trkpt lat="44.3791" lon="4.82659">
        <ele>191.6</ele>
        <time>2014-09-12T07:24:00Z</time>
      </trkpt>
      <trkpt lat="44.37909" lon="4.82655">
        <ele>191.6</ele>
        <time>2014-09-12T07:24:01Z</time>
      </trkpt>
      <trkpt lat="44.37907" lon="4.82651">
        <ele>191.6</ele>
        <time>2014-09-12T07:24:02Z</time>
      </trkpt>
      <trkpt lat="44.37898" lon="4.82628">
        <ele>191.6</ele>
        <time>2014-09-12T07:24:07Z</time>
      </trkpt>
      <trkpt lat="44.37896" lon="4.82623">
        <ele>191.6</ele>
        <time>2014-09-12T07:24:08Z</time>
      </trkpt>
      <trkpt lat="44.37894" lon="4.82618">
        <ele>191.6</ele>
        <time>2014-09-12T07:24:09Z</time>
      </trkpt>
      <trkpt lat="44.37892" lon="4.82614">
        <ele>191.6</ele>
        <time>2014-09-12T07:24:10Z</time>
      </trkpt>
      <trkpt lat="44.3789" lon="4.82609">
        <ele>191.6</ele>
        <time>2014-09-12T07:24:11Z</time>
      </trkpt>
      <trkpt lat="44.37888" lon="4.82605">
        <ele>191.6</ele>
        <time>2014-09-12T07:24:12Z</time>
      </trkpt>
      <trkpt lat="44.37885" lon="4.82596">
        <ele>191.6</ele>
        <time>2014-09-12T07:24:14Z</time>
      </trkpt>
      <trkpt lat="44.37883" lon="4.82591">
        <ele>191.6</ele>
        <time>2014-09-12T07:24:15Z</time>
      </trkpt>
      <trkpt lat="44.3788" lon="4.82587">
        <ele>191.6</ele>
        <time>2014-09-12T07:24:16Z</time>
      </trkpt>
      <trkpt lat="44.37878" lon="4.82582">
        <ele>191.6</ele>
        <time>2014-09-12T07:24:17Z</time>
      </trkpt>
      <trkpt lat="44.37876" lon="4.82578">
        <ele>191.6</ele>
        <time>2014-09-12T07:24:18Z</time>
      </trkpt>
      <trkpt lat="44.37874" lon="4.82573">
        <ele>191.6</ele>
        <time>2014-09-12T07:24:19Z</time>
      </trkpt>
      <trkpt lat="44.37859" lon="4.82548">
        <ele>191.6</ele>
        <time>2014-09-12T07:24:25Z</time>
      </trkpt>
      <trkpt lat="44.37856" lon="4.82544">
        <ele>191.6</ele>
        <time>2014-09-12T07:24:26Z</time>
      </trkpt>
      <trkpt lat="44.37853" lon="4.82539">
        <ele>191.6</ele>
        <time>2014-09-12T07:24:27Z</time>
      </trkpt>
      <trkpt lat="44.3785" lon="4.82535">
        <ele>191.6</ele>
        <time>2014-09-12T07:24:28Z</time>
      </trkpt>
      <trkpt lat="44.37848" lon="4.82531">
        <ele>191.6</ele>
        <time>2014-09-12T07:24:29Z</time>
      </trkpt>
      <trkpt lat="44.37842" lon="4.82522">
        <ele>191.6</ele>
        <time>2014-09-12T07:24:31Z</time>
      </trkpt>
      <trkpt lat="44.37801" lon="4.82456">
        <ele>191.6</ele>
        <time>2014-09-12T07:24:44Z</time>
      </trkpt>
      <trkpt lat="44.37787" lon="4.82445">
        <ele>191.6</ele>
        <time>2014-09-12T07:24:48Z</time>
      </trkpt>
      <trkpt lat="44.37784" lon="4.82444">
        <ele>191.6</ele>
        <time>2014-09-12T07:24:49Z</time>
      </trkpt>
      <trkpt lat="44.3778" lon="4.82443">
        <ele>191.6</ele>
        <time>2014-09-12T07:24:50Z</time>
      </trkpt>
      <trkpt lat="44.37776" lon="4.82442">
        <ele>191.6</ele>
        <time>2014-09-12T07:24:51Z</time>
      </trkpt>
      <trkpt lat="44.37772" lon="4.82442">
        <ele>191.6</ele>
        <time>2014-09-12T07:24:52Z</time>
      </trkpt>
      <trkpt lat="44.37734" lon="4.82438">
        <ele>191.6</ele>
        <time>2014-09-12T07:25:04Z</time>
      </trkpt>
      <trkpt lat="44.37729" lon="4.82433">
        <ele>191.6</ele>
        <time>2014-09-12T07:25:06Z</time>
      </trkpt>
      <trkpt lat="44.37726" lon="4.82429">
        <ele>191.6</ele>
        <time>2014-09-12T07:25:07Z</time>
      </trkpt>
      <trkpt lat="44.37724" lon="4.82425">
        <ele>191.6</ele>
        <time>2014-09-12T07:25:08Z</time>
      </trkpt>
      <trkpt lat="44.37722" lon="4.82421">
        <ele>191.6</ele>
        <time>2014-09-12T07:25:09Z</time>
      </trkpt>
      <trkpt lat="44.37721" lon="4.82417">
        <ele>191.6</ele>
        <time>2014-09-12T07:25:10Z</time>
      </trkpt>
      <trkpt lat="44.37711" lon="4.82387">
        <ele>191.6</ele>
        <time>2014-09-12T07:25:17Z</time>
      </trkpt>
      <trkpt lat="44.37708" lon="4.82376">
        <ele>191.6</ele>
        <time>2014-09-12T07:25:19Z</time>
      </trkpt>
      <trkpt lat="44.37704" lon="4.82365">
        <ele>191.6</ele>
        <time>2014-09-12T07:25:21Z</time>
      </trkpt>
      <trkpt lat="44.37699" lon="4.82353">
        <ele>191.6</ele>
        <time>2014-09-12T07:25:23Z</time>
      </trkpt>
      <trkpt lat="44.37696" lon="4.82348">
        <ele>191.6</ele>
        <time>2014-09-12T07:25:24Z</time>
      </trkpt>
      <trkpt lat="44.3769" lon="4.82339">
        <ele>191.6</ele>
        <time>2014-09-12T07:25:26Z</time>
      </trkpt>
      <trkpt lat="44.37684" lon="4.82331">
        <ele>191.6</ele>
        <time>2014-09-12T07:25:28Z</time>
      </trkpt>
      <trkpt lat="44.37629" lon="4.8229">
        <ele>191.6</ele>
        <time>2014-09-12T07:25:41Z</time>
      </trkpt>
      <trkpt lat="44.37581" lon="4.82267">
        <ele>191.6</ele>
        <time>2014-09-12T07:25:53Z</time>
      </trkpt>
      <trkpt lat="44.37555" lon="4.82228">
        <ele>191.6</ele>
        <time>2014-09-12T07:26:04Z</time>
      </trkpt>
      <trkpt lat="44.37553" lon="4.82222">
        <ele>191.6</ele>
        <time>2014-09-12T07:26:05Z</time>
      </trkpt>
      <trkpt lat="44.37552" lon="4.82215">
        <ele>191.6</ele>
        <time>2014-09-12T07:26:06Z</time>
      </trkpt>
      <trkpt lat="44.37551" lon="4.82208">
        <ele>191.6</ele>
        <time>2014-09-12T07:26:07Z</time>
      </trkpt>
      <trkpt lat="44.37549" lon="4.82201">
        <ele>191.6</ele>
        <time>2014-09-12T07:26:08Z</time>
      </trkpt>
      <trkpt lat="44.37529" lon="4.82132">
        <ele>191.59</ele>
        <time>2014-09-12T07:26:17Z</time>
      </trkpt>
      <trkpt lat="44.37525" lon="4.82125">
        <ele>191.59</ele>
        <time>2014-09-12T07:26:18Z</time>
      </trkpt>
      <trkpt lat="44.37499" lon="4.82085">
        <ele>191.59</ele>
        <time>2014-09-12T07:26:24Z</time>
      </trkpt>
      <trkpt lat="44.37494" lon="4.82078">
        <ele>191.59</ele>
        <time>2014-09-12T07:26:25Z</time>
      </trkpt>
      <trkpt lat="44.37425" lon="4.81991">
        <ele>191.59</ele>
        <time>2014-09-12T07:26:38Z</time>
      </trkpt>
      <trkpt lat="44.37394" lon="4.81926">
        <ele>191.59</ele>
        <time>2014-09-12T07:26:47Z</time>
      </trkpt>
      <trkpt lat="44.37382" lon="4.81905">
        <ele>191.59</ele>
        <time>2014-09-12T07:26:51Z</time>
      </trkpt>
      <trkpt lat="44.3738" lon="4.81898">
        <ele>191.59</ele>
        <time>2014-09-12T07:26:52Z</time>
      </trkpt>
      <trkpt lat="44.37378" lon="4.81891">
        <ele>191.59</ele>
        <time>2014-09-12T07:26:53Z</time>
      </trkpt>
      <trkpt lat="44.37378" lon="4.81884">
        <ele>191.59</ele>
        <time>2014-09-12T07:26:54Z</time>
      </trkpt>
      <trkpt lat="44.37378" lon="4.81877">
        <ele>191.59</ele>
        <time>2014-09-12T07:26:55Z</time>
      </trkpt>
      <trkpt lat="44.37378" lon="4.81869">
        <ele>191.59</ele>
        <time>2014-09-12T07:26:56Z</time>
      </trkpt>
      <trkpt lat="44.37376" lon="4.81844">
        <ele>191.59</ele>
        <time>2014-09-12T07:26:59Z</time>
      </trkpt>
      <trkpt lat="44.3737" lon="4.81828">
        <ele>191.59</ele>
        <time>2014-09-12T07:27:01Z</time>
      </trkpt>
      <trkpt lat="44.37366" lon="4.8182">
        <ele>191.59</ele>
        <time>2014-09-12T07:27:02Z</time>
      </trkpt>
      <trkpt lat="44.37352" lon="4.81797">
        <ele>191.59</ele>
        <time>2014-09-12T07:27:05Z</time>
      </trkpt>
      <trkpt lat="44.37348" lon="4.81788">
        <ele>191.59</ele>
        <time>2014-09-12T07:27:06Z</time>
      </trkpt>
      <trkpt lat="44.37316" lon="4.81655">
        <ele>191.59</ele>
        <time>2014-09-12T07:27:16Z</time>
      </trkpt>
      <trkpt lat="44.37299" lon="4.81568">
        <ele>191.59</ele>
        <time>2014-09-12T07:27:24Z</time>
      </trkpt>
      <trkpt lat="44.37298" lon="4.81552">
        <ele>191.59</ele>
        <time>2014-09-12T07:27:26Z</time>
      </trkpt>
      <trkpt lat="44.37298" lon="4.81517">
        <ele>191.59</ele>
        <time>2014-09-12T07:27:32Z</time>
      </trkpt>
      <trkpt lat="44.37296" lon="4.81514">
        <ele>191.59</ele>
        <time>2014-09-12T07:27:33Z</time>
      </trkpt>
      <trkpt lat="44.3727" lon="4.81495">
        <ele>191.59</ele>
        <time>2014-09-12T07:27:46Z</time>
      </trkpt>
      <trkpt lat="44.37267" lon="4.81488">
        <ele>191.59</ele>
        <time>2014-09-12T07:27:48Z</time>
      </trkpt>
      <trkpt lat="44.37267" lon="4.81439">
        <ele>191.59</ele>
        <time>2014-09-12T07:27:59Z</time>
      </trkpt>
      <trkpt lat="44.3727" lon="4.8142">
        <ele>191.59</ele>
        <time>2014-09-12T07:28:04Z</time>
      </trkpt>
      <trkpt lat="44.37267" lon="4.8141">
        <ele>191.59</ele>
        <time>2014-09-12T07:28:07Z</time>
      </trkpt>
      <trkpt lat="44.37249" lon="4.81402">
        <ele>191.59</ele>
        <time>2014-09-12T07:28:14Z</time>
      </trkpt>
      <trkpt lat="44.37246" lon="4.814">
        <ele>191.59</ele>
        <time>2014-09-12T07:28:15Z</time>
      </trkpt>
      <trkpt lat="44.37242" lon="4.81395">
        <ele>191.59</ele>
        <time>2014-09-12T07:28:17Z</time>
      </trkpt>
      <trkpt lat="44.3724" lon="4.81393">
        <ele>191.59</ele>
        <time>2014-09-12T07:28:18Z</time>
      </trkpt>
      <trkpt lat="44.3724" lon="4.81391">
        <ele>191.59</ele>
        <time>2014-09-12T07:28:19Z</time>
      </trkpt>
      <trkpt lat="44.3724" lon="4.81388">
        <ele>191.59</ele>
        <time>2014-09-12T07:28:20Z</time>
      </trkpt>
      <trkpt lat="44.37241" lon="4.81386">
        <ele>191.59</ele>
        <time>2014-09-12T07:28:21Z</time>
      </trkpt>
      <trkpt lat="44.37247" lon="4.81362">
        <ele>191.59</ele>
        <time>2014-09-12T07:28:28Z</time>
      </trkpt>
      <trkpt lat="44.37247" lon="4.81357">
        <ele>191.59</ele>
        <time>2014-09-12T07:28:30Z</time>
      </trkpt>
      <trkpt lat="44.37244" lon="4.81351">
        <ele>191.59</ele>
        <time>2014-09-12T07:28:33Z</time>
      </trkpt>
      <trkpt lat="44.37227" lon="4.8133">
        <ele>191.59</ele>
        <time>2014-09-12T07:28:45Z</time>
      </trkpt>
      <trkpt lat="44.37226" lon="4.81326">
        <ele>191.59</ele>
        <time>2014-09-12T07:28:46Z</time>
      </trkpt>
      <trkpt lat="44.37223" lon="4.81319">
        <ele>191.59</ele>
        <time>2014-09-12T07:28:48Z</time>
      </trkpt>
      <trkpt lat="44.37208" lon="4.8131">
        <ele>191.59</ele>
        <time>2014-09-12T07:28:57Z</time>
      </trkpt>
      <trkpt lat="44.37204" lon="4.81306">
        <ele>191.59</ele>
        <time>2014-09-12T07:29:14Z</time>
      </trkpt>
      <trkpt lat="44.37209" lon="4.81305">
        <ele>191.59</ele>
        <time>2014-09-12T07:29:23Z</time>
      </trkpt>
      <trkpt lat="44.37213" lon="4.81305">
        <ele>191.59</ele>
        <time>2014-09-12T07:29:27Z</time>
      </trkpt>
      <trkpt lat="44.37224" lon="4.81315">
        <ele>191.59</ele>
        <time>2014-09-12T07:29:43Z</time>
      </trkpt>
      <trkpt lat="44.3724" lon="4.81322">
        <ele>191.59</ele>
        <time>2014-09-12T07:30:04Z</time>
      </trkpt>
      <trkpt lat="44.37242" lon="4.81316">
        <ele>191.59</ele>
        <time>2014-09-12T07:30:20Z</time>
      </trkpt>
      <trkpt lat="44.37243" lon="4.81315">
        <ele>191.59</ele>
        <time>2014-09-12T07:30:38Z</time>
      </trkpt>
      <trkpt lat="44.37243" lon="4.81315">
        <ele>191.59</ele>
        <time>2014-09-12T07:31:19Z</time>
      </trkpt>
      <trkpt lat="44.37243" lon="4.81314">
        <ele>191.59</ele>
        <time>2014-09-12T07:31:58Z</time>
      </trkpt>
      <trkpt lat="44.37242" lon="4.81314">
        <ele>191.59</ele>
        <time>2014-09-12T07:32:31Z</time>
      </trkpt>
      <trkpt lat="44.37241" lon="4.81311">
        <ele>191.59</ele>
        <time>2014-09-12T07:33:14Z</time>
      </trkpt>
      <trkpt lat="44.37239" lon="4.81297">
        <ele>191.59</ele>
        <time>2014-09-12T07:33:20Z</time>
      </trkpt>
      <trkpt lat="44.37237" lon="4.81281">
        <ele>191.59</ele>
        <time>2014-09-12T07:33:25Z</time>
      </trkpt>
      <trkpt lat="44.37237" lon="4.81278">
        <ele>191.59</ele>
        <time>2014-09-12T07:33:26Z</time>
      </trkpt>
      <trkpt lat="44.37237" lon="4.81249">
        <ele>191.59</ele>
        <time>2014-09-12T07:33:35Z</time>
      </trkpt>
      <trkpt lat="44.37235" lon="4.81227">
        <ele>191.59</ele>
        <time>2014-09-12T07:33:40Z</time>
      </trkpt>
      <trkpt lat="44.37221" lon="4.81155">
        <ele>191.59</ele>
        <time>2014-09-12T07:33:55Z</time>
      </trkpt>
      <trkpt lat="44.3722" lon="4.81119">
        <ele>191.59</ele>
        <time>2014-09-12T07:34:05Z</time>
      </trkpt>
      <trkpt lat="44.37223" lon="4.81111">
        <ele>191.59</ele>
        <time>2014-09-12T07:34:08Z</time>
      </trkpt>
      <trkpt lat="44.37228" lon="4.81096">
        <ele>191.59</ele>
        <time>2014-09-12T07:34:21Z</time>
      </trkpt>
      <trkpt lat="44.37229" lon="4.81095">
        <ele>191.59</ele>
        <time>2014-09-12T07:34:22Z</time>
      </trkpt>
      <trkpt lat="44.37236" lon="4.81071">
        <ele>191.59</ele>
        <time>2014-09-12T07:34:36Z</time>
      </trkpt>
      <trkpt lat="44.37237" lon="4.81062">
        <ele>191.59</ele>
        <time>2014-09-12T07:34:40Z</time>
      </trkpt>
      <trkpt lat="44.37238" lon="4.81056">
        <ele>191.59</ele>
        <time>2014-09-12T07:34:42Z</time>
      </trkpt>
      <trkpt lat="44.37241" lon="4.81045">
        <ele>191.59</ele>
        <time>2014-09-12T07:34:46Z</time>
      </trkpt>
      <trkpt lat="44.37241" lon="4.81042">
        <ele>191.59</ele>
        <time>2014-09-12T07:34:48Z</time>
      </trkpt>
      <trkpt lat="44.37241" lon="4.81036">
        <ele>191.59</ele>
        <time>2014-09-12T07:34:51Z</time>
      </trkpt>
      <trkpt lat="44.37242" lon="4.81013">
        <ele>191.59</ele>
        <time>2014-09-12T07:35:06Z</time>
      </trkpt>
      <trkpt lat="44.37243" lon="4.8101">
        <ele>191.59</ele>
        <time>2014-09-12T07:35:14Z</time>
      </trkpt>
      <trkpt lat="44.37244" lon="4.80965">
        <ele>191.59</ele>
        <time>2014-09-12T07:35:27Z</time>
      </trkpt>
      <trkpt lat="44.37236" lon="4.80946">
        <ele>191.59</ele>
        <time>2014-09-12T07:35:30Z</time>
      </trkpt>
      <trkpt lat="44.37211" lon="4.809">
        <ele>191.59</ele>
        <time>2014-09-12T07:35:38Z</time>
      </trkpt>
      <trkpt lat="44.37209" lon="4.80896">
        <ele>191.59</ele>
        <time>2014-09-12T07:35:39Z</time>
      </trkpt>
      <trkpt lat="44.37187" lon="4.80869">
        <ele>191.59</ele>
        <time>2014-09-12T07:35:51Z</time>
      </trkpt>
      <trkpt lat="44.37185" lon="4.80868">
        <ele>191.59</ele>
        <time>2014-09-12T07:36:18Z</time>
      </trkpt>
      <trkpt lat="44.37169" lon="4.8086">
        <ele>191.59</ele>
        <time>2014-09-12T07:36:58Z</time>
      </trkpt>
      <trkpt lat="44.37146" lon="4.80859">
        <ele>191.59</ele>
        <time>2014-09-12T07:37:04Z</time>
      </trkpt>
      <trkpt lat="44.37116" lon="4.80833">
        <ele>191.59</ele>
        <time>2014-09-12T07:37:14Z</time>
      </trkpt>
      <trkpt lat="44.37113" lon="4.80777">
        <ele>191.59</ele>
        <time>2014-09-12T07:37:25Z</time>
      </trkpt>
      <trkpt lat="44.37111" lon="4.80764">
        <ele>191.59</ele>
        <time>2014-09-12T07:37:27Z</time>
      </trkpt>
      <trkpt lat="44.3711" lon="4.80758">
        <ele>191.59</ele>
        <time>2014-09-12T07:37:28Z</time>
      </trkpt>
      <trkpt lat="44.3711" lon="4.80752">
        <ele>191.59</ele>
        <time>2014-09-12T07:37:29Z</time>
      </trkpt>
      <trkpt lat="44.37109" lon="4.80747">
        <ele>191.59</ele>
        <time>2014-09-12T07:37:30Z</time>
      </trkpt>
      <trkpt lat="44.37107" lon="4.80742">
        <ele>191.59</ele>
        <time>2014-09-12T07:37:31Z</time>
      </trkpt>
      <trkpt lat="44.37106" lon="4.80738">
        <ele>191.59</ele>
        <time>2014-09-12T07:37:32Z</time>
      </trkpt>
      <trkpt lat="44.37101" lon="4.80719">
        <ele>191.59</ele>
        <time>2014-09-12T07:37:36Z</time>
      </trkpt>
      <trkpt lat="44.37096" lon="4.80664">
        <ele>191.59</ele>
        <time>2014-09-12T07:37:44Z</time>
      </trkpt>
      <trkpt lat="44.37097" lon="4.80659">
        <ele>191.59</ele>
        <time>2014-09-12T07:37:45Z</time>
      </trkpt>
      <trkpt lat="44.37098" lon="4.80654">
        <ele>191.59</ele>
        <time>2014-09-12T07:37:46Z</time>
      </trkpt>
      <trkpt lat="44.37099" lon="4.80649">
        <ele>191.59</ele>
        <time>2014-09-12T07:37:47Z</time>
      </trkpt>
      <trkpt lat="44.371" lon="4.80644">
        <ele>191.59</ele>
        <time>2014-09-12T07:37:48Z</time>
      </trkpt>
      <trkpt lat="44.37101" lon="4.80639">
        <ele>191.59</ele>
        <time>2014-09-12T07:37:49Z</time>
      </trkpt>
      <trkpt lat="44.371" lon="4.80634">
        <ele>191.59</ele>
        <time>2014-09-12T07:37:50Z</time>
      </trkpt>
      <trkpt lat="44.37099" lon="4.80631">
        <ele>191.59</ele>
        <time>2014-09-12T07:37:51Z</time>
      </trkpt>
      <trkpt lat="44.37097" lon="4.80628">
        <ele>191.59</ele>
        <time>2014-09-12T07:37:52Z</time>
      </trkpt>
      <trkpt lat="44.37095" lon="4.80626">
        <ele>191.59</ele>
        <time>2014-09-12T07:37:53Z</time>
      </trkpt>
      <trkpt lat="44.37092" lon="4.80624">
        <ele>191.59</ele>
        <time>2014-09-12T07:38:05Z</time>
      </trkpt>
      <trkpt lat="44.37088" lon="4.80625">
        <ele>191.59</ele>
        <time>2014-09-12T07:38:39Z</time>
      </trkpt>
      <trkpt lat="44.37087" lon="4.8063">
        <ele>191.59</ele>
        <time>2014-09-12T07:39:02Z</time>
      </trkpt>
      <trkpt lat="44.37087" lon="4.80631">
        <ele>191.59</ele>
        <time>2014-09-12T07:41:01Z</time>
      </trkpt>
      <trkpt lat="44.37087" lon="4.8063">
        <ele>191.59</ele>
        <time>2014-09-12T07:44:07Z</time>
      </trkpt>
      <trkpt lat="44.37086" lon="4.8063">
        <ele>191.59</ele>
        <time>2014-09-12T07:45:55Z</time>
      </trkpt>
      <trkpt lat="44.37084" lon="4.80634">
        <ele>191.59</ele>
        <time>2014-09-12T07:48:05Z</time>
      </trkpt>
      <trkpt lat="44.3708" lon="4.80655">
        <ele>191.59</ele>
        <time>2014-09-12T07:48:10Z</time>
      </trkpt>
      <trkpt lat="44.37079" lon="4.80668">
        <ele>191.59</ele>
        <time>2014-09-12T07:48:12Z</time>
      </trkpt>
      <trkpt lat="44.37079" lon="4.80676">
        <ele>191.59</ele>
        <time>2014-09-12T07:48:13Z</time>
      </trkpt>
      <trkpt lat="44.37073" lon="4.80803">
        <ele>191.59</ele>
        <time>2014-09-12T07:48:28Z</time>
      </trkpt>
      <trkpt lat="44.37073" lon="4.80827">
        <ele>191.59</ele>
        <time>2014-09-12T07:48:31Z</time>
      </trkpt>
      <trkpt lat="44.37074" lon="4.80834">
        <ele>191.59</ele>
        <time>2014-09-12T07:48:32Z</time>
      </trkpt>
      <trkpt lat="44.37075" lon="4.8084">
        <ele>191.59</ele>
        <time>2014-09-12T07:48:33Z</time>
      </trkpt>
      <trkpt lat="44.37074" lon="4.80845">
        <ele>191.59</ele>
        <time>2014-09-12T07:48:34Z</time>
      </trkpt>
      <trkpt lat="44.37072" lon="4.80849">
        <ele>191.59</ele>
        <time>2014-09-12T07:48:35Z</time>
      </trkpt>
      <trkpt lat="44.37069" lon="4.80852">
        <ele>191.59</ele>
        <time>2014-09-12T07:48:36Z</time>
      </trkpt>
      <trkpt lat="44.37065" lon="4.8085">
        <ele>191.59</ele>
        <time>2014-09-12T07:48:37Z</time>
      </trkpt>
      <trkpt lat="44.37061" lon="4.80846">
        <ele>191.59</ele>
        <time>2014-09-12T07:48:38Z</time>
      </trkpt>
      <trkpt lat="44.37058" lon="4.80839">
        <ele>191.59</ele>
        <time>2014-09-12T07:48:39Z</time>
      </trkpt>
      <trkpt lat="44.37055" lon="4.80831">
        <ele>191.59</ele>
        <time>2014-09-12T07:48:40Z</time>
      </trkpt>
      <trkpt lat="44.3704" lon="4.80794">
        <ele>191.59</ele>
        <time>2014-09-12T07:48:44Z</time>
      </trkpt>
      <trkpt lat="44.37022" lon="4.8075">
        <ele>191.59</ele>
        <time>2014-09-12T07:48:48Z</time>
      </trkpt>
      <trkpt lat="44.37018" lon="4.80739">
        <ele>191.59</ele>
        <time>2014-09-12T07:48:49Z</time>
      </trkpt>
      <trkpt lat="44.37009" lon="4.80718">
        <ele>191.59</ele>
        <time>2014-09-12T07:48:51Z</time>
      </trkpt>
      <trkpt lat="44.37002" lon="4.80709">
        <ele>191.59</ele>
        <time>2014-09-12T07:48:52Z</time>
      </trkpt>
      <trkpt lat="44.36996" lon="4.807">
        <ele>191.59</ele>
        <time>2014-09-12T07:48:53Z</time>
      </trkpt>
      <trkpt lat="44.36989" lon="4.80693">
        <ele>191.59</ele>
        <time>2014-09-12T07:48:54Z</time>
      </trkpt>
      <trkpt lat="44.36982" lon="4.80687">
        <ele>191.59</ele>
        <time>2014-09-12T07:48:55Z</time>
      </trkpt>
      <trkpt lat="44.36975" lon="4.80681">
        <ele>191.59</ele>
        <time>2014-09-12T07:48:56Z</time>
      </trkpt>
      <trkpt lat="44.36967" lon="4.80676">
        <ele>191.59</ele>
        <time>2014-09-12T07:48:57Z</time>
      </trkpt>
      <trkpt lat="44.36958" lon="4.80674">
        <ele>191.59</ele>
        <time>2014-09-12T07:48:58Z</time>
      </trkpt>
      <trkpt lat="44.36949" lon="4.80674">
        <ele>191.59</ele>
        <time>2014-09-12T07:48:59Z</time>
      </trkpt>
      <trkpt lat="44.36938" lon="4.80675">
        <ele>191.59</ele>
        <time>2014-09-12T07:49:00Z</time>
      </trkpt>
      <trkpt lat="44.36895" lon="4.80677">
        <ele>191.59</ele>
        <time>2014-09-12T07:49:05Z</time>
      </trkpt>
      <trkpt lat="44.36887" lon="4.80674">
        <ele>191.59</ele>
        <time>2014-09-12T07:49:06Z</time>
      </trkpt>
      <trkpt lat="44.36871" lon="4.80663">
        <ele>191.59</ele>
        <time>2014-09-12T07:49:08Z</time>
      </trkpt>
      <trkpt lat="44.36803" lon="4.80596">
        <ele>191.59</ele>
        <time>2014-09-12T07:49:16Z</time>
      </trkpt>
      <trkpt lat="44.36796" lon="4.80586">
        <ele>191.59</ele>
        <time>2014-09-12T07:49:17Z</time>
      </trkpt>
      <trkpt lat="44.3679" lon="4.80576">
        <ele>191.59</ele>
        <time>2014-09-12T07:49:18Z</time>
      </trkpt>
      <trkpt lat="44.36784" lon="4.80566">
        <ele>191.59</ele>
        <time>2014-09-12T07:49:19Z</time>
      </trkpt>
      <trkpt lat="44.36776" lon="4.80543">
        <ele>191.59</ele>
        <time>2014-09-12T07:49:21Z</time>
      </trkpt>
      <trkpt lat="44.36758" lon="4.80448">
        <ele>191.58</ele>
        <time>2014-09-12T07:49:29Z</time>
      </trkpt>
      <trkpt lat="44.36762" lon="4.80424">
        <ele>191.58</ele>
        <time>2014-09-12T07:49:31Z</time>
      </trkpt>
      <trkpt lat="44.36771" lon="4.80405">
        <ele>191.58</ele>
        <time>2014-09-12T07:49:33Z</time>
      </trkpt>
      <trkpt lat="44.36777" lon="4.80397">
        <ele>191.58</ele>
        <time>2014-09-12T07:49:34Z</time>
      </trkpt>
      <trkpt lat="44.36784" lon="4.8039">
        <ele>191.58</ele>
        <time>2014-09-12T07:49:35Z</time>
      </trkpt>
      <trkpt lat="44.36792" lon="4.80385">
        <ele>191.58</ele>
        <time>2014-09-12T07:49:36Z</time>
      </trkpt>
      <trkpt lat="44.368" lon="4.80382">
        <ele>191.58</ele>
        <time>2014-09-12T07:49:37Z</time>
      </trkpt>
      <trkpt lat="44.36816" lon="4.80377">
        <ele>191.58</ele>
        <time>2014-09-12T07:49:39Z</time>
      </trkpt>
      <trkpt lat="44.3693" lon="4.80366">
        <ele>191.59</ele>
        <time>2014-09-12T07:49:52Z</time>
      </trkpt>
      <trkpt lat="44.36951" lon="4.8036">
        <ele>191.59</ele>
        <time>2014-09-12T07:49:56Z</time>
      </trkpt>
      <trkpt lat="44.36954" lon="4.80358">
        <ele>191.59</ele>
        <time>2014-09-12T07:49:57Z</time>
      </trkpt>
      <trkpt lat="44.36957" lon="4.80355">
        <ele>191.59</ele>
        <time>2014-09-12T07:49:58Z</time>
      </trkpt>
      <trkpt lat="44.3696" lon="4.80352">
        <ele>191.59</ele>
        <time>2014-09-12T07:49:59Z</time>
      </trkpt>
      <trkpt lat="44.36964" lon="4.80351">
        <ele>191.59</ele>
        <time>2014-09-12T07:50:00Z</time>
      </trkpt>
      <trkpt lat="44.36968" lon="4.8035">
        <ele>191.59</ele>
        <time>2014-09-12T07:50:01Z</time>
      </trkpt>
      <trkpt lat="44.36972" lon="4.8035">
        <ele>191.59</ele>
        <time>2014-09-12T07:50:02Z</time>
      </trkpt>
      <trkpt lat="44.36977" lon="4.80351">
        <ele>191.59</ele>
        <time>2014-09-12T07:50:03Z</time>
      </trkpt>
      <trkpt lat="44.36982" lon="4.80351">
        <ele>191.59</ele>
        <time>2014-09-12T07:50:04Z</time>
      </trkpt>
      <trkpt lat="44.36988" lon="4.8035">
        <ele>191.59</ele>
        <time>2014-09-12T07:50:05Z</time>
      </trkpt>
      <trkpt lat="44.36993" lon="4.80347">
        <ele>191.59</ele>
        <time>2014-09-12T07:50:06Z</time>
      </trkpt>
      <trkpt lat="44.36998" lon="4.80344">
        <ele>191.59</ele>
        <time>2014-09-12T07:50:07Z</time>
      </trkpt>
      <trkpt lat="44.37002" lon="4.80339">
        <ele>191.59</ele>
        <time>2014-09-12T07:50:08Z</time>
      </trkpt>
      <trkpt lat="44.37006" lon="4.80333">
        <ele>191.59</ele>
        <time>2014-09-12T07:50:09Z</time>
      </trkpt>
      <trkpt lat="44.3701" lon="4.80327">
        <ele>191.59</ele>
        <time>2014-09-12T07:50:10Z</time>
      </trkpt>
      <trkpt lat="44.37019" lon="4.80316">
        <ele>191.59</ele>
        <time>2014-09-12T07:50:12Z</time>
      </trkpt>
      <trkpt lat="44.37025" lon="4.80312">
        <ele>191.59</ele>
        <time>2014-09-12T07:50:13Z</time>
      </trkpt>
      <trkpt lat="44.37101" lon="4.80272">
        <ele>191.59</ele>
        <time>2014-09-12T07:50:23Z</time>
      </trkpt>
      <trkpt lat="44.37109" lon="4.80271">
        <ele>191.59</ele>
        <time>2014-09-12T07:50:24Z</time>
      </trkpt>
      <trkpt lat="44.37117" lon="4.80271">
        <ele>191.59</ele>
        <time>2014-09-12T07:50:25Z</time>
      </trkpt>
      <trkpt lat="44.37154" lon="4.80276">
        <ele>191.59</ele>
        <time>2014-09-12T07:50:30Z</time>
      </trkpt>
      <trkpt lat="44.37184" lon="4.80275">
        <ele>191.59</ele>
        <time>2014-09-12T07:50:35Z</time>
      </trkpt>
      <trkpt lat="44.37206" lon="4.80262">
        <ele>191.59</ele>
        <time>2014-09-12T07:50:44Z</time>
      </trkpt>
      <trkpt lat="44.37213" lon="4.80218">
        <ele>191.59</ele>
        <time>2014-09-12T07:50:54Z</time>
      </trkpt>
      <trkpt lat="44.37217" lon="4.80208">
        <ele>191.59</ele>
        <time>2014-09-12T07:50:56Z</time>
      </trkpt>
      <trkpt lat="44.37231" lon="4.8014">
        <ele>191.59</ele>
        <time>2014-09-12T07:51:08Z</time>
      </trkpt>
      <trkpt lat="44.37216" lon="4.80103">
        <ele>191.59</ele>
        <time>2014-09-12T07:51:16Z</time>
      </trkpt>
      <trkpt lat="44.37217" lon="4.80091">
        <ele>191.59</ele>
        <time>2014-09-12T07:51:18Z</time>
      </trkpt>
      <trkpt lat="44.37219" lon="4.80061">
        <ele>191.59</ele>
        <time>2014-09-12T07:51:23Z</time>
      </trkpt>
      <trkpt lat="44.37219" lon="4.80055">
        <ele>191.59</ele>
        <time>2014-09-12T07:51:24Z</time>
      </trkpt>
      <trkpt lat="44.37218" lon="4.8005">
        <ele>191.59</ele>
        <time>2014-09-12T07:51:25Z</time>
      </trkpt>
      <trkpt lat="44.37219" lon="4.80044">
        <ele>191.59</ele>
        <time>2014-09-12T07:51:26Z</time>
      </trkpt>
      <trkpt lat="44.37219" lon="4.80038">
        <ele>191.59</ele>
        <time>2014-09-12T07:51:27Z</time>
      </trkpt>
      <trkpt lat="44.37221" lon="4.80027">
        <ele>191.59</ele>
        <time>2014-09-12T07:51:29Z</time>
      </trkpt>
      <trkpt lat="44.37222" lon="4.80023">
        <ele>191.59</ele>
        <time>2014-09-12T07:51:30Z</time>
      </trkpt>
      <trkpt lat="44.37226" lon="4.80015">
        <ele>191.59</ele>
        <time>2014-09-12T07:51:32Z</time>
      </trkpt>
      <trkpt lat="44.37229" lon="4.80011">
        <ele>191.59</ele>
        <time>2014-09-12T07:51:33Z</time>
      </trkpt>
      <trkpt lat="44.37231" lon="4.80008">
        <ele>191.59</ele>
        <time>2014-09-12T07:51:34Z</time>
      </trkpt>
      <trkpt lat="44.37234" lon="4.80005">
        <ele>191.59</ele>
        <time>2014-09-12T07:51:35Z</time>
      </trkpt>
      <trkpt lat="44.37238" lon="4.80002">
        <ele>191.59</ele>
        <time>2014-09-12T07:51:36Z</time>
      </trkpt>
      <trkpt lat="44.37246" lon="4.8">
        <ele>191.59</ele>
        <time>2014-09-12T07:51:38Z</time>
      </trkpt>
      <trkpt lat="44.3725" lon="4.80001">
        <ele>191.59</ele>
        <time>2014-09-12T07:51:39Z</time>
      </trkpt>
      <trkpt lat="44.37254" lon="4.80003">
        <ele>191.59</ele>
        <time>2014-09-12T07:51:40Z</time>
      </trkpt>
      <trkpt lat="44.37262" lon="4.80008">
        <ele>191.59</ele>
        <time>2014-09-12T07:51:42Z</time>
      </trkpt>
      <trkpt lat="44.37266" lon="4.80011">
        <ele>191.59</ele>
        <time>2014-09-12T07:51:43Z</time>
      </trkpt>
      <trkpt lat="44.37301" lon="4.80038">
        <ele>191.59</ele>
        <time>2014-09-12T07:51:53Z</time>
      </trkpt>
      <trkpt lat="44.37305" lon="4.80041">
        <ele>191.59</ele>
        <time>2014-09-12T07:51:54Z</time>
      </trkpt>
      <trkpt lat="44.37308" lon="4.80043">
        <ele>191.59</ele>
        <time>2014-09-12T07:51:55Z</time>
      </trkpt>
      <trkpt lat="44.37312" lon="4.80046">
        <ele>191.59</ele>
        <time>2014-09-12T07:51:56Z</time>
      </trkpt>
      <trkpt lat="44.37315" lon="4.80048">
        <ele>191.59</ele>
        <time>2014-09-12T07:51:57Z</time>
      </trkpt>
      <trkpt lat="44.37319" lon="4.80051">
        <ele>191.59</ele>
        <time>2014-09-12T07:51:58Z</time>
      </trkpt>
      <trkpt lat="44.37332" lon="4.8006">
        <ele>191.59</ele>
        <time>2014-09-12T07:52:02Z</time>
      </trkpt>
      <trkpt lat="44.37339" lon="4.80061">
        <ele>191.59</ele>
        <time>2014-09-12T07:52:04Z</time>
      </trkpt>
      <trkpt lat="44.37342" lon="4.80059">
        <ele>191.59</ele>
        <time>2014-09-12T07:52:05Z</time>
      </trkpt>
      <trkpt lat="44.37345" lon="4.80057">
        <ele>191.59</ele>
        <time>2014-09-12T07:52:06Z</time>
      </trkpt>
      <trkpt lat="44.37347" lon="4.80054">
        <ele>191.59</ele>
        <time>2014-09-12T07:52:07Z</time>
      </trkpt>
      <trkpt lat="44.37348" lon="4.80051">
        <ele>191.59</ele>
        <time>2014-09-12T07:52:08Z</time>
      </trkpt>
      <trkpt lat="44.37348" lon="4.80048">
        <ele>191.59</ele>
        <time>2014-09-12T07:52:09Z</time>
      </trkpt>
      <trkpt lat="44.37348" lon="4.80043">
        <ele>191.59</ele>
        <time>2014-09-12T07:52:10Z</time>
      </trkpt>
      <trkpt lat="44.37347" lon="4.80039">
        <ele>191.59</ele>
        <time>2014-09-12T07:52:11Z</time>
      </trkpt>
      <trkpt lat="44.37347" lon="4.80035">
        <ele>191.59</ele>
        <time>2014-09-12T07:52:12Z</time>
      </trkpt>
      <trkpt lat="44.37346" lon="4.8003">
        <ele>191.59</ele>
        <time>2014-09-12T07:52:13Z</time>
      </trkpt>
      <trkpt lat="44.37346" lon="4.80025">
        <ele>191.59</ele>
        <time>2014-09-12T07:52:14Z</time>
      </trkpt>
      <trkpt lat="44.37345" lon="4.80021">
        <ele>191.59</ele>
        <time>2014-09-12T07:52:15Z</time>
      </trkpt>
      <trkpt lat="44.37339" lon="4.7995">
        <ele>191.59</ele>
        <time>2014-09-12T07:52:31Z</time>
      </trkpt>
      <trkpt lat="44.37339" lon="4.79946">
        <ele>191.59</ele>
        <time>2014-09-12T07:52:32Z</time>
      </trkpt>
      <trkpt lat="44.37339" lon="4.79942">
        <ele>191.59</ele>
        <time>2014-09-12T07:52:33Z</time>
      </trkpt>
      <trkpt lat="44.37334" lon="4.79883">
        <ele>191.59</ele>
        <time>2014-09-12T07:52:52Z</time>
      </trkpt>
      <trkpt lat="44.37345" lon="4.79844">
        <ele>191.58</ele>
        <time>2014-09-12T07:53:05Z</time>
      </trkpt>
      <trkpt lat="44.37363" lon="4.79806">
        <ele>191.58</ele>
        <time>2014-09-12T07:53:15Z</time>
      </trkpt>
      <trkpt lat="44.3737" lon="4.79756">
        <ele>191.58</ele>
        <time>2014-09-12T07:53:24Z</time>
      </trkpt>
      <trkpt lat="44.3737" lon="4.79742">
        <ele>191.58</ele>
        <time>2014-09-12T07:53:26Z</time>
      </trkpt>
      <trkpt lat="44.37371" lon="4.79733">
        <ele>191.58</ele>
        <time>2014-09-12T07:53:27Z</time>
      </trkpt>
      <trkpt lat="44.37374" lon="4.79675">
        <ele>191.58</ele>
        <time>2014-09-12T07:53:35Z</time>
      </trkpt>
      <trkpt lat="44.37374" lon="4.79672">
        <ele>191.58</ele>
        <time>2014-09-12T07:53:36Z</time>
      </trkpt>
      <trkpt lat="44.37374" lon="4.79662">
        <ele>191.58</ele>
        <time>2014-09-12T07:53:49Z</time>
      </trkpt>
      <trkpt lat="44.37373" lon="4.79659">
        <ele>191.58</ele>
        <time>2014-09-12T07:54:17Z</time>
      </trkpt>
      <trkpt lat="44.37372" lon="4.79661">
        <ele>191.58</ele>
        <time>2014-09-12T07:54:56Z</time>
      </trkpt>
      <trkpt lat="44.37377" lon="4.79659">
        <ele>191.58</ele>
        <time>2014-09-12T07:55:31Z</time>
      </trkpt>
      <trkpt lat="44.37377" lon="4.79656">
        <ele>191.58</ele>
        <time>2014-09-12T07:57:08Z</time>
      </trkpt>
      <trkpt lat="44.37377" lon="4.79656">
        <ele>191.58</ele>
        <time>2014-09-12T08:00:12Z</time>
      </trkpt>
      <trkpt lat="44.37378" lon="4.79656">
        <ele>191.58</ele>
        <time>2014-09-12T08:01:28Z</time>
      </trkpt>
      <trkpt lat="44.37377" lon="4.7966">
        <ele>191.58</ele>
        <time>2014-09-12T08:03:11Z</time>
      </trkpt>
      <trkpt lat="44.37378" lon="4.79659">
        <ele>191.58</ele>
        <time>2014-09-12T08:05:04Z</time>
      </trkpt>
      <trkpt lat="44.37379" lon="4.79658">
        <ele>191.58</ele>
        <time>2014-09-12T08:06:23Z</time>
      </trkpt>
      <trkpt lat="44.37378" lon="4.79657">
        <ele>191.58</ele>
        <time>2014-09-12T08:07:46Z</time>
      </trkpt>
      <trkpt lat="44.37377" lon="4.79657">
        <ele>191.58</ele>
        <time>2014-09-12T08:09:07Z</time>
      </trkpt>
      <trkpt lat="44.37378" lon="4.79658">
        <ele>191.58</ele>
        <time>2014-09-12T08:10:12Z</time>
      </trkpt>
      <trkpt lat="44.37378" lon="4.79659">
        <ele>191.58</ele>
        <time>2014-09-12T08:11:16Z</time>
      </trkpt>
      <trkpt lat="44.37376" lon="4.79656">
        <ele>191.58</ele>
        <time>2014-09-12T08:11:44Z</time>
      </trkpt>
      <trkpt lat="44.37375" lon="4.79655">
        <ele>191.58</ele>
        <time>2014-09-12T08:12:17Z</time>
      </trkpt>
      <trkpt lat="44.37375" lon="4.79631">
        <ele>191.58</ele>
        <time>2014-09-12T08:12:43Z</time>
      </trkpt>
      <trkpt lat="44.37375" lon="4.79618">
        <ele>191.58</ele>
        <time>2014-09-12T08:12:48Z</time>
      </trkpt>
      <trkpt lat="44.37375" lon="4.79615">
        <ele>191.58</ele>
        <time>2014-09-12T08:12:49Z</time>
      </trkpt>
      <trkpt lat="44.37375" lon="4.7961">
        <ele>191.58</ele>
        <time>2014-09-12T08:12:50Z</time>
      </trkpt>
      <trkpt lat="44.37375" lon="4.79605">
        <ele>191.58</ele>
        <time>2014-09-12T08:12:51Z</time>
      </trkpt>
      <trkpt lat="44.37374" lon="4.796">
        <ele>191.58</ele>
        <time>2014-09-12T08:12:52Z</time>
      </trkpt>
      <trkpt lat="44.37374" lon="4.79595">
        <ele>191.58</ele>
        <time>2014-09-12T08:12:53Z</time>
      </trkpt>
      <trkpt lat="44.37377" lon="4.79548">
        <ele>191.58</ele>
        <time>2014-09-12T08:13:02Z</time>
      </trkpt>
      <trkpt lat="44.37377" lon="4.79542">
        <ele>191.58</ele>
        <time>2014-09-12T08:13:03Z</time>
      </trkpt>
      <trkpt lat="44.37377" lon="4.79535">
        <ele>191.58</ele>
        <time>2014-09-12T08:13:04Z</time>
      </trkpt>
      <trkpt lat="44.37377" lon="4.79529">
        <ele>191.58</ele>
        <time>2014-09-12T08:13:05Z</time>
      </trkpt>
      <trkpt lat="44.37377" lon="4.79523">
        <ele>191.58</ele>
        <time>2014-09-12T08:13:06Z</time>
      </trkpt>
      <trkpt lat="44.37376" lon="4.79494">
        <ele>191.58</ele>
        <time>2014-09-12T08:13:11Z</time>
      </trkpt>
      <trkpt lat="44.37374" lon="4.79428">
        <ele>191.58</ele>
        <time>2014-09-12T08:13:23Z</time>
      </trkpt>
      <trkpt lat="44.37374" lon="4.79415">
        <ele>191.58</ele>
        <time>2014-09-12T08:13:26Z</time>
      </trkpt>
      <trkpt lat="44.37374" lon="4.79411">
        <ele>191.58</ele>
        <time>2014-09-12T08:13:27Z</time>
      </trkpt>
      <trkpt lat="44.37374" lon="4.79408">
        <ele>191.58</ele>
        <time>2014-09-12T08:13:28Z</time>
      </trkpt>
      <trkpt lat="44.37374" lon="4.79405">
        <ele>191.58</ele>
        <time>2014-09-12T08:13:29Z</time>
      </trkpt>
      <trkpt lat="44.37374" lon="4.794">
        <ele>191.58</ele>
        <time>2014-09-12T08:13:31Z</time>
      </trkpt>
      <trkpt lat="44.37375" lon="4.79394">
        <ele>191.58</ele>
        <time>2014-09-12T08:13:33Z</time>
      </trkpt>
      <trkpt lat="44.37375" lon="4.79391">
        <ele>191.58</ele>
        <time>2014-09-12T08:13:34Z</time>
      </trkpt>
      <trkpt lat="44.37376" lon="4.79384">
        <ele>191.58</ele>
        <time>2014-09-12T08:13:36Z</time>
      </trkpt>
      <trkpt lat="44.37378" lon="4.79381">
        <ele>191.58</ele>
        <time>2014-09-12T08:13:37Z</time>
      </trkpt>
      <trkpt lat="44.37379" lon="4.79379">
        <ele>191.58</ele>
        <time>2014-09-12T08:13:38Z</time>
      </trkpt>
      <trkpt lat="44.37382" lon="4.79376">
        <ele>191.58</ele>
        <time>2014-09-12T08:13:39Z</time>
      </trkpt>
      <trkpt lat="44.37385" lon="4.79374">
        <ele>191.58</ele>
        <time>2014-09-12T08:13:40Z</time>
      </trkpt>
      <trkpt lat="44.37388" lon="4.79371">
        <ele>191.58</ele>
        <time>2014-09-12T08:13:41Z</time>
      </trkpt>
      <trkpt lat="44.37391" lon="4.79369">
        <ele>191.58</ele>
        <time>2014-09-12T08:13:42Z</time>
      </trkpt>
      <trkpt lat="44.37394" lon="4.79367">
        <ele>191.58</ele>
        <time>2014-09-12T08:13:43Z</time>
      </trkpt>
      <trkpt lat="44.37397" lon="4.79365">
        <ele>191.58</ele>
        <time>2014-09-12T08:13:44Z</time>
      </trkpt>
      <trkpt lat="44.37401" lon="4.79362">
        <ele>191.58</ele>
        <time>2014-09-12T08:13:45Z</time>
      </trkpt>
      <trkpt lat="44.37404" lon="4.7936">
        <ele>191.58</ele>
        <time>2014-09-12T08:13:46Z</time>
      </trkpt>
      <trkpt lat="44.37408" lon="4.79358">
        <ele>191.58</ele>
        <time>2014-09-12T08:13:47Z</time>
      </trkpt>
      <trkpt lat="44.37411" lon="4.79356">
        <ele>191.58</ele>
        <time>2014-09-12T08:13:48Z</time>
      </trkpt>
      <trkpt lat="44.37415" lon="4.79353">
        <ele>191.58</ele>
        <time>2014-09-12T08:13:49Z</time>
      </trkpt>
      <trkpt lat="44.37418" lon="4.79351">
        <ele>191.58</ele>
        <time>2014-09-12T08:13:50Z</time>
      </trkpt>
      <trkpt lat="44.37422" lon="4.79348">
        <ele>191.58</ele>
        <time>2014-09-12T08:13:51Z</time>
      </trkpt>
      <trkpt lat="44.37436" lon="4.79338">
        <ele>191.58</ele>
        <time>2014-09-12T08:13:55Z</time>
      </trkpt>
      <trkpt lat="44.3744" lon="4.79336">
        <ele>191.58</ele>
        <time>2014-09-12T08:13:56Z</time>
      </trkpt>
      <trkpt lat="44.37451" lon="4.79329">
        <ele>191.58</ele>
        <time>2014-09-12T08:13:59Z</time>
      </trkpt>
      <trkpt lat="44.37459" lon="4.79323">
        <ele>191.58</ele>
        <time>2014-09-12T08:14:01Z</time>
      </trkpt>
      <trkpt lat="44.37464" lon="4.79321">
        <ele>191.58</ele>
        <time>2014-09-12T08:14:02Z</time>
      </trkpt>
      <trkpt lat="44.37514" lon="4.79289">
        <ele>191.58</ele>
        <time>2014-09-12T08:14:15Z</time>
      </trkpt>
      <trkpt lat="44.37518" lon="4.79286">
        <ele>191.58</ele>
        <time>2014-09-12T08:14:16Z</time>
      </trkpt>
      <trkpt lat="44.37522" lon="4.79284">
        <ele>191.58</ele>
        <time>2014-09-12T08:14:17Z</time>
      </trkpt>
      <trkpt lat="44.37525" lon="4.79281">
        <ele>191.58</ele>
        <time>2014-09-12T08:14:18Z</time>
      </trkpt>
      <trkpt lat="44.37529" lon="4.79279">
        <ele>191.58</ele>
        <time>2014-09-12T08:14:19Z</time>
      </trkpt>
      <trkpt lat="44.37532" lon="4.79275">
        <ele>191.58</ele>
        <time>2014-09-12T08:14:20Z</time>
      </trkpt>
      <trkpt lat="44.37536" lon="4.79272">
        <ele>191.58</ele>
        <time>2014-09-12T08:14:21Z</time>
      </trkpt>
      <trkpt lat="44.37539" lon="4.79269">
        <ele>191.58</ele>
        <time>2014-09-12T08:14:22Z</time>
      </trkpt>
      <trkpt lat="44.37542" lon="4.79265">
        <ele>191.58</ele>
        <time>2014-09-12T08:14:23Z</time>
      </trkpt>
      <trkpt lat="44.37549" lon="4.79259">
        <ele>191.58</ele>
        <time>2014-09-12T08:14:25Z</time>
      </trkpt>
      <trkpt lat="44.37553" lon="4.79256">
        <ele>191.58</ele>
        <time>2014-09-12T08:14:26Z</time>
      </trkpt>
      <trkpt lat="44.37556" lon="4.79253">
        <ele>191.58</ele>
        <time>2014-09-12T08:14:27Z</time>
      </trkpt>
      <trkpt lat="44.3756" lon="4.79249">
        <ele>191.58</ele>
        <time>2014-09-12T08:14:28Z</time>
      </trkpt>
      <trkpt lat="44.37564" lon="4.79246">
        <ele>191.58</ele>
        <time>2014-09-12T08:14:29Z</time>
      </trkpt>
      <trkpt lat="44.37624" lon="4.79188">
        <ele>191.58</ele>
        <time>2014-09-12T08:14:46Z</time>
      </trkpt>
      <trkpt lat="44.37627" lon="4.79185">
        <ele>191.58</ele>
        <time>2014-09-12T08:14:47Z</time>
      </trkpt>
      <trkpt lat="44.3763" lon="4.79181">
        <ele>191.58</ele>
        <time>2014-09-12T08:14:48Z</time>
      </trkpt>
      <trkpt lat="44.37636" lon="4.79175">
        <ele>191.58</ele>
        <time>2014-09-12T08:14:50Z</time>
      </trkpt>
      <trkpt lat="44.37641" lon="4.79168">
        <ele>191.58</ele>
        <time>2014-09-12T08:14:52Z</time>
      </trkpt>
      <trkpt lat="44.37644" lon="4.79165">
        <ele>191.58</ele>
        <time>2014-09-12T08:14:53Z</time>
      </trkpt>
      <trkpt lat="44.37647" lon="4.79162">
        <ele>191.58</ele>
        <time>2014-09-12T08:14:54Z</time>
      </trkpt>
      <trkpt lat="44.3765" lon="4.79158">
        <ele>191.58</ele>
        <time>2014-09-12T08:14:55Z</time>
      </trkpt>
      <trkpt lat="44.37652" lon="4.79154">
        <ele>191.58</ele>
        <time>2014-09-12T08:14:56Z</time>
      </trkpt>
      <trkpt lat="44.37655" lon="4.79151">
        <ele>191.58</ele>
        <time>2014-09-12T08:14:57Z</time>
      </trkpt>
      <trkpt lat="44.3766" lon="4.79144">
        <ele>191.58</ele>
        <time>2014-09-12T08:14:59Z</time>
      </trkpt>
      <trkpt lat="44.37688" lon="4.7911">
        <ele>191.58</ele>
        <time>2014-09-12T08:15:09Z</time>
      </trkpt>
      <trkpt lat="44.3769" lon="4.79106">
        <ele>191.58</ele>
        <time>2014-09-12T08:15:10Z</time>
      </trkpt>
      <trkpt lat="44.37693" lon="4.79101">
        <ele>191.58</ele>
        <time>2014-09-12T08:15:11Z</time>
      </trkpt>
      <trkpt lat="44.37696" lon="4.79097">
        <ele>191.58</ele>
        <time>2014-09-12T08:15:12Z</time>
      </trkpt>
      <trkpt lat="44.37699" lon="4.79093">
        <ele>191.58</ele>
        <time>2014-09-12T08:15:13Z</time>
      </trkpt>
      <trkpt lat="44.37702" lon="4.79089">
        <ele>191.58</ele>
        <time>2014-09-12T08:15:14Z</time>
      </trkpt>
      <trkpt lat="44.37704" lon="4.79084">
        <ele>191.58</ele>
        <time>2014-09-12T08:15:15Z</time>
      </trkpt>
      <trkpt lat="44.37707" lon="4.7908">
        <ele>191.58</ele>
        <time>2014-09-12T08:15:16Z</time>
      </trkpt>
      <trkpt lat="44.37734" lon="4.79033">
        <ele>191.58</ele>
        <time>2014-09-12T08:15:27Z</time>
      </trkpt>
      <trkpt lat="44.37736" lon="4.79027">
        <ele>191.58</ele>
        <time>2014-09-12T08:15:28Z</time>
      </trkpt>
      <trkpt lat="44.37739" lon="4.79022">
        <ele>191.58</ele>
        <time>2014-09-12T08:15:29Z</time>
      </trkpt>
      <trkpt lat="44.37754" lon="4.78987">
        <ele>191.58</ele>
        <time>2014-09-12T08:15:35Z</time>
      </trkpt>
      <trkpt lat="44.37774" lon="4.7894">
        <ele>191.58</ele>
        <time>2014-09-12T08:15:43Z</time>
      </trkpt>
      <trkpt lat="44.37777" lon="4.78935">
        <ele>191.58</ele>
        <time>2014-09-12T08:15:44Z</time>
      </trkpt>
      <trkpt lat="44.3782" lon="4.78837">
        <ele>191.58</ele>
        <time>2014-09-12T08:15:59Z</time>
      </trkpt>
      <trkpt lat="44.37837" lon="4.78781">
        <ele>191.58</ele>
        <time>2014-09-12T08:16:10Z</time>
      </trkpt>
      <trkpt lat="44.37832" lon="4.78767">
        <ele>191.58</ele>
        <time>2014-09-12T08:16:13Z</time>
      </trkpt>
      <trkpt lat="44.3783" lon="4.78762">
        <ele>191.58</ele>
        <time>2014-09-12T08:16:14Z</time>
      </trkpt>
      <trkpt lat="44.37829" lon="4.78756">
        <ele>191.58</ele>
        <time>2014-09-12T08:16:15Z</time>
      </trkpt>
      <trkpt lat="44.37829" lon="4.78749">
        <ele>191.58</ele>
        <time>2014-09-12T08:16:16Z</time>
      </trkpt>
      <trkpt lat="44.37831" lon="4.78742">
        <ele>191.58</ele>
        <time>2014-09-12T08:16:17Z</time>
      </trkpt>
      <trkpt lat="44.37843" lon="4.78698">
        <ele>191.58</ele>
        <time>2014-09-12T08:16:23Z</time>
      </trkpt>
      <trkpt lat="44.37845" lon="4.7869">
        <ele>191.58</ele>
        <time>2014-09-12T08:16:24Z</time>
      </trkpt>
      <trkpt lat="44.3786" lon="4.7863">
        <ele>191.58</ele>
        <time>2014-09-12T08:16:32Z</time>
      </trkpt>
      <trkpt lat="44.37861" lon="4.78623">
        <ele>191.58</ele>
        <time>2014-09-12T08:16:33Z</time>
      </trkpt>
      <trkpt lat="44.37867" lon="4.78594">
        <ele>191.58</ele>
        <time>2014-09-12T08:16:37Z</time>
      </trkpt>
      <trkpt lat="44.3787" lon="4.78589">
        <ele>191.58</ele>
        <time>2014-09-12T08:16:38Z</time>
      </trkpt>
      <trkpt lat="44.37874" lon="4.78585">
        <ele>191.58</ele>
        <time>2014-09-12T08:16:39Z</time>
      </trkpt>
      <trkpt lat="44.37883" lon="4.78584">
        <ele>191.58</ele>
        <time>2014-09-12T08:16:41Z</time>
      </trkpt>
      <trkpt lat="44.37887" lon="4.78586">
        <ele>191.58</ele>
        <time>2014-09-12T08:16:42Z</time>
      </trkpt>
      <trkpt lat="44.37977" lon="4.7864">
        <ele>191.58</ele>
        <time>2014-09-12T08:17:01Z</time>
      </trkpt>
      <trkpt lat="44.38" lon="4.78652">
        <ele>191.58</ele>
        <time>2014-09-12T08:17:06Z</time>
      </trkpt>
      <trkpt lat="44.38009" lon="4.78653">
        <ele>191.58</ele>
        <time>2014-09-12T08:17:08Z</time>
      </trkpt>
      <trkpt lat="44.38089" lon="4.78668">
        <ele>191.58</ele>
        <time>2014-09-12T08:17:27Z</time>
      </trkpt>
      <trkpt lat="44.38094" lon="4.7867">
        <ele>191.58</ele>
        <time>2014-09-12T08:17:28Z</time>
      </trkpt>
      <trkpt lat="44.38097" lon="4.78673">
        <ele>191.58</ele>
        <time>2014-09-12T08:17:29Z</time>
      </trkpt>
      <trkpt lat="44.38101" lon="4.78676">
        <ele>191.58</ele>
        <time>2014-09-12T08:17:30Z</time>
      </trkpt>
      <trkpt lat="44.38104" lon="4.78681">
        <ele>191.58</ele>
        <time>2014-09-12T08:17:31Z</time>
      </trkpt>
      <trkpt lat="44.38106" lon="4.78685">
        <ele>191.58</ele>
        <time>2014-09-12T08:17:32Z</time>
      </trkpt>
      <trkpt lat="44.38121" lon="4.78705">
        <ele>191.58</ele>
        <time>2014-09-12T08:17:37Z</time>
      </trkpt>
      <trkpt lat="44.38125" lon="4.78707">
        <ele>191.58</ele>
        <time>2014-09-12T08:17:38Z</time>
      </trkpt>
      <trkpt lat="44.38129" lon="4.78709">
        <ele>191.58</ele>
        <time>2014-09-12T08:17:39Z</time>
      </trkpt>
      <trkpt lat="44.38134" lon="4.7871">
        <ele>191.58</ele>
        <time>2014-09-12T08:17:40Z</time>
      </trkpt>
      <trkpt lat="44.38226" lon="4.78717">
        <ele>191.58</ele>
        <time>2014-09-12T08:18:00Z</time>
      </trkpt>
      <trkpt lat="44.38313" lon="4.78726">
        <ele>191.58</ele>
        <time>2014-09-12T08:18:20Z</time>
      </trkpt>
      <trkpt lat="44.38317" lon="4.78726">
        <ele>191.58</ele>
        <time>2014-09-12T08:18:21Z</time>
      </trkpt>
      <trkpt lat="44.38368" lon="4.78732">
        <ele>191.59</ele>
        <time>2014-09-12T08:18:33Z</time>
      </trkpt>
      <trkpt lat="44.38437" lon="4.78719">
        <ele>191.59</ele>
        <time>2014-09-12T08:18:50Z</time>
      </trkpt>
      <trkpt lat="44.3846" lon="4.78709">
        <ele>191.59</ele>
        <time>2014-09-12T08:18:56Z</time>
      </trkpt>
      <trkpt lat="44.38513" lon="4.78665">
        <ele>191.59</ele>
        <time>2014-09-12T08:19:12Z</time>
      </trkpt>
      <trkpt lat="44.38515" lon="4.7866">
        <ele>191.59</ele>
        <time>2014-09-12T08:19:13Z</time>
      </trkpt>
      <trkpt lat="44.38515" lon="4.78655">
        <ele>191.59</ele>
        <time>2014-09-12T08:19:14Z</time>
      </trkpt>
      <trkpt lat="44.38504" lon="4.78575">
        <ele>191.59</ele>
        <time>2014-09-12T08:19:27Z</time>
      </trkpt>
      <trkpt lat="44.38493" lon="4.78487">
        <ele>191.58</ele>
        <time>2014-09-12T08:19:45Z</time>
      </trkpt>
      <trkpt lat="44.38494" lon="4.78484">
        <ele>191.58</ele>
        <time>2014-09-12T08:19:46Z</time>
      </trkpt>
      <trkpt lat="44.38499" lon="4.78482">
        <ele>191.58</ele>
        <time>2014-09-12T08:19:48Z</time>
      </trkpt>
      <trkpt lat="44.38504" lon="4.78482">
        <ele>191.58</ele>
        <time>2014-09-12T08:19:50Z</time>
      </trkpt>
      <trkpt lat="44.38507" lon="4.78482">
        <ele>191.58</ele>
        <time>2014-09-12T08:19:51Z</time>
      </trkpt>
      <trkpt lat="44.3851" lon="4.78482">
        <ele>191.58</ele>
        <time>2014-09-12T08:19:52Z</time>
      </trkpt>
      <trkpt lat="44.38513" lon="4.78482">
        <ele>191.58</ele>
        <time>2014-09-12T08:19:53Z</time>
      </trkpt>
      <trkpt lat="44.38517" lon="4.78482">
        <ele>191.58</ele>
        <time>2014-09-12T08:19:54Z</time>
      </trkpt>
      <trkpt lat="44.3852" lon="4.78482">
        <ele>191.58</ele>
        <time>2014-09-12T08:19:55Z</time>
      </trkpt>
      <trkpt lat="44.38523" lon="4.78482">
        <ele>191.58</ele>
        <time>2014-09-12T08:19:56Z</time>
      </trkpt>
      <trkpt lat="44.38542" lon="4.78484">
        <ele>191.59</ele>
        <time>2014-09-12T08:20:03Z</time>
      </trkpt>
      <trkpt lat="44.38547" lon="4.78485">
        <ele>191.59</ele>
        <time>2014-09-12T08:20:05Z</time>
      </trkpt>
      <trkpt lat="44.38549" lon="4.78485">
        <ele>191.59</ele>
        <time>2014-09-12T08:20:06Z</time>
      </trkpt>
      <trkpt lat="44.38551" lon="4.78485">
        <ele>191.59</ele>
        <time>2014-09-12T08:20:07Z</time>
      </trkpt>
      <trkpt lat="44.38553" lon="4.78485">
        <ele>191.59</ele>
        <time>2014-09-12T08:20:08Z</time>
      </trkpt>
      <trkpt lat="44.38555" lon="4.78486">
        <ele>191.59</ele>
        <time>2014-09-12T08:20:09Z</time>
      </trkpt>
      <trkpt lat="44.3856" lon="4.78487">
        <ele>191.59</ele>
        <time>2014-09-12T08:20:11Z</time>
      </trkpt>
      <trkpt lat="44.38562" lon="4.78487">
        <ele>191.59</ele>
        <time>2014-09-12T08:20:12Z</time>
      </trkpt>
      <trkpt lat="44.38565" lon="4.78487">
        <ele>191.59</ele>
        <time>2014-09-12T08:20:13Z</time>
      </trkpt>
      <trkpt lat="44.3857" lon="4.78488">
        <ele>191.59</ele>
        <time>2014-09-12T08:20:15Z</time>
      </trkpt>
      <trkpt lat="44.38572" lon="4.78489">
        <ele>191.59</ele>
        <time>2014-09-12T08:20:16Z</time>
      </trkpt>
      <trkpt lat="44.38577" lon="4.78489">
        <ele>191.59</ele>
        <time>2014-09-12T08:20:18Z</time>
      </trkpt>
      <trkpt lat="44.38579" lon="4.7849">
        <ele>191.59</ele>
        <time>2014-09-12T08:20:19Z</time>
      </trkpt>
      <trkpt lat="44.38581" lon="4.7849">
        <ele>191.59</ele>
        <time>2014-09-12T08:20:20Z</time>
      </trkpt>
      <trkpt lat="44.38583" lon="4.7849">
        <ele>191.59</ele>
        <time>2014-09-12T08:20:21Z</time>
      </trkpt>
      <trkpt lat="44.38586" lon="4.78491">
        <ele>191.59</ele>
        <time>2014-09-12T08:20:22Z</time>
      </trkpt>
      <trkpt lat="44.38588" lon="4.78492">
        <ele>191.59</ele>
        <time>2014-09-12T08:20:23Z</time>
      </trkpt>
      <trkpt lat="44.3859" lon="4.78492">
        <ele>191.59</ele>
        <time>2014-09-12T08:20:24Z</time>
      </trkpt>
      <trkpt lat="44.38592" lon="4.78493">
        <ele>191.59</ele>
        <time>2014-09-12T08:20:25Z</time>
      </trkpt>
      <trkpt lat="44.38594" lon="4.78493">
        <ele>191.59</ele>
        <time>2014-09-12T08:20:26Z</time>
      </trkpt>
      <trkpt lat="44.38596" lon="4.78494">
        <ele>191.59</ele>
        <time>2014-09-12T08:20:27Z</time>
      </trkpt>
      <trkpt lat="44.38598" lon="4.78495">
        <ele>191.59</ele>
        <time>2014-09-12T08:20:28Z</time>
      </trkpt>
      <trkpt lat="44.38612" lon="4.78497">
        <ele>191.59</ele>
        <time>2014-09-12T08:20:41Z</time>
      </trkpt>
      <trkpt lat="44.38607" lon="4.78494">
        <ele>191.59</ele>
        <time>2014-09-12T08:20:51Z</time>
      </trkpt>
      <trkpt lat="44.38605" lon="4.78494">
        <ele>191.59</ele>
        <time>2014-09-12T08:20:52Z</time>
      </trkpt>
      <trkpt lat="44.38602" lon="4.78493">
        <ele>191.59</ele>
        <time>2014-09-12T08:20:53Z</time>
      </trkpt>
      <trkpt lat="44.38596" lon="4.78491">
        <ele>191.59</ele>
        <time>2014-09-12T08:20:55Z</time>
      </trkpt>
      <trkpt lat="44.38592" lon="4.78491">
        <ele>191.59</ele>
        <time>2014-09-12T08:20:56Z</time>
      </trkpt>
      <trkpt lat="44.38584" lon="4.78489">
        <ele>191.59</ele>
        <time>2014-09-12T08:20:58Z</time>
      </trkpt>
      <trkpt lat="44.3858" lon="4.78488">
        <ele>191.59</ele>
        <time>2014-09-12T08:20:59Z</time>
      </trkpt>
      <trkpt lat="44.38571" lon="4.78486">
        <ele>191.59</ele>
        <time>2014-09-12T08:21:01Z</time>
      </trkpt>
      <trkpt lat="44.38566" lon="4.78486">
        <ele>191.59</ele>
        <time>2014-09-12T08:21:02Z</time>
      </trkpt>
      <trkpt lat="44.38502" lon="4.78481">
        <ele>191.58</ele>
        <time>2014-09-12T08:21:15Z</time>
      </trkpt>
      <trkpt lat="44.38494" lon="4.78478">
        <ele>191.58</ele>
        <time>2014-09-12T08:21:22Z</time>
      </trkpt>
      <trkpt lat="44.38493" lon="4.78477">
        <ele>191.58</ele>
        <time>2014-09-12T08:21:23Z</time>
      </trkpt>
      <trkpt lat="44.38492" lon="4.78474">
        <ele>191.58</ele>
        <time>2014-09-12T08:21:24Z</time>
      </trkpt>
      <trkpt lat="44.38491" lon="4.78471">
        <ele>191.58</ele>
        <time>2014-09-12T08:21:25Z</time>
      </trkpt>
      <trkpt lat="44.38489" lon="4.78467">
        <ele>191.58</ele>
        <time>2014-09-12T08:21:26Z</time>
      </trkpt>
      <trkpt lat="44.38487" lon="4.78459">
        <ele>191.58</ele>
        <time>2014-09-12T08:21:28Z</time>
      </trkpt>
      <trkpt lat="44.38485" lon="4.78454">
        <ele>191.58</ele>
        <time>2014-09-12T08:21:29Z</time>
      </trkpt>
      <trkpt lat="44.38483" lon="4.7845">
        <ele>191.58</ele>
        <time>2014-09-12T08:21:30Z</time>
      </trkpt>
      <trkpt lat="44.38481" lon="4.78446">
        <ele>191.58</ele>
        <time>2014-09-12T08:21:31Z</time>
      </trkpt>
      <trkpt lat="44.38479" lon="4.78442">
        <ele>191.58</ele>
        <time>2014-09-12T08:21:32Z</time>
      </trkpt>
      <trkpt lat="44.3845" lon="4.78382">
        <ele>191.58</ele>
        <time>2014-09-12T08:21:46Z</time>
      </trkpt>
      <trkpt lat="44.38448" lon="4.78377">
        <ele>191.58</ele>
        <time>2014-09-12T08:21:47Z</time>
      </trkpt>
      <trkpt lat="44.38446" lon="4.78371">
        <ele>191.58</ele>
        <time>2014-09-12T08:21:48Z</time>
      </trkpt>
      <trkpt lat="44.38444" lon="4.78366">
        <ele>191.58</ele>
        <time>2014-09-12T08:21:49Z</time>
      </trkpt>
      <trkpt lat="44.38443" lon="4.78361">
        <ele>191.58</ele>
        <time>2014-09-12T08:21:50Z</time>
      </trkpt>
      <trkpt lat="44.38442" lon="4.78355">
        <ele>191.58</ele>
        <time>2014-09-12T08:21:51Z</time>
      </trkpt>
      <trkpt lat="44.38437" lon="4.78318">
        <ele>191.58</ele>
        <time>2014-09-12T08:22:00Z</time>
      </trkpt>
      <trkpt lat="44.38437" lon="4.78316">
        <ele>191.58</ele>
        <time>2014-09-12T08:22:01Z</time>
      </trkpt>
      <trkpt lat="44.38437" lon="4.78315">
        <ele>191.58</ele>
        <time>2014-09-12T08:22:02Z</time>
      </trkpt>
      <trkpt lat="44.38438" lon="4.78315">
        <ele>191.58</ele>
        <time>2014-09-12T08:22:19Z</time>
      </trkpt>
      <trkpt lat="44.38434" lon="4.78277">
        <ele>191.58</ele>
        <time>2014-09-12T08:22:29Z</time>
      </trkpt>
      <trkpt lat="44.38431" lon="4.78226">
        <ele>191.58</ele>
        <time>2014-09-12T08:22:36Z</time>
      </trkpt>
      <trkpt lat="44.38431" lon="4.78218">
        <ele>191.58</ele>
        <time>2014-09-12T08:22:37Z</time>
      </trkpt>
      <trkpt lat="44.38424" lon="4.78072">
        <ele>191.58</ele>
        <time>2014-09-12T08:22:56Z</time>
      </trkpt>
      <trkpt lat="44.38424" lon="4.78066">
        <ele>191.58</ele>
        <time>2014-09-12T08:22:57Z</time>
      </trkpt>
      <trkpt lat="44.38429" lon="4.78052">
        <ele>191.58</ele>
        <time>2014-09-12T08:23:00Z</time>
      </trkpt>
      <trkpt lat="44.38437" lon="4.78051">
        <ele>191.58</ele>
        <time>2014-09-12T08:23:02Z</time>
      </trkpt>
      <trkpt lat="44.38441" lon="4.78051">
        <ele>191.58</ele>
        <time>2014-09-12T08:23:03Z</time>
      </trkpt>
      <trkpt lat="44.38444" lon="4.78051">
        <ele>191.58</ele>
        <time>2014-09-12T08:23:04Z</time>
      </trkpt>
      <trkpt lat="44.38448" lon="4.7805">
        <ele>191.58</ele>
        <time>2014-09-12T08:23:05Z</time>
      </trkpt>
      <trkpt lat="44.38452" lon="4.78049">
        <ele>191.58</ele>
        <time>2014-09-12T08:23:06Z</time>
      </trkpt>
      <trkpt lat="44.38456" lon="4.78048">
        <ele>191.58</ele>
        <time>2014-09-12T08:23:07Z</time>
      </trkpt>
      <trkpt lat="44.38519" lon="4.78034">
        <ele>191.58</ele>
        <time>2014-09-12T08:23:24Z</time>
      </trkpt>
      <trkpt lat="44.38542" lon="4.78033">
        <ele>191.58</ele>
        <time>2014-09-12T08:23:31Z</time>
      </trkpt>
      <trkpt lat="44.38546" lon="4.78034">
        <ele>191.58</ele>
        <time>2014-09-12T08:23:32Z</time>
      </trkpt>
      <trkpt lat="44.38549" lon="4.78035">
        <ele>191.58</ele>
        <time>2014-09-12T08:23:33Z</time>
      </trkpt>
      <trkpt lat="44.38611" lon="4.78062">
        <ele>191.58</ele>
        <time>2014-09-12T08:23:52Z</time>
      </trkpt>
      <trkpt lat="44.38687" lon="4.78096">
        <ele>191.58</ele>
        <time>2014-09-12T08:24:15Z</time>
      </trkpt>
      <trkpt lat="44.38757" lon="4.78128">
        <ele>191.58</ele>
        <time>2014-09-12T08:24:37Z</time>
      </trkpt>
      <trkpt lat="44.38828" lon="4.78158">
        <ele>191.59</ele>
        <time>2014-09-12T08:25:01Z</time>
      </trkpt>
      <trkpt lat="44.38833" lon="4.78161">
        <ele>191.59</ele>
        <time>2014-09-12T08:25:03Z</time>
      </trkpt>
      <trkpt lat="44.38836" lon="4.78162">
        <ele>191.59</ele>
        <time>2014-09-12T08:25:04Z</time>
      </trkpt>
      <trkpt lat="44.38839" lon="4.78163">
        <ele>191.59</ele>
        <time>2014-09-12T08:25:05Z</time>
      </trkpt>
      <trkpt lat="44.38841" lon="4.78164">
        <ele>191.59</ele>
        <time>2014-09-12T08:25:06Z</time>
      </trkpt>
      <trkpt lat="44.38844" lon="4.78165">
        <ele>191.59</ele>
        <time>2014-09-12T08:25:07Z</time>
      </trkpt>
      <trkpt lat="44.38873" lon="4.78178">
        <ele>191.59</ele>
        <time>2014-09-12T08:25:18Z</time>
      </trkpt>
      <trkpt lat="44.38887" lon="4.78219">
        <ele>191.59</ele>
        <time>2014-09-12T08:25:31Z</time>
      </trkpt>
      <trkpt lat="44.38909" lon="4.78239">
        <ele>191.59</ele>
        <time>2014-09-12T08:25:42Z</time>
      </trkpt>
      <trkpt lat="44.38914" lon="4.7824">
        <ele>191.59</ele>
        <time>2014-09-12T08:25:44Z</time>
      </trkpt>
      <trkpt lat="44.38916" lon="4.78241">
        <ele>191.59</ele>
        <time>2014-09-12T08:25:45Z</time>
      </trkpt>
      <trkpt lat="44.38918" lon="4.78241">
        <ele>191.59</ele>
        <time>2014-09-12T08:25:46Z</time>
      </trkpt>
      <trkpt lat="44.38939" lon="4.78241">
        <ele>191.59</ele>
        <time>2014-09-12T08:25:55Z</time>
      </trkpt>
      <trkpt lat="44.38941" lon="4.78239">
        <ele>191.59</ele>
        <time>2014-09-12T08:25:56Z</time>
      </trkpt>
      <trkpt lat="44.38943" lon="4.78238">
        <ele>191.59</ele>
        <time>2014-09-12T08:25:57Z</time>
      </trkpt>
      <trkpt lat="44.38945" lon="4.78237">
        <ele>191.59</ele>
        <time>2014-09-12T08:25:58Z</time>
      </trkpt>
      <trkpt lat="44.38947" lon="4.78236">
        <ele>191.59</ele>
        <time>2014-09-12T08:25:59Z</time>
      </trkpt>
      <trkpt lat="44.38949" lon="4.78234">
        <ele>191.59</ele>
        <time>2014-09-12T08:26:00Z</time>
      </trkpt>
      <trkpt lat="44.3895" lon="4.78231">
        <ele>191.59</ele>
        <time>2014-09-12T08:26:01Z</time>
      </trkpt>
      <trkpt lat="44.38951" lon="4.78228">
        <ele>191.59</ele>
        <time>2014-09-12T08:26:02Z</time>
      </trkpt>
      <trkpt lat="44.38951" lon="4.78225">
        <ele>191.59</ele>
        <time>2014-09-12T08:26:03Z</time>
      </trkpt>
      <trkpt lat="44.38951" lon="4.78222">
        <ele>191.59</ele>
        <time>2014-09-12T08:26:04Z</time>
      </trkpt>
      <trkpt lat="44.38951" lon="4.78218">
        <ele>191.59</ele>
        <time>2014-09-12T08:26:05Z</time>
      </trkpt>
      <trkpt lat="44.3895" lon="4.78173">
        <ele>191.59</ele>
        <time>2014-09-12T08:26:19Z</time>
      </trkpt>
      <trkpt lat="44.38949" lon="4.78159">
        <ele>191.59</ele>
        <time>2014-09-12T08:26:24Z</time>
      </trkpt>
      <trkpt lat="44.38949" lon="4.78151">
        <ele>191.59</ele>
        <time>2014-09-12T08:26:28Z</time>
      </trkpt>
      <trkpt lat="44.38954" lon="4.78131">
        <ele>191.59</ele>
        <time>2014-09-12T08:26:37Z</time>
      </trkpt>
      <trkpt lat="44.38962" lon="4.78105">
        <ele>191.59</ele>
        <time>2014-09-12T08:26:48Z</time>
      </trkpt>
      <trkpt lat="44.38969" lon="4.78082">
        <ele>191.59</ele>
        <time>2014-09-12T08:27:02Z</time>
      </trkpt>
      <trkpt lat="44.38972" lon="4.78072">
        <ele>191.59</ele>
        <time>2014-09-12T08:27:15Z</time>
      </trkpt>
      <trkpt lat="44.3898" lon="4.78053">
        <ele>191.59</ele>
        <time>2014-09-12T08:27:31Z</time>
      </trkpt>
      <trkpt lat="44.38981" lon="4.78052">
        <ele>191.59</ele>
        <time>2014-09-12T08:27:32Z</time>
      </trkpt>
      <trkpt lat="44.38983" lon="4.78048">
        <ele>191.59</ele>
        <time>2014-09-12T08:27:35Z</time>
      </trkpt>
      <trkpt lat="44.38986" lon="4.78042">
        <ele>191.59</ele>
        <time>2014-09-12T08:27:39Z</time>
      </trkpt>
      <trkpt lat="44.3899" lon="4.78036">
        <ele>191.59</ele>
        <time>2014-09-12T08:27:44Z</time>
      </trkpt>
      <trkpt lat="44.38992" lon="4.78034">
        <ele>191.59</ele>
        <time>2014-09-12T08:27:46Z</time>
      </trkpt>
      <trkpt lat="44.38994" lon="4.78032">
        <ele>191.59</ele>
        <time>2014-09-12T08:27:48Z</time>
      </trkpt>
      <trkpt lat="44.39001" lon="4.78024">
        <ele>191.59</ele>
        <time>2014-09-12T08:27:56Z</time>
      </trkpt>
      <trkpt lat="44.39007" lon="4.78018">
        <ele>191.59</ele>
        <time>2014-09-12T08:28:02Z</time>
      </trkpt>
      <trkpt lat="44.39011" lon="4.78013">
        <ele>191.59</ele>
        <time>2014-09-12T08:28:06Z</time>
      </trkpt>
      <trkpt lat="44.39023" lon="4.78005">
        <ele>191.59</ele>
        <time>2014-09-12T08:28:18Z</time>
      </trkpt>
      <trkpt lat="44.39029" lon="4.77993">
        <ele>191.59</ele>
        <time>2014-09-12T08:28:31Z</time>
      </trkpt>
      <trkpt lat="44.3903" lon="4.77991">
        <ele>191.59</ele>
        <time>2014-09-12T08:28:32Z</time>
      </trkpt>
      <trkpt lat="44.39031" lon="4.77983">
        <ele>191.59</ele>
        <time>2014-09-12T08:28:36Z</time>
      </trkpt>
      <trkpt lat="44.39039" lon="4.77947">
        <ele>191.59</ele>
        <time>2014-09-12T08:28:49Z</time>
      </trkpt>
      <trkpt lat="44.3906" lon="4.77926">
        <ele>191.59</ele>
        <time>2014-09-12T08:29:02Z</time>
      </trkpt>
      <trkpt lat="44.39062" lon="4.77925">
        <ele>191.59</ele>
        <time>2014-09-12T08:29:03Z</time>
      </trkpt>
      <trkpt lat="44.39067" lon="4.7792">
        <ele>191.59</ele>
        <time>2014-09-12T08:29:06Z</time>
      </trkpt>
      <trkpt lat="44.39078" lon="4.77906">
        <ele>191.59</ele>
        <time>2014-09-12T08:29:16Z</time>
      </trkpt>
      <trkpt lat="44.39079" lon="4.77905">
        <ele>191.59</ele>
        <time>2014-09-12T08:29:21Z</time>
      </trkpt>
      <trkpt lat="44.39089" lon="4.77894">
        <ele>191.59</ele>
        <time>2014-09-12T08:29:32Z</time>
      </trkpt>
      <trkpt lat="44.39097" lon="4.77892">
        <ele>191.59</ele>
        <time>2014-09-12T08:29:40Z</time>
      </trkpt>
      <trkpt lat="44.39109" lon="4.77888">
        <ele>191.59</ele>
        <time>2014-09-12T08:29:49Z</time>
      </trkpt>
      <trkpt lat="44.39118" lon="4.77885">
        <ele>191.59</ele>
        <time>2014-09-12T08:29:55Z</time>
      </trkpt>
      <trkpt lat="44.39131" lon="4.77883">
        <ele>191.59</ele>
        <time>2014-09-12T08:30:06Z</time>
      </trkpt>
      <trkpt lat="44.39142" lon="4.77879">
        <ele>191.59</ele>
        <time>2014-09-12T08:30:14Z</time>
      </trkpt>
      <trkpt lat="44.39162" lon="4.77877">
        <ele>191.59</ele>
        <time>2014-09-12T08:30:25Z</time>
      </trkpt>
      <trkpt lat="44.39166" lon="4.77866">
        <ele>191.59</ele>
        <time>2014-09-12T08:30:31Z</time>
      </trkpt>
      <trkpt lat="44.39166" lon="4.77863">
        <ele>191.59</ele>
        <time>2014-09-12T08:30:33Z</time>
      </trkpt>
      <trkpt lat="44.39163" lon="4.77852">
        <ele>191.59</ele>
        <time>2014-09-12T08:30:39Z</time>
      </trkpt>
      <trkpt lat="44.3916" lon="4.7784">
        <ele>191.59</ele>
        <time>2014-09-12T08:30:55Z</time>
      </trkpt>
      <trkpt lat="44.39159" lon="4.77835">
        <ele>191.59</ele>
        <time>2014-09-12T08:31:12Z</time>
      </trkpt>
      <trkpt lat="44.39159" lon="4.77834">
        <ele>191.59</ele>
        <time>2014-09-12T08:31:42Z</time>
      </trkpt>
      <trkpt lat="44.39158" lon="4.77835">
        <ele>191.59</ele>
        <time>2014-09-12T08:32:26Z</time>
      </trkpt>
      <trkpt lat="44.39157" lon="4.77831">
        <ele>191.59</ele>
        <time>2014-09-12T08:32:56Z</time>
      </trkpt>
      <trkpt lat="44.39156" lon="4.7782">
        <ele>191.59</ele>
        <time>2014-09-12T08:33:00Z</time>
      </trkpt>
      <trkpt lat="44.39159" lon="4.778">
        <ele>191.59</ele>
        <time>2014-09-12T08:33:07Z</time>
      </trkpt>
      <trkpt lat="44.3916" lon="4.77786">
        <ele>191.59</ele>
        <time>2014-09-12T08:33:12Z</time>
      </trkpt>
      <trkpt lat="44.39162" lon="4.77778">
        <ele>191.59</ele>
        <time>2014-09-12T08:33:15Z</time>
      </trkpt>
      <trkpt lat="44.3916" lon="4.77741">
        <ele>191.58</ele>
        <time>2014-09-12T08:33:28Z</time>
      </trkpt>
      <trkpt lat="44.39147" lon="4.77717">
        <ele>191.58</ele>
        <time>2014-09-12T08:33:36Z</time>
      </trkpt>
      <trkpt lat="44.39142" lon="4.77709">
        <ele>191.58</ele>
        <time>2014-09-12T08:33:49Z</time>
      </trkpt>
      <trkpt lat="44.39137" lon="4.77698">
        <ele>191.58</ele>
        <time>2014-09-12T08:34:15Z</time>
      </trkpt>
      <trkpt lat="44.39137" lon="4.77693">
        <ele>191.58</ele>
        <time>2014-09-12T08:34:17Z</time>
      </trkpt>
      <trkpt lat="44.3914" lon="4.77684">
        <ele>191.58</ele>
        <time>2014-09-12T08:34:20Z</time>
      </trkpt>
      <trkpt lat="44.39155" lon="4.77655">
        <ele>191.58</ele>
        <time>2014-09-12T08:34:33Z</time>
      </trkpt>
      <trkpt lat="44.39166" lon="4.77622">
        <ele>191.58</ele>
        <time>2014-09-12T08:34:44Z</time>
      </trkpt>
      <trkpt lat="44.39168" lon="4.77615">
        <ele>191.58</ele>
        <time>2014-09-12T08:34:46Z</time>
      </trkpt>
      <trkpt lat="44.39173" lon="4.77602">
        <ele>191.58</ele>
        <time>2014-09-12T08:34:50Z</time>
      </trkpt>
      <trkpt lat="44.39196" lon="4.77583">
        <ele>191.58</ele>
        <time>2014-09-12T08:35:01Z</time>
      </trkpt>
      <trkpt lat="44.39208" lon="4.77575">
        <ele>191.58</ele>
        <time>2014-09-12T08:35:07Z</time>
      </trkpt>
      <trkpt lat="44.39218" lon="4.77572">
        <ele>191.58</ele>
        <time>2014-09-12T08:35:16Z</time>
      </trkpt>
      <trkpt lat="44.39225" lon="4.77577">
        <ele>191.58</ele>
        <time>2014-09-12T08:35:20Z</time>
      </trkpt>
      <trkpt lat="44.39232" lon="4.77583">
        <ele>191.58</ele>
        <time>2014-09-12T08:35:25Z</time>
      </trkpt>
      <trkpt lat="44.39244" lon="4.77586">
        <ele>191.58</ele>
        <time>2014-09-12T08:35:33Z</time>
      </trkpt>
      <trkpt lat="44.39249" lon="4.77588">
        <ele>191.58</ele>
        <time>2014-09-12T08:35:37Z</time>
      </trkpt>
      <trkpt lat="44.39275" lon="4.77584">
        <ele>191.58</ele>
        <time>2014-09-12T08:35:50Z</time>
      </trkpt>
      <trkpt lat="44.39288" lon="4.77586">
        <ele>191.58</ele>
        <time>2014-09-12T08:35:54Z</time>
      </trkpt>
      <trkpt lat="44.39304" lon="4.77594">
        <ele>191.59</ele>
        <time>2014-09-12T08:35:58Z</time>
      </trkpt>
      <trkpt lat="44.3934" lon="4.776">
        <ele>191.59</ele>
        <time>2014-09-12T08:36:08Z</time>
      </trkpt>
      <trkpt lat="44.39358" lon="4.77598">
        <ele>191.59</ele>
        <time>2014-09-12T08:36:16Z</time>
      </trkpt>
      <trkpt lat="44.39361" lon="4.77596">
        <ele>191.59</ele>
        <time>2014-09-12T08:36:18Z</time>
      </trkpt>
      <trkpt lat="44.39367" lon="4.77591">
        <ele>191.59</ele>
        <time>2014-09-12T08:36:21Z</time>
      </trkpt>
      <trkpt lat="44.39374" lon="4.77593">
        <ele>191.59</ele>
        <time>2014-09-12T08:36:26Z</time>
      </trkpt>
      <trkpt lat="44.39386" lon="4.77609">
        <ele>191.59</ele>
        <time>2014-09-12T08:36:33Z</time>
      </trkpt>
      <trkpt lat="44.39394" lon="4.7761">
        <ele>191.59</ele>
        <time>2014-09-12T08:36:36Z</time>
      </trkpt>
      <trkpt lat="44.39432" lon="4.77594">
        <ele>191.59</ele>
        <time>2014-09-12T08:36:51Z</time>
      </trkpt>
      <trkpt lat="44.39441" lon="4.77589">
        <ele>191.59</ele>
        <time>2014-09-12T08:36:56Z</time>
      </trkpt>
      <trkpt lat="44.39454" lon="4.77574">
        <ele>191.59</ele>
        <time>2014-09-12T08:37:03Z</time>
      </trkpt>
      <trkpt lat="44.39455" lon="4.77572">
        <ele>191.59</ele>
        <time>2014-09-12T08:37:04Z</time>
      </trkpt>
      <trkpt lat="44.39456" lon="4.77568">
        <ele>191.59</ele>
        <time>2014-09-12T08:37:05Z</time>
      </trkpt>
      <trkpt lat="44.39458" lon="4.77566">
        <ele>191.59</ele>
        <time>2014-09-12T08:37:06Z</time>
      </trkpt>
      <trkpt lat="44.39459" lon="4.77564">
        <ele>191.59</ele>
        <time>2014-09-12T08:37:07Z</time>
      </trkpt>
      <trkpt lat="44.39461" lon="4.77562">
        <ele>191.59</ele>
        <time>2014-09-12T08:37:08Z</time>
      </trkpt>
      <trkpt lat="44.39462" lon="4.7756">
        <ele>191.59</ele>
        <time>2014-09-12T08:37:09Z</time>
      </trkpt>
      <trkpt lat="44.39463" lon="4.77558">
        <ele>191.59</ele>
        <time>2014-09-12T08:37:10Z</time>
      </trkpt>
      <trkpt lat="44.39465" lon="4.77556">
        <ele>191.59</ele>
        <time>2014-09-12T08:37:11Z</time>
      </trkpt>
      <trkpt lat="44.39467" lon="4.77553">
        <ele>191.59</ele>
        <time>2014-09-12T08:37:13Z</time>
      </trkpt>
      <trkpt lat="44.39468" lon="4.7755">
        <ele>191.59</ele>
        <time>2014-09-12T08:37:14Z</time>
      </trkpt>
      <trkpt lat="44.39469" lon="4.77547">
        <ele>191.59</ele>
        <time>2014-09-12T08:37:15Z</time>
      </trkpt>
      <trkpt lat="44.39469" lon="4.77543">
        <ele>191.59</ele>
        <time>2014-09-12T08:37:16Z</time>
      </trkpt>
      <trkpt lat="44.39469" lon="4.7754">
        <ele>191.59</ele>
        <time>2014-09-12T08:37:17Z</time>
      </trkpt>
      <trkpt lat="44.39469" lon="4.77535">
        <ele>191.59</ele>
        <time>2014-09-12T08:37:18Z</time>
      </trkpt>
      <trkpt lat="44.3947" lon="4.7753">
        <ele>191.59</ele>
        <time>2014-09-12T08:37:19Z</time>
      </trkpt>
      <trkpt lat="44.39471" lon="4.77524">
        <ele>191.59</ele>
        <time>2014-09-12T08:37:20Z</time>
      </trkpt>
      <trkpt lat="44.39473" lon="4.77518">
        <ele>191.59</ele>
        <time>2014-09-12T08:37:21Z</time>
      </trkpt>
      <trkpt lat="44.39476" lon="4.77511">
        <ele>191.59</ele>
        <time>2014-09-12T08:37:22Z</time>
      </trkpt>
      <trkpt lat="44.39478" lon="4.77504">
        <ele>191.59</ele>
        <time>2014-09-12T08:37:23Z</time>
      </trkpt>
      <trkpt lat="44.39481" lon="4.77497">
        <ele>191.59</ele>
        <time>2014-09-12T08:37:24Z</time>
      </trkpt>
      <trkpt lat="44.39499" lon="4.77448">
        <ele>191.59</ele>
        <time>2014-09-12T08:37:29Z</time>
      </trkpt>
      <trkpt lat="44.39506" lon="4.77419">
        <ele>191.59</ele>
        <time>2014-09-12T08:37:32Z</time>
      </trkpt>
      <trkpt lat="44.39514" lon="4.77384">
        <ele>191.59</ele>
        <time>2014-09-12T08:37:36Z</time>
      </trkpt>
      <trkpt lat="44.39516" lon="4.77376">
        <ele>191.59</ele>
        <time>2014-09-12T08:37:37Z</time>
      </trkpt>
      <trkpt lat="44.39521" lon="4.77362">
        <ele>191.59</ele>
        <time>2014-09-12T08:37:39Z</time>
      </trkpt>
      <trkpt lat="44.39528" lon="4.77351">
        <ele>191.59</ele>
        <time>2014-09-12T08:37:41Z</time>
      </trkpt>
      <trkpt lat="44.39542" lon="4.7733">
        <ele>191.59</ele>
        <time>2014-09-12T08:37:45Z</time>
      </trkpt>
      <trkpt lat="44.39549" lon="4.77319">
        <ele>191.59</ele>
        <time>2014-09-12T08:37:47Z</time>
      </trkpt>
      <trkpt lat="44.39558" lon="4.77309">
        <ele>191.59</ele>
        <time>2014-09-12T08:37:49Z</time>
      </trkpt>
      <trkpt lat="44.39563" lon="4.77305">
        <ele>191.59</ele>
        <time>2014-09-12T08:37:50Z</time>
      </trkpt>
      <trkpt lat="44.39572" lon="4.77297">
        <ele>191.59</ele>
        <time>2014-09-12T08:37:52Z</time>
      </trkpt>
      <trkpt lat="44.39576" lon="4.77292">
        <ele>191.59</ele>
        <time>2014-09-12T08:37:53Z</time>
      </trkpt>
      <trkpt lat="44.3958" lon="4.77286">
        <ele>191.59</ele>
        <time>2014-09-12T08:37:54Z</time>
      </trkpt>
      <trkpt lat="44.39582" lon="4.77269">
        <ele>191.59</ele>
        <time>2014-09-12T08:37:56Z</time>
      </trkpt>
      <trkpt lat="44.39582" lon="4.7726">
        <ele>191.59</ele>
        <time>2014-09-12T08:37:57Z</time>
      </trkpt>
      <trkpt lat="44.39577" lon="4.77251">
        <ele>191.59</ele>
        <time>2014-09-12T08:37:58Z</time>
      </trkpt>
      <trkpt lat="44.39572" lon="4.77244">
        <ele>191.58</ele>
        <time>2014-09-12T08:37:59Z</time>
      </trkpt>
      <trkpt lat="44.39567" lon="4.77236">
        <ele>191.58</ele>
        <time>2014-09-12T08:38:00Z</time>
      </trkpt>
      <trkpt lat="44.39549" lon="4.77215">
        <ele>191.58</ele>
        <time>2014-09-12T08:38:03Z</time>
      </trkpt>
      <trkpt lat="44.39539" lon="4.77203">
        <ele>191.58</ele>
        <time>2014-09-12T08:38:05Z</time>
      </trkpt>
      <trkpt lat="44.39535" lon="4.772">
        <ele>191.58</ele>
        <time>2014-09-12T08:38:06Z</time>
      </trkpt>
      <trkpt lat="44.39526" lon="4.77192">
        <ele>191.58</ele>
        <time>2014-09-12T08:38:08Z</time>
      </trkpt>
      <trkpt lat="44.39521" lon="4.77189">
        <ele>191.58</ele>
        <time>2014-09-12T08:38:09Z</time>
      </trkpt>
      <trkpt lat="44.39516" lon="4.77185">
        <ele>191.58</ele>
        <time>2014-09-12T08:38:10Z</time>
      </trkpt>
      <trkpt lat="44.39511" lon="4.77181">
        <ele>191.58</ele>
        <time>2014-09-12T08:38:11Z</time>
      </trkpt>
      <trkpt lat="44.39507" lon="4.77176">
        <ele>191.58</ele>
        <time>2014-09-12T08:38:12Z</time>
      </trkpt>
      <trkpt lat="44.39503" lon="4.77171">
        <ele>191.58</ele>
        <time>2014-09-12T08:38:13Z</time>
      </trkpt>
      <trkpt lat="44.39498" lon="4.77167">
        <ele>191.58</ele>
        <time>2014-09-12T08:38:14Z</time>
      </trkpt>
      <trkpt lat="44.39473" lon="4.77136">
        <ele>191.58</ele>
        <time>2014-09-12T08:38:20Z</time>
      </trkpt>
      <trkpt lat="44.3947" lon="4.77129">
        <ele>191.58</ele>
        <time>2014-09-12T08:38:21Z</time>
      </trkpt>
      <trkpt lat="44.39465" lon="4.77116">
        <ele>191.58</ele>
        <time>2014-09-12T08:38:23Z</time>
      </trkpt>
      <trkpt lat="44.39462" lon="4.7711">
        <ele>191.58</ele>
        <time>2014-09-12T08:38:24Z</time>
      </trkpt>
      <trkpt lat="44.39431" lon="4.77029">
        <ele>191.58</ele>
        <time>2014-09-12T08:38:36Z</time>
      </trkpt>
      <trkpt lat="44.39424" lon="4.77006">
        <ele>191.58</ele>
        <time>2014-09-12T08:38:39Z</time>
      </trkpt>
      <trkpt lat="44.39414" lon="4.76945">
        <ele>191.58</ele>
        <time>2014-09-12T08:38:47Z</time>
      </trkpt>
      <trkpt lat="44.39414" lon="4.76938">
        <ele>191.58</ele>
        <time>2014-09-12T08:38:48Z</time>
      </trkpt>
      <trkpt lat="44.39408" lon="4.76881">
        <ele>191.58</ele>
        <time>2014-09-12T08:38:55Z</time>
      </trkpt>
      <trkpt lat="44.39407" lon="4.76873">
        <ele>191.58</ele>
        <time>2014-09-12T08:38:56Z</time>
      </trkpt>
      <trkpt lat="44.39407" lon="4.76798">
        <ele>191.58</ele>
        <time>2014-09-12T08:39:07Z</time>
      </trkpt>
      <trkpt lat="44.39408" lon="4.76735">
        <ele>191.58</ele>
        <time>2014-09-12T08:39:20Z</time>
      </trkpt>
      <trkpt lat="44.39415" lon="4.76685">
        <ele>191.58</ele>
        <time>2014-09-12T08:39:32Z</time>
      </trkpt>
      <trkpt lat="44.39418" lon="4.76636">
        <ele>191.58</ele>
        <time>2014-09-12T08:39:43Z</time>
      </trkpt>
      <trkpt lat="44.39408" lon="4.76567">
        <ele>191.58</ele>
        <time>2014-09-12T08:39:58Z</time>
      </trkpt>
      <trkpt lat="44.39396" lon="4.76519">
        <ele>191.58</ele>
        <time>2014-09-12T08:40:09Z</time>
      </trkpt>
      <trkpt lat="44.39383" lon="4.76495">
        <ele>191.58</ele>
        <time>2014-09-12T08:40:22Z</time>
      </trkpt>
      <trkpt lat="44.39384" lon="4.76501">
        <ele>191.58</ele>
        <time>2014-09-12T08:40:34Z</time>
      </trkpt>
      <trkpt lat="44.39386" lon="4.76504">
        <ele>191.58</ele>
        <time>2014-09-12T08:40:35Z</time>
      </trkpt>
      <trkpt lat="44.39389" lon="4.7651">
        <ele>191.58</ele>
        <time>2014-09-12T08:40:37Z</time>
      </trkpt>
      <trkpt lat="44.3939" lon="4.76512">
        <ele>191.58</ele>
        <time>2014-09-12T08:40:38Z</time>
      </trkpt>
      <trkpt lat="44.39391" lon="4.76514">
        <ele>191.58</ele>
        <time>2014-09-12T08:40:39Z</time>
      </trkpt>
      <trkpt lat="44.39392" lon="4.76516">
        <ele>191.58</ele>
        <time>2014-09-12T08:40:40Z</time>
      </trkpt>
      <trkpt lat="44.39393" lon="4.76519">
        <ele>191.58</ele>
        <time>2014-09-12T08:40:41Z</time>
      </trkpt>
      <trkpt lat="44.39394" lon="4.76521">
        <ele>191.58</ele>
        <time>2014-09-12T08:40:42Z</time>
      </trkpt>
      <trkpt lat="44.39395" lon="4.76523">
        <ele>191.58</ele>
        <time>2014-09-12T08:40:43Z</time>
      </trkpt>
      <trkpt lat="44.39396" lon="4.76525">
        <ele>191.58</ele>
        <time>2014-09-12T08:40:44Z</time>
      </trkpt>
      <trkpt lat="44.39397" lon="4.76527">
        <ele>191.58</ele>
        <time>2014-09-12T08:40:45Z</time>
      </trkpt>
      <trkpt lat="44.394" lon="4.76532">
        <ele>191.58</ele>
        <time>2014-09-12T08:40:47Z</time>
      </trkpt>
      <trkpt lat="44.39402" lon="4.76536">
        <ele>191.58</ele>
        <time>2014-09-12T08:40:49Z</time>
      </trkpt>
      <trkpt lat="44.39403" lon="4.76538">
        <ele>191.58</ele>
        <time>2014-09-12T08:40:50Z</time>
      </trkpt>
      <trkpt lat="44.39406" lon="4.76544">
        <ele>191.58</ele>
        <time>2014-09-12T08:40:55Z</time>
      </trkpt>
      <trkpt lat="44.39409" lon="4.76553">
        <ele>191.58</ele>
        <time>2014-09-12T08:41:03Z</time>
      </trkpt>
      <trkpt lat="44.3941" lon="4.76556">
        <ele>191.58</ele>
        <time>2014-09-12T08:41:04Z</time>
      </trkpt>
      <trkpt lat="44.39411" lon="4.76557">
        <ele>191.58</ele>
        <time>2014-09-12T08:41:05Z</time>
      </trkpt>
      <trkpt lat="44.39411" lon="4.76559">
        <ele>191.58</ele>
        <time>2014-09-12T08:41:06Z</time>
      </trkpt>
      <trkpt lat="44.39412" lon="4.76561">
        <ele>191.58</ele>
        <time>2014-09-12T08:41:07Z</time>
      </trkpt>
      <trkpt lat="44.39413" lon="4.76562">
        <ele>191.58</ele>
        <time>2014-09-12T08:41:08Z</time>
      </trkpt>
      <trkpt lat="44.39414" lon="4.76563">
        <ele>191.58</ele>
        <time>2014-09-12T08:41:09Z</time>
      </trkpt>
      <trkpt lat="44.39415" lon="4.76565">
        <ele>191.58</ele>
        <time>2014-09-12T08:41:10Z</time>
      </trkpt>
      <trkpt lat="44.39415" lon="4.76566">
        <ele>191.58</ele>
        <time>2014-09-12T08:41:11Z</time>
      </trkpt>
      <trkpt lat="44.39416" lon="4.76568">
        <ele>191.58</ele>
        <time>2014-09-12T08:41:12Z</time>
      </trkpt>
      <trkpt lat="44.39417" lon="4.7657">
        <ele>191.58</ele>
        <time>2014-09-12T08:41:13Z</time>
      </trkpt>
      <trkpt lat="44.39418" lon="4.76572">
        <ele>191.58</ele>
        <time>2014-09-12T08:41:14Z</time>
      </trkpt>
      <trkpt lat="44.39419" lon="4.76574">
        <ele>191.58</ele>
        <time>2014-09-12T08:41:15Z</time>
      </trkpt>
      <trkpt lat="44.3942" lon="4.76575">
        <ele>191.58</ele>
        <time>2014-09-12T08:41:16Z</time>
      </trkpt>
      <trkpt lat="44.39421" lon="4.76576">
        <ele>191.58</ele>
        <time>2014-09-12T08:41:17Z</time>
      </trkpt>
      <trkpt lat="44.39425" lon="4.76577">
        <ele>191.58</ele>
        <time>2014-09-12T08:41:22Z</time>
      </trkpt>
      <trkpt lat="44.39432" lon="4.76575">
        <ele>191.58</ele>
        <time>2014-09-12T08:41:36Z</time>
      </trkpt>
      <trkpt lat="44.39432" lon="4.76573">
        <ele>191.58</ele>
        <time>2014-09-12T08:41:44Z</time>
      </trkpt>
      <trkpt lat="44.39442" lon="4.76543">
        <ele>191.58</ele>
        <time>2014-09-12T08:41:56Z</time>
      </trkpt>
      <trkpt lat="44.39446" lon="4.76525">
        <ele>191.58</ele>
        <time>2014-09-12T08:42:04Z</time>
      </trkpt>
      <trkpt lat="44.39448" lon="4.76519">
        <ele>191.58</ele>
        <time>2014-09-12T08:42:08Z</time>
      </trkpt>
      <trkpt lat="44.39461" lon="4.76498">
        <ele>191.58</ele>
        <time>2014-09-12T08:42:20Z</time>
      </trkpt>
      <trkpt lat="44.39464" lon="4.76494">
        <ele>191.58</ele>
        <time>2014-09-12T08:42:22Z</time>
      </trkpt>
      <trkpt lat="44.39472" lon="4.76485">
        <ele>191.58</ele>
        <time>2014-09-12T08:42:27Z</time>
      </trkpt>
      <trkpt lat="44.39476" lon="4.76482">
        <ele>191.58</ele>
        <time>2014-09-12T08:42:29Z</time>
      </trkpt>
      <trkpt lat="44.39485" lon="4.76473">
        <ele>191.58</ele>
        <time>2014-09-12T08:42:34Z</time>
      </trkpt>
      <trkpt lat="44.39497" lon="4.76465">
        <ele>191.58</ele>
        <time>2014-09-12T08:42:40Z</time>
      </trkpt>
      <trkpt lat="44.39506" lon="4.76455">
        <ele>191.58</ele>
        <time>2014-09-12T08:42:45Z</time>
      </trkpt>
      <trkpt lat="44.39515" lon="4.76448">
        <ele>191.58</ele>
        <time>2014-09-12T08:42:49Z</time>
      </trkpt>
      <trkpt lat="44.39519" lon="4.76445">
        <ele>191.58</ele>
        <time>2014-09-12T08:42:51Z</time>
      </trkpt>
      <trkpt lat="44.39534" lon="4.76435">
        <ele>191.58</ele>
        <time>2014-09-12T08:42:58Z</time>
      </trkpt>
      <trkpt lat="44.39543" lon="4.76428">
        <ele>191.58</ele>
        <time>2014-09-12T08:43:16Z</time>
      </trkpt>
      <trkpt lat="44.39544" lon="4.76427">
        <ele>191.58</ele>
        <time>2014-09-12T08:43:17Z</time>
      </trkpt>
      <trkpt lat="44.39543" lon="4.7641">
        <ele>191.58</ele>
        <time>2014-09-12T08:43:25Z</time>
      </trkpt>
      <trkpt lat="44.39545" lon="4.76374">
        <ele>191.58</ele>
        <time>2014-09-12T08:43:38Z</time>
      </trkpt>
      <trkpt lat="44.39546" lon="4.76368">
        <ele>191.58</ele>
        <time>2014-09-12T08:43:40Z</time>
      </trkpt>
      <trkpt lat="44.39551" lon="4.76344">
        <ele>191.58</ele>
        <time>2014-09-12T08:43:47Z</time>
      </trkpt>
      <trkpt lat="44.39546" lon="4.76309">
        <ele>191.58</ele>
        <time>2014-09-12T08:43:59Z</time>
      </trkpt>
      <trkpt lat="44.39545" lon="4.76298">
        <ele>191.58</ele>
        <time>2014-09-12T08:44:10Z</time>
      </trkpt>
      <trkpt lat="44.39542" lon="4.76295">
        <ele>191.58</ele>
        <time>2014-09-12T08:44:34Z</time>
      </trkpt>
      <trkpt lat="44.39538" lon="4.76292">
        <ele>191.58</ele>
        <time>2014-09-12T08:44:44Z</time>
      </trkpt>
      <trkpt lat="44.39528" lon="4.7628">
        <ele>191.58</ele>
        <time>2014-09-12T08:45:00Z</time>
      </trkpt>
      <trkpt lat="44.39527" lon="4.76278">
        <ele>191.58</ele>
        <time>2014-09-12T08:45:02Z</time>
      </trkpt>
      <trkpt lat="44.39521" lon="4.7627">
        <ele>191.58</ele>
        <time>2014-09-12T08:45:14Z</time>
      </trkpt>
      <trkpt lat="44.39522" lon="4.76271">
        <ele>191.58</ele>
        <time>2014-09-12T08:45:24Z</time>
      </trkpt>
      <trkpt lat="44.39527" lon="4.76278">
        <ele>191.58</ele>
        <time>2014-09-12T08:45:39Z</time>
      </trkpt>
      <trkpt lat="44.39529" lon="4.76278">
        <ele>191.58</ele>
        <time>2014-09-12T08:45:56Z</time>
      </trkpt>
      <trkpt lat="44.39535" lon="4.76296">
        <ele>191.58</ele>
        <time>2014-09-12T08:46:11Z</time>
      </trkpt>
      <trkpt lat="44.39539" lon="4.76299">
        <ele>191.58</ele>
        <time>2014-09-12T08:46:16Z</time>
      </trkpt>
      <trkpt lat="44.39541" lon="4.763">
        <ele>191.58</ele>
        <time>2014-09-12T08:46:19Z</time>
      </trkpt>
      <trkpt lat="44.39548" lon="4.76291">
        <ele>191.58</ele>
        <time>2014-09-12T08:46:31Z</time>
      </trkpt>
      <trkpt lat="44.39548" lon="4.7629">
        <ele>191.58</ele>
        <time>2014-09-12T08:46:32Z</time>
      </trkpt>
      <trkpt lat="44.39548" lon="4.76282">
        <ele>191.58</ele>
        <time>2014-09-12T08:46:37Z</time>
      </trkpt>
      <trkpt lat="44.39547" lon="4.76273">
        <ele>191.58</ele>
        <time>2014-09-12T08:46:42Z</time>
      </trkpt>
      <trkpt lat="44.39546" lon="4.76266">
        <ele>191.58</ele>
        <time>2014-09-12T08:46:45Z</time>
      </trkpt>
      <trkpt lat="44.39542" lon="4.7625">
        <ele>191.58</ele>
        <time>2014-09-12T08:46:50Z</time>
      </trkpt>
      <trkpt lat="44.39539" lon="4.76243">
        <ele>191.58</ele>
        <time>2014-09-12T08:46:53Z</time>
      </trkpt>
      <trkpt lat="44.39532" lon="4.76218">
        <ele>191.58</ele>
        <time>2014-09-12T08:47:07Z</time>
      </trkpt>
      <trkpt lat="44.39532" lon="4.76202">
        <ele>191.58</ele>
        <time>2014-09-12T08:47:13Z</time>
      </trkpt>
      <trkpt lat="44.39531" lon="4.76157">
        <ele>191.58</ele>
        <time>2014-09-12T08:47:28Z</time>
      </trkpt>
      <trkpt lat="44.39528" lon="4.76136">
        <ele>191.58</ele>
        <time>2014-09-12T08:47:34Z</time>
      </trkpt>
      <trkpt lat="44.3953" lon="4.76127">
        <ele>191.58</ele>
        <time>2014-09-12T08:47:37Z</time>
      </trkpt>
      <trkpt lat="44.39531" lon="4.76116">
        <ele>191.58</ele>
        <time>2014-09-12T08:47:41Z</time>
      </trkpt>
      <trkpt lat="44.39531" lon="4.76113">
        <ele>191.58</ele>
        <time>2014-09-12T08:47:42Z</time>
      </trkpt>
      <trkpt lat="44.39532" lon="4.76111">
        <ele>191.58</ele>
        <time>2014-09-12T08:47:43Z</time>
      </trkpt>
      <trkpt lat="44.39532" lon="4.76108">
        <ele>191.58</ele>
        <time>2014-09-12T08:47:44Z</time>
      </trkpt>
      <trkpt lat="44.39532" lon="4.76105">
        <ele>191.58</ele>
        <time>2014-09-12T08:47:45Z</time>
      </trkpt>
      <trkpt lat="44.39533" lon="4.76102">
        <ele>191.58</ele>
        <time>2014-09-12T08:47:46Z</time>
      </trkpt>
      <trkpt lat="44.39533" lon="4.76098">
        <ele>191.58</ele>
        <time>2014-09-12T08:47:47Z</time>
      </trkpt>
      <trkpt lat="44.39532" lon="4.76095">
        <ele>191.58</ele>
        <time>2014-09-12T08:47:48Z</time>
      </trkpt>
      <trkpt lat="44.39532" lon="4.76091">
        <ele>191.58</ele>
        <time>2014-09-12T08:47:49Z</time>
      </trkpt>
      <trkpt lat="44.39532" lon="4.76085">
        <ele>191.58</ele>
        <time>2014-09-12T08:47:51Z</time>
      </trkpt>
      <trkpt lat="44.39532" lon="4.76082">
        <ele>191.58</ele>
        <time>2014-09-12T08:47:52Z</time>
      </trkpt>
      <trkpt lat="44.39533" lon="4.7608">
        <ele>191.58</ele>
        <time>2014-09-12T08:47:53Z</time>
      </trkpt>
      <trkpt lat="44.39533" lon="4.76076">
        <ele>191.58</ele>
        <time>2014-09-12T08:47:54Z</time>
      </trkpt>
      <trkpt lat="44.39533" lon="4.76073">
        <ele>191.58</ele>
        <time>2014-09-12T08:47:55Z</time>
      </trkpt>
      <trkpt lat="44.39534" lon="4.76065">
        <ele>191.58</ele>
        <time>2014-09-12T08:47:58Z</time>
      </trkpt>
      <trkpt lat="44.39534" lon="4.7606">
        <ele>191.58</ele>
        <time>2014-09-12T08:48:00Z</time>
      </trkpt>
      <trkpt lat="44.39535" lon="4.76056">
        <ele>191.58</ele>
        <time>2014-09-12T08:48:02Z</time>
      </trkpt>
      <trkpt lat="44.39535" lon="4.76051">
        <ele>191.58</ele>
        <time>2014-09-12T08:48:04Z</time>
      </trkpt>
      <trkpt lat="44.39534" lon="4.76047">
        <ele>191.58</ele>
        <time>2014-09-12T08:48:06Z</time>
      </trkpt>
      <trkpt lat="44.39533" lon="4.76045">
        <ele>191.58</ele>
        <time>2014-09-12T08:48:07Z</time>
      </trkpt>
      <trkpt lat="44.39532" lon="4.76042">
        <ele>191.58</ele>
        <time>2014-09-12T08:48:08Z</time>
      </trkpt>
      <trkpt lat="44.39531" lon="4.76039">
        <ele>191.58</ele>
        <time>2014-09-12T08:48:09Z</time>
      </trkpt>
      <trkpt lat="44.3953" lon="4.76036">
        <ele>191.58</ele>
        <time>2014-09-12T08:48:10Z</time>
      </trkpt>
      <trkpt lat="44.39524" lon="4.75977">
        <ele>191.58</ele>
        <time>2014-09-12T08:48:24Z</time>
      </trkpt>
      <trkpt lat="44.39518" lon="4.75898">
        <ele>191.58</ele>
        <time>2014-09-12T08:48:40Z</time>
      </trkpt>
      <trkpt lat="44.39506" lon="4.75819">
        <ele>191.58</ele>
        <time>2014-09-12T08:48:55Z</time>
      </trkpt>
      <trkpt lat="44.39505" lon="4.75813">
        <ele>191.58</ele>
        <time>2014-09-12T08:48:56Z</time>
      </trkpt>
      <trkpt lat="44.39505" lon="4.75807">
        <ele>191.58</ele>
        <time>2014-09-12T08:48:57Z</time>
      </trkpt>
      <trkpt lat="44.39515" lon="4.75735">
        <ele>191.58</ele>
        <time>2014-09-12T08:49:12Z</time>
      </trkpt>
      <trkpt lat="44.39525" lon="4.757">
        <ele>191.58</ele>
        <time>2014-09-12T08:49:24Z</time>
      </trkpt>
      <trkpt lat="44.39516" lon="4.75652">
        <ele>191.58</ele>
        <time>2014-09-12T08:49:36Z</time>
      </trkpt>
      <trkpt lat="44.39503" lon="4.75612">
        <ele>191.58</ele>
        <time>2014-09-12T08:49:44Z</time>
      </trkpt>
      <trkpt lat="44.39502" lon="4.75606">
        <ele>191.58</ele>
        <time>2014-09-12T08:49:45Z</time>
      </trkpt>
      <trkpt lat="44.39499" lon="4.75585">
        <ele>191.58</ele>
        <time>2014-09-12T08:49:49Z</time>
      </trkpt>
      <trkpt lat="44.39498" lon="4.75579">
        <ele>191.58</ele>
        <time>2014-09-12T08:49:50Z</time>
      </trkpt>
      <trkpt lat="44.39492" lon="4.75552">
        <ele>191.58</ele>
        <time>2014-09-12T08:49:55Z</time>
      </trkpt>
      <trkpt lat="44.3949" lon="4.75546">
        <ele>191.58</ele>
        <time>2014-09-12T08:49:56Z</time>
      </trkpt>
      <trkpt lat="44.39488" lon="4.75541">
        <ele>191.58</ele>
        <time>2014-09-12T08:49:57Z</time>
      </trkpt>
      <trkpt lat="44.39486" lon="4.75536">
        <ele>191.58</ele>
        <time>2014-09-12T08:49:58Z</time>
      </trkpt>
      <trkpt lat="44.39442" lon="4.75443">
        <ele>191.58</ele>
        <time>2014-09-12T08:50:18Z</time>
      </trkpt>
      <trkpt lat="44.39433" lon="4.75422">
        <ele>191.58</ele>
        <time>2014-09-12T08:50:24Z</time>
      </trkpt>
      <trkpt lat="44.39431" lon="4.75421">
        <ele>191.58</ele>
        <time>2014-09-12T08:50:25Z</time>
      </trkpt>
      <trkpt lat="44.3943" lon="4.75418">
        <ele>191.58</ele>
        <time>2014-09-12T08:50:26Z</time>
      </trkpt>
      <trkpt lat="44.39429" lon="4.75416">
        <ele>191.58</ele>
        <time>2014-09-12T08:50:27Z</time>
      </trkpt>
      <trkpt lat="44.39428" lon="4.75414">
        <ele>191.58</ele>
        <time>2014-09-12T08:50:28Z</time>
      </trkpt>
      <trkpt lat="44.39427" lon="4.75411">
        <ele>191.58</ele>
        <time>2014-09-12T08:50:29Z</time>
      </trkpt>
      <trkpt lat="44.39426" lon="4.75409">
        <ele>191.58</ele>
        <time>2014-09-12T08:50:30Z</time>
      </trkpt>
      <trkpt lat="44.39425" lon="4.75407">
        <ele>191.58</ele>
        <time>2014-09-12T08:50:31Z</time>
      </trkpt>
      <trkpt lat="44.39424" lon="4.75404">
        <ele>191.58</ele>
        <time>2014-09-12T08:50:32Z</time>
      </trkpt>
      <trkpt lat="44.39419" lon="4.75385">
        <ele>191.58</ele>
        <time>2014-09-12T08:50:37Z</time>
      </trkpt>
      <trkpt lat="44.39418" lon="4.75381">
        <ele>191.58</ele>
        <time>2014-09-12T08:50:38Z</time>
      </trkpt>
      <trkpt lat="44.39418" lon="4.75376">
        <ele>191.58</ele>
        <time>2014-09-12T08:50:39Z</time>
      </trkpt>
      <trkpt lat="44.39418" lon="4.75356">
        <ele>191.58</ele>
        <time>2014-09-12T08:50:44Z</time>
      </trkpt>
      <trkpt lat="44.39419" lon="4.7535">
        <ele>191.58</ele>
        <time>2014-09-12T08:50:46Z</time>
      </trkpt>
      <trkpt lat="44.39419" lon="4.75348">
        <ele>191.58</ele>
        <time>2014-09-12T08:50:47Z</time>
      </trkpt>
      <trkpt lat="44.39419" lon="4.75346">
        <ele>191.58</ele>
        <time>2014-09-12T08:50:48Z</time>
      </trkpt>
      <trkpt lat="44.39419" lon="4.75345">
        <ele>191.58</ele>
        <time>2014-09-12T08:51:05Z</time>
      </trkpt>
      <trkpt lat="44.39417" lon="4.75346">
        <ele>191.58</ele>
        <time>2014-09-12T08:51:20Z</time>
      </trkpt>
      <trkpt lat="44.39417" lon="4.75347">
        <ele>191.58</ele>
        <time>2014-09-12T08:51:21Z</time>
      </trkpt>
      <trkpt lat="44.39416" lon="4.7535">
        <ele>191.58</ele>
        <time>2014-09-12T08:51:22Z</time>
      </trkpt>
      <trkpt lat="44.39415" lon="4.75352">
        <ele>191.58</ele>
        <time>2014-09-12T08:51:23Z</time>
      </trkpt>
      <trkpt lat="44.39414" lon="4.75355">
        <ele>191.58</ele>
        <time>2014-09-12T08:51:24Z</time>
      </trkpt>
      <trkpt lat="44.39413" lon="4.75357">
        <ele>191.58</ele>
        <time>2014-09-12T08:51:25Z</time>
      </trkpt>
      <trkpt lat="44.39412" lon="4.7536">
        <ele>191.58</ele>
        <time>2014-09-12T08:51:26Z</time>
      </trkpt>
      <trkpt lat="44.39396" lon="4.75383">
        <ele>191.58</ele>
        <time>2014-09-12T08:51:38Z</time>
      </trkpt>
      <trkpt lat="44.39392" lon="4.75386">
        <ele>191.58</ele>
        <time>2014-09-12T08:51:46Z</time>
      </trkpt>
      <trkpt lat="44.39387" lon="4.75385">
        <ele>191.58</ele>
        <time>2014-09-12T08:51:59Z</time>
      </trkpt>
      <trkpt lat="44.39387" lon="4.75386">
        <ele>191.58</ele>
        <time>2014-09-12T08:52:25Z</time>
      </trkpt>
      <trkpt lat="44.39388" lon="4.75387">
        <ele>191.58</ele>
        <time>2014-09-12T08:52:51Z</time>
      </trkpt>
      <trkpt lat="44.39388" lon="4.75386">
        <ele>191.58</ele>
        <time>2014-09-12T08:53:34Z</time>
      </trkpt>
      <trkpt lat="44.39378" lon="4.75405">
        <ele>191.58</ele>
        <time>2014-09-12T08:54:00Z</time>
      </trkpt>
      <trkpt lat="44.39355" lon="4.75452">
        <ele>191.58</ele>
        <time>2014-09-12T08:54:12Z</time>
      </trkpt>
      <trkpt lat="44.39354" lon="4.75454">
        <ele>191.58</ele>
        <time>2014-09-12T08:54:13Z</time>
      </trkpt>
      <trkpt lat="44.39353" lon="4.75456">
        <ele>191.58</ele>
        <time>2014-09-12T08:54:14Z</time>
      </trkpt>
      <trkpt lat="44.39351" lon="4.75458">
        <ele>191.58</ele>
        <time>2014-09-12T08:54:15Z</time>
      </trkpt>
      <trkpt lat="44.39351" lon="4.7546">
        <ele>191.58</ele>
        <time>2014-09-12T08:54:16Z</time>
      </trkpt>
      <trkpt lat="44.3935" lon="4.75462">
        <ele>191.58</ele>
        <time>2014-09-12T08:54:17Z</time>
      </trkpt>
      <trkpt lat="44.39349" lon="4.75463">
        <ele>191.58</ele>
        <time>2014-09-12T08:54:18Z</time>
      </trkpt>
      <trkpt lat="44.39347" lon="4.75463">
        <ele>191.58</ele>
        <time>2014-09-12T08:54:19Z</time>
      </trkpt>
      <trkpt lat="44.39338" lon="4.75456">
        <ele>191.58</ele>
        <time>2014-09-12T08:54:23Z</time>
      </trkpt>
      <trkpt lat="44.39337" lon="4.75454">
        <ele>191.58</ele>
        <time>2014-09-12T08:54:24Z</time>
      </trkpt>
      <trkpt lat="44.39336" lon="4.75451">
        <ele>191.58</ele>
        <time>2014-09-12T08:54:25Z</time>
      </trkpt>
      <trkpt lat="44.39338" lon="4.75446">
        <ele>191.58</ele>
        <time>2014-09-12T08:54:27Z</time>
      </trkpt>
      <trkpt lat="44.39338" lon="4.75439">
        <ele>191.58</ele>
        <time>2014-09-12T08:54:29Z</time>
      </trkpt>
      <trkpt lat="44.39338" lon="4.75436">
        <ele>191.58</ele>
        <time>2014-09-12T08:54:30Z</time>
      </trkpt>
      <trkpt lat="44.39339" lon="4.75433">
        <ele>191.58</ele>
        <time>2014-09-12T08:54:31Z</time>
      </trkpt>
      <trkpt lat="44.39339" lon="4.7543">
        <ele>191.58</ele>
        <time>2014-09-12T08:54:32Z</time>
      </trkpt>
      <trkpt lat="44.3934" lon="4.75427">
        <ele>191.58</ele>
        <time>2014-09-12T08:54:33Z</time>
      </trkpt>
      <trkpt lat="44.39341" lon="4.75424">
        <ele>191.58</ele>
        <time>2014-09-12T08:54:34Z</time>
      </trkpt>
      <trkpt lat="44.39341" lon="4.75422">
        <ele>191.58</ele>
        <time>2014-09-12T08:54:35Z</time>
      </trkpt>
      <trkpt lat="44.39342" lon="4.75419">
        <ele>191.58</ele>
        <time>2014-09-12T08:54:36Z</time>
      </trkpt>
      <trkpt lat="44.39344" lon="4.75417">
        <ele>191.58</ele>
        <time>2014-09-12T08:54:37Z</time>
      </trkpt>
      <trkpt lat="44.39349" lon="4.75407">
        <ele>191.58</ele>
        <time>2014-09-12T08:54:41Z</time>
      </trkpt>
      <trkpt lat="44.39349" lon="4.75404">
        <ele>191.58</ele>
        <time>2014-09-12T08:54:42Z</time>
      </trkpt>
      <trkpt lat="44.39349" lon="4.75402">
        <ele>191.58</ele>
        <time>2014-09-12T08:54:43Z</time>
      </trkpt>
      <trkpt lat="44.3935" lon="4.754">
        <ele>191.58</ele>
        <time>2014-09-12T08:54:44Z</time>
      </trkpt>
      <trkpt lat="44.3935" lon="4.75398">
        <ele>191.58</ele>
        <time>2014-09-12T08:54:45Z</time>
      </trkpt>
      <trkpt lat="44.39352" lon="4.75393">
        <ele>191.58</ele>
        <time>2014-09-12T08:54:47Z</time>
      </trkpt>
      <trkpt lat="44.39353" lon="4.75391">
        <ele>191.58</ele>
        <time>2014-09-12T08:54:48Z</time>
      </trkpt>
      <trkpt lat="44.39351" lon="4.75386">
        <ele>191.58</ele>
        <time>2014-09-12T08:54:50Z</time>
      </trkpt>
      <trkpt lat="44.3935" lon="4.75384">
        <ele>191.58</ele>
        <time>2014-09-12T08:54:51Z</time>
      </trkpt>
      <trkpt lat="44.39349" lon="4.75382">
        <ele>191.58</ele>
        <time>2014-09-12T08:54:52Z</time>
      </trkpt>
      <trkpt lat="44.39347" lon="4.75379">
        <ele>191.58</ele>
        <time>2014-09-12T08:54:53Z</time>
      </trkpt>
      <trkpt lat="44.39346" lon="4.75376">
        <ele>191.58</ele>
        <time>2014-09-12T08:54:54Z</time>
      </trkpt>
      <trkpt lat="44.39345" lon="4.75375">
        <ele>191.58</ele>
        <time>2014-09-12T08:54:55Z</time>
      </trkpt>
      <trkpt lat="44.39339" lon="4.75375">
        <ele>191.58</ele>
        <time>2014-09-12T08:55:09Z</time>
      </trkpt>
      <trkpt lat="44.39338" lon="4.75373">
        <ele>191.58</ele>
        <time>2014-09-12T08:55:30Z</time>
      </trkpt>
      <trkpt lat="44.3934" lon="4.7538">
        <ele>191.58</ele>
        <time>2014-09-12T08:56:26Z</time>
      </trkpt>
      <trkpt lat="44.3934" lon="4.75375">
        <ele>191.58</ele>
        <time>2014-09-12T08:57:43Z</time>
      </trkpt>
      <trkpt lat="44.3934" lon="4.75382">
        <ele>191.58</ele>
        <time>2014-09-12T08:59:14Z</time>
      </trkpt>
      <trkpt lat="44.39335" lon="4.75387">
        <ele>191.58</ele>
        <time>2014-09-12T09:00:46Z</time>
      </trkpt>
      <trkpt lat="44.39339" lon="4.75389">
        <ele>191.58</ele>
        <time>2014-09-12T09:02:18Z</time>
      </trkpt>
      <trkpt lat="44.39338" lon="4.75392">
        <ele>191.58</ele>
        <time>2014-09-12T09:03:51Z</time>
      </trkpt>
      <trkpt lat="44.39333" lon="4.75385">
        <ele>191.58</ele>
        <time>2014-09-12T09:05:19Z</time>
      </trkpt>
      <trkpt lat="44.39333" lon="4.75387">
        <ele>191.58</ele>
        <time>2014-09-12T09:06:39Z</time>
      </trkpt>
      <trkpt lat="44.39334" lon="4.75381">
        <ele>191.58</ele>
        <time>2014-09-12T09:07:59Z</time>
      </trkpt>
      <trkpt lat="44.39333" lon="4.75376">
        <ele>191.58</ele>
        <time>2014-09-12T09:09:07Z</time>
      </trkpt>
      <trkpt lat="44.39332" lon="4.75376">
        <ele>191.58</ele>
        <time>2014-09-12T09:10:15Z</time>
      </trkpt>
      <trkpt lat="44.39331" lon="4.75372">
        <ele>191.58</ele>
        <time>2014-09-12T09:11:23Z</time>
      </trkpt>
      <trkpt lat="44.39336" lon="4.75384">
        <ele>191.58</ele>
        <time>2014-09-12T09:12:38Z</time>
      </trkpt>
      <trkpt lat="44.39333" lon="4.75377">
        <ele>191.58</ele>
        <time>2014-09-12T09:13:56Z</time>
      </trkpt>
      <trkpt lat="44.39334" lon="4.75375">
        <ele>191.58</ele>
        <time>2014-09-12T09:15:34Z</time>
      </trkpt>
      <trkpt lat="44.39333" lon="4.75371">
        <ele>191.58</ele>
        <time>2014-09-12T09:16:46Z</time>
      </trkpt>
      <trkpt lat="44.39333" lon="4.75371">
        <ele>191.58</ele>
        <time>2014-09-12T09:18:09Z</time>
      </trkpt>
      <trkpt lat="44.39334" lon="4.75373">
        <ele>191.58</ele>
        <time>2014-09-12T09:19:18Z</time>
      </trkpt>
      <trkpt lat="44.39335" lon="4.75365">
        <ele>191.58</ele>
        <time>2014-09-12T09:20:36Z</time>
      </trkpt>
      <trkpt lat="44.39336" lon="4.75377">
        <ele>191.58</ele>
        <time>2014-09-12T09:21:47Z</time>
      </trkpt>
      <trkpt lat="44.39337" lon="4.75383">
        <ele>191.58</ele>
        <time>2014-09-12T09:22:56Z</time>
      </trkpt>
      <trkpt lat="44.39337" lon="4.75383">
        <ele>191.58</ele>
        <time>2014-09-12T09:24:02Z</time>
      </trkpt>
      <trkpt lat="44.39335" lon="4.75387">
        <ele>191.58</ele>
        <time>2014-09-12T09:25:22Z</time>
      </trkpt>
      <trkpt lat="44.39333" lon="4.75384">
        <ele>191.58</ele>
        <time>2014-09-12T09:26:34Z</time>
      </trkpt>
      <trkpt lat="44.39336" lon="4.75382">
        <ele>191.58</ele>
        <time>2014-09-12T09:27:23Z</time>
      </trkpt>
      <trkpt lat="44.39331" lon="4.75375">
        <ele>191.58</ele>
        <time>2014-09-12T09:27:29Z</time>
      </trkpt>
      <trkpt lat="44.3933" lon="4.75373">
        <ele>191.58</ele>
        <time>2014-09-12T09:27:30Z</time>
      </trkpt>
      <trkpt lat="44.39336" lon="4.75366">
        <ele>191.58</ele>
        <time>2014-09-12T09:27:34Z</time>
      </trkpt>
      <trkpt lat="44.39347" lon="4.75353">
        <ele>191.58</ele>
        <time>2014-09-12T09:27:42Z</time>
      </trkpt>
      <trkpt lat="44.39347" lon="4.75351">
        <ele>191.58</ele>
        <time>2014-09-12T09:27:43Z</time>
      </trkpt>
      <trkpt lat="44.39345" lon="4.75341">
        <ele>191.58</ele>
        <time>2014-09-12T09:27:47Z</time>
      </trkpt>
      <trkpt lat="44.39344" lon="4.75338">
        <ele>191.58</ele>
        <time>2014-09-12T09:27:49Z</time>
      </trkpt>
      <trkpt lat="44.39343" lon="4.75337">
        <ele>191.58</ele>
        <time>2014-09-12T09:27:50Z</time>
      </trkpt>
      <trkpt lat="44.39342" lon="4.75335">
        <ele>191.58</ele>
        <time>2014-09-12T09:27:51Z</time>
      </trkpt>
      <trkpt lat="44.39331" lon="4.75313">
        <ele>191.58</ele>
        <time>2014-09-12T09:28:02Z</time>
      </trkpt>
      <trkpt lat="44.39331" lon="4.75311">
        <ele>191.58</ele>
        <time>2014-09-12T09:28:03Z</time>
      </trkpt>
      <trkpt lat="44.3933" lon="4.7531">
        <ele>191.58</ele>
        <time>2014-09-12T09:28:04Z</time>
      </trkpt>
      <trkpt lat="44.3933" lon="4.75309">
        <ele>191.58</ele>
        <time>2014-09-12T09:28:05Z</time>
      </trkpt>
      <trkpt lat="44.39329" lon="4.75305">
        <ele>191.58</ele>
        <time>2014-09-12T09:28:07Z</time>
      </trkpt>
      <trkpt lat="44.39326" lon="4.75298">
        <ele>191.58</ele>
        <time>2014-09-12T09:28:11Z</time>
      </trkpt>
      <trkpt lat="44.39327" lon="4.75294">
        <ele>191.58</ele>
        <time>2014-09-12T09:28:13Z</time>
      </trkpt>
      <trkpt lat="44.39328" lon="4.75292">
        <ele>191.58</ele>
        <time>2014-09-12T09:28:14Z</time>
      </trkpt>
      <trkpt lat="44.39329" lon="4.75291">
        <ele>191.58</ele>
        <time>2014-09-12T09:28:15Z</time>
      </trkpt>
      <trkpt lat="44.39331" lon="4.75291">
        <ele>191.58</ele>
        <time>2014-09-12T09:28:16Z</time>
      </trkpt>
      <trkpt lat="44.39332" lon="4.75291">
        <ele>191.58</ele>
        <time>2014-09-12T09:28:17Z</time>
      </trkpt>
      <trkpt lat="44.39341" lon="4.75283">
        <ele>191.58</ele>
        <time>2014-09-12T09:28:30Z</time>
      </trkpt>
      <trkpt lat="44.39361" lon="4.75279">
        <ele>191.58</ele>
        <time>2014-09-12T09:28:39Z</time>
      </trkpt>
      <trkpt lat="44.39389" lon="4.7529">
        <ele>191.58</ele>
        <time>2014-09-12T09:28:50Z</time>
      </trkpt>
      <trkpt lat="44.39407" lon="4.75305">
        <ele>191.58</ele>
        <time>2014-09-12T09:28:55Z</time>
      </trkpt>
      <trkpt lat="44.39441" lon="4.75333">
        <ele>191.58</ele>
        <time>2014-09-12T09:29:06Z</time>
      </trkpt>
      <trkpt lat="44.39447" lon="4.75336">
        <ele>191.58</ele>
        <time>2014-09-12T09:29:08Z</time>
      </trkpt>
      <trkpt lat="44.3945" lon="4.75338">
        <ele>191.58</ele>
        <time>2014-09-12T09:29:09Z</time>
      </trkpt>
      <trkpt lat="44.39489" lon="4.75357">
        <ele>191.58</ele>
        <time>2014-09-12T09:29:21Z</time>
      </trkpt>
      <trkpt lat="44.39515" lon="4.75371">
        <ele>191.58</ele>
        <time>2014-09-12T09:29:29Z</time>
      </trkpt>
      <trkpt lat="44.39518" lon="4.75374">
        <ele>191.58</ele>
        <time>2014-09-12T09:29:30Z</time>
      </trkpt>
      <trkpt lat="44.3952" lon="4.75377">
        <ele>191.58</ele>
        <time>2014-09-12T09:29:31Z</time>
      </trkpt>
      <trkpt lat="44.39524" lon="4.75381">
        <ele>191.58</ele>
        <time>2014-09-12T09:29:33Z</time>
      </trkpt>
      <trkpt lat="44.39525" lon="4.75382">
        <ele>191.58</ele>
        <time>2014-09-12T09:29:34Z</time>
      </trkpt>
      <trkpt lat="44.39527" lon="4.75383">
        <ele>191.58</ele>
        <time>2014-09-12T09:29:35Z</time>
      </trkpt>
      <trkpt lat="44.39529" lon="4.75384">
        <ele>191.58</ele>
        <time>2014-09-12T09:29:36Z</time>
      </trkpt>
      <trkpt lat="44.39531" lon="4.75385">
        <ele>191.58</ele>
        <time>2014-09-12T09:29:37Z</time>
      </trkpt>
      <trkpt lat="44.39533" lon="4.75387">
        <ele>191.58</ele>
        <time>2014-09-12T09:29:38Z</time>
      </trkpt>
      <trkpt lat="44.39534" lon="4.75389">
        <ele>191.58</ele>
        <time>2014-09-12T09:29:39Z</time>
      </trkpt>
      <trkpt lat="44.39537" lon="4.75391">
        <ele>191.58</ele>
        <time>2014-09-12T09:29:40Z</time>
      </trkpt>
      <trkpt lat="44.3954" lon="4.75393">
        <ele>191.58</ele>
        <time>2014-09-12T09:29:41Z</time>
      </trkpt>
      <trkpt lat="44.39545" lon="4.75397">
        <ele>191.58</ele>
        <time>2014-09-12T09:29:43Z</time>
      </trkpt>
      <trkpt lat="44.39547" lon="4.75398">
        <ele>191.58</ele>
        <time>2014-09-12T09:29:44Z</time>
      </trkpt>
      <trkpt lat="44.3955" lon="4.75399">
        <ele>191.58</ele>
        <time>2014-09-12T09:29:45Z</time>
      </trkpt>
      <trkpt lat="44.39553" lon="4.754">
        <ele>191.58</ele>
        <time>2014-09-12T09:29:46Z</time>
      </trkpt>
      <trkpt lat="44.39556" lon="4.75402">
        <ele>191.58</ele>
        <time>2014-09-12T09:29:47Z</time>
      </trkpt>
      <trkpt lat="44.39558" lon="4.75403">
        <ele>191.58</ele>
        <time>2014-09-12T09:29:48Z</time>
      </trkpt>
      <trkpt lat="44.39561" lon="4.75404">
        <ele>191.58</ele>
        <time>2014-09-12T09:29:49Z</time>
      </trkpt>
      <trkpt lat="44.39564" lon="4.75405">
        <ele>191.58</ele>
        <time>2014-09-12T09:29:50Z</time>
      </trkpt>
      <trkpt lat="44.39567" lon="4.75405">
        <ele>191.58</ele>
        <time>2014-09-12T09:29:51Z</time>
      </trkpt>
      <trkpt lat="44.39579" lon="4.75407">
        <ele>191.58</ele>
        <time>2014-09-12T09:29:55Z</time>
      </trkpt>
      <trkpt lat="44.39582" lon="4.75407">
        <ele>191.58</ele>
        <time>2014-09-12T09:29:56Z</time>
      </trkpt>
      <trkpt lat="44.39585" lon="4.75408">
        <ele>191.58</ele>
        <time>2014-09-12T09:29:57Z</time>
      </trkpt>
      <trkpt lat="44.39587" lon="4.75408">
        <ele>191.58</ele>
        <time>2014-09-12T09:29:58Z</time>
      </trkpt>
      <trkpt lat="44.39589" lon="4.75408">
        <ele>191.58</ele>
        <time>2014-09-12T09:29:59Z</time>
      </trkpt>
      <trkpt lat="44.39592" lon="4.75408">
        <ele>191.58</ele>
        <time>2014-09-12T09:30:00Z</time>
      </trkpt>
      <trkpt lat="44.39594" lon="4.75409">
        <ele>191.58</ele>
        <time>2014-09-12T09:30:01Z</time>
      </trkpt>
      <trkpt lat="44.39596" lon="4.7541">
        <ele>191.58</ele>
        <time>2014-09-12T09:30:02Z</time>
      </trkpt>
      <trkpt lat="44.39599" lon="4.75412">
        <ele>191.58</ele>
        <time>2014-09-12T09:30:03Z</time>
      </trkpt>
      <trkpt lat="44.39606" lon="4.75417">
        <ele>191.58</ele>
        <time>2014-09-12T09:30:06Z</time>
      </trkpt>
      <trkpt lat="44.39609" lon="4.75418">
        <ele>191.58</ele>
        <time>2014-09-12T09:30:07Z</time>
      </trkpt>
      <trkpt lat="44.39611" lon="4.7542">
        <ele>191.58</ele>
        <time>2014-09-12T09:30:08Z</time>
      </trkpt>
      <trkpt lat="44.39617" lon="4.75426">
        <ele>191.58</ele>
        <time>2014-09-12T09:30:11Z</time>
      </trkpt>
      <trkpt lat="44.39621" lon="4.75429">
        <ele>191.58</ele>
        <time>2014-09-12T09:30:13Z</time>
      </trkpt>
      <trkpt lat="44.39623" lon="4.75431">
        <ele>191.58</ele>
        <time>2014-09-12T09:30:14Z</time>
      </trkpt>
      <trkpt lat="44.39625" lon="4.75432">
        <ele>191.58</ele>
        <time>2014-09-12T09:30:15Z</time>
      </trkpt>
      <trkpt lat="44.39627" lon="4.75434">
        <ele>191.58</ele>
        <time>2014-09-12T09:30:16Z</time>
      </trkpt>
      <trkpt lat="44.39629" lon="4.75435">
        <ele>191.58</ele>
        <time>2014-09-12T09:30:17Z</time>
      </trkpt>
      <trkpt lat="44.39631" lon="4.75437">
        <ele>191.58</ele>
        <time>2014-09-12T09:30:18Z</time>
      </trkpt>
      <trkpt lat="44.39633" lon="4.75438">
        <ele>191.58</ele>
        <time>2014-09-12T09:30:19Z</time>
      </trkpt>
      <trkpt lat="44.39636" lon="4.7544">
        <ele>191.58</ele>
        <time>2014-09-12T09:30:20Z</time>
      </trkpt>
      <trkpt lat="44.39638" lon="4.75442">
        <ele>191.58</ele>
        <time>2014-09-12T09:30:21Z</time>
      </trkpt>
      <trkpt lat="44.3964" lon="4.75444">
        <ele>191.58</ele>
        <time>2014-09-12T09:30:22Z</time>
      </trkpt>
      <trkpt lat="44.39646" lon="4.7545">
        <ele>191.58</ele>
        <time>2014-09-12T09:30:25Z</time>
      </trkpt>
      <trkpt lat="44.39648" lon="4.75452">
        <ele>191.58</ele>
        <time>2014-09-12T09:30:26Z</time>
      </trkpt>
      <trkpt lat="44.3965" lon="4.75454">
        <ele>191.58</ele>
        <time>2014-09-12T09:30:27Z</time>
      </trkpt>
      <trkpt lat="44.39653" lon="4.75456">
        <ele>191.58</ele>
        <time>2014-09-12T09:30:28Z</time>
      </trkpt>
      <trkpt lat="44.39654" lon="4.75458">
        <ele>191.58</ele>
        <time>2014-09-12T09:30:29Z</time>
      </trkpt>
      <trkpt lat="44.39659" lon="4.75463">
        <ele>191.58</ele>
        <time>2014-09-12T09:30:31Z</time>
      </trkpt>
      <trkpt lat="44.39661" lon="4.75465">
        <ele>191.58</ele>
        <time>2014-09-12T09:30:32Z</time>
      </trkpt>
      <trkpt lat="44.39663" lon="4.75467">
        <ele>191.58</ele>
        <time>2014-09-12T09:30:33Z</time>
      </trkpt>
      <trkpt lat="44.39664" lon="4.75468">
        <ele>191.58</ele>
        <time>2014-09-12T09:30:34Z</time>
      </trkpt>
      <trkpt lat="44.39666" lon="4.7547">
        <ele>191.58</ele>
        <time>2014-09-12T09:30:35Z</time>
      </trkpt>
      <trkpt lat="44.39669" lon="4.75471">
        <ele>191.58</ele>
        <time>2014-09-12T09:30:36Z</time>
      </trkpt>
      <trkpt lat="44.39671" lon="4.75473">
        <ele>191.58</ele>
        <time>2014-09-12T09:30:37Z</time>
      </trkpt>
      <trkpt lat="44.39673" lon="4.75474">
        <ele>191.58</ele>
        <time>2014-09-12T09:30:38Z</time>
      </trkpt>
      <trkpt lat="44.39674" lon="4.75475">
        <ele>191.58</ele>
        <time>2014-09-12T09:30:39Z</time>
      </trkpt>
      <trkpt lat="44.39699" lon="4.75486">
        <ele>191.58</ele>
        <time>2014-09-12T09:30:48Z</time>
      </trkpt>
      <trkpt lat="44.39702" lon="4.75488">
        <ele>191.58</ele>
        <time>2014-09-12T09:30:49Z</time>
      </trkpt>
      <trkpt lat="44.3972" lon="4.75496">
        <ele>191.58</ele>
        <time>2014-09-12T09:30:56Z</time>
      </trkpt>
      <trkpt lat="44.39725" lon="4.75498">
        <ele>191.58</ele>
        <time>2014-09-12T09:30:58Z</time>
      </trkpt>
      <trkpt lat="44.39728" lon="4.75497">
        <ele>191.58</ele>
        <time>2014-09-12T09:30:59Z</time>
      </trkpt>
      <trkpt lat="44.39732" lon="4.75498">
        <ele>191.58</ele>
        <time>2014-09-12T09:31:00Z</time>
      </trkpt>
      <trkpt lat="44.39736" lon="4.75498">
        <ele>191.58</ele>
        <time>2014-09-12T09:31:01Z</time>
      </trkpt>
      <trkpt lat="44.39759" lon="4.75491">
        <ele>191.58</ele>
        <time>2014-09-12T09:31:06Z</time>
      </trkpt>
      <trkpt lat="44.39763" lon="4.7549">
        <ele>191.58</ele>
        <time>2014-09-12T09:31:07Z</time>
      </trkpt>
      <trkpt lat="44.39768" lon="4.75489">
        <ele>191.58</ele>
        <time>2014-09-12T09:31:08Z</time>
      </trkpt>
      <trkpt lat="44.39793" lon="4.75486">
        <ele>191.58</ele>
        <time>2014-09-12T09:31:13Z</time>
      </trkpt>
      <trkpt lat="44.39807" lon="4.75489">
        <ele>191.58</ele>
        <time>2014-09-12T09:31:16Z</time>
      </trkpt>
      <trkpt lat="44.39812" lon="4.7549">
        <ele>191.58</ele>
        <time>2014-09-12T09:31:17Z</time>
      </trkpt>
      <trkpt lat="44.39816" lon="4.75492">
        <ele>191.58</ele>
        <time>2014-09-12T09:31:18Z</time>
      </trkpt>
      <trkpt lat="44.39847" lon="4.75494">
        <ele>191.58</ele>
        <time>2014-09-12T09:31:24Z</time>
      </trkpt>
      <trkpt lat="44.39851" lon="4.75494">
        <ele>191.58</ele>
        <time>2014-09-12T09:31:25Z</time>
      </trkpt>
      <trkpt lat="44.39856" lon="4.75495">
        <ele>191.58</ele>
        <time>2014-09-12T09:31:26Z</time>
      </trkpt>
      <trkpt lat="44.39861" lon="4.75497">
        <ele>191.58</ele>
        <time>2014-09-12T09:31:27Z</time>
      </trkpt>
      <trkpt lat="44.39865" lon="4.75499">
        <ele>191.58</ele>
        <time>2014-09-12T09:31:28Z</time>
      </trkpt>
      <trkpt lat="44.39869" lon="4.75502">
        <ele>191.58</ele>
        <time>2014-09-12T09:31:29Z</time>
      </trkpt>
      <trkpt lat="44.39874" lon="4.75506">
        <ele>191.58</ele>
        <time>2014-09-12T09:31:30Z</time>
      </trkpt>
      <trkpt lat="44.39884" lon="4.75512">
        <ele>191.58</ele>
        <time>2014-09-12T09:31:32Z</time>
      </trkpt>
      <trkpt lat="44.39914" lon="4.75523">
        <ele>191.58</ele>
        <time>2014-09-12T09:31:38Z</time>
      </trkpt>
      <trkpt lat="44.39924" lon="4.75528">
        <ele>191.58</ele>
        <time>2014-09-12T09:31:40Z</time>
      </trkpt>
      <trkpt lat="44.39946" lon="4.75548">
        <ele>191.58</ele>
        <time>2014-09-12T09:31:45Z</time>
      </trkpt>
      <trkpt lat="44.39968" lon="4.75564">
        <ele>191.58</ele>
        <time>2014-09-12T09:31:50Z</time>
      </trkpt>
      <trkpt lat="44.39983" lon="4.75582">
        <ele>191.58</ele>
        <time>2014-09-12T09:31:55Z</time>
      </trkpt>
      <trkpt lat="44.40007" lon="4.75611">
        <ele>191.58</ele>
        <time>2014-09-12T09:32:06Z</time>
      </trkpt>
      <trkpt lat="44.40009" lon="4.75614">
        <ele>191.58</ele>
        <time>2014-09-12T09:32:07Z</time>
      </trkpt>
      <trkpt lat="44.40035" lon="4.75638">
        <ele>191.58</ele>
        <time>2014-09-12T09:32:16Z</time>
      </trkpt>
      <trkpt lat="44.40066" lon="4.75661">
        <ele>191.58</ele>
        <time>2014-09-12T09:32:25Z</time>
      </trkpt>
      <trkpt lat="44.40071" lon="4.75664">
        <ele>191.58</ele>
        <time>2014-09-12T09:32:26Z</time>
      </trkpt>
      <trkpt lat="44.40092" lon="4.75683">
        <ele>191.58</ele>
        <time>2014-09-12T09:32:31Z</time>
      </trkpt>
      <trkpt lat="44.40115" lon="4.75701">
        <ele>191.58</ele>
        <time>2014-09-12T09:32:37Z</time>
      </trkpt>
      <trkpt lat="44.40151" lon="4.75736">
        <ele>191.58</ele>
        <time>2014-09-12T09:32:50Z</time>
      </trkpt>
      <trkpt lat="44.40169" lon="4.75758">
        <ele>191.58</ele>
        <time>2014-09-12T09:32:57Z</time>
      </trkpt>
      <trkpt lat="44.40192" lon="4.75793">
        <ele>191.58</ele>
        <time>2014-09-12T09:33:09Z</time>
      </trkpt>
      <trkpt lat="44.40212" lon="4.75828">
        <ele>191.58</ele>
        <time>2014-09-12T09:33:21Z</time>
      </trkpt>
      <trkpt lat="44.40221" lon="4.7584">
        <ele>191.58</ele>
        <time>2014-09-12T09:33:26Z</time>
      </trkpt>
      <trkpt lat="44.40229" lon="4.75849">
        <ele>191.58</ele>
        <time>2014-09-12T09:33:29Z</time>
      </trkpt>
      <trkpt lat="44.40257" lon="4.75876">
        <ele>191.58</ele>
        <time>2014-09-12T09:33:40Z</time>
      </trkpt>
      <trkpt lat="44.40297" lon="4.7591">
        <ele>191.58</ele>
        <time>2014-09-12T09:33:54Z</time>
      </trkpt>
      <trkpt lat="44.40312" lon="4.75926">
        <ele>191.58</ele>
        <time>2014-09-12T09:33:57Z</time>
      </trkpt>
      <trkpt lat="44.40333" lon="4.75945">
        <ele>191.58</ele>
        <time>2014-09-12T09:34:01Z</time>
      </trkpt>
      <trkpt lat="44.40349" lon="4.75974">
        <ele>191.58</ele>
        <time>2014-09-12T09:34:06Z</time>
      </trkpt>
      <trkpt lat="44.40365" lon="4.76006">
        <ele>191.58</ele>
        <time>2014-09-12T09:34:11Z</time>
      </trkpt>
      <trkpt lat="44.40384" lon="4.76079">
        <ele>191.58</ele>
        <time>2014-09-12T09:34:22Z</time>
      </trkpt>
      <trkpt lat="44.40388" lon="4.76101">
        <ele>191.58</ele>
        <time>2014-09-12T09:34:25Z</time>
      </trkpt>
      <trkpt lat="44.40411" lon="4.76155">
        <ele>191.58</ele>
        <time>2014-09-12T09:34:33Z</time>
      </trkpt>
      <trkpt lat="44.40416" lon="4.76171">
        <ele>191.58</ele>
        <time>2014-09-12T09:34:35Z</time>
      </trkpt>
      <trkpt lat="44.40428" lon="4.76226">
        <ele>191.58</ele>
        <time>2014-09-12T09:34:42Z</time>
      </trkpt>
      <trkpt lat="44.40435" lon="4.76296">
        <ele>191.59</ele>
        <time>2014-09-12T09:34:51Z</time>
      </trkpt>
      <trkpt lat="44.40445" lon="4.76331">
        <ele>191.59</ele>
        <time>2014-09-12T09:34:56Z</time>
      </trkpt>
      <trkpt lat="44.40462" lon="4.76381">
        <ele>191.59</ele>
        <time>2014-09-12T09:35:04Z</time>
      </trkpt>
      <trkpt lat="44.40466" lon="4.76391">
        <ele>191.59</ele>
        <time>2014-09-12T09:35:06Z</time>
      </trkpt>
      <trkpt lat="44.40486" lon="4.76457">
        <ele>191.59</ele>
        <time>2014-09-12T09:35:17Z</time>
      </trkpt>
      <trkpt lat="44.40494" lon="4.76472">
        <ele>191.59</ele>
        <time>2014-09-12T09:35:20Z</time>
      </trkpt>
      <trkpt lat="44.40506" lon="4.76486">
        <ele>191.59</ele>
        <time>2014-09-12T09:35:23Z</time>
      </trkpt>
      <trkpt lat="44.40516" lon="4.76494">
        <ele>191.59</ele>
        <time>2014-09-12T09:35:25Z</time>
      </trkpt>
      <trkpt lat="44.40555" lon="4.76509">
        <ele>191.59</ele>
        <time>2014-09-12T09:35:33Z</time>
      </trkpt>
      <trkpt lat="44.40558" lon="4.76515">
        <ele>191.59</ele>
        <time>2014-09-12T09:35:34Z</time>
      </trkpt>
      <trkpt lat="44.40561" lon="4.76521">
        <ele>191.59</ele>
        <time>2014-09-12T09:35:35Z</time>
      </trkpt>
      <trkpt lat="44.40572" lon="4.76548">
        <ele>191.59</ele>
        <time>2014-09-12T09:35:39Z</time>
      </trkpt>
      <trkpt lat="44.40573" lon="4.76555">
        <ele>191.59</ele>
        <time>2014-09-12T09:35:40Z</time>
      </trkpt>
      <trkpt lat="44.40574" lon="4.7656">
        <ele>191.59</ele>
        <time>2014-09-12T09:35:41Z</time>
      </trkpt>
      <trkpt lat="44.40573" lon="4.76573">
        <ele>191.59</ele>
        <time>2014-09-12T09:35:43Z</time>
      </trkpt>
      <trkpt lat="44.4057" lon="4.76586">
        <ele>191.59</ele>
        <time>2014-09-12T09:35:45Z</time>
      </trkpt>
      <trkpt lat="44.40562" lon="4.76603">
        <ele>191.59</ele>
        <time>2014-09-12T09:35:48Z</time>
      </trkpt>
      <trkpt lat="44.40553" lon="4.76627">
        <ele>191.59</ele>
        <time>2014-09-12T09:35:53Z</time>
      </trkpt>
      <trkpt lat="44.40552" lon="4.76635">
        <ele>191.59</ele>
        <time>2014-09-12T09:35:56Z</time>
      </trkpt>
      <trkpt lat="44.40554" lon="4.76645">
        <ele>191.59</ele>
        <time>2014-09-12T09:35:59Z</time>
      </trkpt>
      <trkpt lat="44.40554" lon="4.76673">
        <ele>191.59</ele>
        <time>2014-09-12T09:36:05Z</time>
      </trkpt>
      <trkpt lat="44.40551" lon="4.76691">
        <ele>191.59</ele>
        <time>2014-09-12T09:36:09Z</time>
      </trkpt>
      <trkpt lat="44.40549" lon="4.76713">
        <ele>191.59</ele>
        <time>2014-09-12T09:36:13Z</time>
      </trkpt>
      <trkpt lat="44.4054" lon="4.76765">
        <ele>191.59</ele>
        <time>2014-09-12T09:36:24Z</time>
      </trkpt>
      <trkpt lat="44.40521" lon="4.76826">
        <ele>191.59</ele>
        <time>2014-09-12T09:36:36Z</time>
      </trkpt>
      <trkpt lat="44.40507" lon="4.76866">
        <ele>191.59</ele>
        <time>2014-09-12T09:36:44Z</time>
      </trkpt>
      <trkpt lat="44.40505" lon="4.76869">
        <ele>191.59</ele>
        <time>2014-09-12T09:36:45Z</time>
      </trkpt>
      <trkpt lat="44.40502" lon="4.76874">
        <ele>191.59</ele>
        <time>2014-09-12T09:36:47Z</time>
      </trkpt>
      <trkpt lat="44.405" lon="4.76876">
        <ele>191.59</ele>
        <time>2014-09-12T09:36:48Z</time>
      </trkpt>
      <trkpt lat="44.40499" lon="4.76877">
        <ele>191.59</ele>
        <time>2014-09-12T09:36:49Z</time>
      </trkpt>
      <trkpt lat="44.40498" lon="4.76879">
        <ele>191.59</ele>
        <time>2014-09-12T09:36:50Z</time>
      </trkpt>
      <trkpt lat="44.40497" lon="4.7688">
        <ele>191.59</ele>
        <time>2014-09-12T09:36:51Z</time>
      </trkpt>
      <trkpt lat="44.40495" lon="4.76882">
        <ele>191.59</ele>
        <time>2014-09-12T09:36:52Z</time>
      </trkpt>
      <trkpt lat="44.40494" lon="4.76884">
        <ele>191.59</ele>
        <time>2014-09-12T09:36:53Z</time>
      </trkpt>
      <trkpt lat="44.40493" lon="4.76887">
        <ele>191.59</ele>
        <time>2014-09-12T09:36:54Z</time>
      </trkpt>
      <trkpt lat="44.40486" lon="4.76896">
        <ele>191.59</ele>
        <time>2014-09-12T09:37:06Z</time>
      </trkpt>
      <trkpt lat="44.40481" lon="4.76907">
        <ele>191.59</ele>
        <time>2014-09-12T09:37:10Z</time>
      </trkpt>
      <trkpt lat="44.4048" lon="4.76909">
        <ele>191.59</ele>
        <time>2014-09-12T09:37:11Z</time>
      </trkpt>
      <trkpt lat="44.40479" lon="4.76911">
        <ele>191.59</ele>
        <time>2014-09-12T09:37:12Z</time>
      </trkpt>
      <trkpt lat="44.40478" lon="4.76914">
        <ele>191.59</ele>
        <time>2014-09-12T09:37:13Z</time>
      </trkpt>
      <trkpt lat="44.40477" lon="4.76918">
        <ele>191.59</ele>
        <time>2014-09-12T09:37:14Z</time>
      </trkpt>
      <trkpt lat="44.40477" lon="4.76922">
        <ele>191.59</ele>
        <time>2014-09-12T09:37:15Z</time>
      </trkpt>
      <trkpt lat="44.40476" lon="4.76926">
        <ele>191.59</ele>
        <time>2014-09-12T09:37:16Z</time>
      </trkpt>
      <trkpt lat="44.40475" lon="4.7693">
        <ele>191.59</ele>
        <time>2014-09-12T09:37:17Z</time>
      </trkpt>
      <trkpt lat="44.40474" lon="4.76935">
        <ele>191.59</ele>
        <time>2014-09-12T09:37:18Z</time>
      </trkpt>
      <trkpt lat="44.40473" lon="4.7694">
        <ele>191.59</ele>
        <time>2014-09-12T09:37:19Z</time>
      </trkpt>
      <trkpt lat="44.40472" lon="4.76945">
        <ele>191.59</ele>
        <time>2014-09-12T09:37:20Z</time>
      </trkpt>
      <trkpt lat="44.40471" lon="4.76951">
        <ele>191.59</ele>
        <time>2014-09-12T09:37:21Z</time>
      </trkpt>
      <trkpt lat="44.40468" lon="4.76961">
        <ele>191.59</ele>
        <time>2014-09-12T09:37:23Z</time>
      </trkpt>
      <trkpt lat="44.40468" lon="4.76967">
        <ele>191.59</ele>
        <time>2014-09-12T09:37:24Z</time>
      </trkpt>
      <trkpt lat="44.40467" lon="4.77006">
        <ele>191.59</ele>
        <time>2014-09-12T09:37:33Z</time>
      </trkpt>
      <trkpt lat="44.40467" lon="4.77025">
        <ele>191.59</ele>
        <time>2014-09-12T09:37:37Z</time>
      </trkpt>
      <trkpt lat="44.40463" lon="4.77086">
        <ele>191.59</ele>
        <time>2014-09-12T09:37:50Z</time>
      </trkpt>
      <trkpt lat="44.40454" lon="4.77102">
        <ele>191.59</ele>
        <time>2014-09-12T09:37:54Z</time>
      </trkpt>
      <trkpt lat="44.40445" lon="4.7711">
        <ele>191.59</ele>
        <time>2014-09-12T09:37:57Z</time>
      </trkpt>
      <trkpt lat="44.4043" lon="4.77115">
        <ele>191.59</ele>
        <time>2014-09-12T09:38:01Z</time>
      </trkpt>
      <trkpt lat="44.40417" lon="4.7712">
        <ele>191.59</ele>
        <time>2014-09-12T09:38:04Z</time>
      </trkpt>
      <trkpt lat="44.40389" lon="4.77135">
        <ele>191.59</ele>
        <time>2014-09-12T09:38:13Z</time>
      </trkpt>
      <trkpt lat="44.4036" lon="4.77168">
        <ele>191.59</ele>
        <time>2014-09-12T09:38:25Z</time>
      </trkpt>
      <trkpt lat="44.40345" lon="4.77215">
        <ele>191.59</ele>
        <time>2014-09-12T09:38:37Z</time>
      </trkpt>
      <trkpt lat="44.40342" lon="4.77228">
        <ele>191.59</ele>
        <time>2014-09-12T09:38:40Z</time>
      </trkpt>
      <trkpt lat="44.40327" lon="4.7726">
        <ele>191.59</ele>
        <time>2014-09-12T09:38:49Z</time>
      </trkpt>
      <trkpt lat="44.40319" lon="4.77293">
        <ele>191.59</ele>
        <time>2014-09-12T09:38:57Z</time>
      </trkpt>
      <trkpt lat="44.40321" lon="4.77324">
        <ele>191.59</ele>
        <time>2014-09-12T09:39:03Z</time>
      </trkpt>
      <trkpt lat="44.40329" lon="4.77382">
        <ele>191.59</ele>
        <time>2014-09-12T09:39:14Z</time>
      </trkpt>
      <trkpt lat="44.40333" lon="4.77439">
        <ele>191.59</ele>
        <time>2014-09-12T09:39:24Z</time>
      </trkpt>
      <trkpt lat="44.4034" lon="4.77449">
        <ele>191.59</ele>
        <time>2014-09-12T09:39:26Z</time>
      </trkpt>
      <trkpt lat="44.40353" lon="4.77472">
        <ele>191.59</ele>
        <time>2014-09-12T09:39:30Z</time>
      </trkpt>
      <trkpt lat="44.40365" lon="4.77496">
        <ele>191.59</ele>
        <time>2014-09-12T09:39:34Z</time>
      </trkpt>
      <trkpt lat="44.4037" lon="4.77507">
        <ele>191.59</ele>
        <time>2014-09-12T09:39:36Z</time>
      </trkpt>
      <trkpt lat="44.40383" lon="4.77528">
        <ele>191.59</ele>
        <time>2014-09-12T09:39:40Z</time>
      </trkpt>
      <trkpt lat="44.4043" lon="4.7762">
        <ele>191.59</ele>
        <time>2014-09-12T09:39:55Z</time>
      </trkpt>
      <trkpt lat="44.40445" lon="4.77671">
        <ele>191.59</ele>
        <time>2014-09-12T09:40:03Z</time>
      </trkpt>
      <trkpt lat="44.4045" lon="4.77683">
        <ele>191.59</ele>
        <time>2014-09-12T09:40:05Z</time>
      </trkpt>
      <trkpt lat="44.40462" lon="4.77723">
        <ele>191.59</ele>
        <time>2014-09-12T09:40:12Z</time>
      </trkpt>
      <trkpt lat="44.4046" lon="4.77735">
        <ele>191.59</ele>
        <time>2014-09-12T09:40:14Z</time>
      </trkpt>
      <trkpt lat="44.40458" lon="4.77755">
        <ele>191.59</ele>
        <time>2014-09-12T09:40:17Z</time>
      </trkpt>
      <trkpt lat="44.40454" lon="4.77792">
        <ele>191.59</ele>
        <time>2014-09-12T09:40:22Z</time>
      </trkpt>
      <trkpt lat="44.40456" lon="4.77821">
        <ele>191.59</ele>
        <time>2014-09-12T09:40:26Z</time>
      </trkpt>
      <trkpt lat="44.40461" lon="4.7785">
        <ele>191.59</ele>
        <time>2014-09-12T09:40:30Z</time>
      </trkpt>
      <trkpt lat="44.40465" lon="4.77871">
        <ele>191.59</ele>
        <time>2014-09-12T09:40:33Z</time>
      </trkpt>
      <trkpt lat="44.40469" lon="4.77884">
        <ele>191.59</ele>
        <time>2014-09-12T09:40:35Z</time>
      </trkpt>
      <trkpt lat="44.4048" lon="4.77931">
        <ele>191.59</ele>
        <time>2014-09-12T09:40:42Z</time>
      </trkpt>
      <trkpt lat="44.40491" lon="4.77961">
        <ele>191.59</ele>
        <time>2014-09-12T09:40:48Z</time>
      </trkpt>
      <trkpt lat="44.40487" lon="4.77989">
        <ele>191.59</ele>
        <time>2014-09-12T09:40:56Z</time>
      </trkpt>
      <trkpt lat="44.40482" lon="4.77996">
        <ele>191.59</ele>
        <time>2014-09-12T09:40:58Z</time>
      </trkpt>
      <trkpt lat="44.40477" lon="4.78028">
        <ele>191.59</ele>
        <time>2014-09-12T09:41:08Z</time>
      </trkpt>
      <trkpt lat="44.40497" lon="4.78024">
        <ele>191.59</ele>
        <time>2014-09-12T09:41:16Z</time>
      </trkpt>
      <trkpt lat="44.40516" lon="4.78031">
        <ele>191.59</ele>
        <time>2014-09-12T09:41:23Z</time>
      </trkpt>
      <trkpt lat="44.40523" lon="4.78039">
        <ele>191.59</ele>
        <time>2014-09-12T09:41:26Z</time>
      </trkpt>
      <trkpt lat="44.40538" lon="4.78061">
        <ele>191.59</ele>
        <time>2014-09-12T09:41:33Z</time>
      </trkpt>
      <trkpt lat="44.40548" lon="4.78071">
        <ele>191.59</ele>
        <time>2014-09-12T09:41:37Z</time>
      </trkpt>
      <trkpt lat="44.40581" lon="4.78114">
        <ele>191.59</ele>
        <time>2014-09-12T09:41:53Z</time>
      </trkpt>
      <trkpt lat="44.40598" lon="4.78145">
        <ele>191.59</ele>
        <time>2014-09-12T09:42:04Z</time>
      </trkpt>
      <trkpt lat="44.4061" lon="4.78177">
        <ele>191.59</ele>
        <time>2014-09-12T09:42:12Z</time>
      </trkpt>
      <trkpt lat="44.40627" lon="4.78217">
        <ele>191.59</ele>
        <time>2014-09-12T09:42:22Z</time>
      </trkpt>
      <trkpt lat="44.40654" lon="4.78245">
        <ele>191.59</ele>
        <time>2014-09-12T09:42:33Z</time>
      </trkpt>
      <trkpt lat="44.40671" lon="4.78273">
        <ele>191.59</ele>
        <time>2014-09-12T09:42:45Z</time>
      </trkpt>
      <trkpt lat="44.40679" lon="4.78292">
        <ele>191.59</ele>
        <time>2014-09-12T09:42:54Z</time>
      </trkpt>
      <trkpt lat="44.40681" lon="4.78296">
        <ele>191.59</ele>
        <time>2014-09-12T09:42:56Z</time>
      </trkpt>
      <trkpt lat="44.40686" lon="4.78308">
        <ele>191.59</ele>
        <time>2014-09-12T09:43:01Z</time>
      </trkpt>
      <trkpt lat="44.40687" lon="4.78314">
        <ele>191.59</ele>
        <time>2014-09-12T09:43:03Z</time>
      </trkpt>
      <trkpt lat="44.40689" lon="4.78327">
        <ele>191.59</ele>
        <time>2014-09-12T09:43:07Z</time>
      </trkpt>
      <trkpt lat="44.4069" lon="4.78334">
        <ele>191.59</ele>
        <time>2014-09-12T09:43:09Z</time>
      </trkpt>
      <trkpt lat="44.40692" lon="4.78349">
        <ele>191.59</ele>
        <time>2014-09-12T09:43:13Z</time>
      </trkpt>
      <trkpt lat="44.40698" lon="4.7837">
        <ele>191.59</ele>
        <time>2014-09-12T09:43:21Z</time>
      </trkpt>
      <trkpt lat="44.40703" lon="4.78381">
        <ele>191.59</ele>
        <time>2014-09-12T09:43:26Z</time>
      </trkpt>
      <trkpt lat="44.40704" lon="4.78389">
        <ele>191.59</ele>
        <time>2014-09-12T09:43:29Z</time>
      </trkpt>
      <trkpt lat="44.4071" lon="4.7841">
        <ele>191.59</ele>
        <time>2014-09-12T09:43:37Z</time>
      </trkpt>
      <trkpt lat="44.40714" lon="4.78424">
        <ele>191.59</ele>
        <time>2014-09-12T09:43:44Z</time>
      </trkpt>
      <trkpt lat="44.40724" lon="4.78445">
        <ele>191.59</ele>
        <time>2014-09-12T09:43:53Z</time>
      </trkpt>
      <trkpt lat="44.40734" lon="4.78468">
        <ele>191.59</ele>
        <time>2014-09-12T09:44:01Z</time>
      </trkpt>
      <trkpt lat="44.4074" lon="4.78483">
        <ele>191.59</ele>
        <time>2014-09-12T09:44:07Z</time>
      </trkpt>
      <trkpt lat="44.40742" lon="4.78492">
        <ele>191.6</ele>
        <time>2014-09-12T09:44:10Z</time>
      </trkpt>
      <trkpt lat="44.40745" lon="4.78507">
        <ele>191.6</ele>
        <time>2014-09-12T09:44:15Z</time>
      </trkpt>
      <trkpt lat="44.40755" lon="4.7856">
        <ele>191.6</ele>
        <time>2014-09-12T09:44:32Z</time>
      </trkpt>
      <trkpt lat="44.40762" lon="4.7858">
        <ele>191.6</ele>
        <time>2014-09-12T09:44:38Z</time>
      </trkpt>
      <trkpt lat="44.4077" lon="4.78603">
        <ele>191.6</ele>
        <time>2014-09-12T09:44:51Z</time>
      </trkpt>
      <trkpt lat="44.40774" lon="4.78604">
        <ele>191.6</ele>
        <time>2014-09-12T09:45:17Z</time>
      </trkpt>
      <trkpt lat="44.40774" lon="4.78599">
        <ele>191.6</ele>
        <time>2014-09-12T09:45:39Z</time>
      </trkpt>
      <trkpt lat="44.40775" lon="4.78598">
        <ele>191.6</ele>
        <time>2014-09-12T09:46:09Z</time>
      </trkpt>
      <trkpt lat="44.40769" lon="4.78598">
        <ele>191.6</ele>
        <time>2014-09-12T09:46:35Z</time>
      </trkpt>
      <trkpt lat="44.40769" lon="4.78603">
        <ele>191.6</ele>
        <time>2014-09-12T09:46:50Z</time>
      </trkpt>
      <trkpt lat="44.40775" lon="4.7861">
        <ele>191.6</ele>
        <time>2014-09-12T09:46:54Z</time>
      </trkpt>
      <trkpt lat="44.40777" lon="4.78621">
        <ele>191.6</ele>
        <time>2014-09-12T09:46:59Z</time>
      </trkpt>
      <trkpt lat="44.40782" lon="4.78646">
        <ele>191.6</ele>
        <time>2014-09-12T09:47:06Z</time>
      </trkpt>
      <trkpt lat="44.40782" lon="4.78663">
        <ele>191.6</ele>
        <time>2014-09-12T09:47:11Z</time>
      </trkpt>
      <trkpt lat="44.40777" lon="4.78693">
        <ele>191.6</ele>
        <time>2014-09-12T09:47:21Z</time>
      </trkpt>
      <trkpt lat="44.40779" lon="4.78711">
        <ele>191.6</ele>
        <time>2014-09-12T09:47:26Z</time>
      </trkpt>
      <trkpt lat="44.40781" lon="4.78755">
        <ele>191.6</ele>
        <time>2014-09-12T09:47:39Z</time>
      </trkpt>
      <trkpt lat="44.40771" lon="4.78797">
        <ele>191.6</ele>
        <time>2014-09-12T09:47:54Z</time>
      </trkpt>
      <trkpt lat="44.40761" lon="4.78816">
        <ele>191.6</ele>
        <time>2014-09-12T09:48:02Z</time>
      </trkpt>
      <trkpt lat="44.40758" lon="4.78821">
        <ele>191.6</ele>
        <time>2014-09-12T09:48:04Z</time>
      </trkpt>
      <trkpt lat="44.40754" lon="4.78831">
        <ele>191.6</ele>
        <time>2014-09-12T09:48:08Z</time>
      </trkpt>
      <trkpt lat="44.40734" lon="4.78863">
        <ele>191.6</ele>
        <time>2014-09-12T09:48:22Z</time>
      </trkpt>
      <trkpt lat="44.40721" lon="4.78893">
        <ele>191.6</ele>
        <time>2014-09-12T09:48:32Z</time>
      </trkpt>
      <trkpt lat="44.40718" lon="4.78899">
        <ele>191.6</ele>
        <time>2014-09-12T09:48:34Z</time>
      </trkpt>
      <trkpt lat="44.40703" lon="4.78942">
        <ele>191.6</ele>
        <time>2014-09-12T09:48:48Z</time>
      </trkpt>
      <trkpt lat="44.40703" lon="4.78945">
        <ele>191.6</ele>
        <time>2014-09-12T09:48:49Z</time>
      </trkpt>
      <trkpt lat="44.4068" lon="4.78984">
        <ele>191.6</ele>
        <time>2014-09-12T09:49:04Z</time>
      </trkpt>
      <trkpt lat="44.40654" lon="4.79008">
        <ele>191.6</ele>
        <time>2014-09-12T09:49:18Z</time>
      </trkpt>
      <trkpt lat="44.40641" lon="4.79018">
        <ele>191.6</ele>
        <time>2014-09-12T09:49:25Z</time>
      </trkpt>
      <trkpt lat="44.40617" lon="4.79033">
        <ele>191.6</ele>
        <time>2014-09-12T09:49:38Z</time>
      </trkpt>
      <trkpt lat="44.40587" lon="4.79032">
        <ele>191.6</ele>
        <time>2014-09-12T09:49:52Z</time>
      </trkpt>
      <trkpt lat="44.4058" lon="4.7903">
        <ele>191.6</ele>
        <time>2014-09-12T09:49:55Z</time>
      </trkpt>
      <trkpt lat="44.40576" lon="4.79028">
        <ele>191.6</ele>
        <time>2014-09-12T09:49:57Z</time>
      </trkpt>
      <trkpt lat="44.40559" lon="4.79023">
        <ele>191.6</ele>
        <time>2014-09-12T09:50:05Z</time>
      </trkpt>
      <trkpt lat="44.40545" lon="4.7902">
        <ele>191.6</ele>
        <time>2014-09-12T09:50:12Z</time>
      </trkpt>
      <trkpt lat="44.40536" lon="4.79019">
        <ele>191.6</ele>
        <time>2014-09-12T09:50:17Z</time>
      </trkpt>
      <trkpt lat="44.40528" lon="4.79019">
        <ele>191.6</ele>
        <time>2014-09-12T09:50:21Z</time>
      </trkpt>
      <trkpt lat="44.40526" lon="4.79019">
        <ele>191.6</ele>
        <time>2014-09-12T09:50:22Z</time>
      </trkpt>
      <trkpt lat="44.40516" lon="4.79019">
        <ele>191.6</ele>
        <time>2014-09-12T09:50:27Z</time>
      </trkpt>
      <trkpt lat="44.40507" lon="4.7902">
        <ele>191.6</ele>
        <time>2014-09-12T09:50:31Z</time>
      </trkpt>
      <trkpt lat="44.40502" lon="4.79021">
        <ele>191.6</ele>
        <time>2014-09-12T09:50:33Z</time>
      </trkpt>
      <trkpt lat="44.40489" lon="4.79021">
        <ele>191.6</ele>
        <time>2014-09-12T09:50:39Z</time>
      </trkpt>
      <trkpt lat="44.40484" lon="4.79021">
        <ele>191.6</ele>
        <time>2014-09-12T09:50:41Z</time>
      </trkpt>
      <trkpt lat="44.40467" lon="4.79018">
        <ele>191.6</ele>
        <time>2014-09-12T09:50:49Z</time>
      </trkpt>
      <trkpt lat="44.40437" lon="4.79006">
        <ele>191.6</ele>
        <time>2014-09-12T09:51:03Z</time>
      </trkpt>
      <trkpt lat="44.4043" lon="4.79002">
        <ele>191.6</ele>
        <time>2014-09-12T09:51:07Z</time>
      </trkpt>
      <trkpt lat="44.40402" lon="4.78992">
        <ele>191.6</ele>
        <time>2014-09-12T09:51:23Z</time>
      </trkpt>
      <trkpt lat="44.40395" lon="4.7899">
        <ele>191.6</ele>
        <time>2014-09-12T09:51:26Z</time>
      </trkpt>
      <trkpt lat="44.40388" lon="4.78988">
        <ele>191.6</ele>
        <time>2014-09-12T09:51:30Z</time>
      </trkpt>
      <trkpt lat="44.4038" lon="4.78984">
        <ele>191.6</ele>
        <time>2014-09-12T09:51:35Z</time>
      </trkpt>
      <trkpt lat="44.40359" lon="4.78966">
        <ele>191.6</ele>
        <time>2014-09-12T09:51:48Z</time>
      </trkpt>
      <trkpt lat="44.40334" lon="4.78956">
        <ele>191.59</ele>
        <time>2014-09-12T09:51:59Z</time>
      </trkpt>
      <trkpt lat="44.40305" lon="4.78954">
        <ele>191.59</ele>
        <time>2014-09-12T09:52:07Z</time>
      </trkpt>
      <trkpt lat="44.4029" lon="4.78951">
        <ele>191.59</ele>
        <time>2014-09-12T09:52:11Z</time>
      </trkpt>
      <trkpt lat="44.40279" lon="4.78948">
        <ele>191.59</ele>
        <time>2014-09-12T09:52:14Z</time>
      </trkpt>
      <trkpt lat="44.40246" lon="4.7893">
        <ele>191.59</ele>
        <time>2014-09-12T09:52:23Z</time>
      </trkpt>
      <trkpt lat="44.40224" lon="4.78922">
        <ele>191.59</ele>
        <time>2014-09-12T09:52:28Z</time>
      </trkpt>
      <trkpt lat="44.40206" lon="4.78919">
        <ele>191.59</ele>
        <time>2014-09-12T09:52:32Z</time>
      </trkpt>
      <trkpt lat="44.40197" lon="4.78919">
        <ele>191.59</ele>
        <time>2014-09-12T09:52:34Z</time>
      </trkpt>
      <trkpt lat="44.40174" lon="4.78917">
        <ele>191.59</ele>
        <time>2014-09-12T09:52:39Z</time>
      </trkpt>
      <trkpt lat="44.40165" lon="4.78916">
        <ele>191.59</ele>
        <time>2014-09-12T09:52:41Z</time>
      </trkpt>
      <trkpt lat="44.40114" lon="4.78906">
        <ele>191.59</ele>
        <time>2014-09-12T09:52:52Z</time>
      </trkpt>
      <trkpt lat="44.40085" lon="4.78898">
        <ele>191.59</ele>
        <time>2014-09-12T09:52:59Z</time>
      </trkpt>
      <trkpt lat="44.40048" lon="4.78896">
        <ele>191.59</ele>
        <time>2014-09-12T09:53:08Z</time>
      </trkpt>
      <trkpt lat="44.4003" lon="4.78894">
        <ele>191.59</ele>
        <time>2014-09-12T09:53:12Z</time>
      </trkpt>
      <trkpt lat="44.40017" lon="4.78892">
        <ele>191.59</ele>
        <time>2014-09-12T09:53:15Z</time>
      </trkpt>
      <trkpt lat="44.39984" lon="4.78881">
        <ele>191.59</ele>
        <time>2014-09-12T09:53:23Z</time>
      </trkpt>
      <trkpt lat="44.39963" lon="4.7886">
        <ele>191.59</ele>
        <time>2014-09-12T09:53:29Z</time>
      </trkpt>
      <trkpt lat="44.39937" lon="4.78819">
        <ele>191.59</ele>
        <time>2014-09-12T09:53:37Z</time>
      </trkpt>
      <trkpt lat="44.39909" lon="4.78782">
        <ele>191.59</ele>
        <time>2014-09-12T09:53:44Z</time>
      </trkpt>
      <trkpt lat="44.39891" lon="4.78764">
        <ele>191.59</ele>
        <time>2014-09-12T09:53:49Z</time>
      </trkpt>
      <trkpt lat="44.39879" lon="4.78753">
        <ele>191.59</ele>
        <time>2014-09-12T09:53:52Z</time>
      </trkpt>
      <trkpt lat="44.39849" lon="4.78734">
        <ele>191.59</ele>
        <time>2014-09-12T09:53:58Z</time>
      </trkpt>
      <trkpt lat="44.39833" lon="4.78727">
        <ele>191.59</ele>
        <time>2014-09-12T09:54:01Z</time>
      </trkpt>
      <trkpt lat="44.39807" lon="4.78716">
        <ele>191.59</ele>
        <time>2014-09-12T09:54:06Z</time>
      </trkpt>
      <trkpt lat="44.39784" lon="4.78704">
        <ele>191.59</ele>
        <time>2014-09-12T09:54:11Z</time>
      </trkpt>
      <trkpt lat="44.39774" lon="4.78702">
        <ele>191.59</ele>
        <time>2014-09-12T09:54:13Z</time>
      </trkpt>
      <trkpt lat="44.39721" lon="4.78707">
        <ele>191.59</ele>
        <time>2014-09-12T09:54:23Z</time>
      </trkpt>
      <trkpt lat="44.39701" lon="4.78706">
        <ele>191.59</ele>
        <time>2014-09-12T09:54:27Z</time>
      </trkpt>
      <trkpt lat="44.39691" lon="4.78704">
        <ele>191.59</ele>
        <time>2014-09-12T09:54:29Z</time>
      </trkpt>
      <trkpt lat="44.39669" lon="4.78694">
        <ele>191.59</ele>
        <time>2014-09-12T09:54:34Z</time>
      </trkpt>
      <trkpt lat="44.39648" lon="4.78691">
        <ele>191.59</ele>
        <time>2014-09-12T09:54:39Z</time>
      </trkpt>
      <trkpt lat="44.3962" lon="4.78707">
        <ele>191.59</ele>
        <time>2014-09-12T09:54:48Z</time>
      </trkpt>
      <trkpt lat="44.39601" lon="4.78724">
        <ele>191.59</ele>
        <time>2014-09-12T09:54:56Z</time>
      </trkpt>
      <trkpt lat="44.39599" lon="4.78724">
        <ele>191.59</ele>
        <time>2014-09-12T09:54:57Z</time>
      </trkpt>
      <trkpt lat="44.39597" lon="4.78725">
        <ele>191.59</ele>
        <time>2014-09-12T09:54:58Z</time>
      </trkpt>
      <trkpt lat="44.39595" lon="4.78726">
        <ele>191.59</ele>
        <time>2014-09-12T09:54:59Z</time>
      </trkpt>
      <trkpt lat="44.39595" lon="4.78732">
        <ele>191.59</ele>
        <time>2014-09-12T09:55:14Z</time>
      </trkpt>
      <trkpt lat="44.39596" lon="4.78734">
        <ele>191.59</ele>
        <time>2014-09-12T09:55:16Z</time>
      </trkpt>
      <trkpt lat="44.39597" lon="4.78734">
        <ele>191.59</ele>
        <time>2014-09-12T09:55:17Z</time>
      </trkpt>
      <trkpt lat="44.39598" lon="4.78735">
        <ele>191.59</ele>
        <time>2014-09-12T09:55:18Z</time>
      </trkpt>
      <trkpt lat="44.39599" lon="4.78737">
        <ele>191.59</ele>
        <time>2014-09-12T09:55:19Z</time>
      </trkpt>
      <trkpt lat="44.39601" lon="4.78738">
        <ele>191.59</ele>
        <time>2014-09-12T09:55:20Z</time>
      </trkpt>
      <trkpt lat="44.39602" lon="4.7874">
        <ele>191.59</ele>
        <time>2014-09-12T09:55:21Z</time>
      </trkpt>
      <trkpt lat="44.39614" lon="4.78751">
        <ele>191.59</ele>
        <time>2014-09-12T09:55:26Z</time>
      </trkpt>
      <trkpt lat="44.39619" lon="4.78754">
        <ele>191.59</ele>
        <time>2014-09-12T09:55:28Z</time>
      </trkpt>
      <trkpt lat="44.3962" lon="4.78756">
        <ele>191.59</ele>
        <time>2014-09-12T09:55:29Z</time>
      </trkpt>
      <trkpt lat="44.3962" lon="4.78759">
        <ele>191.59</ele>
        <time>2014-09-12T09:55:30Z</time>
      </trkpt>
      <trkpt lat="44.3962" lon="4.78762">
        <ele>191.59</ele>
        <time>2014-09-12T09:55:31Z</time>
      </trkpt>
      <trkpt lat="44.3962" lon="4.78765">
        <ele>191.59</ele>
        <time>2014-09-12T09:55:32Z</time>
      </trkpt>
      <trkpt lat="44.39621" lon="4.78768">
        <ele>191.59</ele>
        <time>2014-09-12T09:55:33Z</time>
      </trkpt>
      <trkpt lat="44.39622" lon="4.78769">
        <ele>191.59</ele>
        <time>2014-09-12T09:55:34Z</time>
      </trkpt>
      <trkpt lat="44.39623" lon="4.78772">
        <ele>191.59</ele>
        <time>2014-09-12T09:55:52Z</time>
      </trkpt>
      <trkpt lat="44.39622" lon="4.78774">
        <ele>191.59</ele>
        <time>2014-09-12T09:56:30Z</time>
      </trkpt>
      <trkpt lat="44.39625" lon="4.7878">
        <ele>191.59</ele>
        <time>2014-09-12T09:56:43Z</time>
      </trkpt>
      <trkpt lat="44.39631" lon="4.78785">
        <ele>191.59</ele>
        <time>2014-09-12T09:56:55Z</time>
      </trkpt>
      <trkpt lat="44.39632" lon="4.78786">
        <ele>191.59</ele>
        <time>2014-09-12T09:56:56Z</time>
      </trkpt>
      <trkpt lat="44.39635" lon="4.78787">
        <ele>191.59</ele>
        <time>2014-09-12T09:56:57Z</time>
      </trkpt>
      <trkpt lat="44.39637" lon="4.78789">
        <ele>191.59</ele>
        <time>2014-09-12T09:56:58Z</time>
      </trkpt>
      <trkpt lat="44.3964" lon="4.78791">
        <ele>191.59</ele>
        <time>2014-09-12T09:56:59Z</time>
      </trkpt>
      <trkpt lat="44.39647" lon="4.78794">
        <ele>191.59</ele>
        <time>2014-09-12T09:57:01Z</time>
      </trkpt>
      <trkpt lat="44.39658" lon="4.78801">
        <ele>191.59</ele>
        <time>2014-09-12T09:57:04Z</time>
      </trkpt>
      <trkpt lat="44.39662" lon="4.78803">
        <ele>191.59</ele>
        <time>2014-09-12T09:57:05Z</time>
      </trkpt>
      <trkpt lat="44.39666" lon="4.78807">
        <ele>191.59</ele>
        <time>2014-09-12T09:57:06Z</time>
      </trkpt>
      <trkpt lat="44.39671" lon="4.7881">
        <ele>191.59</ele>
        <time>2014-09-12T09:57:07Z</time>
      </trkpt>
      <trkpt lat="44.39676" lon="4.78813">
        <ele>191.59</ele>
        <time>2014-09-12T09:57:08Z</time>
      </trkpt>
      <trkpt lat="44.39681" lon="4.78816">
        <ele>191.59</ele>
        <time>2014-09-12T09:57:09Z</time>
      </trkpt>
      <trkpt lat="44.39686" lon="4.7882">
        <ele>191.59</ele>
        <time>2014-09-12T09:57:10Z</time>
      </trkpt>
      <trkpt lat="44.39692" lon="4.78824">
        <ele>191.59</ele>
        <time>2014-09-12T09:57:11Z</time>
      </trkpt>
      <trkpt lat="44.39704" lon="4.78834">
        <ele>191.59</ele>
        <time>2014-09-12T09:57:13Z</time>
      </trkpt>
      <trkpt lat="44.39747" lon="4.78875">
        <ele>191.59</ele>
        <time>2014-09-12T09:57:20Z</time>
      </trkpt>
      <trkpt lat="44.39754" lon="4.78882">
        <ele>191.59</ele>
        <time>2014-09-12T09:57:21Z</time>
      </trkpt>
      <trkpt lat="44.3976" lon="4.78888">
        <ele>191.59</ele>
        <time>2014-09-12T09:57:22Z</time>
      </trkpt>
      <trkpt lat="44.39773" lon="4.78903">
        <ele>191.59</ele>
        <time>2014-09-12T09:57:24Z</time>
      </trkpt>
      <trkpt lat="44.39783" lon="4.78921">
        <ele>191.59</ele>
        <time>2014-09-12T09:57:26Z</time>
      </trkpt>
      <trkpt lat="44.39791" lon="4.78941">
        <ele>191.59</ele>
        <time>2014-09-12T09:57:28Z</time>
      </trkpt>
      <trkpt lat="44.39821" lon="4.79017">
        <ele>191.59</ele>
        <time>2014-09-12T09:57:38Z</time>
      </trkpt>
      <trkpt lat="44.39823" lon="4.79026">
        <ele>191.59</ele>
        <time>2014-09-12T09:57:41Z</time>
      </trkpt>
      <trkpt lat="44.39822" lon="4.79028">
        <ele>191.59</ele>
        <time>2014-09-12T09:57:42Z</time>
      </trkpt>
      <trkpt lat="44.39821" lon="4.79028">
        <ele>191.59</ele>
        <time>2014-09-12T09:57:43Z</time>
      </trkpt>
      <trkpt lat="44.39821" lon="4.7903">
        <ele>191.59</ele>
        <time>2014-09-12T09:58:00Z</time>
      </trkpt>
      <trkpt lat="44.39823" lon="4.79037">
        <ele>191.59</ele>
        <time>2014-09-12T09:58:07Z</time>
      </trkpt>
      <trkpt lat="44.39823" lon="4.79038">
        <ele>191.59</ele>
        <time>2014-09-12T09:58:08Z</time>
      </trkpt>
      <trkpt lat="44.39823" lon="4.7904">
        <ele>191.59</ele>
        <time>2014-09-12T09:58:09Z</time>
      </trkpt>
      <trkpt lat="44.39823" lon="4.79042">
        <ele>191.59</ele>
        <time>2014-09-12T09:58:10Z</time>
      </trkpt>
      <trkpt lat="44.39822" lon="4.79045">
        <ele>191.59</ele>
        <time>2014-09-12T09:58:11Z</time>
      </trkpt>
      <trkpt lat="44.39811" lon="4.79073">
        <ele>191.59</ele>
        <time>2014-09-12T09:58:18Z</time>
      </trkpt>
      <trkpt lat="44.39808" lon="4.79078">
        <ele>191.59</ele>
        <time>2014-09-12T09:58:19Z</time>
      </trkpt>
      <trkpt lat="44.39803" lon="4.79088">
        <ele>191.59</ele>
        <time>2014-09-12T09:58:21Z</time>
      </trkpt>
      <trkpt lat="44.398" lon="4.79092">
        <ele>191.59</ele>
        <time>2014-09-12T09:58:22Z</time>
      </trkpt>
      <trkpt lat="44.39797" lon="4.79097">
        <ele>191.59</ele>
        <time>2014-09-12T09:58:23Z</time>
      </trkpt>
      <trkpt lat="44.39789" lon="4.79119">
        <ele>191.59</ele>
        <time>2014-09-12T09:58:27Z</time>
      </trkpt>
      <trkpt lat="44.39788" lon="4.79125">
        <ele>191.59</ele>
        <time>2014-09-12T09:58:28Z</time>
      </trkpt>
      <trkpt lat="44.39788" lon="4.79131">
        <ele>191.59</ele>
        <time>2014-09-12T09:58:29Z</time>
      </trkpt>
      <trkpt lat="44.39788" lon="4.79144">
        <ele>191.59</ele>
        <time>2014-09-12T09:58:31Z</time>
      </trkpt>
      <trkpt lat="44.39788" lon="4.79151">
        <ele>191.59</ele>
        <time>2014-09-12T09:58:32Z</time>
      </trkpt>
      <trkpt lat="44.39787" lon="4.79159">
        <ele>191.59</ele>
        <time>2014-09-12T09:58:33Z</time>
      </trkpt>
      <trkpt lat="44.39789" lon="4.79272">
        <ele>191.59</ele>
        <time>2014-09-12T09:58:44Z</time>
      </trkpt>
      <trkpt lat="44.39791" lon="4.79282">
        <ele>191.59</ele>
        <time>2014-09-12T09:58:45Z</time>
      </trkpt>
      <trkpt lat="44.39794" lon="4.79291">
        <ele>191.59</ele>
        <time>2014-09-12T09:58:46Z</time>
      </trkpt>
      <trkpt lat="44.39798" lon="4.79301">
        <ele>191.59</ele>
        <time>2014-09-12T09:58:47Z</time>
      </trkpt>
      <trkpt lat="44.39803" lon="4.7931">
        <ele>191.59</ele>
        <time>2014-09-12T09:58:48Z</time>
      </trkpt>
      <trkpt lat="44.39807" lon="4.7932">
        <ele>191.59</ele>
        <time>2014-09-12T09:58:49Z</time>
      </trkpt>
      <trkpt lat="44.39832" lon="4.79386">
        <ele>191.59</ele>
        <time>2014-09-12T09:58:55Z</time>
      </trkpt>
      <trkpt lat="44.39833" lon="4.79399">
        <ele>191.59</ele>
        <time>2014-09-12T09:58:56Z</time>
      </trkpt>
      <trkpt lat="44.39834" lon="4.79413">
        <ele>191.59</ele>
        <time>2014-09-12T09:58:57Z</time>
      </trkpt>
      <trkpt lat="44.39833" lon="4.79426">
        <ele>191.59</ele>
        <time>2014-09-12T09:58:58Z</time>
      </trkpt>
      <trkpt lat="44.39831" lon="4.79439">
        <ele>191.59</ele>
        <time>2014-09-12T09:58:59Z</time>
      </trkpt>
      <trkpt lat="44.39828" lon="4.79451">
        <ele>191.59</ele>
        <time>2014-09-12T09:59:00Z</time>
      </trkpt>
      <trkpt lat="44.39827" lon="4.79462">
        <ele>191.59</ele>
        <time>2014-09-12T09:59:01Z</time>
      </trkpt>
      <trkpt lat="44.39827" lon="4.79475">
        <ele>191.59</ele>
        <time>2014-09-12T09:59:02Z</time>
      </trkpt>
      <trkpt lat="44.39827" lon="4.79487">
        <ele>191.59</ele>
        <time>2014-09-12T09:59:03Z</time>
      </trkpt>
      <trkpt lat="44.39827" lon="4.79499">
        <ele>191.59</ele>
        <time>2014-09-12T09:59:04Z</time>
      </trkpt>
      <trkpt lat="44.3983" lon="4.79521">
        <ele>191.59</ele>
        <time>2014-09-12T09:59:06Z</time>
      </trkpt>
      <trkpt lat="44.39832" lon="4.79531">
        <ele>191.59</ele>
        <time>2014-09-12T09:59:07Z</time>
      </trkpt>
      <trkpt lat="44.39836" lon="4.7954">
        <ele>191.59</ele>
        <time>2014-09-12T09:59:08Z</time>
      </trkpt>
      <trkpt lat="44.39867" lon="4.79604">
        <ele>191.6</ele>
        <time>2014-09-12T09:59:15Z</time>
      </trkpt>
      <trkpt lat="44.39871" lon="4.79613">
        <ele>191.6</ele>
        <time>2014-09-12T09:59:16Z</time>
      </trkpt>
      <trkpt lat="44.39876" lon="4.79622">
        <ele>191.6</ele>
        <time>2014-09-12T09:59:17Z</time>
      </trkpt>
      <trkpt lat="44.39887" lon="4.79637">
        <ele>191.6</ele>
        <time>2014-09-12T09:59:19Z</time>
      </trkpt>
      <trkpt lat="44.399" lon="4.79649">
        <ele>191.6</ele>
        <time>2014-09-12T09:59:21Z</time>
      </trkpt>
      <trkpt lat="44.39937" lon="4.79666">
        <ele>191.6</ele>
        <time>2014-09-12T09:59:26Z</time>
      </trkpt>
      <trkpt lat="44.39977" lon="4.79668">
        <ele>191.6</ele>
        <time>2014-09-12T09:59:32Z</time>
      </trkpt>
      <trkpt lat="44.39982" lon="4.79669">
        <ele>191.6</ele>
        <time>2014-09-12T09:59:33Z</time>
      </trkpt>
      <trkpt lat="44.39989" lon="4.7968">
        <ele>191.6</ele>
        <time>2014-09-12T09:59:35Z</time>
      </trkpt>
      <trkpt lat="44.39985" lon="4.79694">
        <ele>191.6</ele>
        <time>2014-09-12T09:59:37Z</time>
      </trkpt>
      <trkpt lat="44.39975" lon="4.79703">
        <ele>191.6</ele>
        <time>2014-09-12T09:59:39Z</time>
      </trkpt>
      <trkpt lat="44.39969" lon="4.79708">
        <ele>191.6</ele>
        <time>2014-09-12T09:59:40Z</time>
      </trkpt>
      <trkpt lat="44.39952" lon="4.79724">
        <ele>191.6</ele>
        <time>2014-09-12T09:59:43Z</time>
      </trkpt>
      <trkpt lat="44.39908" lon="4.79763">
        <ele>191.6</ele>
        <time>2014-09-12T09:59:51Z</time>
      </trkpt>
      <trkpt lat="44.39904" lon="4.79766">
        <ele>191.6</ele>
        <time>2014-09-12T09:59:52Z</time>
      </trkpt>
      <trkpt lat="44.39901" lon="4.79768">
        <ele>191.6</ele>
        <time>2014-09-12T09:59:53Z</time>
      </trkpt>
      <trkpt lat="44.39897" lon="4.7977">
        <ele>191.6</ele>
        <time>2014-09-12T09:59:54Z</time>
      </trkpt>
      <trkpt lat="44.39893" lon="4.79771">
        <ele>191.6</ele>
        <time>2014-09-12T09:59:55Z</time>
      </trkpt>
      <trkpt lat="44.39889" lon="4.7977">
        <ele>191.6</ele>
        <time>2014-09-12T09:59:56Z</time>
      </trkpt>
      <trkpt lat="44.39885" lon="4.79769">
        <ele>191.6</ele>
        <time>2014-09-12T09:59:57Z</time>
      </trkpt>
      <trkpt lat="44.3988" lon="4.79766">
        <ele>191.6</ele>
        <time>2014-09-12T09:59:58Z</time>
      </trkpt>
      <trkpt lat="44.39876" lon="4.79765">
        <ele>191.6</ele>
        <time>2014-09-12T09:59:59Z</time>
      </trkpt>
      <trkpt lat="44.39871" lon="4.79764">
        <ele>191.6</ele>
        <time>2014-09-12T10:00:00Z</time>
      </trkpt>
      <trkpt lat="44.39867" lon="4.79766">
        <ele>191.6</ele>
        <time>2014-09-12T10:00:01Z</time>
      </trkpt>
      <trkpt lat="44.39862" lon="4.79774">
        <ele>191.6</ele>
        <time>2014-09-12T10:00:03Z</time>
      </trkpt>
      <trkpt lat="44.39853" lon="4.79799">
        <ele>191.6</ele>
        <time>2014-09-12T10:00:11Z</time>
      </trkpt>
      <trkpt lat="44.39852" lon="4.79803">
        <ele>191.6</ele>
        <time>2014-09-12T10:00:13Z</time>
      </trkpt>
      <trkpt lat="44.3985" lon="4.79813">
        <ele>191.6</ele>
        <time>2014-09-12T10:00:23Z</time>
      </trkpt>
      <trkpt lat="44.3985" lon="4.79815">
        <ele>191.6</ele>
        <time>2014-09-12T10:00:24Z</time>
      </trkpt>
      <trkpt lat="44.39849" lon="4.79818">
        <ele>191.6</ele>
        <time>2014-09-12T10:00:25Z</time>
      </trkpt>
      <trkpt lat="44.39849" lon="4.79821">
        <ele>191.6</ele>
        <time>2014-09-12T10:00:26Z</time>
      </trkpt>
      <trkpt lat="44.39848" lon="4.79824">
        <ele>191.6</ele>
        <time>2014-09-12T10:00:27Z</time>
      </trkpt>
      <trkpt lat="44.39846" lon="4.79828">
        <ele>191.6</ele>
        <time>2014-09-12T10:00:28Z</time>
      </trkpt>
      <trkpt lat="44.39845" lon="4.79831">
        <ele>191.6</ele>
        <time>2014-09-12T10:00:29Z</time>
      </trkpt>
      <trkpt lat="44.39844" lon="4.79835">
        <ele>191.6</ele>
        <time>2014-09-12T10:00:30Z</time>
      </trkpt>
      <trkpt lat="44.39842" lon="4.79842">
        <ele>191.6</ele>
        <time>2014-09-12T10:00:32Z</time>
      </trkpt>
      <trkpt lat="44.39841" lon="4.79845">
        <ele>191.6</ele>
        <time>2014-09-12T10:00:33Z</time>
      </trkpt>
      <trkpt lat="44.3984" lon="4.79848">
        <ele>191.6</ele>
        <time>2014-09-12T10:00:34Z</time>
      </trkpt>
      <trkpt lat="44.39834" lon="4.79869">
        <ele>191.6</ele>
        <time>2014-09-12T10:00:42Z</time>
      </trkpt>
      <trkpt lat="44.39833" lon="4.79872">
        <ele>191.6</ele>
        <time>2014-09-12T10:00:43Z</time>
      </trkpt>
      <trkpt lat="44.39832" lon="4.79875">
        <ele>191.6</ele>
        <time>2014-09-12T10:00:44Z</time>
      </trkpt>
      <trkpt lat="44.39832" lon="4.79878">
        <ele>191.6</ele>
        <time>2014-09-12T10:00:45Z</time>
      </trkpt>
      <trkpt lat="44.39831" lon="4.79884">
        <ele>191.6</ele>
        <time>2014-09-12T10:00:47Z</time>
      </trkpt>
      <trkpt lat="44.3983" lon="4.79887">
        <ele>191.6</ele>
        <time>2014-09-12T10:00:48Z</time>
      </trkpt>
      <trkpt lat="44.39829" lon="4.7989">
        <ele>191.6</ele>
        <time>2014-09-12T10:00:49Z</time>
      </trkpt>
      <trkpt lat="44.39829" lon="4.79892">
        <ele>191.6</ele>
        <time>2014-09-12T10:00:50Z</time>
      </trkpt>
      <trkpt lat="44.3983" lon="4.79895">
        <ele>191.6</ele>
        <time>2014-09-12T10:00:51Z</time>
      </trkpt>
      <trkpt lat="44.39831" lon="4.79897">
        <ele>191.6</ele>
        <time>2014-09-12T10:00:52Z</time>
      </trkpt>
      <trkpt lat="44.39831" lon="4.799">
        <ele>191.6</ele>
        <time>2014-09-12T10:00:53Z</time>
      </trkpt>
      <trkpt lat="44.39832" lon="4.79903">
        <ele>191.6</ele>
        <time>2014-09-12T10:00:54Z</time>
      </trkpt>
      <trkpt lat="44.39833" lon="4.79905">
        <ele>191.6</ele>
        <time>2014-09-12T10:00:55Z</time>
      </trkpt>
      <trkpt lat="44.39834" lon="4.79908">
        <ele>191.6</ele>
        <time>2014-09-12T10:00:56Z</time>
      </trkpt>
      <trkpt lat="44.39835" lon="4.79911">
        <ele>191.6</ele>
        <time>2014-09-12T10:00:57Z</time>
      </trkpt>
      <trkpt lat="44.39836" lon="4.79913">
        <ele>191.6</ele>
        <time>2014-09-12T10:00:58Z</time>
      </trkpt>
      <trkpt lat="44.39837" lon="4.79915">
        <ele>191.6</ele>
        <time>2014-09-12T10:00:59Z</time>
      </trkpt>
      <trkpt lat="44.39838" lon="4.79917">
        <ele>191.6</ele>
        <time>2014-09-12T10:01:00Z</time>
      </trkpt>
      <trkpt lat="44.3984" lon="4.7992">
        <ele>191.6</ele>
        <time>2014-09-12T10:01:01Z</time>
      </trkpt>
      <trkpt lat="44.39853" lon="4.7994">
        <ele>191.6</ele>
        <time>2014-09-12T10:01:16Z</time>
      </trkpt>
      <trkpt lat="44.39854" lon="4.79942">
        <ele>191.6</ele>
        <time>2014-09-12T10:01:33Z</time>
      </trkpt>
      <trkpt lat="44.39852" lon="4.79944">
        <ele>191.6</ele>
        <time>2014-09-12T10:01:54Z</time>
      </trkpt>
      <trkpt lat="44.39858" lon="4.79949">
        <ele>191.6</ele>
        <time>2014-09-12T10:02:22Z</time>
      </trkpt>
      <trkpt lat="44.39861" lon="4.79949">
        <ele>191.6</ele>
        <time>2014-09-12T10:02:49Z</time>
      </trkpt>
      <trkpt lat="44.39861" lon="4.7995">
        <ele>191.6</ele>
        <time>2014-09-12T10:03:43Z</time>
      </trkpt>
      <trkpt lat="44.39862" lon="4.79949">
        <ele>191.6</ele>
        <time>2014-09-12T10:04:36Z</time>
      </trkpt>
      <trkpt lat="44.39861" lon="4.79948">
        <ele>191.6</ele>
        <time>2014-09-12T10:05:18Z</time>
      </trkpt>
      <trkpt lat="44.39862" lon="4.79949">
        <ele>191.6</ele>
        <time>2014-09-12T10:06:14Z</time>
      </trkpt>
      <trkpt lat="44.39877" lon="4.79964">
        <ele>191.6</ele>
        <time>2014-09-12T10:06:50Z</time>
      </trkpt>
      <trkpt lat="44.39907" lon="4.79991">
        <ele>191.6</ele>
        <time>2014-09-12T10:07:05Z</time>
      </trkpt>
      <trkpt lat="44.3994" lon="4.80019">
        <ele>191.6</ele>
        <time>2014-09-12T10:07:22Z</time>
      </trkpt>
      <trkpt lat="44.39981" lon="4.80069">
        <ele>191.6</ele>
        <time>2014-09-12T10:07:42Z</time>
      </trkpt>
      <trkpt lat="44.39993" lon="4.80085">
        <ele>191.6</ele>
        <time>2014-09-12T10:07:49Z</time>
      </trkpt>
      <trkpt lat="44.39995" lon="4.80088">
        <ele>191.6</ele>
        <time>2014-09-12T10:07:50Z</time>
      </trkpt>
      <trkpt lat="44.39997" lon="4.8009">
        <ele>191.6</ele>
        <time>2014-09-12T10:07:51Z</time>
      </trkpt>
      <trkpt lat="44.39998" lon="4.80092">
        <ele>191.6</ele>
        <time>2014-09-12T10:07:52Z</time>
      </trkpt>
      <trkpt lat="44.4" lon="4.80095">
        <ele>191.6</ele>
        <time>2014-09-12T10:07:53Z</time>
      </trkpt>
      <trkpt lat="44.40001" lon="4.80097">
        <ele>191.6</ele>
        <time>2014-09-12T10:07:54Z</time>
      </trkpt>
      <trkpt lat="44.40003" lon="4.801">
        <ele>191.6</ele>
        <time>2014-09-12T10:07:55Z</time>
      </trkpt>
      <trkpt lat="44.40004" lon="4.80102">
        <ele>191.6</ele>
        <time>2014-09-12T10:07:56Z</time>
      </trkpt>
      <trkpt lat="44.40012" lon="4.80115">
        <ele>191.6</ele>
        <time>2014-09-12T10:08:02Z</time>
      </trkpt>
      <trkpt lat="44.40013" lon="4.80117">
        <ele>191.6</ele>
        <time>2014-09-12T10:08:03Z</time>
      </trkpt>
      <trkpt lat="44.40015" lon="4.80119">
        <ele>191.6</ele>
        <time>2014-09-12T10:08:04Z</time>
      </trkpt>
      <trkpt lat="44.40017" lon="4.80123">
        <ele>191.6</ele>
        <time>2014-09-12T10:08:06Z</time>
      </trkpt>
      <trkpt lat="44.40018" lon="4.80125">
        <ele>191.6</ele>
        <time>2014-09-12T10:08:07Z</time>
      </trkpt>
      <trkpt lat="44.40021" lon="4.80129">
        <ele>191.6</ele>
        <time>2014-09-12T10:08:09Z</time>
      </trkpt>
      <trkpt lat="44.40023" lon="4.80131">
        <ele>191.6</ele>
        <time>2014-09-12T10:08:10Z</time>
      </trkpt>
      <trkpt lat="44.40024" lon="4.80133">
        <ele>191.6</ele>
        <time>2014-09-12T10:08:11Z</time>
      </trkpt>
      <trkpt lat="44.40037" lon="4.80149">
        <ele>191.6</ele>
        <time>2014-09-12T10:08:20Z</time>
      </trkpt>
      <trkpt lat="44.40037" lon="4.80151">
        <ele>191.6</ele>
        <time>2014-09-12T10:08:21Z</time>
      </trkpt>
      <trkpt lat="44.40037" lon="4.80153">
        <ele>191.6</ele>
        <time>2014-09-12T10:08:22Z</time>
      </trkpt>
      <trkpt lat="44.40037" lon="4.80155">
        <ele>191.6</ele>
        <time>2014-09-12T10:08:23Z</time>
      </trkpt>
      <trkpt lat="44.40037" lon="4.80157">
        <ele>191.6</ele>
        <time>2014-09-12T10:08:24Z</time>
      </trkpt>
      <trkpt lat="44.40036" lon="4.80157">
        <ele>191.6</ele>
        <time>2014-09-12T10:08:25Z</time>
      </trkpt>
      <trkpt lat="44.40034" lon="4.80157">
        <ele>191.6</ele>
        <time>2014-09-12T10:08:26Z</time>
      </trkpt>
      <trkpt lat="44.40032" lon="4.80156">
        <ele>191.6</ele>
        <time>2014-09-12T10:08:28Z</time>
      </trkpt>
      <trkpt lat="44.4003" lon="4.80155">
        <ele>191.6</ele>
        <time>2014-09-12T10:08:30Z</time>
      </trkpt>
      <trkpt lat="44.40028" lon="4.80155">
        <ele>191.6</ele>
        <time>2014-09-12T10:08:31Z</time>
      </trkpt>
      <trkpt lat="44.40027" lon="4.80155">
        <ele>191.6</ele>
        <time>2014-09-12T10:08:32Z</time>
      </trkpt>
      <trkpt lat="44.40026" lon="4.80155">
        <ele>191.6</ele>
        <time>2014-09-12T10:08:33Z</time>
      </trkpt>
      <trkpt lat="44.40024" lon="4.80154">
        <ele>191.6</ele>
        <time>2014-09-12T10:08:34Z</time>
      </trkpt>
      <trkpt lat="44.40023" lon="4.80153">
        <ele>191.6</ele>
        <time>2014-09-12T10:08:35Z</time>
      </trkpt>
      <trkpt lat="44.40022" lon="4.80153">
        <ele>191.6</ele>
        <time>2014-09-12T10:08:36Z</time>
      </trkpt>
      <trkpt lat="44.40018" lon="4.80151">
        <ele>191.6</ele>
        <time>2014-09-12T10:08:40Z</time>
      </trkpt>
      <trkpt lat="44.40017" lon="4.80151">
        <ele>191.6</ele>
        <time>2014-09-12T10:08:41Z</time>
      </trkpt>
      <trkpt lat="44.40015" lon="4.80151">
        <ele>191.6</ele>
        <time>2014-09-12T10:08:42Z</time>
      </trkpt>
      <trkpt lat="44.40014" lon="4.80151">
        <ele>191.6</ele>
        <time>2014-09-12T10:08:43Z</time>
      </trkpt>
      <trkpt lat="44.40012" lon="4.80151">
        <ele>191.6</ele>
        <time>2014-09-12T10:08:44Z</time>
      </trkpt>
      <trkpt lat="44.40005" lon="4.80151">
        <ele>191.6</ele>
        <time>2014-09-12T10:08:49Z</time>
      </trkpt>
      <trkpt lat="44.40004" lon="4.80151">
        <ele>191.6</ele>
        <time>2014-09-12T10:08:50Z</time>
      </trkpt>
      <trkpt lat="44.39996" lon="4.80151">
        <ele>191.6</ele>
        <time>2014-09-12T10:08:55Z</time>
      </trkpt>
      <trkpt lat="44.39994" lon="4.80152">
        <ele>191.6</ele>
        <time>2014-09-12T10:08:56Z</time>
      </trkpt>
      <trkpt lat="44.39969" lon="4.80156">
        <ele>191.6</ele>
        <time>2014-09-12T10:09:08Z</time>
      </trkpt>
      <trkpt lat="44.39967" lon="4.80156">
        <ele>191.6</ele>
        <time>2014-09-12T10:09:09Z</time>
      </trkpt>
      <trkpt lat="44.39934" lon="4.80158">
        <ele>191.6</ele>
        <time>2014-09-12T10:09:24Z</time>
      </trkpt>
      <trkpt lat="44.39932" lon="4.80158">
        <ele>191.6</ele>
        <time>2014-09-12T10:09:25Z</time>
      </trkpt>
      <trkpt lat="44.39909" lon="4.80154">
        <ele>191.6</ele>
        <time>2014-09-12T10:09:35Z</time>
      </trkpt>
      <trkpt lat="44.39907" lon="4.80153">
        <ele>191.6</ele>
        <time>2014-09-12T10:09:36Z</time>
      </trkpt>
      <trkpt lat="44.39905" lon="4.80153">
        <ele>191.6</ele>
        <time>2014-09-12T10:09:37Z</time>
      </trkpt>
      <trkpt lat="44.39903" lon="4.80152">
        <ele>191.6</ele>
        <time>2014-09-12T10:09:38Z</time>
      </trkpt>
      <trkpt lat="44.39901" lon="4.80152">
        <ele>191.6</ele>
        <time>2014-09-12T10:09:39Z</time>
      </trkpt>
      <trkpt lat="44.39899" lon="4.80152">
        <ele>191.6</ele>
        <time>2014-09-12T10:09:40Z</time>
      </trkpt>
      <trkpt lat="44.39858" lon="4.80143">
        <ele>191.6</ele>
        <time>2014-09-12T10:09:59Z</time>
      </trkpt>
      <trkpt lat="44.39833" lon="4.80158">
        <ele>191.6</ele>
        <time>2014-09-12T10:10:14Z</time>
      </trkpt>
      <trkpt lat="44.39829" lon="4.80161">
        <ele>191.6</ele>
        <time>2014-09-12T10:10:16Z</time>
      </trkpt>
      <trkpt lat="44.39828" lon="4.80162">
        <ele>191.6</ele>
        <time>2014-09-12T10:10:17Z</time>
      </trkpt>
      <trkpt lat="44.39796" lon="4.8019">
        <ele>191.6</ele>
        <time>2014-09-12T10:10:34Z</time>
      </trkpt>
      <trkpt lat="44.39793" lon="4.80194">
        <ele>191.6</ele>
        <time>2014-09-12T10:10:36Z</time>
      </trkpt>
      <trkpt lat="44.39778" lon="4.80208">
        <ele>191.6</ele>
        <time>2014-09-12T10:10:45Z</time>
      </trkpt>
      <trkpt lat="44.39773" lon="4.80212">
        <ele>191.6</ele>
        <time>2014-09-12T10:10:48Z</time>
      </trkpt>
      <trkpt lat="44.39772" lon="4.80214">
        <ele>191.6</ele>
        <time>2014-09-12T10:10:49Z</time>
      </trkpt>
      <trkpt lat="44.3977" lon="4.80215">
        <ele>191.6</ele>
        <time>2014-09-12T10:10:50Z</time>
      </trkpt>
      <trkpt lat="44.39769" lon="4.80217">
        <ele>191.6</ele>
        <time>2014-09-12T10:10:51Z</time>
      </trkpt>
      <trkpt lat="44.39767" lon="4.80219">
        <ele>191.6</ele>
        <time>2014-09-12T10:10:52Z</time>
      </trkpt>
      <trkpt lat="44.39766" lon="4.8022">
        <ele>191.6</ele>
        <time>2014-09-12T10:10:53Z</time>
      </trkpt>
      <trkpt lat="44.39764" lon="4.80221">
        <ele>191.6</ele>
        <time>2014-09-12T10:10:54Z</time>
      </trkpt>
      <trkpt lat="44.39762" lon="4.80222">
        <ele>191.6</ele>
        <time>2014-09-12T10:10:55Z</time>
      </trkpt>
      <trkpt lat="44.39761" lon="4.80223">
        <ele>191.6</ele>
        <time>2014-09-12T10:10:56Z</time>
      </trkpt>
      <trkpt lat="44.39759" lon="4.80224">
        <ele>191.6</ele>
        <time>2014-09-12T10:10:57Z</time>
      </trkpt>
      <trkpt lat="44.39758" lon="4.80225">
        <ele>191.6</ele>
        <time>2014-09-12T10:10:58Z</time>
      </trkpt>
      <trkpt lat="44.39756" lon="4.80227">
        <ele>191.6</ele>
        <time>2014-09-12T10:10:59Z</time>
      </trkpt>
      <trkpt lat="44.39742" lon="4.80249">
        <ele>191.6</ele>
        <time>2014-09-12T10:11:10Z</time>
      </trkpt>
      <trkpt lat="44.39741" lon="4.80251">
        <ele>191.6</ele>
        <time>2014-09-12T10:11:11Z</time>
      </trkpt>
      <trkpt lat="44.39739" lon="4.80256">
        <ele>191.6</ele>
        <time>2014-09-12T10:11:13Z</time>
      </trkpt>
      <trkpt lat="44.39738" lon="4.80258">
        <ele>191.6</ele>
        <time>2014-09-12T10:11:14Z</time>
      </trkpt>
      <trkpt lat="44.39737" lon="4.8026">
        <ele>191.6</ele>
        <time>2014-09-12T10:11:15Z</time>
      </trkpt>
      <trkpt lat="44.39736" lon="4.80262">
        <ele>191.6</ele>
        <time>2014-09-12T10:11:16Z</time>
      </trkpt>
      <trkpt lat="44.39735" lon="4.80265">
        <ele>191.6</ele>
        <time>2014-09-12T10:11:17Z</time>
      </trkpt>
      <trkpt lat="44.39732" lon="4.8028">
        <ele>191.6</ele>
        <time>2014-09-12T10:11:23Z</time>
      </trkpt>
      <trkpt lat="44.39732" lon="4.80283">
        <ele>191.6</ele>
        <time>2014-09-12T10:11:24Z</time>
      </trkpt>
      <trkpt lat="44.39732" lon="4.80286">
        <ele>191.6</ele>
        <time>2014-09-12T10:11:25Z</time>
      </trkpt>
      <trkpt lat="44.39731" lon="4.80289">
        <ele>191.6</ele>
        <time>2014-09-12T10:11:26Z</time>
      </trkpt>
      <trkpt lat="44.39732" lon="4.80294">
        <ele>191.6</ele>
        <time>2014-09-12T10:11:28Z</time>
      </trkpt>
      <trkpt lat="44.39732" lon="4.80295">
        <ele>191.6</ele>
        <time>2014-09-12T10:11:29Z</time>
      </trkpt>
      <trkpt lat="44.39732" lon="4.80298">
        <ele>191.6</ele>
        <time>2014-09-12T10:11:30Z</time>
      </trkpt>
      <trkpt lat="44.39732" lon="4.803">
        <ele>191.6</ele>
        <time>2014-09-12T10:11:31Z</time>
      </trkpt>
      <trkpt lat="44.39732" lon="4.80302">
        <ele>191.6</ele>
        <time>2014-09-12T10:11:32Z</time>
      </trkpt>
      <trkpt lat="44.39732" lon="4.80305">
        <ele>191.6</ele>
        <time>2014-09-12T10:11:33Z</time>
      </trkpt>
      <trkpt lat="44.39731" lon="4.80307">
        <ele>191.6</ele>
        <time>2014-09-12T10:11:34Z</time>
      </trkpt>
      <trkpt lat="44.3973" lon="4.80309">
        <ele>191.6</ele>
        <time>2014-09-12T10:11:35Z</time>
      </trkpt>
      <trkpt lat="44.39729" lon="4.80311">
        <ele>191.6</ele>
        <time>2014-09-12T10:11:36Z</time>
      </trkpt>
      <trkpt lat="44.39726" lon="4.80315">
        <ele>191.6</ele>
        <time>2014-09-12T10:11:38Z</time>
      </trkpt>
      <trkpt lat="44.39723" lon="4.80318">
        <ele>191.6</ele>
        <time>2014-09-12T10:11:40Z</time>
      </trkpt>
      <trkpt lat="44.39722" lon="4.8032">
        <ele>191.6</ele>
        <time>2014-09-12T10:11:41Z</time>
      </trkpt>
      <trkpt lat="44.3972" lon="4.80321">
        <ele>191.6</ele>
        <time>2014-09-12T10:11:42Z</time>
      </trkpt>
      <trkpt lat="44.39719" lon="4.80322">
        <ele>191.6</ele>
        <time>2014-09-12T10:11:43Z</time>
      </trkpt>
      <trkpt lat="44.39718" lon="4.80324">
        <ele>191.6</ele>
        <time>2014-09-12T10:11:44Z</time>
      </trkpt>
      <trkpt lat="44.39716" lon="4.80325">
        <ele>191.6</ele>
        <time>2014-09-12T10:11:45Z</time>
      </trkpt>
      <trkpt lat="44.39715" lon="4.80326">
        <ele>191.6</ele>
        <time>2014-09-12T10:11:46Z</time>
      </trkpt>
      <trkpt lat="44.39713" lon="4.80327">
        <ele>191.6</ele>
        <time>2014-09-12T10:11:47Z</time>
      </trkpt>
      <trkpt lat="44.39711" lon="4.80328">
        <ele>191.6</ele>
        <time>2014-09-12T10:11:48Z</time>
      </trkpt>
      <trkpt lat="44.39709" lon="4.80329">
        <ele>191.6</ele>
        <time>2014-09-12T10:11:49Z</time>
      </trkpt>
      <trkpt lat="44.39708" lon="4.8033">
        <ele>191.6</ele>
        <time>2014-09-12T10:11:50Z</time>
      </trkpt>
      <trkpt lat="44.39706" lon="4.8033">
        <ele>191.6</ele>
        <time>2014-09-12T10:11:51Z</time>
      </trkpt>
      <trkpt lat="44.39704" lon="4.80331">
        <ele>191.6</ele>
        <time>2014-09-12T10:11:52Z</time>
      </trkpt>
      <trkpt lat="44.39703" lon="4.80332">
        <ele>191.6</ele>
        <time>2014-09-12T10:11:53Z</time>
      </trkpt>
      <trkpt lat="44.39701" lon="4.80333">
        <ele>191.6</ele>
        <time>2014-09-12T10:11:54Z</time>
      </trkpt>
      <trkpt lat="44.397" lon="4.80334">
        <ele>191.6</ele>
        <time>2014-09-12T10:11:55Z</time>
      </trkpt>
      <trkpt lat="44.39668" lon="4.80355">
        <ele>191.6</ele>
        <time>2014-09-12T10:12:14Z</time>
      </trkpt>
      <trkpt lat="44.39665" lon="4.80358">
        <ele>191.6</ele>
        <time>2014-09-12T10:12:16Z</time>
      </trkpt>
      <trkpt lat="44.39664" lon="4.80361">
        <ele>191.6</ele>
        <time>2014-09-12T10:12:17Z</time>
      </trkpt>
      <trkpt lat="44.39662" lon="4.80363">
        <ele>191.6</ele>
        <time>2014-09-12T10:12:18Z</time>
      </trkpt>
      <trkpt lat="44.39661" lon="4.80365">
        <ele>191.6</ele>
        <time>2014-09-12T10:12:19Z</time>
      </trkpt>
      <trkpt lat="44.39659" lon="4.80366">
        <ele>191.6</ele>
        <time>2014-09-12T10:12:20Z</time>
      </trkpt>
      <trkpt lat="44.39658" lon="4.80368">
        <ele>191.6</ele>
        <time>2014-09-12T10:12:21Z</time>
      </trkpt>
      <trkpt lat="44.39657" lon="4.8037">
        <ele>191.6</ele>
        <time>2014-09-12T10:12:22Z</time>
      </trkpt>
      <trkpt lat="44.39656" lon="4.80372">
        <ele>191.6</ele>
        <time>2014-09-12T10:12:23Z</time>
      </trkpt>
      <trkpt lat="44.39654" lon="4.80375">
        <ele>191.6</ele>
        <time>2014-09-12T10:12:24Z</time>
      </trkpt>
      <trkpt lat="44.39653" lon="4.80377">
        <ele>191.6</ele>
        <time>2014-09-12T10:12:25Z</time>
      </trkpt>
      <trkpt lat="44.3965" lon="4.80382">
        <ele>191.6</ele>
        <time>2014-09-12T10:12:27Z</time>
      </trkpt>
      <trkpt lat="44.39649" lon="4.80385">
        <ele>191.6</ele>
        <time>2014-09-12T10:12:28Z</time>
      </trkpt>
      <trkpt lat="44.39647" lon="4.80388">
        <ele>191.6</ele>
        <time>2014-09-12T10:12:29Z</time>
      </trkpt>
      <trkpt lat="44.39646" lon="4.8039">
        <ele>191.6</ele>
        <time>2014-09-12T10:12:30Z</time>
      </trkpt>
      <trkpt lat="44.39645" lon="4.80392">
        <ele>191.6</ele>
        <time>2014-09-12T10:12:31Z</time>
      </trkpt>
      <trkpt lat="44.39642" lon="4.804">
        <ele>191.6</ele>
        <time>2014-09-12T10:12:46Z</time>
      </trkpt>
      <trkpt lat="44.39642" lon="4.80407">
        <ele>191.6</ele>
        <time>2014-09-12T10:13:14Z</time>
      </trkpt>
      <trkpt lat="44.39641" lon="4.80409">
        <ele>191.6</ele>
        <time>2014-09-12T10:13:15Z</time>
      </trkpt>
      <trkpt lat="44.3964" lon="4.80411">
        <ele>191.6</ele>
        <time>2014-09-12T10:13:16Z</time>
      </trkpt>
      <trkpt lat="44.39627" lon="4.80433">
        <ele>191.6</ele>
        <time>2014-09-12T10:13:26Z</time>
      </trkpt>
      <trkpt lat="44.39625" lon="4.80435">
        <ele>191.6</ele>
        <time>2014-09-12T10:13:27Z</time>
      </trkpt>
      <trkpt lat="44.39603" lon="4.80465">
        <ele>191.6</ele>
        <time>2014-09-12T10:13:42Z</time>
      </trkpt>
      <trkpt lat="44.39601" lon="4.80466">
        <ele>191.6</ele>
        <time>2014-09-12T10:13:43Z</time>
      </trkpt>
      <trkpt lat="44.39599" lon="4.80467">
        <ele>191.6</ele>
        <time>2014-09-12T10:13:44Z</time>
      </trkpt>
      <trkpt lat="44.39598" lon="4.80469">
        <ele>191.6</ele>
        <time>2014-09-12T10:13:45Z</time>
      </trkpt>
      <trkpt lat="44.39596" lon="4.8047">
        <ele>191.6</ele>
        <time>2014-09-12T10:13:46Z</time>
      </trkpt>
      <trkpt lat="44.39594" lon="4.80471">
        <ele>191.6</ele>
        <time>2014-09-12T10:13:47Z</time>
      </trkpt>
      <trkpt lat="44.39592" lon="4.80472">
        <ele>191.6</ele>
        <time>2014-09-12T10:13:48Z</time>
      </trkpt>
      <trkpt lat="44.39591" lon="4.80473">
        <ele>191.6</ele>
        <time>2014-09-12T10:13:49Z</time>
      </trkpt>
      <trkpt lat="44.39589" lon="4.80473">
        <ele>191.6</ele>
        <time>2014-09-12T10:13:50Z</time>
      </trkpt>
      <trkpt lat="44.39587" lon="4.80474">
        <ele>191.6</ele>
        <time>2014-09-12T10:13:51Z</time>
      </trkpt>
      <trkpt lat="44.39562" lon="4.80474">
        <ele>191.6</ele>
        <time>2014-09-12T10:14:04Z</time>
      </trkpt>
      <trkpt lat="44.39533" lon="4.80471">
        <ele>191.6</ele>
        <time>2014-09-12T10:14:19Z</time>
      </trkpt>
      <trkpt lat="44.3953" lon="4.80479">
        <ele>191.6</ele>
        <time>2014-09-12T10:14:23Z</time>
      </trkpt>
      <trkpt lat="44.39533" lon="4.80503">
        <ele>191.6</ele>
        <time>2014-09-12T10:14:35Z</time>
      </trkpt>
      <trkpt lat="44.39535" lon="4.80514">
        <ele>191.6</ele>
        <time>2014-09-12T10:14:39Z</time>
      </trkpt>
      <trkpt lat="44.39536" lon="4.80516">
        <ele>191.6</ele>
        <time>2014-09-12T10:14:40Z</time>
      </trkpt>
      <trkpt lat="44.39536" lon="4.80518">
        <ele>191.6</ele>
        <time>2014-09-12T10:14:41Z</time>
      </trkpt>
      <trkpt lat="44.39537" lon="4.80521">
        <ele>191.6</ele>
        <time>2014-09-12T10:14:42Z</time>
      </trkpt>
      <trkpt lat="44.39538" lon="4.80523">
        <ele>191.6</ele>
        <time>2014-09-12T10:14:43Z</time>
      </trkpt>
      <trkpt lat="44.39538" lon="4.80526">
        <ele>191.6</ele>
        <time>2014-09-12T10:14:44Z</time>
      </trkpt>
      <trkpt lat="44.39539" lon="4.80529">
        <ele>191.6</ele>
        <time>2014-09-12T10:14:45Z</time>
      </trkpt>
      <trkpt lat="44.39539" lon="4.80533">
        <ele>191.6</ele>
        <time>2014-09-12T10:14:46Z</time>
      </trkpt>
      <trkpt lat="44.3954" lon="4.80538">
        <ele>191.6</ele>
        <time>2014-09-12T10:14:48Z</time>
      </trkpt>
      <trkpt lat="44.39541" lon="4.80543">
        <ele>191.6</ele>
        <time>2014-09-12T10:14:50Z</time>
      </trkpt>
      <trkpt lat="44.39542" lon="4.80546">
        <ele>191.6</ele>
        <time>2014-09-12T10:14:51Z</time>
      </trkpt>
      <trkpt lat="44.39542" lon="4.80552">
        <ele>191.6</ele>
        <time>2014-09-12T10:14:53Z</time>
      </trkpt>
      <trkpt lat="44.39543" lon="4.80557">
        <ele>191.6</ele>
        <time>2014-09-12T10:14:55Z</time>
      </trkpt>
      <trkpt lat="44.39543" lon="4.8056">
        <ele>191.6</ele>
        <time>2014-09-12T10:14:56Z</time>
      </trkpt>
      <trkpt lat="44.39544" lon="4.80563">
        <ele>191.6</ele>
        <time>2014-09-12T10:14:57Z</time>
      </trkpt>
      <trkpt lat="44.39544" lon="4.80565">
        <ele>191.6</ele>
        <time>2014-09-12T10:14:58Z</time>
      </trkpt>
      <trkpt lat="44.39544" lon="4.80568">
        <ele>191.6</ele>
        <time>2014-09-12T10:14:59Z</time>
      </trkpt>
      <trkpt lat="44.39545" lon="4.80571">
        <ele>191.6</ele>
        <time>2014-09-12T10:15:00Z</time>
      </trkpt>
      <trkpt lat="44.39545" lon="4.80574">
        <ele>191.6</ele>
        <time>2014-09-12T10:15:01Z</time>
      </trkpt>
      <trkpt lat="44.39546" lon="4.80576">
        <ele>191.6</ele>
        <time>2014-09-12T10:15:02Z</time>
      </trkpt>
      <trkpt lat="44.39546" lon="4.80579">
        <ele>191.6</ele>
        <time>2014-09-12T10:15:03Z</time>
      </trkpt>
      <trkpt lat="44.39548" lon="4.80586">
        <ele>191.6</ele>
        <time>2014-09-12T10:15:06Z</time>
      </trkpt>
      <trkpt lat="44.39549" lon="4.80588">
        <ele>191.6</ele>
        <time>2014-09-12T10:15:07Z</time>
      </trkpt>
      <trkpt lat="44.3955" lon="4.80593">
        <ele>191.6</ele>
        <time>2014-09-12T10:15:09Z</time>
      </trkpt>
      <trkpt lat="44.39551" lon="4.80595">
        <ele>191.6</ele>
        <time>2014-09-12T10:15:10Z</time>
      </trkpt>
      <trkpt lat="44.39552" lon="4.80596">
        <ele>191.6</ele>
        <time>2014-09-12T10:15:11Z</time>
      </trkpt>
      <trkpt lat="44.39553" lon="4.80598">
        <ele>191.6</ele>
        <time>2014-09-12T10:15:12Z</time>
      </trkpt>
      <trkpt lat="44.39554" lon="4.806">
        <ele>191.6</ele>
        <time>2014-09-12T10:15:13Z</time>
      </trkpt>
      <trkpt lat="44.39555" lon="4.80602">
        <ele>191.6</ele>
        <time>2014-09-12T10:15:14Z</time>
      </trkpt>
      <trkpt lat="44.39556" lon="4.80604">
        <ele>191.6</ele>
        <time>2014-09-12T10:15:15Z</time>
      </trkpt>
      <trkpt lat="44.39556" lon="4.80606">
        <ele>191.6</ele>
        <time>2014-09-12T10:15:16Z</time>
      </trkpt>
      <trkpt lat="44.39557" lon="4.80608">
        <ele>191.6</ele>
        <time>2014-09-12T10:15:17Z</time>
      </trkpt>
      <trkpt lat="44.39569" lon="4.8064">
        <ele>191.6</ele>
        <time>2014-09-12T10:15:31Z</time>
      </trkpt>
      <trkpt lat="44.39579" lon="4.80672">
        <ele>191.6</ele>
        <time>2014-09-12T10:15:45Z</time>
      </trkpt>
      <trkpt lat="44.39601" lon="4.80696">
        <ele>191.6</ele>
        <time>2014-09-12T10:15:58Z</time>
      </trkpt>
      <trkpt lat="44.39603" lon="4.80699">
        <ele>191.6</ele>
        <time>2014-09-12T10:15:59Z</time>
      </trkpt>
      <trkpt lat="44.39604" lon="4.80701">
        <ele>191.6</ele>
        <time>2014-09-12T10:16:00Z</time>
      </trkpt>
      <trkpt lat="44.39605" lon="4.80704">
        <ele>191.6</ele>
        <time>2014-09-12T10:16:01Z</time>
      </trkpt>
      <trkpt lat="44.39605" lon="4.8071">
        <ele>191.6</ele>
        <time>2014-09-12T10:16:03Z</time>
      </trkpt>
      <trkpt lat="44.39604" lon="4.80712">
        <ele>191.6</ele>
        <time>2014-09-12T10:16:04Z</time>
      </trkpt>
      <trkpt lat="44.39602" lon="4.80715">
        <ele>191.6</ele>
        <time>2014-09-12T10:16:06Z</time>
      </trkpt>
      <trkpt lat="44.396" lon="4.80716">
        <ele>191.6</ele>
        <time>2014-09-12T10:16:07Z</time>
      </trkpt>
      <trkpt lat="44.39597" lon="4.80717">
        <ele>191.6</ele>
        <time>2014-09-12T10:16:09Z</time>
      </trkpt>
      <trkpt lat="44.39595" lon="4.80717">
        <ele>191.6</ele>
        <time>2014-09-12T10:16:10Z</time>
      </trkpt>
      <trkpt lat="44.39592" lon="4.80716">
        <ele>191.6</ele>
        <time>2014-09-12T10:16:12Z</time>
      </trkpt>
      <trkpt lat="44.3959" lon="4.80716">
        <ele>191.6</ele>
        <time>2014-09-12T10:16:13Z</time>
      </trkpt>
      <trkpt lat="44.39589" lon="4.80716">
        <ele>191.6</ele>
        <time>2014-09-12T10:16:14Z</time>
      </trkpt>
      <trkpt lat="44.39587" lon="4.80715">
        <ele>191.6</ele>
        <time>2014-09-12T10:16:15Z</time>
      </trkpt>
      <trkpt lat="44.39586" lon="4.80715">
        <ele>191.6</ele>
        <time>2014-09-12T10:16:16Z</time>
      </trkpt>
      <trkpt lat="44.39584" lon="4.80715">
        <ele>191.6</ele>
        <time>2014-09-12T10:16:17Z</time>
      </trkpt>
      <trkpt lat="44.39582" lon="4.80714">
        <ele>191.6</ele>
        <time>2014-09-12T10:16:18Z</time>
      </trkpt>
      <trkpt lat="44.39581" lon="4.80714">
        <ele>191.6</ele>
        <time>2014-09-12T10:16:19Z</time>
      </trkpt>
      <trkpt lat="44.39579" lon="4.80713">
        <ele>191.6</ele>
        <time>2014-09-12T10:16:20Z</time>
      </trkpt>
      <trkpt lat="44.39577" lon="4.80713">
        <ele>191.6</ele>
        <time>2014-09-12T10:16:21Z</time>
      </trkpt>
      <trkpt lat="44.39576" lon="4.80712">
        <ele>191.6</ele>
        <time>2014-09-12T10:16:22Z</time>
      </trkpt>
      <trkpt lat="44.39572" lon="4.8071">
        <ele>191.6</ele>
        <time>2014-09-12T10:16:24Z</time>
      </trkpt>
      <trkpt lat="44.3957" lon="4.80709">
        <ele>191.6</ele>
        <time>2014-09-12T10:16:25Z</time>
      </trkpt>
      <trkpt lat="44.39568" lon="4.80708">
        <ele>191.6</ele>
        <time>2014-09-12T10:16:26Z</time>
      </trkpt>
      <trkpt lat="44.39566" lon="4.80707">
        <ele>191.6</ele>
        <time>2014-09-12T10:16:27Z</time>
      </trkpt>
      <trkpt lat="44.39565" lon="4.80706">
        <ele>191.6</ele>
        <time>2014-09-12T10:16:28Z</time>
      </trkpt>
      <trkpt lat="44.39563" lon="4.80706">
        <ele>191.6</ele>
        <time>2014-09-12T10:16:29Z</time>
      </trkpt>
      <trkpt lat="44.3956" lon="4.80705">
        <ele>191.6</ele>
        <time>2014-09-12T10:16:30Z</time>
      </trkpt>
      <trkpt lat="44.39558" lon="4.80704">
        <ele>191.6</ele>
        <time>2014-09-12T10:16:31Z</time>
      </trkpt>
      <trkpt lat="44.39556" lon="4.80703">
        <ele>191.6</ele>
        <time>2014-09-12T10:16:32Z</time>
      </trkpt>
      <trkpt lat="44.39547" lon="4.80696">
        <ele>191.6</ele>
        <time>2014-09-12T10:16:37Z</time>
      </trkpt>
      <trkpt lat="44.39513" lon="4.80684">
        <ele>191.6</ele>
        <time>2014-09-12T10:16:52Z</time>
      </trkpt>
      <trkpt lat="44.3949" lon="4.80676">
        <ele>191.6</ele>
        <time>2014-09-12T10:17:02Z</time>
      </trkpt>
      <trkpt lat="44.39473" lon="4.80669">
        <ele>191.6</ele>
        <time>2014-09-12T10:17:10Z</time>
      </trkpt>
      <trkpt lat="44.39471" lon="4.80669">
        <ele>191.6</ele>
        <time>2014-09-12T10:17:11Z</time>
      </trkpt>
      <trkpt lat="44.39469" lon="4.80668">
        <ele>191.6</ele>
        <time>2014-09-12T10:17:12Z</time>
      </trkpt>
      <trkpt lat="44.39467" lon="4.80668">
        <ele>191.6</ele>
        <time>2014-09-12T10:17:13Z</time>
      </trkpt>
      <trkpt lat="44.39465" lon="4.80668">
        <ele>191.6</ele>
        <time>2014-09-12T10:17:14Z</time>
      </trkpt>
      <trkpt lat="44.39463" lon="4.80668">
        <ele>191.6</ele>
        <time>2014-09-12T10:17:15Z</time>
      </trkpt>
      <trkpt lat="44.39461" lon="4.80668">
        <ele>191.6</ele>
        <time>2014-09-12T10:17:16Z</time>
      </trkpt>
      <trkpt lat="44.39459" lon="4.80668">
        <ele>191.6</ele>
        <time>2014-09-12T10:17:17Z</time>
      </trkpt>
      <trkpt lat="44.39443" lon="4.8067">
        <ele>191.6</ele>
        <time>2014-09-12T10:17:24Z</time>
      </trkpt>
      <trkpt lat="44.39441" lon="4.80671">
        <ele>191.6</ele>
        <time>2014-09-12T10:17:25Z</time>
      </trkpt>
      <trkpt lat="44.39439" lon="4.80672">
        <ele>191.6</ele>
        <time>2014-09-12T10:17:26Z</time>
      </trkpt>
      <trkpt lat="44.39437" lon="4.80672">
        <ele>191.6</ele>
        <time>2014-09-12T10:17:27Z</time>
      </trkpt>
      <trkpt lat="44.39434" lon="4.80672">
        <ele>191.6</ele>
        <time>2014-09-12T10:17:28Z</time>
      </trkpt>
      <trkpt lat="44.39432" lon="4.80673">
        <ele>191.6</ele>
        <time>2014-09-12T10:17:29Z</time>
      </trkpt>
      <trkpt lat="44.3943" lon="4.80674">
        <ele>191.6</ele>
        <time>2014-09-12T10:17:30Z</time>
      </trkpt>
      <trkpt lat="44.39428" lon="4.80674">
        <ele>191.6</ele>
        <time>2014-09-12T10:17:31Z</time>
      </trkpt>
      <trkpt lat="44.39426" lon="4.80675">
        <ele>191.6</ele>
        <time>2014-09-12T10:17:32Z</time>
      </trkpt>
      <trkpt lat="44.39393" lon="4.80681">
        <ele>191.6</ele>
        <time>2014-09-12T10:17:47Z</time>
      </trkpt>
      <trkpt lat="44.39372" lon="4.80685">
        <ele>191.6</ele>
        <time>2014-09-12T10:17:56Z</time>
      </trkpt>
      <trkpt lat="44.3937" lon="4.80685">
        <ele>191.6</ele>
        <time>2014-09-12T10:17:57Z</time>
      </trkpt>
      <trkpt lat="44.39368" lon="4.80686">
        <ele>191.6</ele>
        <time>2014-09-12T10:17:58Z</time>
      </trkpt>
      <trkpt lat="44.39364" lon="4.80686">
        <ele>191.6</ele>
        <time>2014-09-12T10:18:00Z</time>
      </trkpt>
      <trkpt lat="44.39361" lon="4.80687">
        <ele>191.6</ele>
        <time>2014-09-12T10:18:01Z</time>
      </trkpt>
      <trkpt lat="44.39331" lon="4.80696">
        <ele>191.6</ele>
        <time>2014-09-12T10:18:15Z</time>
      </trkpt>
      <trkpt lat="44.39292" lon="4.80719">
        <ele>191.6</ele>
        <time>2014-09-12T10:18:33Z</time>
      </trkpt>
      <trkpt lat="44.39256" lon="4.80744">
        <ele>191.6</ele>
        <time>2014-09-12T10:18:50Z</time>
      </trkpt>
      <trkpt lat="44.39233" lon="4.80752">
        <ele>191.6</ele>
        <time>2014-09-12T10:19:00Z</time>
      </trkpt>
      <trkpt lat="44.39231" lon="4.80753">
        <ele>191.6</ele>
        <time>2014-09-12T10:19:01Z</time>
      </trkpt>
      <trkpt lat="44.39229" lon="4.80754">
        <ele>191.6</ele>
        <time>2014-09-12T10:19:02Z</time>
      </trkpt>
      <trkpt lat="44.39227" lon="4.80754">
        <ele>191.6</ele>
        <time>2014-09-12T10:19:03Z</time>
      </trkpt>
      <trkpt lat="44.39224" lon="4.80755">
        <ele>191.6</ele>
        <time>2014-09-12T10:19:04Z</time>
      </trkpt>
      <trkpt lat="44.39222" lon="4.80756">
        <ele>191.6</ele>
        <time>2014-09-12T10:19:05Z</time>
      </trkpt>
      <trkpt lat="44.39193" lon="4.80758">
        <ele>191.6</ele>
        <time>2014-09-12T10:19:18Z</time>
      </trkpt>
      <trkpt lat="44.39159" lon="4.80747">
        <ele>191.6</ele>
        <time>2014-09-12T10:19:33Z</time>
      </trkpt>
      <trkpt lat="44.39127" lon="4.8075">
        <ele>191.6</ele>
        <time>2014-09-12T10:19:46Z</time>
      </trkpt>
      <trkpt lat="44.39095" lon="4.80758">
        <ele>191.6</ele>
        <time>2014-09-12T10:20:00Z</time>
      </trkpt>
      <trkpt lat="44.39091" lon="4.8076">
        <ele>191.6</ele>
        <time>2014-09-12T10:20:02Z</time>
      </trkpt>
      <trkpt lat="44.39063" lon="4.80779">
        <ele>191.6</ele>
        <time>2014-09-12T10:20:18Z</time>
      </trkpt>
      <trkpt lat="44.39053" lon="4.8079">
        <ele>191.6</ele>
        <time>2014-09-12T10:20:24Z</time>
      </trkpt>
      <trkpt lat="44.39052" lon="4.80792">
        <ele>191.6</ele>
        <time>2014-09-12T10:20:25Z</time>
      </trkpt>
      <trkpt lat="44.3905" lon="4.80794">
        <ele>191.6</ele>
        <time>2014-09-12T10:20:26Z</time>
      </trkpt>
      <trkpt lat="44.39048" lon="4.80796">
        <ele>191.6</ele>
        <time>2014-09-12T10:20:27Z</time>
      </trkpt>
      <trkpt lat="44.39047" lon="4.80798">
        <ele>191.6</ele>
        <time>2014-09-12T10:20:28Z</time>
      </trkpt>
      <trkpt lat="44.39045" lon="4.808">
        <ele>191.6</ele>
        <time>2014-09-12T10:20:29Z</time>
      </trkpt>
      <trkpt lat="44.39044" lon="4.80802">
        <ele>191.6</ele>
        <time>2014-09-12T10:20:30Z</time>
      </trkpt>
      <trkpt lat="44.39024" lon="4.80824">
        <ele>191.6</ele>
        <time>2014-09-12T10:20:43Z</time>
      </trkpt>
      <trkpt lat="44.39022" lon="4.80826">
        <ele>191.6</ele>
        <time>2014-09-12T10:20:44Z</time>
      </trkpt>
      <trkpt lat="44.38991" lon="4.80857">
        <ele>191.6</ele>
        <time>2014-09-12T10:21:01Z</time>
      </trkpt>
      <trkpt lat="44.38962" lon="4.80887">
        <ele>191.6</ele>
        <time>2014-09-12T10:21:17Z</time>
      </trkpt>
      <trkpt lat="44.3896" lon="4.80889">
        <ele>191.6</ele>
        <time>2014-09-12T10:21:18Z</time>
      </trkpt>
      <trkpt lat="44.38956" lon="4.80893">
        <ele>191.6</ele>
        <time>2014-09-12T10:21:20Z</time>
      </trkpt>
      <trkpt lat="44.38954" lon="4.80894">
        <ele>191.6</ele>
        <time>2014-09-12T10:21:21Z</time>
      </trkpt>
      <trkpt lat="44.38952" lon="4.80896">
        <ele>191.6</ele>
        <time>2014-09-12T10:21:22Z</time>
      </trkpt>
      <trkpt lat="44.3895" lon="4.80898">
        <ele>191.6</ele>
        <time>2014-09-12T10:21:23Z</time>
      </trkpt>
      <trkpt lat="44.38948" lon="4.809">
        <ele>191.6</ele>
        <time>2014-09-12T10:21:24Z</time>
      </trkpt>
      <trkpt lat="44.38921" lon="4.80928">
        <ele>191.6</ele>
        <time>2014-09-12T10:21:37Z</time>
      </trkpt>
      <trkpt lat="44.38904" lon="4.80977">
        <ele>191.6</ele>
        <time>2014-09-12T10:21:51Z</time>
      </trkpt>
      <trkpt lat="44.389" lon="4.81001">
        <ele>191.6</ele>
        <time>2014-09-12T10:21:57Z</time>
      </trkpt>
      <trkpt lat="44.38898" lon="4.81005">
        <ele>191.6</ele>
        <time>2014-09-12T10:21:58Z</time>
      </trkpt>
      <trkpt lat="44.38889" lon="4.81015">
        <ele>191.6</ele>
        <time>2014-09-12T10:22:01Z</time>
      </trkpt>
      <trkpt lat="44.38885" lon="4.81017">
        <ele>191.6</ele>
        <time>2014-09-12T10:22:02Z</time>
      </trkpt>
      <trkpt lat="44.3888" lon="4.81018">
        <ele>191.6</ele>
        <time>2014-09-12T10:22:03Z</time>
      </trkpt>
      <trkpt lat="44.38874" lon="4.81018">
        <ele>191.6</ele>
        <time>2014-09-12T10:22:04Z</time>
      </trkpt>
      <trkpt lat="44.38869" lon="4.81018">
        <ele>191.6</ele>
        <time>2014-09-12T10:22:05Z</time>
      </trkpt>
      <trkpt lat="44.38862" lon="4.81018">
        <ele>191.6</ele>
        <time>2014-09-12T10:22:06Z</time>
      </trkpt>
      <trkpt lat="44.38834" lon="4.81021">
        <ele>191.6</ele>
        <time>2014-09-12T10:22:10Z</time>
      </trkpt>
      <trkpt lat="44.38818" lon="4.81025">
        <ele>191.6</ele>
        <time>2014-09-12T10:22:12Z</time>
      </trkpt>
      <trkpt lat="44.3881" lon="4.81029">
        <ele>191.6</ele>
        <time>2014-09-12T10:22:13Z</time>
      </trkpt>
      <trkpt lat="44.38726" lon="4.8108">
        <ele>191.6</ele>
        <time>2014-09-12T10:22:24Z</time>
      </trkpt>
      <trkpt lat="44.38721" lon="4.81089">
        <ele>191.6</ele>
        <time>2014-09-12T10:22:25Z</time>
      </trkpt>
      <trkpt lat="44.38712" lon="4.81108">
        <ele>191.6</ele>
        <time>2014-09-12T10:22:27Z</time>
      </trkpt>
      <trkpt lat="44.38708" lon="4.81127">
        <ele>191.6</ele>
        <time>2014-09-12T10:22:29Z</time>
      </trkpt>
      <trkpt lat="44.38695" lon="4.81192">
        <ele>191.6</ele>
        <time>2014-09-12T10:22:36Z</time>
      </trkpt>
      <trkpt lat="44.38693" lon="4.81201">
        <ele>191.6</ele>
        <time>2014-09-12T10:22:37Z</time>
      </trkpt>
      <trkpt lat="44.38691" lon="4.8121">
        <ele>191.6</ele>
        <time>2014-09-12T10:22:38Z</time>
      </trkpt>
      <trkpt lat="44.38682" lon="4.81235">
        <ele>191.6</ele>
        <time>2014-09-12T10:22:41Z</time>
      </trkpt>
      <trkpt lat="44.38624" lon="4.81341">
        <ele>191.6</ele>
        <time>2014-09-12T10:22:56Z</time>
      </trkpt>
      <trkpt lat="44.38621" lon="4.81347">
        <ele>191.6</ele>
        <time>2014-09-12T10:22:57Z</time>
      </trkpt>
      <trkpt lat="44.38618" lon="4.81352">
        <ele>191.6</ele>
        <time>2014-09-12T10:22:58Z</time>
      </trkpt>
      <trkpt lat="44.38593" lon="4.81401">
        <ele>191.6</ele>
        <time>2014-09-12T10:23:11Z</time>
      </trkpt>
      <trkpt lat="44.38594" lon="4.81403">
        <ele>191.6</ele>
        <time>2014-09-12T10:23:12Z</time>
      </trkpt>
      <trkpt lat="44.38595" lon="4.81404">
        <ele>191.6</ele>
        <time>2014-09-12T10:23:13Z</time>
      </trkpt>
      <trkpt lat="44.38596" lon="4.81405">
        <ele>191.6</ele>
        <time>2014-09-12T10:23:14Z</time>
      </trkpt>
      <trkpt lat="44.38598" lon="4.81405">
        <ele>191.6</ele>
        <time>2014-09-12T10:23:15Z</time>
      </trkpt>
      <trkpt lat="44.386" lon="4.81405">
        <ele>191.6</ele>
        <time>2014-09-12T10:23:16Z</time>
      </trkpt>
      <trkpt lat="44.38602" lon="4.81405">
        <ele>191.6</ele>
        <time>2014-09-12T10:23:17Z</time>
      </trkpt>
      <trkpt lat="44.38604" lon="4.81405">
        <ele>191.6</ele>
        <time>2014-09-12T10:23:18Z</time>
      </trkpt>
      <trkpt lat="44.38607" lon="4.81406">
        <ele>191.6</ele>
        <time>2014-09-12T10:23:19Z</time>
      </trkpt>
      <trkpt lat="44.38616" lon="4.81408">
        <ele>191.6</ele>
        <time>2014-09-12T10:23:23Z</time>
      </trkpt>
      <trkpt lat="44.38618" lon="4.81409">
        <ele>191.6</ele>
        <time>2014-09-12T10:23:24Z</time>
      </trkpt>
      <trkpt lat="44.3862" lon="4.81409">
        <ele>191.6</ele>
        <time>2014-09-12T10:23:25Z</time>
      </trkpt>
      <trkpt lat="44.38622" lon="4.81409">
        <ele>191.6</ele>
        <time>2014-09-12T10:23:26Z</time>
      </trkpt>
      <trkpt lat="44.38625" lon="4.8141">
        <ele>191.6</ele>
        <time>2014-09-12T10:23:27Z</time>
      </trkpt>
      <trkpt lat="44.38627" lon="4.8141">
        <ele>191.6</ele>
        <time>2014-09-12T10:23:28Z</time>
      </trkpt>
      <trkpt lat="44.38629" lon="4.81411">
        <ele>191.6</ele>
        <time>2014-09-12T10:23:29Z</time>
      </trkpt>
      <trkpt lat="44.38631" lon="4.81411">
        <ele>191.6</ele>
        <time>2014-09-12T10:23:30Z</time>
      </trkpt>
      <trkpt lat="44.38634" lon="4.81412">
        <ele>191.6</ele>
        <time>2014-09-12T10:23:31Z</time>
      </trkpt>
      <trkpt lat="44.38636" lon="4.81412">
        <ele>191.6</ele>
        <time>2014-09-12T10:23:32Z</time>
      </trkpt>
      <trkpt lat="44.38639" lon="4.81412">
        <ele>191.6</ele>
        <time>2014-09-12T10:23:33Z</time>
      </trkpt>
      <trkpt lat="44.38644" lon="4.81414">
        <ele>191.6</ele>
        <time>2014-09-12T10:23:35Z</time>
      </trkpt>
      <trkpt lat="44.38659" lon="4.81416">
        <ele>191.6</ele>
        <time>2014-09-12T10:23:40Z</time>
      </trkpt>
      <trkpt lat="44.38664" lon="4.81414">
        <ele>191.6</ele>
        <time>2014-09-12T10:23:42Z</time>
      </trkpt>
      <trkpt lat="44.38666" lon="4.81411">
        <ele>191.6</ele>
        <time>2014-09-12T10:23:43Z</time>
      </trkpt>
      <trkpt lat="44.38667" lon="4.81407">
        <ele>191.6</ele>
        <time>2014-09-12T10:23:44Z</time>
      </trkpt>
      <trkpt lat="44.38668" lon="4.814">
        <ele>191.6</ele>
        <time>2014-09-12T10:23:46Z</time>
      </trkpt>
      <trkpt lat="44.38669" lon="4.81395">
        <ele>191.6</ele>
        <time>2014-09-12T10:23:47Z</time>
      </trkpt>
      <trkpt lat="44.38669" lon="4.81391">
        <ele>191.6</ele>
        <time>2014-09-12T10:23:48Z</time>
      </trkpt>
      <trkpt lat="44.3867" lon="4.81386">
        <ele>191.6</ele>
        <time>2014-09-12T10:23:49Z</time>
      </trkpt>
      <trkpt lat="44.38671" lon="4.81382">
        <ele>191.6</ele>
        <time>2014-09-12T10:23:50Z</time>
      </trkpt>
      <trkpt lat="44.38671" lon="4.81377">
        <ele>191.6</ele>
        <time>2014-09-12T10:23:51Z</time>
      </trkpt>
      <trkpt lat="44.38672" lon="4.81372">
        <ele>191.6</ele>
        <time>2014-09-12T10:23:52Z</time>
      </trkpt>
      <trkpt lat="44.38677" lon="4.81358">
        <ele>191.6</ele>
        <time>2014-09-12T10:23:55Z</time>
      </trkpt>
      <trkpt lat="44.3868" lon="4.81354">
        <ele>191.6</ele>
        <time>2014-09-12T10:23:56Z</time>
      </trkpt>
      <trkpt lat="44.38682" lon="4.8135">
        <ele>191.6</ele>
        <time>2014-09-12T10:23:57Z</time>
      </trkpt>
      <trkpt lat="44.38685" lon="4.81346">
        <ele>191.6</ele>
        <time>2014-09-12T10:23:58Z</time>
      </trkpt>
      <trkpt lat="44.38688" lon="4.81338">
        <ele>191.6</ele>
        <time>2014-09-12T10:24:00Z</time>
      </trkpt>
      <trkpt lat="44.38689" lon="4.81333">
        <ele>191.6</ele>
        <time>2014-09-12T10:24:01Z</time>
      </trkpt>
      <trkpt lat="44.38689" lon="4.81329">
        <ele>191.6</ele>
        <time>2014-09-12T10:24:02Z</time>
      </trkpt>
      <trkpt lat="44.3869" lon="4.81325">
        <ele>191.6</ele>
        <time>2014-09-12T10:24:03Z</time>
      </trkpt>
      <trkpt lat="44.38691" lon="4.81321">
        <ele>191.6</ele>
        <time>2014-09-12T10:24:04Z</time>
      </trkpt>
      <trkpt lat="44.38693" lon="4.81318">
        <ele>191.6</ele>
        <time>2014-09-12T10:24:05Z</time>
      </trkpt>
      <trkpt lat="44.38695" lon="4.81316">
        <ele>191.6</ele>
        <time>2014-09-12T10:24:06Z</time>
      </trkpt>
      <trkpt lat="44.38697" lon="4.81315">
        <ele>191.6</ele>
        <time>2014-09-12T10:24:07Z</time>
      </trkpt>
      <trkpt lat="44.38706" lon="4.81328">
        <ele>191.6</ele>
        <time>2014-09-12T10:24:13Z</time>
      </trkpt>
      <trkpt lat="44.38705" lon="4.81335">
        <ele>191.6</ele>
        <time>2014-09-12T10:24:15Z</time>
      </trkpt>
      <trkpt lat="44.38702" lon="4.81356">
        <ele>191.6</ele>
        <time>2014-09-12T10:24:21Z</time>
      </trkpt>
      <trkpt lat="44.38705" lon="4.81386">
        <ele>191.6</ele>
        <time>2014-09-12T10:24:29Z</time>
      </trkpt>
      <trkpt lat="44.3871" lon="4.81425">
        <ele>191.6</ele>
        <time>2014-09-12T10:24:39Z</time>
      </trkpt>
      <trkpt lat="44.38749" lon="4.81448">
        <ele>191.6</ele>
        <time>2014-09-12T10:24:55Z</time>
      </trkpt>
      <trkpt lat="44.38773" lon="4.81456">
        <ele>191.6</ele>
        <time>2014-09-12T10:25:03Z</time>
      </trkpt>
      <trkpt lat="44.38785" lon="4.81461">
        <ele>191.6</ele>
        <time>2014-09-12T10:25:07Z</time>
      </trkpt>
      <trkpt lat="44.38798" lon="4.81464">
        <ele>191.6</ele>
        <time>2014-09-12T10:25:11Z</time>
      </trkpt>
      <trkpt lat="44.38806" lon="4.81467">
        <ele>191.6</ele>
        <time>2014-09-12T10:25:14Z</time>
      </trkpt>
      <trkpt lat="44.38817" lon="4.81471">
        <ele>191.6</ele>
        <time>2014-09-12T10:25:18Z</time>
      </trkpt>
      <trkpt lat="44.38826" lon="4.81505">
        <ele>191.6</ele>
        <time>2014-09-12T10:25:31Z</time>
      </trkpt>
      <trkpt lat="44.38823" lon="4.81528">
        <ele>191.6</ele>
        <time>2014-09-12T10:25:37Z</time>
      </trkpt>
      <trkpt lat="44.38809" lon="4.81595">
        <ele>191.6</ele>
        <time>2014-09-12T10:25:55Z</time>
      </trkpt>
      <trkpt lat="44.38806" lon="4.81614">
        <ele>191.6</ele>
        <time>2014-09-12T10:26:00Z</time>
      </trkpt>
      <trkpt lat="44.38802" lon="4.81639">
        <ele>191.6</ele>
        <time>2014-09-12T10:26:07Z</time>
      </trkpt>
      <trkpt lat="44.388" lon="4.81663">
        <ele>191.6</ele>
        <time>2014-09-12T10:26:13Z</time>
      </trkpt>
      <trkpt lat="44.388" lon="4.81675">
        <ele>191.6</ele>
        <time>2014-09-12T10:26:16Z</time>
      </trkpt>
      <trkpt lat="44.38811" lon="4.817">
        <ele>191.6</ele>
        <time>2014-09-12T10:26:25Z</time>
      </trkpt>
      <trkpt lat="44.38813" lon="4.81702">
        <ele>191.6</ele>
        <time>2014-09-12T10:26:26Z</time>
      </trkpt>
      <trkpt lat="44.38815" lon="4.81704">
        <ele>191.6</ele>
        <time>2014-09-12T10:26:27Z</time>
      </trkpt>
      <trkpt lat="44.38817" lon="4.81705">
        <ele>191.6</ele>
        <time>2014-09-12T10:26:28Z</time>
      </trkpt>
      <trkpt lat="44.38818" lon="4.81707">
        <ele>191.6</ele>
        <time>2014-09-12T10:26:29Z</time>
      </trkpt>
      <trkpt lat="44.38819" lon="4.81708">
        <ele>191.6</ele>
        <time>2014-09-12T10:26:30Z</time>
      </trkpt>
      <trkpt lat="44.38821" lon="4.8171">
        <ele>191.6</ele>
        <time>2014-09-12T10:26:31Z</time>
      </trkpt>
      <trkpt lat="44.38822" lon="4.81712">
        <ele>191.6</ele>
        <time>2014-09-12T10:26:32Z</time>
      </trkpt>
      <trkpt lat="44.38822" lon="4.81713">
        <ele>191.6</ele>
        <time>2014-09-12T10:26:33Z</time>
      </trkpt>
      <trkpt lat="44.38823" lon="4.81715">
        <ele>191.6</ele>
        <time>2014-09-12T10:26:34Z</time>
      </trkpt>
      <trkpt lat="44.38824" lon="4.81716">
        <ele>191.6</ele>
        <time>2014-09-12T10:26:35Z</time>
      </trkpt>
      <trkpt lat="44.38829" lon="4.81718">
        <ele>191.6</ele>
        <time>2014-09-12T10:26:39Z</time>
      </trkpt>
      <trkpt lat="44.3883" lon="4.81719">
        <ele>191.6</ele>
        <time>2014-09-12T10:26:40Z</time>
      </trkpt>
      <trkpt lat="44.38832" lon="4.8172">
        <ele>191.6</ele>
        <time>2014-09-12T10:26:41Z</time>
      </trkpt>
      <trkpt lat="44.38833" lon="4.8172">
        <ele>191.6</ele>
        <time>2014-09-12T10:26:42Z</time>
      </trkpt>
      <trkpt lat="44.38835" lon="4.81721">
        <ele>191.6</ele>
        <time>2014-09-12T10:26:43Z</time>
      </trkpt>
      <trkpt lat="44.38838" lon="4.81724">
        <ele>191.6</ele>
        <time>2014-09-12T10:26:46Z</time>
      </trkpt>
      <trkpt lat="44.38839" lon="4.81725">
        <ele>191.6</ele>
        <time>2014-09-12T10:26:47Z</time>
      </trkpt>
      <trkpt lat="44.38841" lon="4.81726">
        <ele>191.6</ele>
        <time>2014-09-12T10:26:48Z</time>
      </trkpt>
      <trkpt lat="44.38842" lon="4.81728">
        <ele>191.6</ele>
        <time>2014-09-12T10:26:49Z</time>
      </trkpt>
      <trkpt lat="44.38843" lon="4.81729">
        <ele>191.6</ele>
        <time>2014-09-12T10:26:50Z</time>
      </trkpt>
      <trkpt lat="44.38845" lon="4.8173">
        <ele>191.6</ele>
        <time>2014-09-12T10:26:51Z</time>
      </trkpt>
      <trkpt lat="44.38847" lon="4.81731">
        <ele>191.6</ele>
        <time>2014-09-12T10:26:52Z</time>
      </trkpt>
      <trkpt lat="44.38851" lon="4.81732">
        <ele>191.6</ele>
        <time>2014-09-12T10:27:07Z</time>
      </trkpt>
      <trkpt lat="44.38857" lon="4.81732">
        <ele>191.6</ele>
        <time>2014-09-12T10:27:38Z</time>
      </trkpt>
      <trkpt lat="44.38857" lon="4.81733">
        <ele>191.6</ele>
        <time>2014-09-12T10:28:07Z</time>
      </trkpt>
      <trkpt lat="44.38855" lon="4.81733">
        <ele>191.6</ele>
        <time>2014-09-12T10:28:40Z</time>
      </trkpt>
      <trkpt lat="44.38857" lon="4.8173">
        <ele>191.6</ele>
        <time>2014-09-12T10:29:47Z</time>
      </trkpt>
      <trkpt lat="44.38859" lon="4.8173">
        <ele>191.6</ele>
        <time>2014-09-12T10:30:25Z</time>
      </trkpt>
      <trkpt lat="44.38865" lon="4.81737">
        <ele>191.6</ele>
        <time>2014-09-12T10:30:40Z</time>
      </trkpt>
      <trkpt lat="44.38866" lon="4.81739">
        <ele>191.6</ele>
        <time>2014-09-12T10:30:41Z</time>
      </trkpt>
      <trkpt lat="44.38868" lon="4.8174">
        <ele>191.6</ele>
        <time>2014-09-12T10:30:42Z</time>
      </trkpt>
      <trkpt lat="44.38869" lon="4.81742">
        <ele>191.6</ele>
        <time>2014-09-12T10:30:43Z</time>
      </trkpt>
      <trkpt lat="44.38871" lon="4.81743">
        <ele>191.6</ele>
        <time>2014-09-12T10:30:44Z</time>
      </trkpt>
      <trkpt lat="44.38872" lon="4.81744">
        <ele>191.6</ele>
        <time>2014-09-12T10:30:45Z</time>
      </trkpt>
      <trkpt lat="44.38873" lon="4.81744">
        <ele>191.6</ele>
        <time>2014-09-12T10:30:46Z</time>
      </trkpt>
      <trkpt lat="44.38875" lon="4.81745">
        <ele>191.6</ele>
        <time>2014-09-12T10:30:47Z</time>
      </trkpt>
      <trkpt lat="44.38877" lon="4.81745">
        <ele>191.6</ele>
        <time>2014-09-12T10:30:48Z</time>
      </trkpt>
      <trkpt lat="44.38878" lon="4.81746">
        <ele>191.6</ele>
        <time>2014-09-12T10:30:49Z</time>
      </trkpt>
      <trkpt lat="44.3888" lon="4.81747">
        <ele>191.6</ele>
        <time>2014-09-12T10:30:50Z</time>
      </trkpt>
      <trkpt lat="44.38882" lon="4.81748">
        <ele>191.6</ele>
        <time>2014-09-12T10:30:51Z</time>
      </trkpt>
      <trkpt lat="44.38884" lon="4.81749">
        <ele>191.6</ele>
        <time>2014-09-12T10:30:52Z</time>
      </trkpt>
      <trkpt lat="44.38885" lon="4.81749">
        <ele>191.6</ele>
        <time>2014-09-12T10:30:53Z</time>
      </trkpt>
      <trkpt lat="44.38887" lon="4.81751">
        <ele>191.6</ele>
        <time>2014-09-12T10:30:54Z</time>
      </trkpt>
      <trkpt lat="44.3889" lon="4.81753">
        <ele>191.6</ele>
        <time>2014-09-12T10:30:56Z</time>
      </trkpt>
      <trkpt lat="44.38892" lon="4.81755">
        <ele>191.6</ele>
        <time>2014-09-12T10:30:57Z</time>
      </trkpt>
      <trkpt lat="44.38893" lon="4.81757">
        <ele>191.6</ele>
        <time>2014-09-12T10:30:58Z</time>
      </trkpt>
      <trkpt lat="44.38897" lon="4.81761">
        <ele>191.6</ele>
        <time>2014-09-12T10:31:00Z</time>
      </trkpt>
      <trkpt lat="44.38906" lon="4.81774">
        <ele>191.6</ele>
        <time>2014-09-12T10:31:07Z</time>
      </trkpt>
      <trkpt lat="44.38907" lon="4.81777">
        <ele>191.6</ele>
        <time>2014-09-12T10:31:08Z</time>
      </trkpt>
      <trkpt lat="44.38908" lon="4.81779">
        <ele>191.6</ele>
        <time>2014-09-12T10:31:09Z</time>
      </trkpt>
      <trkpt lat="44.38921" lon="4.81817">
        <ele>191.6</ele>
        <time>2014-09-12T10:31:24Z</time>
      </trkpt>
      <trkpt lat="44.38922" lon="4.8182">
        <ele>191.6</ele>
        <time>2014-09-12T10:31:25Z</time>
      </trkpt>
      <trkpt lat="44.38923" lon="4.81823">
        <ele>191.6</ele>
        <time>2014-09-12T10:31:26Z</time>
      </trkpt>
      <trkpt lat="44.38924" lon="4.81825">
        <ele>191.6</ele>
        <time>2014-09-12T10:31:27Z</time>
      </trkpt>
      <trkpt lat="44.38925" lon="4.81828">
        <ele>191.6</ele>
        <time>2014-09-12T10:31:28Z</time>
      </trkpt>
      <trkpt lat="44.38927" lon="4.81833">
        <ele>191.6</ele>
        <time>2014-09-12T10:31:30Z</time>
      </trkpt>
      <trkpt lat="44.38928" lon="4.81836">
        <ele>191.6</ele>
        <time>2014-09-12T10:31:31Z</time>
      </trkpt>
      <trkpt lat="44.3893" lon="4.81838">
        <ele>191.6</ele>
        <time>2014-09-12T10:31:32Z</time>
      </trkpt>
      <trkpt lat="44.38931" lon="4.81841">
        <ele>191.6</ele>
        <time>2014-09-12T10:31:33Z</time>
      </trkpt>
      <trkpt lat="44.38932" lon="4.81843">
        <ele>191.6</ele>
        <time>2014-09-12T10:31:34Z</time>
      </trkpt>
      <trkpt lat="44.38933" lon="4.81846">
        <ele>191.6</ele>
        <time>2014-09-12T10:31:35Z</time>
      </trkpt>
      <trkpt lat="44.38939" lon="4.81891">
        <ele>191.6</ele>
        <time>2014-09-12T10:31:52Z</time>
      </trkpt>
      <trkpt lat="44.38938" lon="4.81893">
        <ele>191.6</ele>
        <time>2014-09-12T10:31:53Z</time>
      </trkpt>
      <trkpt lat="44.38936" lon="4.81895">
        <ele>191.6</ele>
        <time>2014-09-12T10:31:54Z</time>
      </trkpt>
      <trkpt lat="44.38934" lon="4.81896">
        <ele>191.6</ele>
        <time>2014-09-12T10:31:55Z</time>
      </trkpt>
      <trkpt lat="44.38932" lon="4.81897">
        <ele>191.6</ele>
        <time>2014-09-12T10:31:56Z</time>
      </trkpt>
      <trkpt lat="44.3893" lon="4.81898">
        <ele>191.6</ele>
        <time>2014-09-12T10:31:57Z</time>
      </trkpt>
      <trkpt lat="44.38928" lon="4.819">
        <ele>191.6</ele>
        <time>2014-09-12T10:31:58Z</time>
      </trkpt>
      <trkpt lat="44.38926" lon="4.81901">
        <ele>191.6</ele>
        <time>2014-09-12T10:31:59Z</time>
      </trkpt>
      <trkpt lat="44.38917" lon="4.8191">
        <ele>191.6</ele>
        <time>2014-09-12T10:32:05Z</time>
      </trkpt>
      <trkpt lat="44.38915" lon="4.81912">
        <ele>191.6</ele>
        <time>2014-09-12T10:32:06Z</time>
      </trkpt>
      <trkpt lat="44.38914" lon="4.81915">
        <ele>191.6</ele>
        <time>2014-09-12T10:32:07Z</time>
      </trkpt>
      <trkpt lat="44.38913" lon="4.81917">
        <ele>191.6</ele>
        <time>2014-09-12T10:32:08Z</time>
      </trkpt>
      <trkpt lat="44.38912" lon="4.8192">
        <ele>191.6</ele>
        <time>2014-09-12T10:32:09Z</time>
      </trkpt>
      <trkpt lat="44.38909" lon="4.8193">
        <ele>191.6</ele>
        <time>2014-09-12T10:32:13Z</time>
      </trkpt>
      <trkpt lat="44.38908" lon="4.81933">
        <ele>191.6</ele>
        <time>2014-09-12T10:32:14Z</time>
      </trkpt>
      <trkpt lat="44.38908" lon="4.81937">
        <ele>191.6</ele>
        <time>2014-09-12T10:32:15Z</time>
      </trkpt>
      <trkpt lat="44.38907" lon="4.8194">
        <ele>191.6</ele>
        <time>2014-09-12T10:32:16Z</time>
      </trkpt>
      <trkpt lat="44.38907" lon="4.81943">
        <ele>191.6</ele>
        <time>2014-09-12T10:32:17Z</time>
      </trkpt>
      <trkpt lat="44.38905" lon="4.81961">
        <ele>191.6</ele>
        <time>2014-09-12T10:32:23Z</time>
      </trkpt>
      <trkpt lat="44.38905" lon="4.81964">
        <ele>191.6</ele>
        <time>2014-09-12T10:32:24Z</time>
      </trkpt>
      <trkpt lat="44.38905" lon="4.81967">
        <ele>191.6</ele>
        <time>2014-09-12T10:32:25Z</time>
      </trkpt>
      <trkpt lat="44.38905" lon="4.8197">
        <ele>191.6</ele>
        <time>2014-09-12T10:32:26Z</time>
      </trkpt>
      <trkpt lat="44.38905" lon="4.81973">
        <ele>191.6</ele>
        <time>2014-09-12T10:32:27Z</time>
      </trkpt>
      <trkpt lat="44.38905" lon="4.81976">
        <ele>191.6</ele>
        <time>2014-09-12T10:32:28Z</time>
      </trkpt>
      <trkpt lat="44.38905" lon="4.81979">
        <ele>191.6</ele>
        <time>2014-09-12T10:32:29Z</time>
      </trkpt>
      <trkpt lat="44.38905" lon="4.81982">
        <ele>191.6</ele>
        <time>2014-09-12T10:32:30Z</time>
      </trkpt>
      <trkpt lat="44.38905" lon="4.81985">
        <ele>191.6</ele>
        <time>2014-09-12T10:32:31Z</time>
      </trkpt>
      <trkpt lat="44.38905" lon="4.81988">
        <ele>191.6</ele>
        <time>2014-09-12T10:32:32Z</time>
      </trkpt>
      <trkpt lat="44.38905" lon="4.81991">
        <ele>191.6</ele>
        <time>2014-09-12T10:32:33Z</time>
      </trkpt>
      <trkpt lat="44.38905" lon="4.81994">
        <ele>191.6</ele>
        <time>2014-09-12T10:32:34Z</time>
      </trkpt>
      <trkpt lat="44.38906" lon="4.81997">
        <ele>191.6</ele>
        <time>2014-09-12T10:32:35Z</time>
      </trkpt>
      <trkpt lat="44.38906" lon="4.82">
        <ele>191.6</ele>
        <time>2014-09-12T10:32:36Z</time>
      </trkpt>
      <trkpt lat="44.38906" lon="4.82002">
        <ele>191.6</ele>
        <time>2014-09-12T10:32:37Z</time>
      </trkpt>
      <trkpt lat="44.38907" lon="4.82005">
        <ele>191.6</ele>
        <time>2014-09-12T10:32:38Z</time>
      </trkpt>
      <trkpt lat="44.38907" lon="4.82008">
        <ele>191.6</ele>
        <time>2014-09-12T10:32:39Z</time>
      </trkpt>
      <trkpt lat="44.38908" lon="4.82011">
        <ele>191.6</ele>
        <time>2014-09-12T10:32:40Z</time>
      </trkpt>
      <trkpt lat="44.38908" lon="4.82014">
        <ele>191.6</ele>
        <time>2014-09-12T10:32:41Z</time>
      </trkpt>
      <trkpt lat="44.38909" lon="4.82026">
        <ele>191.6</ele>
        <time>2014-09-12T10:32:45Z</time>
      </trkpt>
      <trkpt lat="44.3891" lon="4.82029">
        <ele>191.6</ele>
        <time>2014-09-12T10:32:46Z</time>
      </trkpt>
      <trkpt lat="44.3891" lon="4.82032">
        <ele>191.6</ele>
        <time>2014-09-12T10:32:47Z</time>
      </trkpt>
      <trkpt lat="44.38911" lon="4.82035">
        <ele>191.6</ele>
        <time>2014-09-12T10:32:48Z</time>
      </trkpt>
      <trkpt lat="44.38911" lon="4.82039">
        <ele>191.6</ele>
        <time>2014-09-12T10:32:49Z</time>
      </trkpt>
      <trkpt lat="44.38912" lon="4.82042">
        <ele>191.6</ele>
        <time>2014-09-12T10:32:50Z</time>
      </trkpt>
      <trkpt lat="44.38912" lon="4.82045">
        <ele>191.6</ele>
        <time>2014-09-12T10:32:51Z</time>
      </trkpt>
      <trkpt lat="44.38913" lon="4.82051">
        <ele>191.6</ele>
        <time>2014-09-12T10:32:53Z</time>
      </trkpt>
      <trkpt lat="44.38914" lon="4.82054">
        <ele>191.6</ele>
        <time>2014-09-12T10:32:54Z</time>
      </trkpt>
      <trkpt lat="44.38914" lon="4.82056">
        <ele>191.6</ele>
        <time>2014-09-12T10:32:55Z</time>
      </trkpt>
      <trkpt lat="44.38919" lon="4.82079">
        <ele>191.6</ele>
        <time>2014-09-12T10:33:04Z</time>
      </trkpt>
      <trkpt lat="44.38934" lon="4.82109">
        <ele>191.6</ele>
        <time>2014-09-12T10:33:19Z</time>
      </trkpt>
      <trkpt lat="44.38949" lon="4.82128">
        <ele>191.6</ele>
        <time>2014-09-12T10:33:31Z</time>
      </trkpt>
      <trkpt lat="44.3895" lon="4.82129">
        <ele>191.6</ele>
        <time>2014-09-12T10:33:32Z</time>
      </trkpt>
      <trkpt lat="44.38951" lon="4.82131">
        <ele>191.6</ele>
        <time>2014-09-12T10:33:33Z</time>
      </trkpt>
      <trkpt lat="44.38965" lon="4.82152">
        <ele>191.6</ele>
        <time>2014-09-12T10:33:47Z</time>
      </trkpt>
      <trkpt lat="44.38967" lon="4.82155">
        <ele>191.6</ele>
        <time>2014-09-12T10:33:49Z</time>
      </trkpt>
      <trkpt lat="44.38968" lon="4.82156">
        <ele>191.6</ele>
        <time>2014-09-12T10:33:50Z</time>
      </trkpt>
      <trkpt lat="44.38969" lon="4.82158">
        <ele>191.6</ele>
        <time>2014-09-12T10:33:51Z</time>
      </trkpt>
      <trkpt lat="44.38982" lon="4.82175">
        <ele>191.6</ele>
        <time>2014-09-12T10:34:01Z</time>
      </trkpt>
      <trkpt lat="44.38983" lon="4.82176">
        <ele>191.6</ele>
        <time>2014-09-12T10:34:02Z</time>
      </trkpt>
      <trkpt lat="44.38984" lon="4.82178">
        <ele>191.6</ele>
        <time>2014-09-12T10:34:03Z</time>
      </trkpt>
      <trkpt lat="44.38986" lon="4.82179">
        <ele>191.6</ele>
        <time>2014-09-12T10:34:04Z</time>
      </trkpt>
      <trkpt lat="44.38987" lon="4.82181">
        <ele>191.6</ele>
        <time>2014-09-12T10:34:05Z</time>
      </trkpt>
      <trkpt lat="44.38989" lon="4.82182">
        <ele>191.6</ele>
        <time>2014-09-12T10:34:06Z</time>
      </trkpt>
      <trkpt lat="44.38991" lon="4.82186">
        <ele>191.6</ele>
        <time>2014-09-12T10:34:08Z</time>
      </trkpt>
      <trkpt lat="44.38997" lon="4.82192">
        <ele>191.6</ele>
        <time>2014-09-12T10:34:12Z</time>
      </trkpt>
      <trkpt lat="44.39006" lon="4.82203">
        <ele>191.6</ele>
        <time>2014-09-12T10:34:19Z</time>
      </trkpt>
      <trkpt lat="44.39007" lon="4.82205">
        <ele>191.6</ele>
        <time>2014-09-12T10:34:20Z</time>
      </trkpt>
      <trkpt lat="44.39009" lon="4.82207">
        <ele>191.6</ele>
        <time>2014-09-12T10:34:21Z</time>
      </trkpt>
      <trkpt lat="44.39014" lon="4.82212">
        <ele>191.6</ele>
        <time>2014-09-12T10:34:24Z</time>
      </trkpt>
      <trkpt lat="44.39015" lon="4.82214">
        <ele>191.6</ele>
        <time>2014-09-12T10:34:25Z</time>
      </trkpt>
      <trkpt lat="44.39017" lon="4.82215">
        <ele>191.6</ele>
        <time>2014-09-12T10:34:26Z</time>
      </trkpt>
      <trkpt lat="44.3902" lon="4.82217">
        <ele>191.6</ele>
        <time>2014-09-12T10:34:28Z</time>
      </trkpt>
      <trkpt lat="44.39027" lon="4.82223">
        <ele>191.6</ele>
        <time>2014-09-12T10:34:33Z</time>
      </trkpt>
      <trkpt lat="44.39029" lon="4.82225">
        <ele>191.6</ele>
        <time>2014-09-12T10:34:34Z</time>
      </trkpt>
      <trkpt lat="44.3903" lon="4.82226">
        <ele>191.6</ele>
        <time>2014-09-12T10:34:35Z</time>
      </trkpt>
      <trkpt lat="44.39031" lon="4.82227">
        <ele>191.6</ele>
        <time>2014-09-12T10:34:36Z</time>
      </trkpt>
      <trkpt lat="44.39033" lon="4.82229">
        <ele>191.6</ele>
        <time>2014-09-12T10:34:37Z</time>
      </trkpt>
      <trkpt lat="44.39034" lon="4.8223">
        <ele>191.6</ele>
        <time>2014-09-12T10:34:38Z</time>
      </trkpt>
      <trkpt lat="44.39036" lon="4.82231">
        <ele>191.6</ele>
        <time>2014-09-12T10:34:39Z</time>
      </trkpt>
      <trkpt lat="44.39037" lon="4.82233">
        <ele>191.6</ele>
        <time>2014-09-12T10:34:40Z</time>
      </trkpt>
      <trkpt lat="44.39038" lon="4.82234">
        <ele>191.6</ele>
        <time>2014-09-12T10:34:41Z</time>
      </trkpt>
      <trkpt lat="44.39038" lon="4.82237">
        <ele>191.6</ele>
        <time>2014-09-12T10:34:42Z</time>
      </trkpt>
      <trkpt lat="44.39038" lon="4.82239">
        <ele>191.6</ele>
        <time>2014-09-12T10:34:43Z</time>
      </trkpt>
      <trkpt lat="44.39037" lon="4.82241">
        <ele>191.6</ele>
        <time>2014-09-12T10:34:44Z</time>
      </trkpt>
      <trkpt lat="44.39035" lon="4.82245">
        <ele>191.6</ele>
        <time>2014-09-12T10:34:47Z</time>
      </trkpt>
      <trkpt lat="44.39026" lon="4.82252">
        <ele>191.6</ele>
        <time>2014-09-12T10:34:53Z</time>
      </trkpt>
      <trkpt lat="44.39023" lon="4.82266">
        <ele>191.6</ele>
        <time>2014-09-12T10:35:02Z</time>
      </trkpt>
      <trkpt lat="44.39024" lon="4.82272">
        <ele>191.6</ele>
        <time>2014-09-12T10:35:07Z</time>
      </trkpt>
      <trkpt lat="44.39024" lon="4.82286">
        <ele>191.6</ele>
        <time>2014-09-12T10:35:16Z</time>
      </trkpt>
      <trkpt lat="44.39025" lon="4.82305">
        <ele>191.6</ele>
        <time>2014-09-12T10:35:31Z</time>
      </trkpt>
      <trkpt lat="44.39025" lon="4.82309">
        <ele>191.6</ele>
        <time>2014-09-12T10:35:49Z</time>
      </trkpt>
      <trkpt lat="44.39025" lon="4.82311">
        <ele>191.6</ele>
        <time>2014-09-12T10:36:18Z</time>
      </trkpt>
      <trkpt lat="44.39025" lon="4.82313">
        <ele>191.6</ele>
        <time>2014-09-12T10:36:20Z</time>
      </trkpt>
      <trkpt lat="44.39022" lon="4.82331">
        <ele>191.6</ele>
        <time>2014-09-12T10:36:29Z</time>
      </trkpt>
      <trkpt lat="44.39019" lon="4.82343">
        <ele>191.6</ele>
        <time>2014-09-12T10:36:33Z</time>
      </trkpt>
      <trkpt lat="44.39018" lon="4.82346">
        <ele>191.6</ele>
        <time>2014-09-12T10:36:34Z</time>
      </trkpt>
      <trkpt lat="44.39017" lon="4.8235">
        <ele>191.6</ele>
        <time>2014-09-12T10:36:35Z</time>
      </trkpt>
      <trkpt lat="44.39016" lon="4.82354">
        <ele>191.6</ele>
        <time>2014-09-12T10:36:36Z</time>
      </trkpt>
      <trkpt lat="44.39015" lon="4.82358">
        <ele>191.6</ele>
        <time>2014-09-12T10:36:37Z</time>
      </trkpt>
      <trkpt lat="44.39014" lon="4.82361">
        <ele>191.6</ele>
        <time>2014-09-12T10:36:38Z</time>
      </trkpt>
      <trkpt lat="44.39013" lon="4.82364">
        <ele>191.6</ele>
        <time>2014-09-12T10:36:39Z</time>
      </trkpt>
      <trkpt lat="44.39013" lon="4.82368">
        <ele>191.6</ele>
        <time>2014-09-12T10:36:40Z</time>
      </trkpt>
      <trkpt lat="44.39012" lon="4.82371">
        <ele>191.6</ele>
        <time>2014-09-12T10:36:41Z</time>
      </trkpt>
      <trkpt lat="44.39011" lon="4.82376">
        <ele>191.6</ele>
        <time>2014-09-12T10:36:43Z</time>
      </trkpt>
      <trkpt lat="44.39011" lon="4.82379">
        <ele>191.6</ele>
        <time>2014-09-12T10:36:44Z</time>
      </trkpt>
      <trkpt lat="44.39011" lon="4.82381">
        <ele>191.6</ele>
        <time>2014-09-12T10:36:45Z</time>
      </trkpt>
      <trkpt lat="44.39013" lon="4.82385">
        <ele>191.6</ele>
        <time>2014-09-12T10:36:47Z</time>
      </trkpt>
      <trkpt lat="44.39028" lon="4.82391">
        <ele>191.6</ele>
        <time>2014-09-12T10:36:53Z</time>
      </trkpt>
      <trkpt lat="44.39043" lon="4.82395">
        <ele>191.6</ele>
        <time>2014-09-12T10:36:57Z</time>
      </trkpt>
      <trkpt lat="44.39098" lon="4.82409">
        <ele>191.6</ele>
        <time>2014-09-12T10:37:16Z</time>
      </trkpt>
      <trkpt lat="44.39101" lon="4.8241">
        <ele>191.6</ele>
        <time>2014-09-12T10:37:17Z</time>
      </trkpt>
      <trkpt lat="44.39123" lon="4.82417">
        <ele>191.6</ele>
        <time>2014-09-12T10:37:25Z</time>
      </trkpt>
      <trkpt lat="44.39155" lon="4.82432">
        <ele>191.6</ele>
        <time>2014-09-12T10:37:38Z</time>
      </trkpt>
      <trkpt lat="44.39161" lon="4.82429">
        <ele>191.6</ele>
        <time>2014-09-12T10:37:40Z</time>
      </trkpt>
      <trkpt lat="44.39185" lon="4.8243">
        <ele>191.6</ele>
        <time>2014-09-12T10:37:54Z</time>
      </trkpt>
      <trkpt lat="44.39191" lon="4.82438">
        <ele>191.6</ele>
        <time>2014-09-12T10:37:59Z</time>
      </trkpt>
      <trkpt lat="44.39201" lon="4.82459">
        <ele>191.6</ele>
        <time>2014-09-12T10:38:13Z</time>
      </trkpt>
      <trkpt lat="44.39202" lon="4.82457">
        <ele>191.6</ele>
        <time>2014-09-12T10:38:26Z</time>
      </trkpt>
      <trkpt lat="44.39203" lon="4.82447">
        <ele>191.6</ele>
        <time>2014-09-12T10:38:30Z</time>
      </trkpt>
      <trkpt lat="44.39204" lon="4.82444">
        <ele>191.6</ele>
        <time>2014-09-12T10:38:31Z</time>
      </trkpt>
      <trkpt lat="44.39205" lon="4.82441">
        <ele>191.6</ele>
        <time>2014-09-12T10:38:32Z</time>
      </trkpt>
      <trkpt lat="44.39205" lon="4.82438">
        <ele>191.6</ele>
        <time>2014-09-12T10:38:33Z</time>
      </trkpt>
      <trkpt lat="44.39206" lon="4.82435">
        <ele>191.6</ele>
        <time>2014-09-12T10:38:34Z</time>
      </trkpt>
      <trkpt lat="44.39206" lon="4.82432">
        <ele>191.6</ele>
        <time>2014-09-12T10:38:35Z</time>
      </trkpt>
      <trkpt lat="44.39203" lon="4.82399">
        <ele>191.6</ele>
        <time>2014-09-12T10:38:46Z</time>
      </trkpt>
      <trkpt lat="44.39203" lon="4.82396">
        <ele>191.6</ele>
        <time>2014-09-12T10:38:47Z</time>
      </trkpt>
      <trkpt lat="44.39205" lon="4.82394">
        <ele>191.6</ele>
        <time>2014-09-12T10:38:48Z</time>
      </trkpt>
      <trkpt lat="44.39206" lon="4.82392">
        <ele>191.6</ele>
        <time>2014-09-12T10:38:49Z</time>
      </trkpt>
      <trkpt lat="44.39208" lon="4.82392">
        <ele>191.6</ele>
        <time>2014-09-12T10:38:50Z</time>
      </trkpt>
      <trkpt lat="44.39209" lon="4.82392">
        <ele>191.6</ele>
        <time>2014-09-12T10:38:51Z</time>
      </trkpt>
      <trkpt lat="44.39211" lon="4.82392">
        <ele>191.6</ele>
        <time>2014-09-12T10:38:52Z</time>
      </trkpt>
      <trkpt lat="44.39212" lon="4.82393">
        <ele>191.6</ele>
        <time>2014-09-12T10:38:53Z</time>
      </trkpt>
      <trkpt lat="44.39214" lon="4.82394">
        <ele>191.6</ele>
        <time>2014-09-12T10:38:54Z</time>
      </trkpt>
      <trkpt lat="44.39216" lon="4.82396">
        <ele>191.6</ele>
        <time>2014-09-12T10:38:55Z</time>
      </trkpt>
      <trkpt lat="44.39218" lon="4.82397">
        <ele>191.6</ele>
        <time>2014-09-12T10:38:56Z</time>
      </trkpt>
      <trkpt lat="44.3922" lon="4.82399">
        <ele>191.6</ele>
        <time>2014-09-12T10:38:57Z</time>
      </trkpt>
      <trkpt lat="44.39226" lon="4.82407">
        <ele>191.6</ele>
        <time>2014-09-12T10:39:01Z</time>
      </trkpt>
      <trkpt lat="44.39227" lon="4.8241">
        <ele>191.6</ele>
        <time>2014-09-12T10:39:02Z</time>
      </trkpt>
      <trkpt lat="44.39229" lon="4.82412">
        <ele>191.6</ele>
        <time>2014-09-12T10:39:03Z</time>
      </trkpt>
      <trkpt lat="44.39231" lon="4.82414">
        <ele>191.6</ele>
        <time>2014-09-12T10:39:04Z</time>
      </trkpt>
      <trkpt lat="44.39233" lon="4.82416">
        <ele>191.6</ele>
        <time>2014-09-12T10:39:05Z</time>
      </trkpt>
      <trkpt lat="44.39235" lon="4.82418">
        <ele>191.6</ele>
        <time>2014-09-12T10:39:06Z</time>
      </trkpt>
      <trkpt lat="44.39238" lon="4.8242">
        <ele>191.6</ele>
        <time>2014-09-12T10:39:07Z</time>
      </trkpt>
      <trkpt lat="44.3924" lon="4.82423">
        <ele>191.6</ele>
        <time>2014-09-12T10:39:08Z</time>
      </trkpt>
      <trkpt lat="44.39242" lon="4.82425">
        <ele>191.6</ele>
        <time>2014-09-12T10:39:09Z</time>
      </trkpt>
      <trkpt lat="44.39251" lon="4.82435">
        <ele>191.6</ele>
        <time>2014-09-12T10:39:13Z</time>
      </trkpt>
      <trkpt lat="44.39254" lon="4.82436">
        <ele>191.6</ele>
        <time>2014-09-12T10:39:14Z</time>
      </trkpt>
      <trkpt lat="44.39261" lon="4.82443">
        <ele>191.6</ele>
        <time>2014-09-12T10:39:17Z</time>
      </trkpt>
      <trkpt lat="44.39265" lon="4.82445">
        <ele>191.6</ele>
        <time>2014-09-12T10:39:18Z</time>
      </trkpt>
      <trkpt lat="44.39311" lon="4.82458">
        <ele>191.6</ele>
        <time>2014-09-12T10:39:30Z</time>
      </trkpt>
      <trkpt lat="44.3932" lon="4.82465">
        <ele>191.6</ele>
        <time>2014-09-12T10:39:33Z</time>
      </trkpt>
      <trkpt lat="44.39323" lon="4.82468">
        <ele>191.6</ele>
        <time>2014-09-12T10:39:34Z</time>
      </trkpt>
      <trkpt lat="44.39327" lon="4.8247">
        <ele>191.6</ele>
        <time>2014-09-12T10:39:35Z</time>
      </trkpt>
      <trkpt lat="44.39353" lon="4.82488">
        <ele>191.6</ele>
        <time>2014-09-12T10:39:43Z</time>
      </trkpt>
      <trkpt lat="44.39357" lon="4.8249">
        <ele>191.6</ele>
        <time>2014-09-12T10:39:44Z</time>
      </trkpt>
      <trkpt lat="44.39375" lon="4.82501">
        <ele>191.6</ele>
        <time>2014-09-12T10:39:49Z</time>
      </trkpt>
      <trkpt lat="44.39382" lon="4.82503">
        <ele>191.6</ele>
        <time>2014-09-12T10:39:51Z</time>
      </trkpt>
      <trkpt lat="44.39385" lon="4.82504">
        <ele>191.6</ele>
        <time>2014-09-12T10:39:52Z</time>
      </trkpt>
      <trkpt lat="44.39388" lon="4.82505">
        <ele>191.6</ele>
        <time>2014-09-12T10:39:53Z</time>
      </trkpt>
      <trkpt lat="44.39391" lon="4.82506">
        <ele>191.6</ele>
        <time>2014-09-12T10:39:54Z</time>
      </trkpt>
      <trkpt lat="44.39395" lon="4.82508">
        <ele>191.6</ele>
        <time>2014-09-12T10:39:55Z</time>
      </trkpt>
      <trkpt lat="44.39401" lon="4.82512">
        <ele>191.6</ele>
        <time>2014-09-12T10:39:57Z</time>
      </trkpt>
      <trkpt lat="44.39404" lon="4.82514">
        <ele>191.6</ele>
        <time>2014-09-12T10:39:58Z</time>
      </trkpt>
      <trkpt lat="44.39408" lon="4.82517">
        <ele>191.6</ele>
        <time>2014-09-12T10:39:59Z</time>
      </trkpt>
      <trkpt lat="44.39412" lon="4.8252">
        <ele>191.6</ele>
        <time>2014-09-12T10:40:00Z</time>
      </trkpt>
      <trkpt lat="44.39417" lon="4.82522">
        <ele>191.6</ele>
        <time>2014-09-12T10:40:01Z</time>
      </trkpt>
      <trkpt lat="44.39425" lon="4.82529">
        <ele>191.6</ele>
        <time>2014-09-12T10:40:03Z</time>
      </trkpt>
      <trkpt lat="44.39429" lon="4.82533">
        <ele>191.6</ele>
        <time>2014-09-12T10:40:04Z</time>
      </trkpt>
      <trkpt lat="44.39433" lon="4.82536">
        <ele>191.6</ele>
        <time>2014-09-12T10:40:05Z</time>
      </trkpt>
      <trkpt lat="44.39437" lon="4.8254">
        <ele>191.6</ele>
        <time>2014-09-12T10:40:06Z</time>
      </trkpt>
      <trkpt lat="44.3944" lon="4.82544">
        <ele>191.6</ele>
        <time>2014-09-12T10:40:07Z</time>
      </trkpt>
      <trkpt lat="44.39444" lon="4.82549">
        <ele>191.6</ele>
        <time>2014-09-12T10:40:08Z</time>
      </trkpt>
      <trkpt lat="44.39446" lon="4.82554">
        <ele>191.6</ele>
        <time>2014-09-12T10:40:09Z</time>
      </trkpt>
      <trkpt lat="44.39452" lon="4.8257">
        <ele>191.6</ele>
        <time>2014-09-12T10:40:12Z</time>
      </trkpt>
      <trkpt lat="44.39457" lon="4.82582">
        <ele>191.6</ele>
        <time>2014-09-12T10:40:14Z</time>
      </trkpt>
      <trkpt lat="44.3946" lon="4.82587">
        <ele>191.61</ele>
        <time>2014-09-12T10:40:15Z</time>
      </trkpt>
      <trkpt lat="44.39463" lon="4.82592">
        <ele>191.61</ele>
        <time>2014-09-12T10:40:16Z</time>
      </trkpt>
      <trkpt lat="44.39469" lon="4.826">
        <ele>191.61</ele>
        <time>2014-09-12T10:40:18Z</time>
      </trkpt>
      <trkpt lat="44.3948" lon="4.8261">
        <ele>191.61</ele>
        <time>2014-09-12T10:40:21Z</time>
      </trkpt>
      <trkpt lat="44.39484" lon="4.82615">
        <ele>191.61</ele>
        <time>2014-09-12T10:40:22Z</time>
      </trkpt>
      <trkpt lat="44.39509" lon="4.82656">
        <ele>191.61</ele>
        <time>2014-09-12T10:40:30Z</time>
      </trkpt>
      <trkpt lat="44.39513" lon="4.82659">
        <ele>191.61</ele>
        <time>2014-09-12T10:40:31Z</time>
      </trkpt>
      <trkpt lat="44.39521" lon="4.82664">
        <ele>191.61</ele>
        <time>2014-09-12T10:40:33Z</time>
      </trkpt>
      <trkpt lat="44.39526" lon="4.82666">
        <ele>191.61</ele>
        <time>2014-09-12T10:40:34Z</time>
      </trkpt>
      <trkpt lat="44.39551" lon="4.82672">
        <ele>191.61</ele>
        <time>2014-09-12T10:40:39Z</time>
      </trkpt>
      <trkpt lat="44.39556" lon="4.82675">
        <ele>191.61</ele>
        <time>2014-09-12T10:40:40Z</time>
      </trkpt>
      <trkpt lat="44.3956" lon="4.82679">
        <ele>191.61</ele>
        <time>2014-09-12T10:40:41Z</time>
      </trkpt>
      <trkpt lat="44.39568" lon="4.82687">
        <ele>191.61</ele>
        <time>2014-09-12T10:40:43Z</time>
      </trkpt>
      <trkpt lat="44.39571" lon="4.82692">
        <ele>191.61</ele>
        <time>2014-09-12T10:40:44Z</time>
      </trkpt>
      <trkpt lat="44.39575" lon="4.82697">
        <ele>191.61</ele>
        <time>2014-09-12T10:40:45Z</time>
      </trkpt>
      <trkpt lat="44.39583" lon="4.82704">
        <ele>191.61</ele>
        <time>2014-09-12T10:40:47Z</time>
      </trkpt>
      <trkpt lat="44.39587" lon="4.82706">
        <ele>191.61</ele>
        <time>2014-09-12T10:40:48Z</time>
      </trkpt>
      <trkpt lat="44.39596" lon="4.8271">
        <ele>191.61</ele>
        <time>2014-09-12T10:40:50Z</time>
      </trkpt>
      <trkpt lat="44.39605" lon="4.82713">
        <ele>191.61</ele>
        <time>2014-09-12T10:40:52Z</time>
      </trkpt>
      <trkpt lat="44.39653" lon="4.82737">
        <ele>191.61</ele>
        <time>2014-09-12T10:41:04Z</time>
      </trkpt>
      <trkpt lat="44.39655" lon="4.82738">
        <ele>191.61</ele>
        <time>2014-09-12T10:41:05Z</time>
      </trkpt>
      <trkpt lat="44.39656" lon="4.8274">
        <ele>191.61</ele>
        <time>2014-09-12T10:41:06Z</time>
      </trkpt>
      <trkpt lat="44.39657" lon="4.82742">
        <ele>191.61</ele>
        <time>2014-09-12T10:41:07Z</time>
      </trkpt>
      <trkpt lat="44.39658" lon="4.82745">
        <ele>191.61</ele>
        <time>2014-09-12T10:41:08Z</time>
      </trkpt>
      <trkpt lat="44.39659" lon="4.82747">
        <ele>191.61</ele>
        <time>2014-09-12T10:41:09Z</time>
      </trkpt>
      <trkpt lat="44.39662" lon="4.82748">
        <ele>191.61</ele>
        <time>2014-09-12T10:41:10Z</time>
      </trkpt>
      <trkpt lat="44.39664" lon="4.8275">
        <ele>191.61</ele>
        <time>2014-09-12T10:41:11Z</time>
      </trkpt>
      <trkpt lat="44.39667" lon="4.82751">
        <ele>191.61</ele>
        <time>2014-09-12T10:41:12Z</time>
      </trkpt>
      <trkpt lat="44.3967" lon="4.82752">
        <ele>191.61</ele>
        <time>2014-09-12T10:41:13Z</time>
      </trkpt>
      <trkpt lat="44.39673" lon="4.82754">
        <ele>191.61</ele>
        <time>2014-09-12T10:41:14Z</time>
      </trkpt>
      <trkpt lat="44.39677" lon="4.82756">
        <ele>191.61</ele>
        <time>2014-09-12T10:41:15Z</time>
      </trkpt>
      <trkpt lat="44.3968" lon="4.82758">
        <ele>191.61</ele>
        <time>2014-09-12T10:41:16Z</time>
      </trkpt>
      <trkpt lat="44.39683" lon="4.82759">
        <ele>191.61</ele>
        <time>2014-09-12T10:41:17Z</time>
      </trkpt>
      <trkpt lat="44.39685" lon="4.82761">
        <ele>191.61</ele>
        <time>2014-09-12T10:41:18Z</time>
      </trkpt>
      <trkpt lat="44.39688" lon="4.82763">
        <ele>191.61</ele>
        <time>2014-09-12T10:41:19Z</time>
      </trkpt>
      <trkpt lat="44.39702" lon="4.828">
        <ele>191.61</ele>
        <time>2014-09-12T10:41:29Z</time>
      </trkpt>
      <trkpt lat="44.39709" lon="4.82845">
        <ele>191.61</ele>
        <time>2014-09-12T10:41:37Z</time>
      </trkpt>
      <trkpt lat="44.39713" lon="4.82874">
        <ele>191.61</ele>
        <time>2014-09-12T10:41:43Z</time>
      </trkpt>
      <trkpt lat="44.39719" lon="4.82897">
        <ele>191.61</ele>
        <time>2014-09-12T10:41:48Z</time>
      </trkpt>
      <trkpt lat="44.39736" lon="4.82949">
        <ele>191.61</ele>
        <time>2014-09-12T10:41:59Z</time>
      </trkpt>
      <trkpt lat="44.3975" lon="4.82998">
        <ele>191.61</ele>
        <time>2014-09-12T10:42:08Z</time>
      </trkpt>
      <trkpt lat="44.39766" lon="4.83064">
        <ele>191.61</ele>
        <time>2014-09-12T10:42:20Z</time>
      </trkpt>
      <trkpt lat="44.39778" lon="4.83093">
        <ele>191.61</ele>
        <time>2014-09-12T10:42:25Z</time>
      </trkpt>
      <trkpt lat="44.39795" lon="4.83128">
        <ele>191.61</ele>
        <time>2014-09-12T10:42:34Z</time>
      </trkpt>
      <trkpt lat="44.39816" lon="4.83169">
        <ele>191.61</ele>
        <time>2014-09-12T10:42:44Z</time>
      </trkpt>
      <trkpt lat="44.39823" lon="4.83194">
        <ele>191.61</ele>
        <time>2014-09-12T10:42:47Z</time>
      </trkpt>
      <trkpt lat="44.39832" lon="4.83232">
        <ele>191.61</ele>
        <time>2014-09-12T10:42:52Z</time>
      </trkpt>
      <trkpt lat="44.39833" lon="4.83238">
        <ele>191.61</ele>
        <time>2014-09-12T10:42:53Z</time>
      </trkpt>
      <trkpt lat="44.39838" lon="4.83256">
        <ele>191.61</ele>
        <time>2014-09-12T10:42:56Z</time>
      </trkpt>
      <trkpt lat="44.39849" lon="4.83289">
        <ele>191.61</ele>
        <time>2014-09-12T10:43:02Z</time>
      </trkpt>
      <trkpt lat="44.39863" lon="4.83343">
        <ele>191.61</ele>
        <time>2014-09-12T10:43:10Z</time>
      </trkpt>
      <trkpt lat="44.39864" lon="4.83381">
        <ele>191.61</ele>
        <time>2014-09-12T10:43:15Z</time>
      </trkpt>
      <trkpt lat="44.39863" lon="4.83399">
        <ele>191.61</ele>
        <time>2014-09-12T10:43:18Z</time>
      </trkpt>
      <trkpt lat="44.39866" lon="4.83416">
        <ele>191.61</ele>
        <time>2014-09-12T10:43:21Z</time>
      </trkpt>
      <trkpt lat="44.39873" lon="4.83446">
        <ele>191.61</ele>
        <time>2014-09-12T10:43:26Z</time>
      </trkpt>
      <trkpt lat="44.39876" lon="4.83464">
        <ele>191.61</ele>
        <time>2014-09-12T10:43:29Z</time>
      </trkpt>
      <trkpt lat="44.39877" lon="4.83499">
        <ele>191.61</ele>
        <time>2014-09-12T10:43:35Z</time>
      </trkpt>
      <trkpt lat="44.39877" lon="4.8353">
        <ele>191.61</ele>
        <time>2014-09-12T10:43:41Z</time>
      </trkpt>
      <trkpt lat="44.39879" lon="4.83589">
        <ele>191.61</ele>
        <time>2014-09-12T10:43:52Z</time>
      </trkpt>
      <trkpt lat="44.39879" lon="4.83602">
        <ele>191.61</ele>
        <time>2014-09-12T10:43:54Z</time>
      </trkpt>
      <trkpt lat="44.39881" lon="4.83679">
        <ele>191.61</ele>
        <time>2014-09-12T10:44:06Z</time>
      </trkpt>
      <trkpt lat="44.39886" lon="4.83756">
        <ele>191.61</ele>
        <time>2014-09-12T10:44:17Z</time>
      </trkpt>
      <trkpt lat="44.3989" lon="4.83829">
        <ele>191.61</ele>
        <time>2014-09-12T10:44:27Z</time>
      </trkpt>
      <trkpt lat="44.3989" lon="4.83851">
        <ele>191.61</ele>
        <time>2014-09-12T10:44:30Z</time>
      </trkpt>
      <trkpt lat="44.399" lon="4.83917">
        <ele>191.61</ele>
        <time>2014-09-12T10:44:41Z</time>
      </trkpt>
      <trkpt lat="44.39905" lon="4.83943">
        <ele>191.61</ele>
        <time>2014-09-12T10:44:45Z</time>
      </trkpt>
      <trkpt lat="44.39909" lon="4.83972">
        <ele>191.61</ele>
        <time>2014-09-12T10:44:49Z</time>
      </trkpt>
      <trkpt lat="44.39917" lon="4.84033">
        <ele>191.61</ele>
        <time>2014-09-12T10:44:57Z</time>
      </trkpt>
      <trkpt lat="44.39916" lon="4.84046">
        <ele>191.61</ele>
        <time>2014-09-12T10:44:59Z</time>
      </trkpt>
      <trkpt lat="44.39932" lon="4.84137">
        <ele>191.61</ele>
        <time>2014-09-12T10:45:12Z</time>
      </trkpt>
      <trkpt lat="44.39936" lon="4.84164">
        <ele>191.61</ele>
        <time>2014-09-12T10:45:16Z</time>
      </trkpt>
      <trkpt lat="44.39941" lon="4.84205">
        <ele>191.61</ele>
        <time>2014-09-12T10:45:21Z</time>
      </trkpt>
      <trkpt lat="44.39961" lon="4.84297">
        <ele>191.61</ele>
        <time>2014-09-12T10:45:32Z</time>
      </trkpt>
      <trkpt lat="44.39994" lon="4.84373">
        <ele>191.61</ele>
        <time>2014-09-12T10:45:46Z</time>
      </trkpt>
      <trkpt lat="44.39994" lon="4.84375">
        <ele>191.61</ele>
        <time>2014-09-12T10:46:06Z</time>
      </trkpt>
      <trkpt lat="44.39999" lon="4.84386">
        <ele>191.61</ele>
        <time>2014-09-12T10:46:13Z</time>
      </trkpt>
      <trkpt lat="44.40019" lon="4.84434">
        <ele>191.61</ele>
        <time>2014-09-12T10:46:23Z</time>
      </trkpt>
      <trkpt lat="44.40024" lon="4.84445">
        <ele>191.61</ele>
        <time>2014-09-12T10:46:25Z</time>
      </trkpt>
      <trkpt lat="44.40032" lon="4.84461">
        <ele>191.61</ele>
        <time>2014-09-12T10:46:28Z</time>
      </trkpt>
      <trkpt lat="44.40052" lon="4.84498">
        <ele>191.62</ele>
        <time>2014-09-12T10:46:35Z</time>
      </trkpt>
      <trkpt lat="44.40064" lon="4.8452">
        <ele>191.62</ele>
        <time>2014-09-12T10:46:42Z</time>
      </trkpt>
      <trkpt lat="44.40084" lon="4.84557">
        <ele>191.62</ele>
        <time>2014-09-12T10:46:51Z</time>
      </trkpt>
      <trkpt lat="44.40093" lon="4.84571">
        <ele>191.62</ele>
        <time>2014-09-12T10:46:54Z</time>
      </trkpt>
      <trkpt lat="44.40102" lon="4.84583">
        <ele>191.62</ele>
        <time>2014-09-12T10:46:57Z</time>
      </trkpt>
      <trkpt lat="44.40117" lon="4.84612">
        <ele>191.62</ele>
        <time>2014-09-12T10:47:03Z</time>
      </trkpt>
      <trkpt lat="44.40124" lon="4.84623">
        <ele>191.62</ele>
        <time>2014-09-12T10:47:05Z</time>
      </trkpt>
      <trkpt lat="44.40131" lon="4.84641">
        <ele>191.62</ele>
        <time>2014-09-12T10:47:08Z</time>
      </trkpt>
      <trkpt lat="44.40161" lon="4.84693">
        <ele>191.62</ele>
        <time>2014-09-12T10:47:18Z</time>
      </trkpt>
      <trkpt lat="44.40196" lon="4.84754">
        <ele>191.62</ele>
        <time>2014-09-12T10:47:29Z</time>
      </trkpt>
      <trkpt lat="44.40218" lon="4.84794">
        <ele>191.62</ele>
        <time>2014-09-12T10:47:37Z</time>
      </trkpt>
      <trkpt lat="44.40231" lon="4.84819">
        <ele>191.62</ele>
        <time>2014-09-12T10:47:42Z</time>
      </trkpt>
      <trkpt lat="44.40236" lon="4.84829">
        <ele>191.62</ele>
        <time>2014-09-12T10:47:44Z</time>
      </trkpt>
      <trkpt lat="44.40256" lon="4.84857">
        <ele>191.62</ele>
        <time>2014-09-12T10:47:50Z</time>
      </trkpt>
      <trkpt lat="44.4027" lon="4.84873">
        <ele>191.62</ele>
        <time>2014-09-12T10:47:54Z</time>
      </trkpt>
      <trkpt lat="44.40274" lon="4.84877">
        <ele>191.62</ele>
        <time>2014-09-12T10:47:55Z</time>
      </trkpt>
      <trkpt lat="44.40293" lon="4.84905">
        <ele>191.62</ele>
        <time>2014-09-12T10:48:01Z</time>
      </trkpt>
      <trkpt lat="44.40309" lon="4.8492">
        <ele>191.62</ele>
        <time>2014-09-12T10:48:05Z</time>
      </trkpt>
      <trkpt lat="44.40337" lon="4.84946">
        <ele>191.62</ele>
        <time>2014-09-12T10:48:11Z</time>
      </trkpt>
      <trkpt lat="44.4038" lon="4.84986">
        <ele>191.62</ele>
        <time>2014-09-12T10:48:20Z</time>
      </trkpt>
      <trkpt lat="44.40389" lon="4.84996">
        <ele>191.62</ele>
        <time>2014-09-12T10:48:22Z</time>
      </trkpt>
      <trkpt lat="44.4043" lon="4.85038">
        <ele>191.62</ele>
        <time>2014-09-12T10:48:31Z</time>
      </trkpt>
      <trkpt lat="44.40441" lon="4.85049">
        <ele>191.62</ele>
        <time>2014-09-12T10:48:34Z</time>
      </trkpt>
      <trkpt lat="44.40456" lon="4.85064">
        <ele>191.62</ele>
        <time>2014-09-12T10:48:38Z</time>
      </trkpt>
      <trkpt lat="44.40465" lon="4.85072">
        <ele>191.62</ele>
        <time>2014-09-12T10:48:40Z</time>
      </trkpt>
      <trkpt lat="44.40482" lon="4.85087">
        <ele>191.62</ele>
        <time>2014-09-12T10:48:44Z</time>
      </trkpt>
      <trkpt lat="44.40512" lon="4.85106">
        <ele>191.62</ele>
        <time>2014-09-12T10:48:51Z</time>
      </trkpt>
      <trkpt lat="44.40526" lon="4.85117">
        <ele>191.62</ele>
        <time>2014-09-12T10:48:55Z</time>
      </trkpt>
      <trkpt lat="44.40536" lon="4.85122">
        <ele>191.62</ele>
        <time>2014-09-12T10:48:59Z</time>
      </trkpt>
      <trkpt lat="44.40541" lon="4.85124">
        <ele>191.62</ele>
        <time>2014-09-12T10:49:02Z</time>
      </trkpt>
      <trkpt lat="44.40547" lon="4.85122">
        <ele>191.62</ele>
        <time>2014-09-12T10:49:05Z</time>
      </trkpt>
      <trkpt lat="44.40578" lon="4.85118">
        <ele>191.62</ele>
        <time>2014-09-12T10:49:23Z</time>
      </trkpt>
      <trkpt lat="44.40589" lon="4.85119">
        <ele>191.62</ele>
        <time>2014-09-12T10:49:27Z</time>
      </trkpt>
      <trkpt lat="44.40607" lon="4.85129">
        <ele>191.62</ele>
        <time>2014-09-12T10:49:39Z</time>
      </trkpt>
      <trkpt lat="44.40608" lon="4.8513">
        <ele>191.62</ele>
        <time>2014-09-12T10:49:40Z</time>
      </trkpt>
      <trkpt lat="44.40618" lon="4.85141">
        <ele>191.62</ele>
        <time>2014-09-12T10:49:48Z</time>
      </trkpt>
      <trkpt lat="44.4062" lon="4.85143">
        <ele>191.62</ele>
        <time>2014-09-12T10:49:49Z</time>
      </trkpt>
      <trkpt lat="44.40622" lon="4.85144">
        <ele>191.62</ele>
        <time>2014-09-12T10:49:50Z</time>
      </trkpt>
      <trkpt lat="44.40628" lon="4.85145">
        <ele>191.62</ele>
        <time>2014-09-12T10:49:53Z</time>
      </trkpt>
      <trkpt lat="44.40631" lon="4.85145">
        <ele>191.62</ele>
        <time>2014-09-12T10:49:54Z</time>
      </trkpt>
      <trkpt lat="44.40633" lon="4.85146">
        <ele>191.62</ele>
        <time>2014-09-12T10:49:55Z</time>
      </trkpt>
      <trkpt lat="44.40635" lon="4.85148">
        <ele>191.62</ele>
        <time>2014-09-12T10:49:56Z</time>
      </trkpt>
      <trkpt lat="44.40637" lon="4.85149">
        <ele>191.62</ele>
        <time>2014-09-12T10:49:57Z</time>
      </trkpt>
      <trkpt lat="44.4064" lon="4.85153">
        <ele>191.62</ele>
        <time>2014-09-12T10:49:59Z</time>
      </trkpt>
      <trkpt lat="44.40643" lon="4.85156">
        <ele>191.62</ele>
        <time>2014-09-12T10:50:01Z</time>
      </trkpt>
      <trkpt lat="44.40644" lon="4.85159">
        <ele>191.62</ele>
        <time>2014-09-12T10:50:08Z</time>
      </trkpt>
      <trkpt lat="44.40645" lon="4.85161">
        <ele>191.62</ele>
        <time>2014-09-12T10:50:09Z</time>
      </trkpt>
      <trkpt lat="44.40647" lon="4.85165">
        <ele>191.62</ele>
        <time>2014-09-12T10:50:12Z</time>
      </trkpt>
      <trkpt lat="44.40653" lon="4.85198">
        <ele>191.62</ele>
        <time>2014-09-12T10:50:24Z</time>
      </trkpt>
      <trkpt lat="44.40654" lon="4.852">
        <ele>191.62</ele>
        <time>2014-09-12T10:50:25Z</time>
      </trkpt>
      <trkpt lat="44.40655" lon="4.85201">
        <ele>191.62</ele>
        <time>2014-09-12T10:50:26Z</time>
      </trkpt>
      <trkpt lat="44.40657" lon="4.85211">
        <ele>191.62</ele>
        <time>2014-09-12T10:50:30Z</time>
      </trkpt>
      <trkpt lat="44.40658" lon="4.85215">
        <ele>191.62</ele>
        <time>2014-09-12T10:50:31Z</time>
      </trkpt>
      <trkpt lat="44.40658" lon="4.85219">
        <ele>191.62</ele>
        <time>2014-09-12T10:50:32Z</time>
      </trkpt>
      <trkpt lat="44.40658" lon="4.85223">
        <ele>191.62</ele>
        <time>2014-09-12T10:50:33Z</time>
      </trkpt>
      <trkpt lat="44.40658" lon="4.85227">
        <ele>191.62</ele>
        <time>2014-09-12T10:50:34Z</time>
      </trkpt>
      <trkpt lat="44.40658" lon="4.85231">
        <ele>191.62</ele>
        <time>2014-09-12T10:50:35Z</time>
      </trkpt>
      <trkpt lat="44.40658" lon="4.85236">
        <ele>191.62</ele>
        <time>2014-09-12T10:50:36Z</time>
      </trkpt>
      <trkpt lat="44.40658" lon="4.85241">
        <ele>191.62</ele>
        <time>2014-09-12T10:50:37Z</time>
      </trkpt>
      <trkpt lat="44.40658" lon="4.85275">
        <ele>191.62</ele>
        <time>2014-09-12T10:50:44Z</time>
      </trkpt>
      <trkpt lat="44.40658" lon="4.85276">
        <ele>191.62</ele>
        <time>2014-09-12T10:50:45Z</time>
      </trkpt>
      <trkpt lat="44.40659" lon="4.85284">
        <ele>191.62</ele>
        <time>2014-09-12T10:50:48Z</time>
      </trkpt>
      <trkpt lat="44.40659" lon="4.85291">
        <ele>191.62</ele>
        <time>2014-09-12T10:50:50Z</time>
      </trkpt>
      <trkpt lat="44.40659" lon="4.85296">
        <ele>191.62</ele>
        <time>2014-09-12T10:50:51Z</time>
      </trkpt>
      <trkpt lat="44.4066" lon="4.853">
        <ele>191.62</ele>
        <time>2014-09-12T10:50:52Z</time>
      </trkpt>
      <trkpt lat="44.40659" lon="4.85304">
        <ele>191.62</ele>
        <time>2014-09-12T10:50:53Z</time>
      </trkpt>
      <trkpt lat="44.40659" lon="4.85309">
        <ele>191.62</ele>
        <time>2014-09-12T10:50:54Z</time>
      </trkpt>
      <trkpt lat="44.4066" lon="4.85313">
        <ele>191.62</ele>
        <time>2014-09-12T10:50:55Z</time>
      </trkpt>
      <trkpt lat="44.4066" lon="4.85317">
        <ele>191.62</ele>
        <time>2014-09-12T10:50:56Z</time>
      </trkpt>
      <trkpt lat="44.4066" lon="4.85322">
        <ele>191.62</ele>
        <time>2014-09-12T10:50:57Z</time>
      </trkpt>
      <trkpt lat="44.4066" lon="4.85333">
        <ele>191.62</ele>
        <time>2014-09-12T10:50:59Z</time>
      </trkpt>
      <trkpt lat="44.40661" lon="4.85351">
        <ele>191.62</ele>
        <time>2014-09-12T10:51:02Z</time>
      </trkpt>
      <trkpt lat="44.40661" lon="4.85357">
        <ele>191.62</ele>
        <time>2014-09-12T10:51:03Z</time>
      </trkpt>
      <trkpt lat="44.40661" lon="4.85363">
        <ele>191.62</ele>
        <time>2014-09-12T10:51:04Z</time>
      </trkpt>
      <trkpt lat="44.40662" lon="4.8543">
        <ele>191.62</ele>
        <time>2014-09-12T10:51:14Z</time>
      </trkpt>
      <trkpt lat="44.40662" lon="4.85437">
        <ele>191.62</ele>
        <time>2014-09-12T10:51:15Z</time>
      </trkpt>
      <trkpt lat="44.40663" lon="4.85459">
        <ele>191.62</ele>
        <time>2014-09-12T10:51:18Z</time>
      </trkpt>
      <trkpt lat="44.40666" lon="4.85568">
        <ele>191.62</ele>
        <time>2014-09-12T10:51:35Z</time>
      </trkpt>
      <trkpt lat="44.40666" lon="4.85574">
        <ele>191.62</ele>
        <time>2014-09-12T10:51:36Z</time>
      </trkpt>
      <trkpt lat="44.40666" lon="4.85629">
        <ele>191.62</ele>
        <time>2014-09-12T10:51:46Z</time>
      </trkpt>
      <trkpt lat="44.40666" lon="4.85636">
        <ele>191.62</ele>
        <time>2014-09-12T10:51:47Z</time>
      </trkpt>
      <trkpt lat="44.40666" lon="4.85643">
        <ele>191.62</ele>
        <time>2014-09-12T10:51:48Z</time>
      </trkpt>
      <trkpt lat="44.40666" lon="4.8565">
        <ele>191.62</ele>
        <time>2014-09-12T10:51:49Z</time>
      </trkpt>
      <trkpt lat="44.40666" lon="4.85658">
        <ele>191.62</ele>
        <time>2014-09-12T10:51:50Z</time>
      </trkpt>
      <trkpt lat="44.40666" lon="4.85674">
        <ele>191.62</ele>
        <time>2014-09-12T10:51:52Z</time>
      </trkpt>
      <trkpt lat="44.40666" lon="4.85683">
        <ele>191.62</ele>
        <time>2014-09-12T10:51:53Z</time>
      </trkpt>
      <trkpt lat="44.40665" lon="4.85691">
        <ele>191.62</ele>
        <time>2014-09-12T10:51:54Z</time>
      </trkpt>
      <trkpt lat="44.40665" lon="4.8572">
        <ele>191.62</ele>
        <time>2014-09-12T10:51:57Z</time>
      </trkpt>
      <trkpt lat="44.40666" lon="4.8573">
        <ele>191.62</ele>
        <time>2014-09-12T10:51:58Z</time>
      </trkpt>
      <trkpt lat="44.40667" lon="4.85888">
        <ele>191.62</ele>
        <time>2014-09-12T10:52:13Z</time>
      </trkpt>
      <trkpt lat="44.40667" lon="4.85947">
        <ele>191.62</ele>
        <time>2014-09-12T10:52:18Z</time>
      </trkpt>
      <trkpt lat="44.40667" lon="4.85959">
        <ele>191.62</ele>
        <time>2014-09-12T10:52:19Z</time>
      </trkpt>
      <trkpt lat="44.40668" lon="4.86088">
        <ele>191.62</ele>
        <time>2014-09-12T10:52:29Z</time>
      </trkpt>
      <trkpt lat="44.40668" lon="4.86102">
        <ele>191.62</ele>
        <time>2014-09-12T10:52:30Z</time>
      </trkpt>
      <trkpt lat="44.40669" lon="4.86226">
        <ele>191.62</ele>
        <time>2014-09-12T10:52:39Z</time>
      </trkpt>
      <trkpt lat="44.40676" lon="4.86341">
        <ele>191.62</ele>
        <time>2014-09-12T10:52:50Z</time>
      </trkpt>
      <trkpt lat="44.40679" lon="4.86355">
        <ele>191.62</ele>
        <time>2014-09-12T10:52:52Z</time>
      </trkpt>
      <trkpt lat="44.40681" lon="4.86363">
        <ele>191.63</ele>
        <time>2014-09-12T10:52:53Z</time>
      </trkpt>
      <trkpt lat="44.40689" lon="4.86386">
        <ele>191.63</ele>
        <time>2014-09-12T10:52:56Z</time>
      </trkpt>
      <trkpt lat="44.40702" lon="4.86434">
        <ele>191.63</ele>
        <time>2014-09-12T10:53:01Z</time>
      </trkpt>
      <trkpt lat="44.40705" lon="4.86444">
        <ele>191.63</ele>
        <time>2014-09-12T10:53:02Z</time>
      </trkpt>
      <trkpt lat="44.40707" lon="4.86454">
        <ele>191.63</ele>
        <time>2014-09-12T10:53:03Z</time>
      </trkpt>
      <trkpt lat="44.40747" lon="4.86615">
        <ele>191.63</ele>
        <time>2014-09-12T10:53:20Z</time>
      </trkpt>
      <trkpt lat="44.40752" lon="4.86634">
        <ele>191.63</ele>
        <time>2014-09-12T10:53:22Z</time>
      </trkpt>
      <trkpt lat="44.40805" lon="4.86772">
        <ele>191.63</ele>
        <time>2014-09-12T10:53:37Z</time>
      </trkpt>
      <trkpt lat="44.4086" lon="4.86907">
        <ele>191.63</ele>
        <time>2014-09-12T10:53:52Z</time>
      </trkpt>
      <trkpt lat="44.40864" lon="4.86916">
        <ele>191.63</ele>
        <time>2014-09-12T10:53:53Z</time>
      </trkpt>
      <trkpt lat="44.40873" lon="4.86934">
        <ele>191.63</ele>
        <time>2014-09-12T10:53:55Z</time>
      </trkpt>
      <trkpt lat="44.40932" lon="4.87073">
        <ele>191.63</ele>
        <time>2014-09-12T10:54:11Z</time>
      </trkpt>
      <trkpt lat="44.40981" lon="4.8719">
        <ele>191.63</ele>
        <time>2014-09-12T10:54:25Z</time>
      </trkpt>
      <trkpt lat="44.40985" lon="4.87198">
        <ele>191.63</ele>
        <time>2014-09-12T10:54:26Z</time>
      </trkpt>
      <trkpt lat="44.40989" lon="4.87207">
        <ele>191.63</ele>
        <time>2014-09-12T10:54:27Z</time>
      </trkpt>
      <trkpt lat="44.41048" lon="4.87339">
        <ele>191.63</ele>
        <time>2014-09-12T10:54:43Z</time>
      </trkpt>
      <trkpt lat="44.41065" lon="4.87379">
        <ele>191.63</ele>
        <time>2014-09-12T10:54:48Z</time>
      </trkpt>
      <trkpt lat="44.41069" lon="4.87387">
        <ele>191.63</ele>
        <time>2014-09-12T10:54:49Z</time>
      </trkpt>
      <trkpt lat="44.41073" lon="4.87395">
        <ele>191.63</ele>
        <time>2014-09-12T10:54:50Z</time>
      </trkpt>
      <trkpt lat="44.41101" lon="4.87459">
        <ele>191.63</ele>
        <time>2014-09-12T10:54:58Z</time>
      </trkpt>
      <trkpt lat="44.41154" lon="4.87583">
        <ele>191.63</ele>
        <time>2014-09-12T10:55:14Z</time>
      </trkpt>
      <trkpt lat="44.41174" lon="4.8763">
        <ele>191.63</ele>
        <time>2014-09-12T10:55:20Z</time>
      </trkpt>
      <trkpt lat="44.41177" lon="4.87638">
        <ele>191.63</ele>
        <time>2014-09-12T10:55:21Z</time>
      </trkpt>
      <trkpt lat="44.41209" lon="4.87711">
        <ele>191.63</ele>
        <time>2014-09-12T10:55:30Z</time>
      </trkpt>
      <trkpt lat="44.41213" lon="4.8772">
        <ele>191.63</ele>
        <time>2014-09-12T10:55:31Z</time>
      </trkpt>
      <trkpt lat="44.41258" lon="4.87828">
        <ele>191.63</ele>
        <time>2014-09-12T10:55:44Z</time>
      </trkpt>
      <trkpt lat="44.41261" lon="4.87837">
        <ele>191.63</ele>
        <time>2014-09-12T10:55:45Z</time>
      </trkpt>
      <trkpt lat="44.41263" lon="4.87846">
        <ele>191.63</ele>
        <time>2014-09-12T10:55:46Z</time>
      </trkpt>
      <trkpt lat="44.41264" lon="4.87855">
        <ele>191.63</ele>
        <time>2014-09-12T10:55:47Z</time>
      </trkpt>
      <trkpt lat="44.41265" lon="4.87864">
        <ele>191.63</ele>
        <time>2014-09-12T10:55:48Z</time>
      </trkpt>
      <trkpt lat="44.4126" lon="4.88019">
        <ele>191.63</ele>
        <time>2014-09-12T10:56:04Z</time>
      </trkpt>
      <trkpt lat="44.41254" lon="4.88114">
        <ele>191.63</ele>
        <time>2014-09-12T10:56:13Z</time>
      </trkpt>
      <trkpt lat="44.41253" lon="4.88123">
        <ele>191.63</ele>
        <time>2014-09-12T10:56:14Z</time>
      </trkpt>
      <trkpt lat="44.41244" lon="4.88262">
        <ele>191.63</ele>
        <time>2014-09-12T10:56:30Z</time>
      </trkpt>
      <trkpt lat="44.41234" lon="4.88415">
        <ele>191.64</ele>
        <time>2014-09-12T10:56:48Z</time>
      </trkpt>
      <trkpt lat="44.4123" lon="4.88479">
        <ele>191.64</ele>
        <time>2014-09-12T10:56:55Z</time>
      </trkpt>
      <trkpt lat="44.41229" lon="4.88497">
        <ele>191.64</ele>
        <time>2014-09-12T10:56:57Z</time>
      </trkpt>
      <trkpt lat="44.41218" lon="4.88658">
        <ele>191.64</ele>
        <time>2014-09-12T10:57:14Z</time>
      </trkpt>
      <trkpt lat="44.41224" lon="4.8876">
        <ele>191.64</ele>
        <time>2014-09-12T10:57:27Z</time>
      </trkpt>
      <trkpt lat="44.41226" lon="4.88783">
        <ele>191.64</ele>
        <time>2014-09-12T10:57:31Z</time>
      </trkpt>
      <trkpt lat="44.41207" lon="4.88834">
        <ele>191.64</ele>
        <time>2014-09-12T10:57:43Z</time>
      </trkpt>
      <trkpt lat="44.41199" lon="4.88879">
        <ele>191.64</ele>
        <time>2014-09-12T10:57:53Z</time>
      </trkpt>
      <trkpt lat="44.41209" lon="4.88946">
        <ele>191.64</ele>
        <time>2014-09-12T10:58:09Z</time>
      </trkpt>
      <trkpt lat="44.412" lon="4.89021">
        <ele>191.64</ele>
        <time>2014-09-12T10:58:24Z</time>
      </trkpt>
      <trkpt lat="44.41198" lon="4.89027">
        <ele>191.64</ele>
        <time>2014-09-12T10:58:25Z</time>
      </trkpt>
      <trkpt lat="44.41196" lon="4.89032">
        <ele>191.64</ele>
        <time>2014-09-12T10:58:26Z</time>
      </trkpt>
      <trkpt lat="44.41195" lon="4.89037">
        <ele>191.64</ele>
        <time>2014-09-12T10:58:27Z</time>
      </trkpt>
      <trkpt lat="44.41187" lon="4.89062">
        <ele>191.64</ele>
        <time>2014-09-12T10:58:31Z</time>
      </trkpt>
      <trkpt lat="44.41185" lon="4.89068">
        <ele>191.64</ele>
        <time>2014-09-12T10:58:32Z</time>
      </trkpt>
      <trkpt lat="44.41163" lon="4.89106">
        <ele>191.64</ele>
        <time>2014-09-12T10:58:41Z</time>
      </trkpt>
      <trkpt lat="44.41156" lon="4.8911">
        <ele>191.64</ele>
        <time>2014-09-12T10:58:43Z</time>
      </trkpt>
      <trkpt lat="44.41144" lon="4.89114">
        <ele>191.64</ele>
        <time>2014-09-12T10:58:48Z</time>
      </trkpt>
      <trkpt lat="44.41104" lon="4.89103">
        <ele>191.64</ele>
        <time>2014-09-12T10:59:00Z</time>
      </trkpt>
      <trkpt lat="44.41096" lon="4.89104">
        <ele>191.64</ele>
        <time>2014-09-12T10:59:02Z</time>
      </trkpt>
      <trkpt lat="44.41079" lon="4.89103">
        <ele>191.64</ele>
        <time>2014-09-12T10:59:07Z</time>
      </trkpt>
      <trkpt lat="44.41057" lon="4.89111">
        <ele>191.64</ele>
        <time>2014-09-12T10:59:13Z</time>
      </trkpt>
      <trkpt lat="44.41035" lon="4.89119">
        <ele>191.64</ele>
        <time>2014-09-12T10:59:20Z</time>
      </trkpt>
      <trkpt lat="44.41028" lon="4.89117">
        <ele>191.64</ele>
        <time>2014-09-12T10:59:33Z</time>
      </trkpt>
    </trkseg>
  </trk>
</gpx>